<?xml version="1.0" encoding="UTF-8" standalone="no" ?>
<gpx xmlns="http://www.topografix.com/GPX/1/1" xmlns:xsi="http://www.w3.org/2001/XMLSchema-instance" xsi:schemaLocation="http://www.topografix.com/GPX/1/1 http://www.topografix.com/GPX/1/1/gpx.xsd" version="1.1" creator="VisuGPX - https://www.visugpx.com">
  <metadata>
    <name>sortie vtt du 04 09 2011</name>
    <desc><![CDATA[sortie vtt du dimanche 04 09 2011]]></desc>
  </metadata>
  <trk>
    <name><![CDATA[Vtt Coco Stef]]></name>
    <desc><![CDATA[]]></desc>
    <trkseg>
      <trkpt lat="48.41513" lon="-4.4455">
        <ele>103.7</ele>
        <time>2011-09-04T07:38:51Z</time>
      </trkpt>
      <trkpt lat="48.41534" lon="-4.44571">
        <ele>99.6</ele>
        <time>2011-09-04T07:41:46Z</time>
      </trkpt>
      <trkpt lat="48.4153" lon="-4.44567">
        <ele>100</ele>
        <time>2011-09-04T07:41:52Z</time>
      </trkpt>
      <trkpt lat="48.41527" lon="-4.4456">
        <ele>101.9</ele>
        <time>2011-09-04T07:42:27Z</time>
      </trkpt>
      <trkpt lat="48.41524" lon="-4.44554">
        <ele>102.7</ele>
        <time>2011-09-04T07:42:31Z</time>
      </trkpt>
      <trkpt lat="48.41517" lon="-4.44554">
        <ele>100.9</ele>
        <time>2011-09-04T07:42:32Z</time>
      </trkpt>
      <trkpt lat="48.4151" lon="-4.44556">
        <ele>102.6</ele>
        <time>2011-09-04T07:42:34Z</time>
      </trkpt>
      <trkpt lat="48.41504" lon="-4.4456">
        <ele>104.3</ele>
        <time>2011-09-04T07:42:36Z</time>
      </trkpt>
      <trkpt lat="48.415" lon="-4.44567">
        <ele>104.3</ele>
        <time>2011-09-04T07:42:38Z</time>
      </trkpt>
      <trkpt lat="48.41498" lon="-4.44574">
        <ele>107.3</ele>
        <time>2011-09-04T07:42:40Z</time>
      </trkpt>
      <trkpt lat="48.41494" lon="-4.44581">
        <ele>106.8</ele>
        <time>2011-09-04T07:42:42Z</time>
      </trkpt>
      <trkpt lat="48.41492" lon="-4.44588">
        <ele>106.9</ele>
        <time>2011-09-04T07:42:44Z</time>
      </trkpt>
      <trkpt lat="48.41488" lon="-4.44596">
        <ele>106.5</ele>
        <time>2011-09-04T07:42:46Z</time>
      </trkpt>
      <trkpt lat="48.41485" lon="-4.44603">
        <ele>107</ele>
        <time>2011-09-04T07:42:48Z</time>
      </trkpt>
      <trkpt lat="48.41482" lon="-4.4461">
        <ele>107</ele>
        <time>2011-09-04T07:42:50Z</time>
      </trkpt>
      <trkpt lat="48.4148" lon="-4.44617">
        <ele>106.9</ele>
        <time>2011-09-04T07:42:52Z</time>
      </trkpt>
      <trkpt lat="48.41482" lon="-4.44626">
        <ele>106.7</ele>
        <time>2011-09-04T07:42:54Z</time>
      </trkpt>
      <trkpt lat="48.41484" lon="-4.44633">
        <ele>106.8</ele>
        <time>2011-09-04T07:42:56Z</time>
      </trkpt>
      <trkpt lat="48.41488" lon="-4.4464">
        <ele>107.6</ele>
        <time>2011-09-04T07:42:58Z</time>
      </trkpt>
      <trkpt lat="48.41493" lon="-4.44646">
        <ele>108.5</ele>
        <time>2011-09-04T07:43:00Z</time>
      </trkpt>
      <trkpt lat="48.41498" lon="-4.44653">
        <ele>108.7</ele>
        <time>2011-09-04T07:43:02Z</time>
      </trkpt>
      <trkpt lat="48.41502" lon="-4.44658">
        <ele>109.9</ele>
        <time>2011-09-04T07:43:04Z</time>
      </trkpt>
      <trkpt lat="48.41506" lon="-4.44663">
        <ele>110.8</ele>
        <time>2011-09-04T07:43:06Z</time>
      </trkpt>
      <trkpt lat="48.41511" lon="-4.44669">
        <ele>111.5</ele>
        <time>2011-09-04T07:43:08Z</time>
      </trkpt>
      <trkpt lat="48.41515" lon="-4.44675">
        <ele>111.8</ele>
        <time>2011-09-04T07:43:10Z</time>
      </trkpt>
      <trkpt lat="48.41519" lon="-4.4468">
        <ele>112.7</ele>
        <time>2011-09-04T07:43:12Z</time>
      </trkpt>
      <trkpt lat="48.41523" lon="-4.44685">
        <ele>113.3</ele>
        <time>2011-09-04T07:43:14Z</time>
      </trkpt>
      <trkpt lat="48.41528" lon="-4.44691">
        <ele>113.3</ele>
        <time>2011-09-04T07:43:16Z</time>
      </trkpt>
      <trkpt lat="48.41532" lon="-4.44697">
        <ele>112.7</ele>
        <time>2011-09-04T07:43:18Z</time>
      </trkpt>
      <trkpt lat="48.41536" lon="-4.44702">
        <ele>113.3</ele>
        <time>2011-09-04T07:43:20Z</time>
      </trkpt>
      <trkpt lat="48.4154" lon="-4.44708">
        <ele>113.5</ele>
        <time>2011-09-04T07:43:22Z</time>
      </trkpt>
      <trkpt lat="48.41544" lon="-4.44714">
        <ele>113.2</ele>
        <time>2011-09-04T07:43:24Z</time>
      </trkpt>
      <trkpt lat="48.41546" lon="-4.44722">
        <ele>113.6</ele>
        <time>2011-09-04T07:43:26Z</time>
      </trkpt>
      <trkpt lat="48.41547" lon="-4.44731">
        <ele>113.8</ele>
        <time>2011-09-04T07:43:28Z</time>
      </trkpt>
      <trkpt lat="48.41546" lon="-4.44739">
        <ele>114.2</ele>
        <time>2011-09-04T07:43:30Z</time>
      </trkpt>
      <trkpt lat="48.41544" lon="-4.44747">
        <ele>114.2</ele>
        <time>2011-09-04T07:43:32Z</time>
      </trkpt>
      <trkpt lat="48.41543" lon="-4.44756">
        <ele>114.2</ele>
        <time>2011-09-04T07:43:34Z</time>
      </trkpt>
      <trkpt lat="48.41544" lon="-4.44765">
        <ele>114.2</ele>
        <time>2011-09-04T07:43:36Z</time>
      </trkpt>
      <trkpt lat="48.41547" lon="-4.44772">
        <ele>115.2</ele>
        <time>2011-09-04T07:43:38Z</time>
      </trkpt>
      <trkpt lat="48.41552" lon="-4.44776">
        <ele>116.1</ele>
        <time>2011-09-04T07:43:40Z</time>
      </trkpt>
      <trkpt lat="48.41558" lon="-4.44779">
        <ele>116.2</ele>
        <time>2011-09-04T07:43:42Z</time>
      </trkpt>
      <trkpt lat="48.41564" lon="-4.4478">
        <ele>116.6</ele>
        <time>2011-09-04T07:43:44Z</time>
      </trkpt>
      <trkpt lat="48.41569" lon="-4.44781">
        <ele>115.2</ele>
        <time>2011-09-04T07:43:46Z</time>
      </trkpt>
      <trkpt lat="48.41574" lon="-4.44784">
        <ele>115.1</ele>
        <time>2011-09-04T07:43:48Z</time>
      </trkpt>
      <trkpt lat="48.4158" lon="-4.44785">
        <ele>114.4</ele>
        <time>2011-09-04T07:43:50Z</time>
      </trkpt>
      <trkpt lat="48.41585" lon="-4.44787">
        <ele>114.6</ele>
        <time>2011-09-04T07:43:52Z</time>
      </trkpt>
      <trkpt lat="48.41588" lon="-4.44794">
        <ele>114.5</ele>
        <time>2011-09-04T07:43:54Z</time>
      </trkpt>
      <trkpt lat="48.4159" lon="-4.44802">
        <ele>114.4</ele>
        <time>2011-09-04T07:43:56Z</time>
      </trkpt>
      <trkpt lat="48.41592" lon="-4.44812">
        <ele>115.8</ele>
        <time>2011-09-04T07:43:59Z</time>
      </trkpt>
      <trkpt lat="48.41594" lon="-4.44819">
        <ele>115.6</ele>
        <time>2011-09-04T07:44:01Z</time>
      </trkpt>
      <trkpt lat="48.41595" lon="-4.44826">
        <ele>117.8</ele>
        <time>2011-09-04T07:44:03Z</time>
      </trkpt>
      <trkpt lat="48.41596" lon="-4.44834">
        <ele>116.9</ele>
        <time>2011-09-04T07:44:05Z</time>
      </trkpt>
      <trkpt lat="48.41596" lon="-4.44844">
        <ele>115.9</ele>
        <time>2011-09-04T07:44:08Z</time>
      </trkpt>
      <trkpt lat="48.41596" lon="-4.44851">
        <ele>117.6</ele>
        <time>2011-09-04T07:44:10Z</time>
      </trkpt>
      <trkpt lat="48.41596" lon="-4.4486">
        <ele>118.2</ele>
        <time>2011-09-04T07:44:13Z</time>
      </trkpt>
      <trkpt lat="48.41597" lon="-4.44867">
        <ele>117.5</ele>
        <time>2011-09-04T07:44:15Z</time>
      </trkpt>
      <trkpt lat="48.41598" lon="-4.44874">
        <ele>118.1</ele>
        <time>2011-09-04T07:44:17Z</time>
      </trkpt>
      <trkpt lat="48.41599" lon="-4.44883">
        <ele>119.2</ele>
        <time>2011-09-04T07:44:19Z</time>
      </trkpt>
      <trkpt lat="48.41599" lon="-4.44891">
        <ele>117.9</ele>
        <time>2011-09-04T07:44:22Z</time>
      </trkpt>
      <trkpt lat="48.416" lon="-4.449">
        <ele>118.3</ele>
        <time>2011-09-04T07:44:25Z</time>
      </trkpt>
      <trkpt lat="48.41602" lon="-4.44907">
        <ele>117.8</ele>
        <time>2011-09-04T07:44:28Z</time>
      </trkpt>
      <trkpt lat="48.41602" lon="-4.44917">
        <ele>117.7</ele>
        <time>2011-09-04T07:44:30Z</time>
      </trkpt>
      <trkpt lat="48.41602" lon="-4.44923">
        <ele>118.1</ele>
        <time>2011-09-04T07:44:32Z</time>
      </trkpt>
      <trkpt lat="48.41601" lon="-4.44932">
        <ele>119.4</ele>
        <time>2011-09-04T07:44:33Z</time>
      </trkpt>
      <trkpt lat="48.416" lon="-4.44941">
        <ele>120</ele>
        <time>2011-09-04T07:44:35Z</time>
      </trkpt>
      <trkpt lat="48.41599" lon="-4.44951">
        <ele>117.9</ele>
        <time>2011-09-04T07:44:38Z</time>
      </trkpt>
      <trkpt lat="48.416" lon="-4.44958">
        <ele>117.4</ele>
        <time>2011-09-04T07:44:40Z</time>
      </trkpt>
      <trkpt lat="48.41602" lon="-4.44965">
        <ele>118.3</ele>
        <time>2011-09-04T07:44:41Z</time>
      </trkpt>
      <trkpt lat="48.41601" lon="-4.44975">
        <ele>118.7</ele>
        <time>2011-09-04T07:44:43Z</time>
      </trkpt>
      <trkpt lat="48.41599" lon="-4.44983">
        <ele>118.1</ele>
        <time>2011-09-04T07:44:45Z</time>
      </trkpt>
      <trkpt lat="48.41596" lon="-4.44992">
        <ele>119.7</ele>
        <time>2011-09-04T07:44:47Z</time>
      </trkpt>
      <trkpt lat="48.41593" lon="-4.45002">
        <ele>119.1</ele>
        <time>2011-09-04T07:44:49Z</time>
      </trkpt>
      <trkpt lat="48.4159" lon="-4.45014">
        <ele>118.6</ele>
        <time>2011-09-04T07:44:51Z</time>
      </trkpt>
      <trkpt lat="48.41588" lon="-4.45024">
        <ele>117.9</ele>
        <time>2011-09-04T07:44:53Z</time>
      </trkpt>
      <trkpt lat="48.41586" lon="-4.4503">
        <ele>117.5</ele>
        <time>2011-09-04T07:44:54Z</time>
      </trkpt>
      <trkpt lat="48.41584" lon="-4.45042">
        <ele>117.9</ele>
        <time>2011-09-04T07:44:56Z</time>
      </trkpt>
      <trkpt lat="48.41581" lon="-4.45052">
        <ele>118.1</ele>
        <time>2011-09-04T07:44:58Z</time>
      </trkpt>
      <trkpt lat="48.41577" lon="-4.45063">
        <ele>118.3</ele>
        <time>2011-09-04T07:45:00Z</time>
      </trkpt>
      <trkpt lat="48.41574" lon="-4.45076">
        <ele>119.5</ele>
        <time>2011-09-04T07:45:02Z</time>
      </trkpt>
      <trkpt lat="48.41572" lon="-4.45086">
        <ele>119.2</ele>
        <time>2011-09-04T07:45:04Z</time>
      </trkpt>
      <trkpt lat="48.41575" lon="-4.451">
        <ele>117.7</ele>
        <time>2011-09-04T07:45:06Z</time>
      </trkpt>
      <trkpt lat="48.41578" lon="-4.45108">
        <ele>117.3</ele>
        <time>2011-09-04T07:45:07Z</time>
      </trkpt>
      <trkpt lat="48.41579" lon="-4.45115">
        <ele>118.5</ele>
        <time>2011-09-04T07:45:08Z</time>
      </trkpt>
      <trkpt lat="48.41582" lon="-4.45123">
        <ele>117.9</ele>
        <time>2011-09-04T07:45:09Z</time>
      </trkpt>
      <trkpt lat="48.41586" lon="-4.45124">
        <ele>118</ele>
        <time>2011-09-04T07:45:10Z</time>
      </trkpt>
      <trkpt lat="48.41595" lon="-4.45126">
        <ele>117.6</ele>
        <time>2011-09-04T07:45:12Z</time>
      </trkpt>
      <trkpt lat="48.41603" lon="-4.45125">
        <ele>116.9</ele>
        <time>2011-09-04T07:45:14Z</time>
      </trkpt>
      <trkpt lat="48.4161" lon="-4.45124">
        <ele>117</ele>
        <time>2011-09-04T07:45:16Z</time>
      </trkpt>
      <trkpt lat="48.41616" lon="-4.45123">
        <ele>117.9</ele>
        <time>2011-09-04T07:45:18Z</time>
      </trkpt>
      <trkpt lat="48.41622" lon="-4.45124">
        <ele>118.3</ele>
        <time>2011-09-04T07:45:20Z</time>
      </trkpt>
      <trkpt lat="48.4163" lon="-4.45129">
        <ele>116.9</ele>
        <time>2011-09-04T07:45:22Z</time>
      </trkpt>
      <trkpt lat="48.41636" lon="-4.45132">
        <ele>116.6</ele>
        <time>2011-09-04T07:45:24Z</time>
      </trkpt>
      <trkpt lat="48.41641" lon="-4.45134">
        <ele>116.7</ele>
        <time>2011-09-04T07:45:26Z</time>
      </trkpt>
      <trkpt lat="48.41646" lon="-4.45137">
        <ele>118.1</ele>
        <time>2011-09-04T07:45:28Z</time>
      </trkpt>
      <trkpt lat="48.41651" lon="-4.45141">
        <ele>118.6</ele>
        <time>2011-09-04T07:45:30Z</time>
      </trkpt>
      <trkpt lat="48.41657" lon="-4.45144">
        <ele>119.3</ele>
        <time>2011-09-04T07:45:32Z</time>
      </trkpt>
      <trkpt lat="48.41662" lon="-4.45148">
        <ele>119.9</ele>
        <time>2011-09-04T07:45:34Z</time>
      </trkpt>
      <trkpt lat="48.41669" lon="-4.4515">
        <ele>119.6</ele>
        <time>2011-09-04T07:45:37Z</time>
      </trkpt>
      <trkpt lat="48.41674" lon="-4.45151">
        <ele>120.3</ele>
        <time>2011-09-04T07:45:39Z</time>
      </trkpt>
      <trkpt lat="48.4168" lon="-4.45152">
        <ele>122.2</ele>
        <time>2011-09-04T07:45:41Z</time>
      </trkpt>
      <trkpt lat="48.41685" lon="-4.45154">
        <ele>123.7</ele>
        <time>2011-09-04T07:45:43Z</time>
      </trkpt>
      <trkpt lat="48.41691" lon="-4.45154">
        <ele>123.9</ele>
        <time>2011-09-04T07:45:45Z</time>
      </trkpt>
      <trkpt lat="48.41698" lon="-4.45152">
        <ele>123.7</ele>
        <time>2011-09-04T07:45:47Z</time>
      </trkpt>
      <trkpt lat="48.41704" lon="-4.45148">
        <ele>124.8</ele>
        <time>2011-09-04T07:45:49Z</time>
      </trkpt>
      <trkpt lat="48.41709" lon="-4.45145">
        <ele>125.5</ele>
        <time>2011-09-04T07:45:51Z</time>
      </trkpt>
      <trkpt lat="48.41714" lon="-4.45142">
        <ele>126.3</ele>
        <time>2011-09-04T07:45:53Z</time>
      </trkpt>
      <trkpt lat="48.4172" lon="-4.4514">
        <ele>127.4</ele>
        <time>2011-09-04T07:45:55Z</time>
      </trkpt>
      <trkpt lat="48.41725" lon="-4.45139">
        <ele>127.8</ele>
        <time>2011-09-04T07:45:57Z</time>
      </trkpt>
      <trkpt lat="48.41732" lon="-4.45138">
        <ele>127.4</ele>
        <time>2011-09-04T07:45:59Z</time>
      </trkpt>
      <trkpt lat="48.41738" lon="-4.45136">
        <ele>127.3</ele>
        <time>2011-09-04T07:46:01Z</time>
      </trkpt>
      <trkpt lat="48.41744" lon="-4.45135">
        <ele>127.4</ele>
        <time>2011-09-04T07:46:03Z</time>
      </trkpt>
      <trkpt lat="48.41751" lon="-4.45135">
        <ele>127.3</ele>
        <time>2011-09-04T07:46:05Z</time>
      </trkpt>
      <trkpt lat="48.41759" lon="-4.45135">
        <ele>126.4</ele>
        <time>2011-09-04T07:46:07Z</time>
      </trkpt>
      <trkpt lat="48.41766" lon="-4.45136">
        <ele>126</ele>
        <time>2011-09-04T07:46:09Z</time>
      </trkpt>
      <trkpt lat="48.41772" lon="-4.45138">
        <ele>126.2</ele>
        <time>2011-09-04T07:46:11Z</time>
      </trkpt>
      <trkpt lat="48.4178" lon="-4.4514">
        <ele>125.9</ele>
        <time>2011-09-04T07:46:13Z</time>
      </trkpt>
      <trkpt lat="48.41788" lon="-4.45143">
        <ele>125.6</ele>
        <time>2011-09-04T07:46:15Z</time>
      </trkpt>
      <trkpt lat="48.41796" lon="-4.45146">
        <ele>125.3</ele>
        <time>2011-09-04T07:46:17Z</time>
      </trkpt>
      <trkpt lat="48.41802" lon="-4.45151">
        <ele>126.1</ele>
        <time>2011-09-04T07:46:19Z</time>
      </trkpt>
      <trkpt lat="48.4181" lon="-4.45156">
        <ele>126.4</ele>
        <time>2011-09-04T07:46:21Z</time>
      </trkpt>
      <trkpt lat="48.41817" lon="-4.4516">
        <ele>126.5</ele>
        <time>2011-09-04T07:46:23Z</time>
      </trkpt>
      <trkpt lat="48.41824" lon="-4.45165">
        <ele>125.8</ele>
        <time>2011-09-04T07:46:25Z</time>
      </trkpt>
      <trkpt lat="48.4183" lon="-4.45171">
        <ele>125.9</ele>
        <time>2011-09-04T07:46:27Z</time>
      </trkpt>
      <trkpt lat="48.41838" lon="-4.45177">
        <ele>126</ele>
        <time>2011-09-04T07:46:29Z</time>
      </trkpt>
      <trkpt lat="48.41844" lon="-4.45184">
        <ele>126.5</ele>
        <time>2011-09-04T07:46:31Z</time>
      </trkpt>
      <trkpt lat="48.41851" lon="-4.45191">
        <ele>126.1</ele>
        <time>2011-09-04T07:46:33Z</time>
      </trkpt>
      <trkpt lat="48.41858" lon="-4.45199">
        <ele>126</ele>
        <time>2011-09-04T07:46:35Z</time>
      </trkpt>
      <trkpt lat="48.41864" lon="-4.45206">
        <ele>125.8</ele>
        <time>2011-09-04T07:46:37Z</time>
      </trkpt>
      <trkpt lat="48.41868" lon="-4.4521">
        <ele>125.7</ele>
        <time>2011-09-04T07:46:38Z</time>
      </trkpt>
      <trkpt lat="48.41875" lon="-4.45217">
        <ele>125.8</ele>
        <time>2011-09-04T07:46:40Z</time>
      </trkpt>
      <trkpt lat="48.41882" lon="-4.45224">
        <ele>125.9</ele>
        <time>2011-09-04T07:46:42Z</time>
      </trkpt>
      <trkpt lat="48.41889" lon="-4.45231">
        <ele>127</ele>
        <time>2011-09-04T07:46:44Z</time>
      </trkpt>
      <trkpt lat="48.41896" lon="-4.45239">
        <ele>128.2</ele>
        <time>2011-09-04T07:46:46Z</time>
      </trkpt>
      <trkpt lat="48.41903" lon="-4.45244">
        <ele>128.5</ele>
        <time>2011-09-04T07:46:48Z</time>
      </trkpt>
      <trkpt lat="48.4191" lon="-4.45248">
        <ele>128.2</ele>
        <time>2011-09-04T07:46:50Z</time>
      </trkpt>
      <trkpt lat="48.41917" lon="-4.45251">
        <ele>127.9</ele>
        <time>2011-09-04T07:46:52Z</time>
      </trkpt>
      <trkpt lat="48.41925" lon="-4.45252">
        <ele>127.6</ele>
        <time>2011-09-04T07:46:54Z</time>
      </trkpt>
      <trkpt lat="48.41932" lon="-4.45252">
        <ele>127.1</ele>
        <time>2011-09-04T07:46:56Z</time>
      </trkpt>
      <trkpt lat="48.4194" lon="-4.45252">
        <ele>127</ele>
        <time>2011-09-04T07:46:58Z</time>
      </trkpt>
      <trkpt lat="48.41947" lon="-4.45253">
        <ele>126.9</ele>
        <time>2011-09-04T07:47:00Z</time>
      </trkpt>
      <trkpt lat="48.41954" lon="-4.45256">
        <ele>127</ele>
        <time>2011-09-04T07:47:02Z</time>
      </trkpt>
      <trkpt lat="48.41961" lon="-4.4526">
        <ele>127</ele>
        <time>2011-09-04T07:47:04Z</time>
      </trkpt>
      <trkpt lat="48.41968" lon="-4.45264">
        <ele>127.2</ele>
        <time>2011-09-04T07:47:06Z</time>
      </trkpt>
      <trkpt lat="48.41974" lon="-4.45265">
        <ele>128</ele>
        <time>2011-09-04T07:47:08Z</time>
      </trkpt>
      <trkpt lat="48.41978" lon="-4.4527">
        <ele>130.5</ele>
        <time>2011-09-04T07:47:10Z</time>
      </trkpt>
      <trkpt lat="48.41985" lon="-4.45274">
        <ele>131.2</ele>
        <time>2011-09-04T07:47:12Z</time>
      </trkpt>
      <trkpt lat="48.41992" lon="-4.45277">
        <ele>131.4</ele>
        <time>2011-09-04T07:47:14Z</time>
      </trkpt>
      <trkpt lat="48.41999" lon="-4.45279">
        <ele>132.3</ele>
        <time>2011-09-04T07:47:16Z</time>
      </trkpt>
      <trkpt lat="48.42005" lon="-4.4528">
        <ele>132.1</ele>
        <time>2011-09-04T07:47:18Z</time>
      </trkpt>
      <trkpt lat="48.42013" lon="-4.45282">
        <ele>131.9</ele>
        <time>2011-09-04T07:47:20Z</time>
      </trkpt>
      <trkpt lat="48.4202" lon="-4.45282">
        <ele>131.5</ele>
        <time>2011-09-04T07:47:21Z</time>
      </trkpt>
      <trkpt lat="48.42025" lon="-4.45285">
        <ele>133</ele>
        <time>2011-09-04T07:47:23Z</time>
      </trkpt>
      <trkpt lat="48.4203" lon="-4.45285">
        <ele>132.9</ele>
        <time>2011-09-04T07:47:24Z</time>
      </trkpt>
      <trkpt lat="48.42038" lon="-4.45288">
        <ele>133.2</ele>
        <time>2011-09-04T07:47:26Z</time>
      </trkpt>
      <trkpt lat="48.42043" lon="-4.4529">
        <ele>133.8</ele>
        <time>2011-09-04T07:47:28Z</time>
      </trkpt>
      <trkpt lat="48.42049" lon="-4.45292">
        <ele>134.5</ele>
        <time>2011-09-04T07:47:30Z</time>
      </trkpt>
      <trkpt lat="48.42056" lon="-4.45294">
        <ele>134.9</ele>
        <time>2011-09-04T07:47:32Z</time>
      </trkpt>
      <trkpt lat="48.42062" lon="-4.45298">
        <ele>135</ele>
        <time>2011-09-04T07:47:34Z</time>
      </trkpt>
      <trkpt lat="48.42068" lon="-4.453">
        <ele>135</ele>
        <time>2011-09-04T07:47:36Z</time>
      </trkpt>
      <trkpt lat="48.42075" lon="-4.45301">
        <ele>134.6</ele>
        <time>2011-09-04T07:47:38Z</time>
      </trkpt>
      <trkpt lat="48.42082" lon="-4.45303">
        <ele>134.8</ele>
        <time>2011-09-04T07:47:40Z</time>
      </trkpt>
      <trkpt lat="48.4209" lon="-4.45305">
        <ele>135.5</ele>
        <time>2011-09-04T07:47:42Z</time>
      </trkpt>
      <trkpt lat="48.42095" lon="-4.45308">
        <ele>135.4</ele>
        <time>2011-09-04T07:47:44Z</time>
      </trkpt>
      <trkpt lat="48.42102" lon="-4.4531">
        <ele>135.1</ele>
        <time>2011-09-04T07:47:46Z</time>
      </trkpt>
      <trkpt lat="48.42107" lon="-4.45311">
        <ele>135.5</ele>
        <time>2011-09-04T07:47:47Z</time>
      </trkpt>
      <trkpt lat="48.42113" lon="-4.45315">
        <ele>136</ele>
        <time>2011-09-04T07:47:49Z</time>
      </trkpt>
      <trkpt lat="48.42119" lon="-4.45316">
        <ele>135.5</ele>
        <time>2011-09-04T07:47:50Z</time>
      </trkpt>
      <trkpt lat="48.42124" lon="-4.45319">
        <ele>134.2</ele>
        <time>2011-09-04T07:47:51Z</time>
      </trkpt>
      <trkpt lat="48.4213" lon="-4.45324">
        <ele>135.2</ele>
        <time>2011-09-04T07:47:53Z</time>
      </trkpt>
      <trkpt lat="48.42136" lon="-4.4533">
        <ele>134.5</ele>
        <time>2011-09-04T07:47:55Z</time>
      </trkpt>
      <trkpt lat="48.42141" lon="-4.45335">
        <ele>135.4</ele>
        <time>2011-09-04T07:47:57Z</time>
      </trkpt>
      <trkpt lat="48.42147" lon="-4.4534">
        <ele>135.4</ele>
        <time>2011-09-04T07:47:59Z</time>
      </trkpt>
      <trkpt lat="48.42152" lon="-4.45345">
        <ele>136.2</ele>
        <time>2011-09-04T07:48:01Z</time>
      </trkpt>
      <trkpt lat="48.42158" lon="-4.45352">
        <ele>136.3</ele>
        <time>2011-09-04T07:48:03Z</time>
      </trkpt>
      <trkpt lat="48.42163" lon="-4.45358">
        <ele>136.1</ele>
        <time>2011-09-04T07:48:05Z</time>
      </trkpt>
      <trkpt lat="48.4217" lon="-4.45365">
        <ele>135.9</ele>
        <time>2011-09-04T07:48:07Z</time>
      </trkpt>
      <trkpt lat="48.42175" lon="-4.4537">
        <ele>138</ele>
        <time>2011-09-04T07:48:09Z</time>
      </trkpt>
      <trkpt lat="48.4218" lon="-4.45374">
        <ele>140.4</ele>
        <time>2011-09-04T07:48:11Z</time>
      </trkpt>
      <trkpt lat="48.42186" lon="-4.45378">
        <ele>139.4</ele>
        <time>2011-09-04T07:48:13Z</time>
      </trkpt>
      <trkpt lat="48.42192" lon="-4.4538">
        <ele>139.2</ele>
        <time>2011-09-04T07:48:15Z</time>
      </trkpt>
      <trkpt lat="48.42198" lon="-4.45384">
        <ele>139.3</ele>
        <time>2011-09-04T07:48:17Z</time>
      </trkpt>
      <trkpt lat="48.42204" lon="-4.45389">
        <ele>140.2</ele>
        <time>2011-09-04T07:48:19Z</time>
      </trkpt>
      <trkpt lat="48.42211" lon="-4.45394">
        <ele>141</ele>
        <time>2011-09-04T07:48:21Z</time>
      </trkpt>
      <trkpt lat="48.42217" lon="-4.45398">
        <ele>143.8</ele>
        <time>2011-09-04T07:48:23Z</time>
      </trkpt>
      <trkpt lat="48.42224" lon="-4.45405">
        <ele>143.9</ele>
        <time>2011-09-04T07:48:25Z</time>
      </trkpt>
      <trkpt lat="48.4223" lon="-4.45411">
        <ele>144.6</ele>
        <time>2011-09-04T07:48:27Z</time>
      </trkpt>
      <trkpt lat="48.42237" lon="-4.45417">
        <ele>145.5</ele>
        <time>2011-09-04T07:48:29Z</time>
      </trkpt>
      <trkpt lat="48.4224" lon="-4.45426">
        <ele>146</ele>
        <time>2011-09-04T07:48:31Z</time>
      </trkpt>
      <trkpt lat="48.42242" lon="-4.45437">
        <ele>145.1</ele>
        <time>2011-09-04T07:48:33Z</time>
      </trkpt>
      <trkpt lat="48.42241" lon="-4.45449">
        <ele>147.4</ele>
        <time>2011-09-04T07:48:35Z</time>
      </trkpt>
      <trkpt lat="48.4224" lon="-4.4546">
        <ele>148.7</ele>
        <time>2011-09-04T07:48:37Z</time>
      </trkpt>
      <trkpt lat="48.4224" lon="-4.45469">
        <ele>149</ele>
        <time>2011-09-04T07:48:39Z</time>
      </trkpt>
      <trkpt lat="48.4224" lon="-4.45481">
        <ele>147.3</ele>
        <time>2011-09-04T07:48:41Z</time>
      </trkpt>
      <trkpt lat="48.42239" lon="-4.45493">
        <ele>147.5</ele>
        <time>2011-09-04T07:48:43Z</time>
      </trkpt>
      <trkpt lat="48.42236" lon="-4.45502">
        <ele>150.7</ele>
        <time>2011-09-04T07:48:45Z</time>
      </trkpt>
      <trkpt lat="48.42235" lon="-4.45512">
        <ele>150.3</ele>
        <time>2011-09-04T07:48:47Z</time>
      </trkpt>
      <trkpt lat="48.42234" lon="-4.45523">
        <ele>149.9</ele>
        <time>2011-09-04T07:48:49Z</time>
      </trkpt>
      <trkpt lat="48.42234" lon="-4.45531">
        <ele>150.4</ele>
        <time>2011-09-04T07:48:51Z</time>
      </trkpt>
      <trkpt lat="48.42233" lon="-4.45541">
        <ele>150.6</ele>
        <time>2011-09-04T07:48:53Z</time>
      </trkpt>
      <trkpt lat="48.42231" lon="-4.45557">
        <ele>150.8</ele>
        <time>2011-09-04T07:48:55Z</time>
      </trkpt>
      <trkpt lat="48.42232" lon="-4.45565">
        <ele>151.8</ele>
        <time>2011-09-04T07:48:56Z</time>
      </trkpt>
      <trkpt lat="48.42235" lon="-4.45574">
        <ele>150.5</ele>
        <time>2011-09-04T07:48:57Z</time>
      </trkpt>
      <trkpt lat="48.42237" lon="-4.45581">
        <ele>149.4</ele>
        <time>2011-09-04T07:48:58Z</time>
      </trkpt>
      <trkpt lat="48.42241" lon="-4.4559">
        <ele>147.9</ele>
        <time>2011-09-04T07:49:00Z</time>
      </trkpt>
      <trkpt lat="48.42244" lon="-4.45602">
        <ele>147.2</ele>
        <time>2011-09-04T07:49:02Z</time>
      </trkpt>
      <trkpt lat="48.42248" lon="-4.45614">
        <ele>147.4</ele>
        <time>2011-09-04T07:49:04Z</time>
      </trkpt>
      <trkpt lat="48.4225" lon="-4.4562">
        <ele>148.3</ele>
        <time>2011-09-04T07:49:05Z</time>
      </trkpt>
      <trkpt lat="48.42255" lon="-4.4563">
        <ele>149.3</ele>
        <time>2011-09-04T07:49:07Z</time>
      </trkpt>
      <trkpt lat="48.42259" lon="-4.45642">
        <ele>150.7</ele>
        <time>2011-09-04T07:49:09Z</time>
      </trkpt>
      <trkpt lat="48.42264" lon="-4.45651">
        <ele>149.7</ele>
        <time>2011-09-04T07:49:11Z</time>
      </trkpt>
      <trkpt lat="48.42269" lon="-4.45659">
        <ele>150</ele>
        <time>2011-09-04T07:49:13Z</time>
      </trkpt>
      <trkpt lat="48.42272" lon="-4.45665">
        <ele>149.4</ele>
        <time>2011-09-04T07:49:14Z</time>
      </trkpt>
      <trkpt lat="48.42274" lon="-4.45671">
        <ele>149</ele>
        <time>2011-09-04T07:49:15Z</time>
      </trkpt>
      <trkpt lat="48.42279" lon="-4.45681">
        <ele>149.6</ele>
        <time>2011-09-04T07:49:17Z</time>
      </trkpt>
      <trkpt lat="48.42282" lon="-4.45686">
        <ele>150</ele>
        <time>2011-09-04T07:49:18Z</time>
      </trkpt>
      <trkpt lat="48.42286" lon="-4.45692">
        <ele>150</ele>
        <time>2011-09-04T07:49:19Z</time>
      </trkpt>
      <trkpt lat="48.42291" lon="-4.45702">
        <ele>150.1</ele>
        <time>2011-09-04T07:49:21Z</time>
      </trkpt>
      <trkpt lat="48.42297" lon="-4.45712">
        <ele>149.7</ele>
        <time>2011-09-04T07:49:23Z</time>
      </trkpt>
      <trkpt lat="48.42301" lon="-4.45714">
        <ele>148.4</ele>
        <time>2011-09-04T07:49:24Z</time>
      </trkpt>
      <trkpt lat="48.42308" lon="-4.45722">
        <ele>148.5</ele>
        <time>2011-09-04T07:49:26Z</time>
      </trkpt>
      <trkpt lat="48.42313" lon="-4.4573">
        <ele>151.1</ele>
        <time>2011-09-04T07:49:28Z</time>
      </trkpt>
      <trkpt lat="48.42316" lon="-4.45738">
        <ele>153.5</ele>
        <time>2011-09-04T07:49:30Z</time>
      </trkpt>
      <trkpt lat="48.42321" lon="-4.45745">
        <ele>152.8</ele>
        <time>2011-09-04T07:49:32Z</time>
      </trkpt>
      <trkpt lat="48.42324" lon="-4.4575">
        <ele>150.8</ele>
        <time>2011-09-04T07:49:34Z</time>
      </trkpt>
      <trkpt lat="48.42328" lon="-4.45755">
        <ele>149.8</ele>
        <time>2011-09-04T07:49:36Z</time>
      </trkpt>
      <trkpt lat="48.42332" lon="-4.45759">
        <ele>149.3</ele>
        <time>2011-09-04T07:49:38Z</time>
      </trkpt>
      <trkpt lat="48.42337" lon="-4.45765">
        <ele>148.3</ele>
        <time>2011-09-04T07:49:41Z</time>
      </trkpt>
      <trkpt lat="48.42342" lon="-4.45771">
        <ele>146.9</ele>
        <time>2011-09-04T07:49:43Z</time>
      </trkpt>
      <trkpt lat="48.42347" lon="-4.45777">
        <ele>146.7</ele>
        <time>2011-09-04T07:49:45Z</time>
      </trkpt>
      <trkpt lat="48.42353" lon="-4.45783">
        <ele>147.5</ele>
        <time>2011-09-04T07:49:47Z</time>
      </trkpt>
      <trkpt lat="48.42358" lon="-4.4579">
        <ele>148</ele>
        <time>2011-09-04T07:49:49Z</time>
      </trkpt>
      <trkpt lat="48.42363" lon="-4.45796">
        <ele>148.1</ele>
        <time>2011-09-04T07:49:51Z</time>
      </trkpt>
      <trkpt lat="48.42367" lon="-4.45803">
        <ele>148</ele>
        <time>2011-09-04T07:49:52Z</time>
      </trkpt>
      <trkpt lat="48.42372" lon="-4.45806">
        <ele>147.2</ele>
        <time>2011-09-04T07:49:53Z</time>
      </trkpt>
      <trkpt lat="48.42379" lon="-4.45815">
        <ele>146.6</ele>
        <time>2011-09-04T07:49:55Z</time>
      </trkpt>
      <trkpt lat="48.42385" lon="-4.45822">
        <ele>146.3</ele>
        <time>2011-09-04T07:49:57Z</time>
      </trkpt>
      <trkpt lat="48.42389" lon="-4.45827">
        <ele>146.8</ele>
        <time>2011-09-04T07:49:58Z</time>
      </trkpt>
      <trkpt lat="48.42396" lon="-4.45834">
        <ele>147.8</ele>
        <time>2011-09-04T07:50:00Z</time>
      </trkpt>
      <trkpt lat="48.42402" lon="-4.45841">
        <ele>147.7</ele>
        <time>2011-09-04T07:50:02Z</time>
      </trkpt>
      <trkpt lat="48.42406" lon="-4.45848">
        <ele>150.8</ele>
        <time>2011-09-04T07:50:04Z</time>
      </trkpt>
      <trkpt lat="48.42411" lon="-4.45855">
        <ele>151.9</ele>
        <time>2011-09-04T07:50:06Z</time>
      </trkpt>
      <trkpt lat="48.42417" lon="-4.45864">
        <ele>157.1</ele>
        <time>2011-09-04T07:50:08Z</time>
      </trkpt>
      <trkpt lat="48.42421" lon="-4.45873">
        <ele>157.7</ele>
        <time>2011-09-04T07:50:10Z</time>
      </trkpt>
      <trkpt lat="48.42426" lon="-4.45882">
        <ele>158.6</ele>
        <time>2011-09-04T07:50:12Z</time>
      </trkpt>
      <trkpt lat="48.4243" lon="-4.4589">
        <ele>158.3</ele>
        <time>2011-09-04T07:50:14Z</time>
      </trkpt>
      <trkpt lat="48.42436" lon="-4.45897">
        <ele>158</ele>
        <time>2011-09-04T07:50:16Z</time>
      </trkpt>
      <trkpt lat="48.4244" lon="-4.45898">
        <ele>158.9</ele>
        <time>2011-09-04T07:50:18Z</time>
      </trkpt>
      <trkpt lat="48.42445" lon="-4.45898">
        <ele>159.2</ele>
        <time>2011-09-04T07:50:19Z</time>
      </trkpt>
      <trkpt lat="48.42457" lon="-4.45906">
        <ele>157.2</ele>
        <time>2011-09-04T07:50:21Z</time>
      </trkpt>
      <trkpt lat="48.42462" lon="-4.45908">
        <ele>155.1</ele>
        <time>2011-09-04T07:50:22Z</time>
      </trkpt>
      <trkpt lat="48.42468" lon="-4.45914">
        <ele>155.4</ele>
        <time>2011-09-04T07:50:24Z</time>
      </trkpt>
      <trkpt lat="48.42475" lon="-4.45918">
        <ele>154.3</ele>
        <time>2011-09-04T07:50:26Z</time>
      </trkpt>
      <trkpt lat="48.42482" lon="-4.45917">
        <ele>154.1</ele>
        <time>2011-09-04T07:50:28Z</time>
      </trkpt>
      <trkpt lat="48.42488" lon="-4.45912">
        <ele>154</ele>
        <time>2011-09-04T07:50:30Z</time>
      </trkpt>
      <trkpt lat="48.42492" lon="-4.45905">
        <ele>154</ele>
        <time>2011-09-04T07:50:32Z</time>
      </trkpt>
      <trkpt lat="48.42497" lon="-4.45897">
        <ele>154.3</ele>
        <time>2011-09-04T07:50:34Z</time>
      </trkpt>
      <trkpt lat="48.42502" lon="-4.45891">
        <ele>153.8</ele>
        <time>2011-09-04T07:50:36Z</time>
      </trkpt>
      <trkpt lat="48.42507" lon="-4.45885">
        <ele>153.7</ele>
        <time>2011-09-04T07:50:38Z</time>
      </trkpt>
      <trkpt lat="48.42512" lon="-4.45877">
        <ele>154.2</ele>
        <time>2011-09-04T07:50:40Z</time>
      </trkpt>
      <trkpt lat="48.42516" lon="-4.45871">
        <ele>154.9</ele>
        <time>2011-09-04T07:50:42Z</time>
      </trkpt>
      <trkpt lat="48.42522" lon="-4.45864">
        <ele>154.9</ele>
        <time>2011-09-04T07:50:44Z</time>
      </trkpt>
      <trkpt lat="48.42527" lon="-4.45858">
        <ele>154.1</ele>
        <time>2011-09-04T07:50:46Z</time>
      </trkpt>
      <trkpt lat="48.42532" lon="-4.4585">
        <ele>151.9</ele>
        <time>2011-09-04T07:50:48Z</time>
      </trkpt>
      <trkpt lat="48.42536" lon="-4.45842">
        <ele>152.6</ele>
        <time>2011-09-04T07:50:50Z</time>
      </trkpt>
      <trkpt lat="48.42541" lon="-4.45834">
        <ele>152.6</ele>
        <time>2011-09-04T07:50:52Z</time>
      </trkpt>
      <trkpt lat="48.42546" lon="-4.45825">
        <ele>152</ele>
        <time>2011-09-04T07:50:54Z</time>
      </trkpt>
      <trkpt lat="48.42551" lon="-4.45817">
        <ele>152.1</ele>
        <time>2011-09-04T07:50:56Z</time>
      </trkpt>
      <trkpt lat="48.42556" lon="-4.45808">
        <ele>153</ele>
        <time>2011-09-04T07:50:58Z</time>
      </trkpt>
      <trkpt lat="48.42561" lon="-4.458">
        <ele>153.3</ele>
        <time>2011-09-04T07:51:00Z</time>
      </trkpt>
      <trkpt lat="48.42566" lon="-4.45792">
        <ele>152.9</ele>
        <time>2011-09-04T07:51:02Z</time>
      </trkpt>
      <trkpt lat="48.42572" lon="-4.45783">
        <ele>152.4</ele>
        <time>2011-09-04T07:51:04Z</time>
      </trkpt>
      <trkpt lat="48.42577" lon="-4.45772">
        <ele>152.4</ele>
        <time>2011-09-04T07:51:06Z</time>
      </trkpt>
      <trkpt lat="48.42583" lon="-4.45763">
        <ele>151.9</ele>
        <time>2011-09-04T07:51:08Z</time>
      </trkpt>
      <trkpt lat="48.42587" lon="-4.45753">
        <ele>151.9</ele>
        <time>2011-09-04T07:51:10Z</time>
      </trkpt>
      <trkpt lat="48.42591" lon="-4.45742">
        <ele>151.1</ele>
        <time>2011-09-04T07:51:12Z</time>
      </trkpt>
      <trkpt lat="48.42595" lon="-4.45732">
        <ele>151.4</ele>
        <time>2011-09-04T07:51:14Z</time>
      </trkpt>
      <trkpt lat="48.42602" lon="-4.45725">
        <ele>150.7</ele>
        <time>2011-09-04T07:51:16Z</time>
      </trkpt>
      <trkpt lat="48.42606" lon="-4.45721">
        <ele>150.4</ele>
        <time>2011-09-04T07:51:17Z</time>
      </trkpt>
      <trkpt lat="48.4261" lon="-4.45718">
        <ele>149.7</ele>
        <time>2011-09-04T07:51:18Z</time>
      </trkpt>
      <trkpt lat="48.42613" lon="-4.45713">
        <ele>149.6</ele>
        <time>2011-09-04T07:51:19Z</time>
      </trkpt>
      <trkpt lat="48.42617" lon="-4.45709">
        <ele>149.2</ele>
        <time>2011-09-04T07:51:20Z</time>
      </trkpt>
      <trkpt lat="48.4262" lon="-4.45704">
        <ele>149.2</ele>
        <time>2011-09-04T07:51:21Z</time>
      </trkpt>
      <trkpt lat="48.42623" lon="-4.45699">
        <ele>149.3</ele>
        <time>2011-09-04T07:51:22Z</time>
      </trkpt>
      <trkpt lat="48.4263" lon="-4.45689">
        <ele>149.2</ele>
        <time>2011-09-04T07:51:24Z</time>
      </trkpt>
      <trkpt lat="48.42633" lon="-4.45684">
        <ele>149.1</ele>
        <time>2011-09-04T07:51:25Z</time>
      </trkpt>
      <trkpt lat="48.42636" lon="-4.45679">
        <ele>149.4</ele>
        <time>2011-09-04T07:51:26Z</time>
      </trkpt>
      <trkpt lat="48.42643" lon="-4.4567">
        <ele>149.2</ele>
        <time>2011-09-04T07:51:28Z</time>
      </trkpt>
      <trkpt lat="48.4265" lon="-4.45661">
        <ele>148.8</ele>
        <time>2011-09-04T07:51:30Z</time>
      </trkpt>
      <trkpt lat="48.42653" lon="-4.45656">
        <ele>148.4</ele>
        <time>2011-09-04T07:51:31Z</time>
      </trkpt>
      <trkpt lat="48.42656" lon="-4.45651">
        <ele>148.4</ele>
        <time>2011-09-04T07:51:32Z</time>
      </trkpt>
      <trkpt lat="48.4266" lon="-4.45646">
        <ele>148.2</ele>
        <time>2011-09-04T07:51:33Z</time>
      </trkpt>
      <trkpt lat="48.42663" lon="-4.4564">
        <ele>148.3</ele>
        <time>2011-09-04T07:51:34Z</time>
      </trkpt>
      <trkpt lat="48.42667" lon="-4.45637">
        <ele>147.4</ele>
        <time>2011-09-04T07:51:35Z</time>
      </trkpt>
      <trkpt lat="48.4267" lon="-4.45632">
        <ele>147.4</ele>
        <time>2011-09-04T07:51:36Z</time>
      </trkpt>
      <trkpt lat="48.42674" lon="-4.45627">
        <ele>147.4</ele>
        <time>2011-09-04T07:51:37Z</time>
      </trkpt>
      <trkpt lat="48.42677" lon="-4.45622">
        <ele>147.5</ele>
        <time>2011-09-04T07:51:38Z</time>
      </trkpt>
      <trkpt lat="48.42682" lon="-4.45614">
        <ele>148.5</ele>
        <time>2011-09-04T07:51:40Z</time>
      </trkpt>
      <trkpt lat="48.42685" lon="-4.45608">
        <ele>148.4</ele>
        <time>2011-09-04T07:51:41Z</time>
      </trkpt>
      <trkpt lat="48.42691" lon="-4.456">
        <ele>149.1</ele>
        <time>2011-09-04T07:51:43Z</time>
      </trkpt>
      <trkpt lat="48.42698" lon="-4.4559">
        <ele>150</ele>
        <time>2011-09-04T07:51:45Z</time>
      </trkpt>
      <trkpt lat="48.42704" lon="-4.45581">
        <ele>150.5</ele>
        <time>2011-09-04T07:51:47Z</time>
      </trkpt>
      <trkpt lat="48.42707" lon="-4.45576">
        <ele>150.2</ele>
        <time>2011-09-04T07:51:48Z</time>
      </trkpt>
      <trkpt lat="48.4271" lon="-4.45571">
        <ele>150.2</ele>
        <time>2011-09-04T07:51:49Z</time>
      </trkpt>
      <trkpt lat="48.42713" lon="-4.45566">
        <ele>150.3</ele>
        <time>2011-09-04T07:51:50Z</time>
      </trkpt>
      <trkpt lat="48.4272" lon="-4.45557">
        <ele>150.1</ele>
        <time>2011-09-04T07:51:52Z</time>
      </trkpt>
      <trkpt lat="48.42724" lon="-4.45552">
        <ele>150.4</ele>
        <time>2011-09-04T07:51:53Z</time>
      </trkpt>
      <trkpt lat="48.42727" lon="-4.45546">
        <ele>150.2</ele>
        <time>2011-09-04T07:51:54Z</time>
      </trkpt>
      <trkpt lat="48.42731" lon="-4.45542">
        <ele>149.3</ele>
        <time>2011-09-04T07:51:55Z</time>
      </trkpt>
      <trkpt lat="48.42737" lon="-4.45533">
        <ele>149.9</ele>
        <time>2011-09-04T07:51:57Z</time>
      </trkpt>
      <trkpt lat="48.42743" lon="-4.45523">
        <ele>150.8</ele>
        <time>2011-09-04T07:51:59Z</time>
      </trkpt>
      <trkpt lat="48.42748" lon="-4.45517">
        <ele>152.1</ele>
        <time>2011-09-04T07:52:01Z</time>
      </trkpt>
      <trkpt lat="48.42754" lon="-4.45511">
        <ele>151.7</ele>
        <time>2011-09-04T07:52:03Z</time>
      </trkpt>
      <trkpt lat="48.42758" lon="-4.45502">
        <ele>150.5</ele>
        <time>2011-09-04T07:52:05Z</time>
      </trkpt>
      <trkpt lat="48.42757" lon="-4.45495">
        <ele>151.1</ele>
        <time>2011-09-04T07:52:07Z</time>
      </trkpt>
      <trkpt lat="48.42755" lon="-4.45486">
        <ele>150.6</ele>
        <time>2011-09-04T07:52:09Z</time>
      </trkpt>
      <trkpt lat="48.42757" lon="-4.45478">
        <ele>150.6</ele>
        <time>2011-09-04T07:52:11Z</time>
      </trkpt>
      <trkpt lat="48.4276" lon="-4.45469">
        <ele>151.2</ele>
        <time>2011-09-04T07:52:13Z</time>
      </trkpt>
      <trkpt lat="48.42762" lon="-4.4546">
        <ele>151.2</ele>
        <time>2011-09-04T07:52:15Z</time>
      </trkpt>
      <trkpt lat="48.42766" lon="-4.45453">
        <ele>152.6</ele>
        <time>2011-09-04T07:52:17Z</time>
      </trkpt>
      <trkpt lat="48.42768" lon="-4.45445">
        <ele>152.9</ele>
        <time>2011-09-04T07:52:19Z</time>
      </trkpt>
      <trkpt lat="48.4277" lon="-4.45436">
        <ele>153.2</ele>
        <time>2011-09-04T07:52:22Z</time>
      </trkpt>
      <trkpt lat="48.42773" lon="-4.45428">
        <ele>154.6</ele>
        <time>2011-09-04T07:52:24Z</time>
      </trkpt>
      <trkpt lat="48.42774" lon="-4.45418">
        <ele>159.4</ele>
        <time>2011-09-04T07:52:26Z</time>
      </trkpt>
      <trkpt lat="48.42775" lon="-4.4541">
        <ele>159.9</ele>
        <time>2011-09-04T07:52:28Z</time>
      </trkpt>
      <trkpt lat="48.4278" lon="-4.45394">
        <ele>163.2</ele>
        <time>2011-09-04T07:52:30Z</time>
      </trkpt>
      <trkpt lat="48.42782" lon="-4.45388">
        <ele>164.4</ele>
        <time>2011-09-04T07:52:31Z</time>
      </trkpt>
      <trkpt lat="48.42785" lon="-4.45376">
        <ele>164.8</ele>
        <time>2011-09-04T07:52:33Z</time>
      </trkpt>
      <trkpt lat="48.42788" lon="-4.45369">
        <ele>165.3</ele>
        <time>2011-09-04T07:52:34Z</time>
      </trkpt>
      <trkpt lat="48.42792" lon="-4.45364">
        <ele>165.8</ele>
        <time>2011-09-04T07:52:35Z</time>
      </trkpt>
      <trkpt lat="48.42795" lon="-4.45356">
        <ele>164.6</ele>
        <time>2011-09-04T07:52:36Z</time>
      </trkpt>
      <trkpt lat="48.42799" lon="-4.45347">
        <ele>160.8</ele>
        <time>2011-09-04T07:52:38Z</time>
      </trkpt>
      <trkpt lat="48.42802" lon="-4.45339">
        <ele>157.7</ele>
        <time>2011-09-04T07:52:39Z</time>
      </trkpt>
      <trkpt lat="48.42808" lon="-4.45332">
        <ele>156.6</ele>
        <time>2011-09-04T07:52:42Z</time>
      </trkpt>
      <trkpt lat="48.42812" lon="-4.45332">
        <ele>157.3</ele>
        <time>2011-09-04T07:52:44Z</time>
      </trkpt>
      <trkpt lat="48.42817" lon="-4.4533">
        <ele>156.5</ele>
        <time>2011-09-04T07:52:45Z</time>
      </trkpt>
      <trkpt lat="48.42822" lon="-4.45328">
        <ele>155.3</ele>
        <time>2011-09-04T07:52:46Z</time>
      </trkpt>
      <trkpt lat="48.42827" lon="-4.45325">
        <ele>154</ele>
        <time>2011-09-04T07:52:48Z</time>
      </trkpt>
      <trkpt lat="48.42834" lon="-4.45321">
        <ele>153.2</ele>
        <time>2011-09-04T07:52:51Z</time>
      </trkpt>
      <trkpt lat="48.42839" lon="-4.45316">
        <ele>150.6</ele>
        <time>2011-09-04T07:52:54Z</time>
      </trkpt>
      <trkpt lat="48.42844" lon="-4.45314">
        <ele>152.7</ele>
        <time>2011-09-04T07:52:55Z</time>
      </trkpt>
      <trkpt lat="48.4285" lon="-4.45311">
        <ele>153.4</ele>
        <time>2011-09-04T07:52:57Z</time>
      </trkpt>
      <trkpt lat="48.42857" lon="-4.45304">
        <ele>153.9</ele>
        <time>2011-09-04T07:52:59Z</time>
      </trkpt>
      <trkpt lat="48.42865" lon="-4.45298">
        <ele>152.7</ele>
        <time>2011-09-04T07:53:01Z</time>
      </trkpt>
      <trkpt lat="48.4287" lon="-4.45289">
        <ele>151.2</ele>
        <time>2011-09-04T07:53:03Z</time>
      </trkpt>
      <trkpt lat="48.42873" lon="-4.45283">
        <ele>152.3</ele>
        <time>2011-09-04T07:53:04Z</time>
      </trkpt>
      <trkpt lat="48.42877" lon="-4.45273">
        <ele>154.9</ele>
        <time>2011-09-04T07:53:06Z</time>
      </trkpt>
      <trkpt lat="48.42879" lon="-4.45267">
        <ele>154.8</ele>
        <time>2011-09-04T07:53:07Z</time>
      </trkpt>
      <trkpt lat="48.42879" lon="-4.4526">
        <ele>154</ele>
        <time>2011-09-04T07:53:08Z</time>
      </trkpt>
      <trkpt lat="48.4288" lon="-4.45252">
        <ele>153.7</ele>
        <time>2011-09-04T07:53:09Z</time>
      </trkpt>
      <trkpt lat="48.42879" lon="-4.45245">
        <ele>153</ele>
        <time>2011-09-04T07:53:10Z</time>
      </trkpt>
      <trkpt lat="48.42877" lon="-4.45231">
        <ele>152.9</ele>
        <time>2011-09-04T07:53:12Z</time>
      </trkpt>
      <trkpt lat="48.42874" lon="-4.4522">
        <ele>153</ele>
        <time>2011-09-04T07:53:14Z</time>
      </trkpt>
      <trkpt lat="48.42873" lon="-4.45213">
        <ele>153.3</ele>
        <time>2011-09-04T07:53:15Z</time>
      </trkpt>
      <trkpt lat="48.42871" lon="-4.45206">
        <ele>153</ele>
        <time>2011-09-04T07:53:16Z</time>
      </trkpt>
      <trkpt lat="48.4287" lon="-4.45198">
        <ele>152.2</ele>
        <time>2011-09-04T07:53:17Z</time>
      </trkpt>
      <trkpt lat="48.4287" lon="-4.45191">
        <ele>152.5</ele>
        <time>2011-09-04T07:53:18Z</time>
      </trkpt>
      <trkpt lat="48.42871" lon="-4.45183">
        <ele>151.8</ele>
        <time>2011-09-04T07:53:19Z</time>
      </trkpt>
      <trkpt lat="48.42869" lon="-4.45176">
        <ele>151.5</ele>
        <time>2011-09-04T07:53:20Z</time>
      </trkpt>
      <trkpt lat="48.42867" lon="-4.45169">
        <ele>151.8</ele>
        <time>2011-09-04T07:53:21Z</time>
      </trkpt>
      <trkpt lat="48.42865" lon="-4.45156">
        <ele>151.9</ele>
        <time>2011-09-04T07:53:23Z</time>
      </trkpt>
      <trkpt lat="48.42864" lon="-4.45146">
        <ele>153.7</ele>
        <time>2011-09-04T07:53:24Z</time>
      </trkpt>
      <trkpt lat="48.42862" lon="-4.45137">
        <ele>153.6</ele>
        <time>2011-09-04T07:53:25Z</time>
      </trkpt>
      <trkpt lat="48.42861" lon="-4.45126">
        <ele>152.4</ele>
        <time>2011-09-04T07:53:26Z</time>
      </trkpt>
      <trkpt lat="48.4286" lon="-4.45116">
        <ele>152.2</ele>
        <time>2011-09-04T07:53:27Z</time>
      </trkpt>
      <trkpt lat="48.42861" lon="-4.45101">
        <ele>150.7</ele>
        <time>2011-09-04T07:53:29Z</time>
      </trkpt>
      <trkpt lat="48.4286" lon="-4.45091">
        <ele>150.6</ele>
        <time>2011-09-04T07:53:30Z</time>
      </trkpt>
      <trkpt lat="48.4286" lon="-4.45083">
        <ele>150.6</ele>
        <time>2011-09-04T07:53:31Z</time>
      </trkpt>
      <trkpt lat="48.4286" lon="-4.45075">
        <ele>150.4</ele>
        <time>2011-09-04T07:53:32Z</time>
      </trkpt>
      <trkpt lat="48.42858" lon="-4.45066">
        <ele>147.6</ele>
        <time>2011-09-04T07:53:33Z</time>
      </trkpt>
      <trkpt lat="48.42857" lon="-4.45057">
        <ele>145.2</ele>
        <time>2011-09-04T07:53:34Z</time>
      </trkpt>
      <trkpt lat="48.42855" lon="-4.45048">
        <ele>145.7</ele>
        <time>2011-09-04T07:53:35Z</time>
      </trkpt>
      <trkpt lat="48.42853" lon="-4.45039">
        <ele>148.2</ele>
        <time>2011-09-04T07:53:36Z</time>
      </trkpt>
      <trkpt lat="48.4285" lon="-4.45029">
        <ele>150.4</ele>
        <time>2011-09-04T07:53:37Z</time>
      </trkpt>
      <trkpt lat="48.42848" lon="-4.45018">
        <ele>148.9</ele>
        <time>2011-09-04T07:53:38Z</time>
      </trkpt>
      <trkpt lat="48.42846" lon="-4.4501">
        <ele>148</ele>
        <time>2011-09-04T07:53:39Z</time>
      </trkpt>
      <trkpt lat="48.42842" lon="-4.45004">
        <ele>147.9</ele>
        <time>2011-09-04T07:53:40Z</time>
      </trkpt>
      <trkpt lat="48.42837" lon="-4.44998">
        <ele>147.3</ele>
        <time>2011-09-04T07:53:41Z</time>
      </trkpt>
      <trkpt lat="48.42834" lon="-4.44991">
        <ele>147.3</ele>
        <time>2011-09-04T07:53:42Z</time>
      </trkpt>
      <trkpt lat="48.42831" lon="-4.4498">
        <ele>147.9</ele>
        <time>2011-09-04T07:53:44Z</time>
      </trkpt>
      <trkpt lat="48.42828" lon="-4.44972">
        <ele>148</ele>
        <time>2011-09-04T07:53:45Z</time>
      </trkpt>
      <trkpt lat="48.42827" lon="-4.44962">
        <ele>147.9</ele>
        <time>2011-09-04T07:53:46Z</time>
      </trkpt>
      <trkpt lat="48.42824" lon="-4.44955">
        <ele>146</ele>
        <time>2011-09-04T07:53:47Z</time>
      </trkpt>
      <trkpt lat="48.42822" lon="-4.44944">
        <ele>145.3</ele>
        <time>2011-09-04T07:53:49Z</time>
      </trkpt>
      <trkpt lat="48.42819" lon="-4.44938">
        <ele>145.3</ele>
        <time>2011-09-04T07:53:50Z</time>
      </trkpt>
      <trkpt lat="48.42817" lon="-4.44928">
        <ele>144.2</ele>
        <time>2011-09-04T07:53:52Z</time>
      </trkpt>
      <trkpt lat="48.42816" lon="-4.4492">
        <ele>145.7</ele>
        <time>2011-09-04T07:53:53Z</time>
      </trkpt>
      <trkpt lat="48.42814" lon="-4.44906">
        <ele>146.4</ele>
        <time>2011-09-04T07:53:55Z</time>
      </trkpt>
      <trkpt lat="48.42813" lon="-4.44896">
        <ele>147.7</ele>
        <time>2011-09-04T07:53:57Z</time>
      </trkpt>
      <trkpt lat="48.42812" lon="-4.4489">
        <ele>147.6</ele>
        <time>2011-09-04T07:53:58Z</time>
      </trkpt>
      <trkpt lat="48.42812" lon="-4.44882">
        <ele>147.9</ele>
        <time>2011-09-04T07:53:59Z</time>
      </trkpt>
      <trkpt lat="48.4281" lon="-4.44876">
        <ele>147.6</ele>
        <time>2011-09-04T07:54:00Z</time>
      </trkpt>
      <trkpt lat="48.42812" lon="-4.44867">
        <ele>143.9</ele>
        <time>2011-09-04T07:54:02Z</time>
      </trkpt>
      <trkpt lat="48.42808" lon="-4.44857">
        <ele>143.6</ele>
        <time>2011-09-04T07:54:04Z</time>
      </trkpt>
      <trkpt lat="48.42801" lon="-4.44855">
        <ele>143.6</ele>
        <time>2011-09-04T07:54:05Z</time>
      </trkpt>
      <trkpt lat="48.42796" lon="-4.44848">
        <ele>144.3</ele>
        <time>2011-09-04T07:54:07Z</time>
      </trkpt>
      <trkpt lat="48.42791" lon="-4.44844">
        <ele>143.9</ele>
        <time>2011-09-04T07:54:08Z</time>
      </trkpt>
      <trkpt lat="48.42788" lon="-4.44837">
        <ele>143.5</ele>
        <time>2011-09-04T07:54:09Z</time>
      </trkpt>
      <trkpt lat="48.42784" lon="-4.44832">
        <ele>143.6</ele>
        <time>2011-09-04T07:54:10Z</time>
      </trkpt>
      <trkpt lat="48.42779" lon="-4.44825">
        <ele>142.5</ele>
        <time>2011-09-04T07:54:11Z</time>
      </trkpt>
      <trkpt lat="48.42775" lon="-4.4482">
        <ele>142.4</ele>
        <time>2011-09-04T07:54:12Z</time>
      </trkpt>
      <trkpt lat="48.42771" lon="-4.44815">
        <ele>142.9</ele>
        <time>2011-09-04T07:54:13Z</time>
      </trkpt>
      <trkpt lat="48.42769" lon="-4.44809">
        <ele>143.1</ele>
        <time>2011-09-04T07:54:14Z</time>
      </trkpt>
      <trkpt lat="48.42764" lon="-4.44797">
        <ele>143</ele>
        <time>2011-09-04T07:54:16Z</time>
      </trkpt>
      <trkpt lat="48.4276" lon="-4.4479">
        <ele>141.8</ele>
        <time>2011-09-04T07:54:19Z</time>
      </trkpt>
      <trkpt lat="48.42756" lon="-4.44787">
        <ele>141.3</ele>
        <time>2011-09-04T07:54:21Z</time>
      </trkpt>
      <trkpt lat="48.4275" lon="-4.44782">
        <ele>142.9</ele>
        <time>2011-09-04T07:54:23Z</time>
      </trkpt>
      <trkpt lat="48.42743" lon="-4.44778">
        <ele>145.7</ele>
        <time>2011-09-04T07:54:25Z</time>
      </trkpt>
      <trkpt lat="48.42737" lon="-4.44772">
        <ele>146.3</ele>
        <time>2011-09-04T07:54:27Z</time>
      </trkpt>
      <trkpt lat="48.42732" lon="-4.44766">
        <ele>148.2</ele>
        <time>2011-09-04T07:54:29Z</time>
      </trkpt>
      <trkpt lat="48.42724" lon="-4.44761">
        <ele>148.6</ele>
        <time>2011-09-04T07:54:31Z</time>
      </trkpt>
      <trkpt lat="48.42719" lon="-4.44755">
        <ele>149</ele>
        <time>2011-09-04T07:54:33Z</time>
      </trkpt>
      <trkpt lat="48.42715" lon="-4.4475">
        <ele>149.9</ele>
        <time>2011-09-04T07:54:34Z</time>
      </trkpt>
      <trkpt lat="48.42708" lon="-4.44745">
        <ele>149.2</ele>
        <time>2011-09-04T07:54:36Z</time>
      </trkpt>
      <trkpt lat="48.42704" lon="-4.44744">
        <ele>149.8</ele>
        <time>2011-09-04T07:54:37Z</time>
      </trkpt>
      <trkpt lat="48.42696" lon="-4.44739">
        <ele>150.7</ele>
        <time>2011-09-04T07:54:39Z</time>
      </trkpt>
      <trkpt lat="48.42689" lon="-4.44735">
        <ele>148.7</ele>
        <time>2011-09-04T07:54:41Z</time>
      </trkpt>
      <trkpt lat="48.42682" lon="-4.44732">
        <ele>147.9</ele>
        <time>2011-09-04T07:54:43Z</time>
      </trkpt>
      <trkpt lat="48.42675" lon="-4.44728">
        <ele>148.9</ele>
        <time>2011-09-04T07:54:45Z</time>
      </trkpt>
      <trkpt lat="48.42666" lon="-4.44724">
        <ele>149.9</ele>
        <time>2011-09-04T07:54:47Z</time>
      </trkpt>
      <trkpt lat="48.42661" lon="-4.44718">
        <ele>150</ele>
        <time>2011-09-04T07:54:49Z</time>
      </trkpt>
      <trkpt lat="48.42655" lon="-4.44714">
        <ele>149.4</ele>
        <time>2011-09-04T07:54:50Z</time>
      </trkpt>
      <trkpt lat="48.42648" lon="-4.44708">
        <ele>149.5</ele>
        <time>2011-09-04T07:54:52Z</time>
      </trkpt>
      <trkpt lat="48.42642" lon="-4.44703">
        <ele>148.9</ele>
        <time>2011-09-04T07:54:54Z</time>
      </trkpt>
      <trkpt lat="48.42635" lon="-4.44696">
        <ele>148.2</ele>
        <time>2011-09-04T07:54:56Z</time>
      </trkpt>
      <trkpt lat="48.42632" lon="-4.44688">
        <ele>148.9</ele>
        <time>2011-09-04T07:54:58Z</time>
      </trkpt>
      <trkpt lat="48.42624" lon="-4.4468">
        <ele>147.6</ele>
        <time>2011-09-04T07:55:00Z</time>
      </trkpt>
      <trkpt lat="48.42619" lon="-4.44677">
        <ele>146.8</ele>
        <time>2011-09-04T07:55:01Z</time>
      </trkpt>
      <trkpt lat="48.42614" lon="-4.44672">
        <ele>146.6</ele>
        <time>2011-09-04T07:55:02Z</time>
      </trkpt>
      <trkpt lat="48.42608" lon="-4.44667">
        <ele>146.5</ele>
        <time>2011-09-04T07:55:03Z</time>
      </trkpt>
      <trkpt lat="48.42603" lon="-4.44663">
        <ele>146.5</ele>
        <time>2011-09-04T07:55:04Z</time>
      </trkpt>
      <trkpt lat="48.42598" lon="-4.44659">
        <ele>146.4</ele>
        <time>2011-09-04T07:55:05Z</time>
      </trkpt>
      <trkpt lat="48.42593" lon="-4.44655">
        <ele>146.2</ele>
        <time>2011-09-04T07:55:06Z</time>
      </trkpt>
      <trkpt lat="48.42587" lon="-4.44651">
        <ele>146.8</ele>
        <time>2011-09-04T07:55:07Z</time>
      </trkpt>
      <trkpt lat="48.42581" lon="-4.44647">
        <ele>146.6</ele>
        <time>2011-09-04T07:55:08Z</time>
      </trkpt>
      <trkpt lat="48.42574" lon="-4.44646">
        <ele>146.1</ele>
        <time>2011-09-04T07:55:09Z</time>
      </trkpt>
      <trkpt lat="48.42568" lon="-4.44644">
        <ele>146.3</ele>
        <time>2011-09-04T07:55:10Z</time>
      </trkpt>
      <trkpt lat="48.42566" lon="-4.44633">
        <ele>145</ele>
        <time>2011-09-04T07:55:12Z</time>
      </trkpt>
      <trkpt lat="48.42566" lon="-4.44623">
        <ele>146.7</ele>
        <time>2011-09-04T07:55:14Z</time>
      </trkpt>
      <trkpt lat="48.42569" lon="-4.44616">
        <ele>147.1</ele>
        <time>2011-09-04T07:55:15Z</time>
      </trkpt>
      <trkpt lat="48.4257" lon="-4.44605">
        <ele>144.3</ele>
        <time>2011-09-04T07:55:17Z</time>
      </trkpt>
      <trkpt lat="48.42569" lon="-4.44594">
        <ele>142.8</ele>
        <time>2011-09-04T07:55:19Z</time>
      </trkpt>
      <trkpt lat="48.42567" lon="-4.44582">
        <ele>142.2</ele>
        <time>2011-09-04T07:55:21Z</time>
      </trkpt>
      <trkpt lat="48.42566" lon="-4.44573">
        <ele>141.3</ele>
        <time>2011-09-04T07:55:23Z</time>
      </trkpt>
      <trkpt lat="48.4257" lon="-4.44568">
        <ele>141.8</ele>
        <time>2011-09-04T07:55:25Z</time>
      </trkpt>
      <trkpt lat="48.42569" lon="-4.44559">
        <ele>141.9</ele>
        <time>2011-09-04T07:55:26Z</time>
      </trkpt>
      <trkpt lat="48.42564" lon="-4.44552">
        <ele>140.3</ele>
        <time>2011-09-04T07:55:27Z</time>
      </trkpt>
      <trkpt lat="48.42558" lon="-4.44542">
        <ele>139.8</ele>
        <time>2011-09-04T07:55:30Z</time>
      </trkpt>
      <trkpt lat="48.42554" lon="-4.44536">
        <ele>147.5</ele>
        <time>2011-09-04T07:55:32Z</time>
      </trkpt>
      <trkpt lat="48.42548" lon="-4.4453">
        <ele>148.2</ele>
        <time>2011-09-04T07:55:35Z</time>
      </trkpt>
      <trkpt lat="48.4254" lon="-4.44522">
        <ele>146.5</ele>
        <time>2011-09-04T07:55:36Z</time>
      </trkpt>
      <trkpt lat="48.42533" lon="-4.44515">
        <ele>145.9</ele>
        <time>2011-09-04T07:55:38Z</time>
      </trkpt>
      <trkpt lat="48.42529" lon="-4.4451">
        <ele>145.4</ele>
        <time>2011-09-04T07:55:39Z</time>
      </trkpt>
      <trkpt lat="48.42525" lon="-4.44506">
        <ele>145.2</ele>
        <time>2011-09-04T07:55:41Z</time>
      </trkpt>
      <trkpt lat="48.42519" lon="-4.44498">
        <ele>145</ele>
        <time>2011-09-04T07:55:42Z</time>
      </trkpt>
      <trkpt lat="48.42514" lon="-4.44489">
        <ele>144.5</ele>
        <time>2011-09-04T07:55:44Z</time>
      </trkpt>
      <trkpt lat="48.42507" lon="-4.4448">
        <ele>145</ele>
        <time>2011-09-04T07:55:46Z</time>
      </trkpt>
      <trkpt lat="48.42501" lon="-4.4447">
        <ele>144.2</ele>
        <time>2011-09-04T07:55:48Z</time>
      </trkpt>
      <trkpt lat="48.42498" lon="-4.44466">
        <ele>143.8</ele>
        <time>2011-09-04T07:55:49Z</time>
      </trkpt>
      <trkpt lat="48.42489" lon="-4.44459">
        <ele>144.7</ele>
        <time>2011-09-04T07:55:51Z</time>
      </trkpt>
      <trkpt lat="48.42484" lon="-4.44458">
        <ele>143.6</ele>
        <time>2011-09-04T07:55:52Z</time>
      </trkpt>
      <trkpt lat="48.42476" lon="-4.44455">
        <ele>143.3</ele>
        <time>2011-09-04T07:55:55Z</time>
      </trkpt>
      <trkpt lat="48.42467" lon="-4.4445">
        <ele>142.3</ele>
        <time>2011-09-04T07:55:56Z</time>
      </trkpt>
      <trkpt lat="48.4246" lon="-4.44445">
        <ele>141.6</ele>
        <time>2011-09-04T07:55:58Z</time>
      </trkpt>
      <trkpt lat="48.42452" lon="-4.44442">
        <ele>141.5</ele>
        <time>2011-09-04T07:56:01Z</time>
      </trkpt>
      <trkpt lat="48.42446" lon="-4.44436">
        <ele>141.9</ele>
        <time>2011-09-04T07:56:02Z</time>
      </trkpt>
      <trkpt lat="48.42439" lon="-4.44429">
        <ele>141.1</ele>
        <time>2011-09-04T07:56:04Z</time>
      </trkpt>
      <trkpt lat="48.42438" lon="-4.44421">
        <ele>140.6</ele>
        <time>2011-09-04T07:56:07Z</time>
      </trkpt>
      <trkpt lat="48.42442" lon="-4.44415">
        <ele>142</ele>
        <time>2011-09-04T07:56:10Z</time>
      </trkpt>
      <trkpt lat="48.42447" lon="-4.44411">
        <ele>141.8</ele>
        <time>2011-09-04T07:56:12Z</time>
      </trkpt>
      <trkpt lat="48.42454" lon="-4.44407">
        <ele>142.3</ele>
        <time>2011-09-04T07:56:14Z</time>
      </trkpt>
      <trkpt lat="48.4246" lon="-4.44404">
        <ele>143</ele>
        <time>2011-09-04T07:56:16Z</time>
      </trkpt>
      <trkpt lat="48.42466" lon="-4.44401">
        <ele>144</ele>
        <time>2011-09-04T07:56:18Z</time>
      </trkpt>
      <trkpt lat="48.42473" lon="-4.44396">
        <ele>142.7</ele>
        <time>2011-09-04T07:56:21Z</time>
      </trkpt>
      <trkpt lat="48.42479" lon="-4.44391">
        <ele>141.8</ele>
        <time>2011-09-04T07:56:23Z</time>
      </trkpt>
      <trkpt lat="48.42486" lon="-4.44387">
        <ele>141.7</ele>
        <time>2011-09-04T07:56:24Z</time>
      </trkpt>
      <trkpt lat="48.42494" lon="-4.44384">
        <ele>142.7</ele>
        <time>2011-09-04T07:56:26Z</time>
      </trkpt>
      <trkpt lat="48.42501" lon="-4.44381">
        <ele>143.1</ele>
        <time>2011-09-04T07:56:28Z</time>
      </trkpt>
      <trkpt lat="48.42508" lon="-4.4438">
        <ele>142.9</ele>
        <time>2011-09-04T07:56:31Z</time>
      </trkpt>
      <trkpt lat="48.42515" lon="-4.44383">
        <ele>143.3</ele>
        <time>2011-09-04T07:56:33Z</time>
      </trkpt>
      <trkpt lat="48.42523" lon="-4.44385">
        <ele>143.3</ele>
        <time>2011-09-04T07:56:35Z</time>
      </trkpt>
      <trkpt lat="48.42531" lon="-4.44387">
        <ele>143.1</ele>
        <time>2011-09-04T07:56:37Z</time>
      </trkpt>
      <trkpt lat="48.42538" lon="-4.44392">
        <ele>142.9</ele>
        <time>2011-09-04T07:56:38Z</time>
      </trkpt>
      <trkpt lat="48.42545" lon="-4.44397">
        <ele>142.2</ele>
        <time>2011-09-04T07:56:41Z</time>
      </trkpt>
      <trkpt lat="48.42552" lon="-4.44401">
        <ele>141.7</ele>
        <time>2011-09-04T07:56:42Z</time>
      </trkpt>
      <trkpt lat="48.42561" lon="-4.44405">
        <ele>141.3</ele>
        <time>2011-09-04T07:56:44Z</time>
      </trkpt>
      <trkpt lat="48.42568" lon="-4.44407">
        <ele>141</ele>
        <time>2011-09-04T07:56:47Z</time>
      </trkpt>
      <trkpt lat="48.4257" lon="-4.444">
        <ele>141</ele>
        <time>2011-09-04T07:56:47Z</time>
      </trkpt>
      <trkpt lat="48.42574" lon="-4.44394">
        <ele>139.4</ele>
        <time>2011-09-04T07:56:50Z</time>
      </trkpt>
      <trkpt lat="48.42577" lon="-4.44389">
        <ele>139.1</ele>
        <time>2011-09-04T07:56:50Z</time>
      </trkpt>
      <trkpt lat="48.42583" lon="-4.44382">
        <ele>139.1</ele>
        <time>2011-09-04T07:56:52Z</time>
      </trkpt>
      <trkpt lat="48.42589" lon="-4.44376">
        <ele>140</ele>
        <time>2011-09-04T07:56:55Z</time>
      </trkpt>
      <trkpt lat="48.42594" lon="-4.44368">
        <ele>140.1</ele>
        <time>2011-09-04T07:56:56Z</time>
      </trkpt>
      <trkpt lat="48.42596" lon="-4.44362">
        <ele>140.4</ele>
        <time>2011-09-04T07:56:58Z</time>
      </trkpt>
      <trkpt lat="48.426" lon="-4.44357">
        <ele>145</ele>
        <time>2011-09-04T07:57:01Z</time>
      </trkpt>
      <trkpt lat="48.42603" lon="-4.44347">
        <ele>146.9</ele>
        <time>2011-09-04T07:57:03Z</time>
      </trkpt>
      <trkpt lat="48.42606" lon="-4.44338">
        <ele>147.6</ele>
        <time>2011-09-04T07:57:04Z</time>
      </trkpt>
      <trkpt lat="48.42612" lon="-4.44326">
        <ele>148</ele>
        <time>2011-09-04T07:57:06Z</time>
      </trkpt>
      <trkpt lat="48.42614" lon="-4.44319">
        <ele>147.4</ele>
        <time>2011-09-04T07:57:07Z</time>
      </trkpt>
      <trkpt lat="48.42616" lon="-4.4431">
        <ele>147.4</ele>
        <time>2011-09-04T07:57:09Z</time>
      </trkpt>
      <trkpt lat="48.42619" lon="-4.44298">
        <ele>145.8</ele>
        <time>2011-09-04T07:57:11Z</time>
      </trkpt>
      <trkpt lat="48.42623" lon="-4.44285">
        <ele>145.8</ele>
        <time>2011-09-04T07:57:13Z</time>
      </trkpt>
      <trkpt lat="48.42623" lon="-4.44273">
        <ele>147.3</ele>
        <time>2011-09-04T07:57:15Z</time>
      </trkpt>
      <trkpt lat="48.42624" lon="-4.4426">
        <ele>147.4</ele>
        <time>2011-09-04T07:57:17Z</time>
      </trkpt>
      <trkpt lat="48.42624" lon="-4.44253">
        <ele>146.8</ele>
        <time>2011-09-04T07:57:18Z</time>
      </trkpt>
      <trkpt lat="48.42625" lon="-4.44245">
        <ele>146.1</ele>
        <time>2011-09-04T07:57:19Z</time>
      </trkpt>
      <trkpt lat="48.42625" lon="-4.44233">
        <ele>148</ele>
        <time>2011-09-04T07:57:21Z</time>
      </trkpt>
      <trkpt lat="48.42626" lon="-4.44221">
        <ele>149.2</ele>
        <time>2011-09-04T07:57:23Z</time>
      </trkpt>
      <trkpt lat="48.42627" lon="-4.4421">
        <ele>149.7</ele>
        <time>2011-09-04T07:57:25Z</time>
      </trkpt>
      <trkpt lat="48.42628" lon="-4.44199">
        <ele>149.8</ele>
        <time>2011-09-04T07:57:27Z</time>
      </trkpt>
      <trkpt lat="48.4263" lon="-4.44188">
        <ele>148.3</ele>
        <time>2011-09-04T07:57:29Z</time>
      </trkpt>
      <trkpt lat="48.42635" lon="-4.4418">
        <ele>148.3</ele>
        <time>2011-09-04T07:57:31Z</time>
      </trkpt>
      <trkpt lat="48.42641" lon="-4.44176">
        <ele>147.9</ele>
        <time>2011-09-04T07:57:33Z</time>
      </trkpt>
      <trkpt lat="48.42648" lon="-4.44178">
        <ele>146.2</ele>
        <time>2011-09-04T07:57:35Z</time>
      </trkpt>
      <trkpt lat="48.42654" lon="-4.44184">
        <ele>146.2</ele>
        <time>2011-09-04T07:57:37Z</time>
      </trkpt>
      <trkpt lat="48.42661" lon="-4.44191">
        <ele>146.9</ele>
        <time>2011-09-04T07:57:39Z</time>
      </trkpt>
      <trkpt lat="48.42667" lon="-4.44198">
        <ele>146.9</ele>
        <time>2011-09-04T07:57:41Z</time>
      </trkpt>
      <trkpt lat="48.42673" lon="-4.44206">
        <ele>147.4</ele>
        <time>2011-09-04T07:57:43Z</time>
      </trkpt>
      <trkpt lat="48.42676" lon="-4.44215">
        <ele>147.6</ele>
        <time>2011-09-04T07:57:45Z</time>
      </trkpt>
      <trkpt lat="48.42681" lon="-4.44224">
        <ele>148.5</ele>
        <time>2011-09-04T07:57:47Z</time>
      </trkpt>
      <trkpt lat="48.42684" lon="-4.44234">
        <ele>149</ele>
        <time>2011-09-04T07:57:49Z</time>
      </trkpt>
      <trkpt lat="48.42688" lon="-4.44244">
        <ele>148.9</ele>
        <time>2011-09-04T07:57:51Z</time>
      </trkpt>
      <trkpt lat="48.42692" lon="-4.44255">
        <ele>148.1</ele>
        <time>2011-09-04T07:57:53Z</time>
      </trkpt>
      <trkpt lat="48.42696" lon="-4.44265">
        <ele>148.1</ele>
        <time>2011-09-04T07:57:55Z</time>
      </trkpt>
      <trkpt lat="48.427" lon="-4.44275">
        <ele>147.5</ele>
        <time>2011-09-04T07:57:57Z</time>
      </trkpt>
      <trkpt lat="48.42705" lon="-4.44286">
        <ele>147.8</ele>
        <time>2011-09-04T07:57:59Z</time>
      </trkpt>
      <trkpt lat="48.42709" lon="-4.44295">
        <ele>148.2</ele>
        <time>2011-09-04T07:58:01Z</time>
      </trkpt>
      <trkpt lat="48.42716" lon="-4.44303">
        <ele>148.6</ele>
        <time>2011-09-04T07:58:03Z</time>
      </trkpt>
      <trkpt lat="48.42722" lon="-4.4431">
        <ele>147.8</ele>
        <time>2011-09-04T07:58:05Z</time>
      </trkpt>
      <trkpt lat="48.42727" lon="-4.44318">
        <ele>147.2</ele>
        <time>2011-09-04T07:58:07Z</time>
      </trkpt>
      <trkpt lat="48.42735" lon="-4.44324">
        <ele>146.7</ele>
        <time>2011-09-04T07:58:09Z</time>
      </trkpt>
      <trkpt lat="48.42743" lon="-4.44329">
        <ele>147.1</ele>
        <time>2011-09-04T07:58:11Z</time>
      </trkpt>
      <trkpt lat="48.42751" lon="-4.44334">
        <ele>147.6</ele>
        <time>2011-09-04T07:58:13Z</time>
      </trkpt>
      <trkpt lat="48.42758" lon="-4.44339">
        <ele>148</ele>
        <time>2011-09-04T07:58:15Z</time>
      </trkpt>
      <trkpt lat="48.42766" lon="-4.44343">
        <ele>148.1</ele>
        <time>2011-09-04T07:58:17Z</time>
      </trkpt>
      <trkpt lat="48.42774" lon="-4.44348">
        <ele>148.7</ele>
        <time>2011-09-04T07:58:19Z</time>
      </trkpt>
      <trkpt lat="48.42782" lon="-4.44352">
        <ele>148.6</ele>
        <time>2011-09-04T07:58:21Z</time>
      </trkpt>
      <trkpt lat="48.4279" lon="-4.44356">
        <ele>148.4</ele>
        <time>2011-09-04T07:58:23Z</time>
      </trkpt>
      <trkpt lat="48.42798" lon="-4.44361">
        <ele>147.8</ele>
        <time>2011-09-04T07:58:25Z</time>
      </trkpt>
      <trkpt lat="48.42803" lon="-4.44362">
        <ele>147.9</ele>
        <time>2011-09-04T07:58:26Z</time>
      </trkpt>
      <trkpt lat="48.42807" lon="-4.44361">
        <ele>147.6</ele>
        <time>2011-09-04T07:58:27Z</time>
      </trkpt>
      <trkpt lat="48.4281" lon="-4.44355">
        <ele>147.4</ele>
        <time>2011-09-04T07:58:28Z</time>
      </trkpt>
      <trkpt lat="48.42812" lon="-4.44349">
        <ele>147.4</ele>
        <time>2011-09-04T07:58:29Z</time>
      </trkpt>
      <trkpt lat="48.42815" lon="-4.44336">
        <ele>147.8</ele>
        <time>2011-09-04T07:58:31Z</time>
      </trkpt>
      <trkpt lat="48.42817" lon="-4.4433">
        <ele>147.5</ele>
        <time>2011-09-04T07:58:32Z</time>
      </trkpt>
      <trkpt lat="48.42819" lon="-4.44323">
        <ele>147</ele>
        <time>2011-09-04T07:58:33Z</time>
      </trkpt>
      <trkpt lat="48.42821" lon="-4.44316">
        <ele>146.8</ele>
        <time>2011-09-04T07:58:34Z</time>
      </trkpt>
      <trkpt lat="48.42824" lon="-4.4431">
        <ele>146.4</ele>
        <time>2011-09-04T07:58:35Z</time>
      </trkpt>
      <trkpt lat="48.42826" lon="-4.44303">
        <ele>145.7</ele>
        <time>2011-09-04T07:58:36Z</time>
      </trkpt>
      <trkpt lat="48.42828" lon="-4.44296">
        <ele>145.8</ele>
        <time>2011-09-04T07:58:37Z</time>
      </trkpt>
      <trkpt lat="48.42831" lon="-4.4429">
        <ele>145.5</ele>
        <time>2011-09-04T07:58:38Z</time>
      </trkpt>
      <trkpt lat="48.42833" lon="-4.44283">
        <ele>145.2</ele>
        <time>2011-09-04T07:58:39Z</time>
      </trkpt>
      <trkpt lat="48.42835" lon="-4.44276">
        <ele>145</ele>
        <time>2011-09-04T07:58:40Z</time>
      </trkpt>
      <trkpt lat="48.42838" lon="-4.44269">
        <ele>145.2</ele>
        <time>2011-09-04T07:58:41Z</time>
      </trkpt>
      <trkpt lat="48.4284" lon="-4.44262">
        <ele>145.2</ele>
        <time>2011-09-04T07:58:42Z</time>
      </trkpt>
      <trkpt lat="48.42842" lon="-4.44254">
        <ele>144.7</ele>
        <time>2011-09-04T07:58:43Z</time>
      </trkpt>
      <trkpt lat="48.42845" lon="-4.44247">
        <ele>143.9</ele>
        <time>2011-09-04T07:58:44Z</time>
      </trkpt>
      <trkpt lat="48.42847" lon="-4.4424">
        <ele>143.2</ele>
        <time>2011-09-04T07:58:45Z</time>
      </trkpt>
      <trkpt lat="48.4285" lon="-4.44232">
        <ele>142.4</ele>
        <time>2011-09-04T07:58:46Z</time>
      </trkpt>
      <trkpt lat="48.42852" lon="-4.44225">
        <ele>142.1</ele>
        <time>2011-09-04T07:58:47Z</time>
      </trkpt>
      <trkpt lat="48.42855" lon="-4.44217">
        <ele>142.1</ele>
        <time>2011-09-04T07:58:48Z</time>
      </trkpt>
      <trkpt lat="48.42857" lon="-4.4421">
        <ele>142</ele>
        <time>2011-09-04T07:58:49Z</time>
      </trkpt>
      <trkpt lat="48.42858" lon="-4.44202">
        <ele>142.3</ele>
        <time>2011-09-04T07:58:50Z</time>
      </trkpt>
      <trkpt lat="48.42859" lon="-4.44194">
        <ele>142.3</ele>
        <time>2011-09-04T07:58:51Z</time>
      </trkpt>
      <trkpt lat="48.4286" lon="-4.44187">
        <ele>142.1</ele>
        <time>2011-09-04T07:58:52Z</time>
      </trkpt>
      <trkpt lat="48.42862" lon="-4.4418">
        <ele>141.9</ele>
        <time>2011-09-04T07:58:53Z</time>
      </trkpt>
      <trkpt lat="48.4287" lon="-4.44175">
        <ele>142.1</ele>
        <time>2011-09-04T07:58:55Z</time>
      </trkpt>
      <trkpt lat="48.42874" lon="-4.44177">
        <ele>142.5</ele>
        <time>2011-09-04T07:58:56Z</time>
      </trkpt>
      <trkpt lat="48.42878" lon="-4.44181">
        <ele>142.4</ele>
        <time>2011-09-04T07:58:57Z</time>
      </trkpt>
      <trkpt lat="48.42881" lon="-4.44186">
        <ele>142.8</ele>
        <time>2011-09-04T07:58:58Z</time>
      </trkpt>
      <trkpt lat="48.42888" lon="-4.44194">
        <ele>142.6</ele>
        <time>2011-09-04T07:59:00Z</time>
      </trkpt>
      <trkpt lat="48.42892" lon="-4.44198">
        <ele>142.4</ele>
        <time>2011-09-04T07:59:01Z</time>
      </trkpt>
      <trkpt lat="48.42895" lon="-4.44203">
        <ele>142.8</ele>
        <time>2011-09-04T07:59:02Z</time>
      </trkpt>
      <trkpt lat="48.42899" lon="-4.44208">
        <ele>142.7</ele>
        <time>2011-09-04T07:59:03Z</time>
      </trkpt>
      <trkpt lat="48.42907" lon="-4.44217">
        <ele>143.1</ele>
        <time>2011-09-04T07:59:05Z</time>
      </trkpt>
      <trkpt lat="48.42911" lon="-4.44222">
        <ele>142.9</ele>
        <time>2011-09-04T07:59:06Z</time>
      </trkpt>
      <trkpt lat="48.42914" lon="-4.44226">
        <ele>143.2</ele>
        <time>2011-09-04T07:59:07Z</time>
      </trkpt>
      <trkpt lat="48.42918" lon="-4.44231">
        <ele>143</ele>
        <time>2011-09-04T07:59:08Z</time>
      </trkpt>
      <trkpt lat="48.42922" lon="-4.44236">
        <ele>143.2</ele>
        <time>2011-09-04T07:59:09Z</time>
      </trkpt>
      <trkpt lat="48.42926" lon="-4.4424">
        <ele>143.4</ele>
        <time>2011-09-04T07:59:10Z</time>
      </trkpt>
      <trkpt lat="48.4293" lon="-4.44245">
        <ele>143.9</ele>
        <time>2011-09-04T07:59:11Z</time>
      </trkpt>
      <trkpt lat="48.42938" lon="-4.44253">
        <ele>144.1</ele>
        <time>2011-09-04T07:59:13Z</time>
      </trkpt>
      <trkpt lat="48.42942" lon="-4.44258">
        <ele>144.3</ele>
        <time>2011-09-04T07:59:14Z</time>
      </trkpt>
      <trkpt lat="48.42946" lon="-4.44263">
        <ele>144.3</ele>
        <time>2011-09-04T07:59:15Z</time>
      </trkpt>
      <trkpt lat="48.4295" lon="-4.44268">
        <ele>143.8</ele>
        <time>2011-09-04T07:59:16Z</time>
      </trkpt>
      <trkpt lat="48.42954" lon="-4.44272">
        <ele>143.8</ele>
        <time>2011-09-04T07:59:17Z</time>
      </trkpt>
      <trkpt lat="48.42959" lon="-4.44273">
        <ele>143.5</ele>
        <time>2011-09-04T07:59:18Z</time>
      </trkpt>
      <trkpt lat="48.42964" lon="-4.44274">
        <ele>143.4</ele>
        <time>2011-09-04T07:59:19Z</time>
      </trkpt>
      <trkpt lat="48.42968" lon="-4.44272">
        <ele>143.9</ele>
        <time>2011-09-04T07:59:20Z</time>
      </trkpt>
      <trkpt lat="48.42973" lon="-4.4427">
        <ele>144.3</ele>
        <time>2011-09-04T07:59:21Z</time>
      </trkpt>
      <trkpt lat="48.42977" lon="-4.44266">
        <ele>144.6</ele>
        <time>2011-09-04T07:59:22Z</time>
      </trkpt>
      <trkpt lat="48.4298" lon="-4.4426">
        <ele>144.7</ele>
        <time>2011-09-04T07:59:23Z</time>
      </trkpt>
      <trkpt lat="48.42984" lon="-4.44254">
        <ele>144.5</ele>
        <time>2011-09-04T07:59:24Z</time>
      </trkpt>
      <trkpt lat="48.42987" lon="-4.44248">
        <ele>144.4</ele>
        <time>2011-09-04T07:59:25Z</time>
      </trkpt>
      <trkpt lat="48.4299" lon="-4.44242">
        <ele>144.2</ele>
        <time>2011-09-04T07:59:26Z</time>
      </trkpt>
      <trkpt lat="48.42993" lon="-4.44235">
        <ele>144.7</ele>
        <time>2011-09-04T07:59:27Z</time>
      </trkpt>
      <trkpt lat="48.42996" lon="-4.44228">
        <ele>145</ele>
        <time>2011-09-04T07:59:28Z</time>
      </trkpt>
      <trkpt lat="48.42999" lon="-4.44222">
        <ele>145</ele>
        <time>2011-09-04T07:59:29Z</time>
      </trkpt>
      <trkpt lat="48.43004" lon="-4.4421">
        <ele>144.9</ele>
        <time>2011-09-04T07:59:31Z</time>
      </trkpt>
      <trkpt lat="48.43007" lon="-4.44205">
        <ele>144.8</ele>
        <time>2011-09-04T07:59:32Z</time>
      </trkpt>
      <trkpt lat="48.4301" lon="-4.44198">
        <ele>145.1</ele>
        <time>2011-09-04T07:59:33Z</time>
      </trkpt>
      <trkpt lat="48.43012" lon="-4.44191">
        <ele>145.4</ele>
        <time>2011-09-04T07:59:34Z</time>
      </trkpt>
      <trkpt lat="48.43015" lon="-4.44184">
        <ele>146</ele>
        <time>2011-09-04T07:59:35Z</time>
      </trkpt>
      <trkpt lat="48.43017" lon="-4.44176">
        <ele>146.3</ele>
        <time>2011-09-04T07:59:36Z</time>
      </trkpt>
      <trkpt lat="48.43019" lon="-4.44168">
        <ele>147.1</ele>
        <time>2011-09-04T07:59:37Z</time>
      </trkpt>
      <trkpt lat="48.43022" lon="-4.44161">
        <ele>147.9</ele>
        <time>2011-09-04T07:59:38Z</time>
      </trkpt>
      <trkpt lat="48.43027" lon="-4.44149">
        <ele>151.3</ele>
        <time>2011-09-04T07:59:40Z</time>
      </trkpt>
      <trkpt lat="48.4303" lon="-4.4414">
        <ele>151.2</ele>
        <time>2011-09-04T07:59:41Z</time>
      </trkpt>
      <trkpt lat="48.43033" lon="-4.44133">
        <ele>151</ele>
        <time>2011-09-04T07:59:42Z</time>
      </trkpt>
      <trkpt lat="48.43036" lon="-4.44124">
        <ele>150.4</ele>
        <time>2011-09-04T07:59:43Z</time>
      </trkpt>
      <trkpt lat="48.4304" lon="-4.44114">
        <ele>150</ele>
        <time>2011-09-04T07:59:44Z</time>
      </trkpt>
      <trkpt lat="48.43044" lon="-4.44107">
        <ele>149.6</ele>
        <time>2011-09-04T07:59:45Z</time>
      </trkpt>
      <trkpt lat="48.43048" lon="-4.441">
        <ele>150</ele>
        <time>2011-09-04T07:59:46Z</time>
      </trkpt>
      <trkpt lat="48.4305" lon="-4.44091">
        <ele>149.6</ele>
        <time>2011-09-04T07:59:47Z</time>
      </trkpt>
      <trkpt lat="48.43053" lon="-4.44081">
        <ele>148.5</ele>
        <time>2011-09-04T07:59:48Z</time>
      </trkpt>
      <trkpt lat="48.43053" lon="-4.44067">
        <ele>148.7</ele>
        <time>2011-09-04T07:59:50Z</time>
      </trkpt>
      <trkpt lat="48.43053" lon="-4.44059">
        <ele>148.1</ele>
        <time>2011-09-04T07:59:51Z</time>
      </trkpt>
      <trkpt lat="48.43052" lon="-4.44052">
        <ele>147.5</ele>
        <time>2011-09-04T07:59:52Z</time>
      </trkpt>
      <trkpt lat="48.43051" lon="-4.44043">
        <ele>147.8</ele>
        <time>2011-09-04T07:59:53Z</time>
      </trkpt>
      <trkpt lat="48.43049" lon="-4.44034">
        <ele>148.2</ele>
        <time>2011-09-04T07:59:54Z</time>
      </trkpt>
      <trkpt lat="48.43048" lon="-4.44026">
        <ele>148.1</ele>
        <time>2011-09-04T07:59:55Z</time>
      </trkpt>
      <trkpt lat="48.43049" lon="-4.44017">
        <ele>148.3</ele>
        <time>2011-09-04T07:59:56Z</time>
      </trkpt>
      <trkpt lat="48.4305" lon="-4.44008">
        <ele>148</ele>
        <time>2011-09-04T07:59:57Z</time>
      </trkpt>
      <trkpt lat="48.43053" lon="-4.43998">
        <ele>147</ele>
        <time>2011-09-04T07:59:58Z</time>
      </trkpt>
      <trkpt lat="48.43056" lon="-4.4399">
        <ele>146.4</ele>
        <time>2011-09-04T07:59:59Z</time>
      </trkpt>
      <trkpt lat="48.4306" lon="-4.43983">
        <ele>146.2</ele>
        <time>2011-09-04T08:00:00Z</time>
      </trkpt>
      <trkpt lat="48.43064" lon="-4.43976">
        <ele>145.9</ele>
        <time>2011-09-04T08:00:01Z</time>
      </trkpt>
      <trkpt lat="48.43069" lon="-4.4397">
        <ele>145.3</ele>
        <time>2011-09-04T08:00:02Z</time>
      </trkpt>
      <trkpt lat="48.43074" lon="-4.43965">
        <ele>144.9</ele>
        <time>2011-09-04T08:00:03Z</time>
      </trkpt>
      <trkpt lat="48.43079" lon="-4.43961">
        <ele>145.2</ele>
        <time>2011-09-04T08:00:04Z</time>
      </trkpt>
      <trkpt lat="48.43084" lon="-4.43958">
        <ele>145.4</ele>
        <time>2011-09-04T08:00:05Z</time>
      </trkpt>
      <trkpt lat="48.4309" lon="-4.43957">
        <ele>145.9</ele>
        <time>2011-09-04T08:00:06Z</time>
      </trkpt>
      <trkpt lat="48.43096" lon="-4.43957">
        <ele>146.5</ele>
        <time>2011-09-04T08:00:07Z</time>
      </trkpt>
      <trkpt lat="48.43102" lon="-4.43955">
        <ele>145.7</ele>
        <time>2011-09-04T08:00:08Z</time>
      </trkpt>
      <trkpt lat="48.43107" lon="-4.43954">
        <ele>145.6</ele>
        <time>2011-09-04T08:00:09Z</time>
      </trkpt>
      <trkpt lat="48.43112" lon="-4.43951">
        <ele>146.1</ele>
        <time>2011-09-04T08:00:10Z</time>
      </trkpt>
      <trkpt lat="48.43117" lon="-4.43946">
        <ele>145.7</ele>
        <time>2011-09-04T08:00:11Z</time>
      </trkpt>
      <trkpt lat="48.4312" lon="-4.43938">
        <ele>145.4</ele>
        <time>2011-09-04T08:00:12Z</time>
      </trkpt>
      <trkpt lat="48.43121" lon="-4.4393">
        <ele>145.5</ele>
        <time>2011-09-04T08:00:13Z</time>
      </trkpt>
      <trkpt lat="48.43122" lon="-4.43921">
        <ele>145.3</ele>
        <time>2011-09-04T08:00:14Z</time>
      </trkpt>
      <trkpt lat="48.43121" lon="-4.43912">
        <ele>144.9</ele>
        <time>2011-09-04T08:00:15Z</time>
      </trkpt>
      <trkpt lat="48.43119" lon="-4.43903">
        <ele>144.7</ele>
        <time>2011-09-04T08:00:16Z</time>
      </trkpt>
      <trkpt lat="48.43116" lon="-4.43894">
        <ele>144.3</ele>
        <time>2011-09-04T08:00:17Z</time>
      </trkpt>
      <trkpt lat="48.43112" lon="-4.43886">
        <ele>144.1</ele>
        <time>2011-09-04T08:00:18Z</time>
      </trkpt>
      <trkpt lat="48.43108" lon="-4.43878">
        <ele>143.6</ele>
        <time>2011-09-04T08:00:19Z</time>
      </trkpt>
      <trkpt lat="48.43104" lon="-4.43869">
        <ele>143.3</ele>
        <time>2011-09-04T08:00:20Z</time>
      </trkpt>
      <trkpt lat="48.43101" lon="-4.4386">
        <ele>142.6</ele>
        <time>2011-09-04T08:00:21Z</time>
      </trkpt>
      <trkpt lat="48.43096" lon="-4.43851">
        <ele>142.1</ele>
        <time>2011-09-04T08:00:22Z</time>
      </trkpt>
      <trkpt lat="48.43091" lon="-4.43842">
        <ele>141.2</ele>
        <time>2011-09-04T08:00:23Z</time>
      </trkpt>
      <trkpt lat="48.43087" lon="-4.43833">
        <ele>140.7</ele>
        <time>2011-09-04T08:00:24Z</time>
      </trkpt>
      <trkpt lat="48.43082" lon="-4.43824">
        <ele>140.6</ele>
        <time>2011-09-04T08:00:25Z</time>
      </trkpt>
      <trkpt lat="48.43077" lon="-4.43815">
        <ele>140.3</ele>
        <time>2011-09-04T08:00:26Z</time>
      </trkpt>
      <trkpt lat="48.43072" lon="-4.43806">
        <ele>140.3</ele>
        <time>2011-09-04T08:00:27Z</time>
      </trkpt>
      <trkpt lat="48.43067" lon="-4.43796">
        <ele>140</ele>
        <time>2011-09-04T08:00:28Z</time>
      </trkpt>
      <trkpt lat="48.43062" lon="-4.43786">
        <ele>139.9</ele>
        <time>2011-09-04T08:00:29Z</time>
      </trkpt>
      <trkpt lat="48.43058" lon="-4.43776">
        <ele>139.8</ele>
        <time>2011-09-04T08:00:30Z</time>
      </trkpt>
      <trkpt lat="48.43053" lon="-4.43767">
        <ele>139.6</ele>
        <time>2011-09-04T08:00:31Z</time>
      </trkpt>
      <trkpt lat="48.43048" lon="-4.43757">
        <ele>139.1</ele>
        <time>2011-09-04T08:00:32Z</time>
      </trkpt>
      <trkpt lat="48.43043" lon="-4.43747">
        <ele>139.1</ele>
        <time>2011-09-04T08:00:33Z</time>
      </trkpt>
      <trkpt lat="48.4304" lon="-4.43738">
        <ele>139</ele>
        <time>2011-09-04T08:00:34Z</time>
      </trkpt>
      <trkpt lat="48.43034" lon="-4.43731">
        <ele>139.5</ele>
        <time>2011-09-04T08:00:35Z</time>
      </trkpt>
      <trkpt lat="48.43031" lon="-4.43724">
        <ele>139.4</ele>
        <time>2011-09-04T08:00:36Z</time>
      </trkpt>
      <trkpt lat="48.43027" lon="-4.43717">
        <ele>139.6</ele>
        <time>2011-09-04T08:00:37Z</time>
      </trkpt>
      <trkpt lat="48.43024" lon="-4.43708">
        <ele>140.1</ele>
        <time>2011-09-04T08:00:38Z</time>
      </trkpt>
      <trkpt lat="48.4302" lon="-4.437">
        <ele>140.7</ele>
        <time>2011-09-04T08:00:39Z</time>
      </trkpt>
      <trkpt lat="48.43016" lon="-4.43693">
        <ele>140.9</ele>
        <time>2011-09-04T08:00:40Z</time>
      </trkpt>
      <trkpt lat="48.43013" lon="-4.43686">
        <ele>140.8</ele>
        <time>2011-09-04T08:00:41Z</time>
      </trkpt>
      <trkpt lat="48.43009" lon="-4.43678">
        <ele>140.8</ele>
        <time>2011-09-04T08:00:42Z</time>
      </trkpt>
      <trkpt lat="48.43006" lon="-4.43671">
        <ele>140.7</ele>
        <time>2011-09-04T08:00:43Z</time>
      </trkpt>
      <trkpt lat="48.43003" lon="-4.43664">
        <ele>140.2</ele>
        <time>2011-09-04T08:00:44Z</time>
      </trkpt>
      <trkpt lat="48.43" lon="-4.43657">
        <ele>140.4</ele>
        <time>2011-09-04T08:00:45Z</time>
      </trkpt>
      <trkpt lat="48.42997" lon="-4.4365">
        <ele>140.9</ele>
        <time>2011-09-04T08:00:46Z</time>
      </trkpt>
      <trkpt lat="48.42993" lon="-4.43642">
        <ele>140.9</ele>
        <time>2011-09-04T08:00:47Z</time>
      </trkpt>
      <trkpt lat="48.42989" lon="-4.43636">
        <ele>140.9</ele>
        <time>2011-09-04T08:00:48Z</time>
      </trkpt>
      <trkpt lat="48.42986" lon="-4.43629">
        <ele>140.8</ele>
        <time>2011-09-04T08:00:49Z</time>
      </trkpt>
      <trkpt lat="48.42982" lon="-4.43622">
        <ele>140.5</ele>
        <time>2011-09-04T08:00:50Z</time>
      </trkpt>
      <trkpt lat="48.42978" lon="-4.43616">
        <ele>140.4</ele>
        <time>2011-09-04T08:00:51Z</time>
      </trkpt>
      <trkpt lat="48.42975" lon="-4.43609">
        <ele>140.5</ele>
        <time>2011-09-04T08:00:52Z</time>
      </trkpt>
      <trkpt lat="48.42972" lon="-4.43602">
        <ele>140.3</ele>
        <time>2011-09-04T08:00:53Z</time>
      </trkpt>
      <trkpt lat="48.42968" lon="-4.43596">
        <ele>140.7</ele>
        <time>2011-09-04T08:00:54Z</time>
      </trkpt>
      <trkpt lat="48.42964" lon="-4.43589">
        <ele>141.2</ele>
        <time>2011-09-04T08:00:55Z</time>
      </trkpt>
      <trkpt lat="48.42961" lon="-4.43582">
        <ele>141.2</ele>
        <time>2011-09-04T08:00:56Z</time>
      </trkpt>
      <trkpt lat="48.42958" lon="-4.43576">
        <ele>141.5</ele>
        <time>2011-09-04T08:00:57Z</time>
      </trkpt>
      <trkpt lat="48.42954" lon="-4.43569">
        <ele>141.2</ele>
        <time>2011-09-04T08:00:58Z</time>
      </trkpt>
      <trkpt lat="48.42951" lon="-4.43563">
        <ele>141.4</ele>
        <time>2011-09-04T08:00:59Z</time>
      </trkpt>
      <trkpt lat="48.42947" lon="-4.43556">
        <ele>141.3</ele>
        <time>2011-09-04T08:01:00Z</time>
      </trkpt>
      <trkpt lat="48.42944" lon="-4.4355">
        <ele>141.6</ele>
        <time>2011-09-04T08:01:01Z</time>
      </trkpt>
      <trkpt lat="48.42939" lon="-4.43544">
        <ele>142</ele>
        <time>2011-09-04T08:01:02Z</time>
      </trkpt>
      <trkpt lat="48.42935" lon="-4.43536">
        <ele>142</ele>
        <time>2011-09-04T08:01:03Z</time>
      </trkpt>
      <trkpt lat="48.4293" lon="-4.4353">
        <ele>141.9</ele>
        <time>2011-09-04T08:01:04Z</time>
      </trkpt>
      <trkpt lat="48.42926" lon="-4.43524">
        <ele>141.9</ele>
        <time>2011-09-04T08:01:05Z</time>
      </trkpt>
      <trkpt lat="48.42922" lon="-4.43517">
        <ele>142.2</ele>
        <time>2011-09-04T08:01:06Z</time>
      </trkpt>
      <trkpt lat="48.42918" lon="-4.43512">
        <ele>141.8</ele>
        <time>2011-09-04T08:01:07Z</time>
      </trkpt>
      <trkpt lat="48.42914" lon="-4.43505">
        <ele>142</ele>
        <time>2011-09-04T08:01:08Z</time>
      </trkpt>
      <trkpt lat="48.4291" lon="-4.43499">
        <ele>142.6</ele>
        <time>2011-09-04T08:01:09Z</time>
      </trkpt>
      <trkpt lat="48.42906" lon="-4.43493">
        <ele>142.8</ele>
        <time>2011-09-04T08:01:10Z</time>
      </trkpt>
      <trkpt lat="48.42902" lon="-4.43486">
        <ele>142.9</ele>
        <time>2011-09-04T08:01:11Z</time>
      </trkpt>
      <trkpt lat="48.42898" lon="-4.43481">
        <ele>143.4</ele>
        <time>2011-09-04T08:01:12Z</time>
      </trkpt>
      <trkpt lat="48.42894" lon="-4.43475">
        <ele>143.8</ele>
        <time>2011-09-04T08:01:13Z</time>
      </trkpt>
      <trkpt lat="48.4289" lon="-4.43469">
        <ele>143.7</ele>
        <time>2011-09-04T08:01:14Z</time>
      </trkpt>
      <trkpt lat="48.42886" lon="-4.43463">
        <ele>143.6</ele>
        <time>2011-09-04T08:01:15Z</time>
      </trkpt>
      <trkpt lat="48.42882" lon="-4.43458">
        <ele>143.6</ele>
        <time>2011-09-04T08:01:16Z</time>
      </trkpt>
      <trkpt lat="48.42878" lon="-4.43452">
        <ele>144.2</ele>
        <time>2011-09-04T08:01:17Z</time>
      </trkpt>
      <trkpt lat="48.42873" lon="-4.43446">
        <ele>144.4</ele>
        <time>2011-09-04T08:01:18Z</time>
      </trkpt>
      <trkpt lat="48.42868" lon="-4.4344">
        <ele>144.3</ele>
        <time>2011-09-04T08:01:19Z</time>
      </trkpt>
      <trkpt lat="48.42864" lon="-4.43434">
        <ele>144.4</ele>
        <time>2011-09-04T08:01:20Z</time>
      </trkpt>
      <trkpt lat="48.4286" lon="-4.43428">
        <ele>144.3</ele>
        <time>2011-09-04T08:01:21Z</time>
      </trkpt>
      <trkpt lat="48.42856" lon="-4.43423">
        <ele>144.2</ele>
        <time>2011-09-04T08:01:22Z</time>
      </trkpt>
      <trkpt lat="48.42852" lon="-4.43417">
        <ele>144.3</ele>
        <time>2011-09-04T08:01:23Z</time>
      </trkpt>
      <trkpt lat="48.42848" lon="-4.43411">
        <ele>143.5</ele>
        <time>2011-09-04T08:01:24Z</time>
      </trkpt>
      <trkpt lat="48.42843" lon="-4.43405">
        <ele>143.3</ele>
        <time>2011-09-04T08:01:25Z</time>
      </trkpt>
      <trkpt lat="48.42839" lon="-4.43399">
        <ele>143.2</ele>
        <time>2011-09-04T08:01:26Z</time>
      </trkpt>
      <trkpt lat="48.42834" lon="-4.43394">
        <ele>143.4</ele>
        <time>2011-09-04T08:01:27Z</time>
      </trkpt>
      <trkpt lat="48.4283" lon="-4.43388">
        <ele>143.3</ele>
        <time>2011-09-04T08:01:28Z</time>
      </trkpt>
      <trkpt lat="48.42826" lon="-4.43383">
        <ele>143.3</ele>
        <time>2011-09-04T08:01:29Z</time>
      </trkpt>
      <trkpt lat="48.42821" lon="-4.43377">
        <ele>143.5</ele>
        <time>2011-09-04T08:01:30Z</time>
      </trkpt>
      <trkpt lat="48.42816" lon="-4.43372">
        <ele>143.5</ele>
        <time>2011-09-04T08:01:31Z</time>
      </trkpt>
      <trkpt lat="48.4281" lon="-4.43367">
        <ele>143.3</ele>
        <time>2011-09-04T08:01:32Z</time>
      </trkpt>
      <trkpt lat="48.42806" lon="-4.43361">
        <ele>143.2</ele>
        <time>2011-09-04T08:01:33Z</time>
      </trkpt>
      <trkpt lat="48.42802" lon="-4.43356">
        <ele>143.1</ele>
        <time>2011-09-04T08:01:34Z</time>
      </trkpt>
      <trkpt lat="48.42798" lon="-4.4335">
        <ele>142.9</ele>
        <time>2011-09-04T08:01:35Z</time>
      </trkpt>
      <trkpt lat="48.42794" lon="-4.43346">
        <ele>143.4</ele>
        <time>2011-09-04T08:01:36Z</time>
      </trkpt>
      <trkpt lat="48.42789" lon="-4.43341">
        <ele>143.4</ele>
        <time>2011-09-04T08:01:37Z</time>
      </trkpt>
      <trkpt lat="48.42786" lon="-4.43336">
        <ele>143.5</ele>
        <time>2011-09-04T08:01:38Z</time>
      </trkpt>
      <trkpt lat="48.42778" lon="-4.43328">
        <ele>143.3</ele>
        <time>2011-09-04T08:01:40Z</time>
      </trkpt>
      <trkpt lat="48.42772" lon="-4.43323">
        <ele>143.3</ele>
        <time>2011-09-04T08:01:42Z</time>
      </trkpt>
      <trkpt lat="48.42766" lon="-4.43316">
        <ele>143.9</ele>
        <time>2011-09-04T08:01:44Z</time>
      </trkpt>
      <trkpt lat="48.42763" lon="-4.43308">
        <ele>143.4</ele>
        <time>2011-09-04T08:01:46Z</time>
      </trkpt>
      <trkpt lat="48.42764" lon="-4.43298">
        <ele>143.7</ele>
        <time>2011-09-04T08:01:48Z</time>
      </trkpt>
      <trkpt lat="48.42765" lon="-4.43287">
        <ele>144.4</ele>
        <time>2011-09-04T08:01:50Z</time>
      </trkpt>
      <trkpt lat="48.42767" lon="-4.43275">
        <ele>144.2</ele>
        <time>2011-09-04T08:01:52Z</time>
      </trkpt>
      <trkpt lat="48.42768" lon="-4.43263">
        <ele>145.3</ele>
        <time>2011-09-04T08:01:54Z</time>
      </trkpt>
      <trkpt lat="48.4277" lon="-4.4325">
        <ele>144.2</ele>
        <time>2011-09-04T08:01:56Z</time>
      </trkpt>
      <trkpt lat="48.42772" lon="-4.43242">
        <ele>143.9</ele>
        <time>2011-09-04T08:01:57Z</time>
      </trkpt>
      <trkpt lat="48.42773" lon="-4.43235">
        <ele>143.7</ele>
        <time>2011-09-04T08:01:58Z</time>
      </trkpt>
      <trkpt lat="48.42774" lon="-4.43225">
        <ele>143.4</ele>
        <time>2011-09-04T08:01:59Z</time>
      </trkpt>
      <trkpt lat="48.42775" lon="-4.43217">
        <ele>143.2</ele>
        <time>2011-09-04T08:02:00Z</time>
      </trkpt>
      <trkpt lat="48.42777" lon="-4.4321">
        <ele>142.8</ele>
        <time>2011-09-04T08:02:01Z</time>
      </trkpt>
      <trkpt lat="48.42779" lon="-4.43197">
        <ele>143</ele>
        <time>2011-09-04T08:02:03Z</time>
      </trkpt>
      <trkpt lat="48.4278" lon="-4.4319">
        <ele>143.2</ele>
        <time>2011-09-04T08:02:04Z</time>
      </trkpt>
      <trkpt lat="48.42781" lon="-4.43182">
        <ele>143.2</ele>
        <time>2011-09-04T08:02:05Z</time>
      </trkpt>
      <trkpt lat="48.42782" lon="-4.43175">
        <ele>143.4</ele>
        <time>2011-09-04T08:02:06Z</time>
      </trkpt>
      <trkpt lat="48.42784" lon="-4.43167">
        <ele>143.2</ele>
        <time>2011-09-04T08:02:07Z</time>
      </trkpt>
      <trkpt lat="48.42785" lon="-4.4316">
        <ele>143.3</ele>
        <time>2011-09-04T08:02:08Z</time>
      </trkpt>
      <trkpt lat="48.42786" lon="-4.43152">
        <ele>143.1</ele>
        <time>2011-09-04T08:02:09Z</time>
      </trkpt>
      <trkpt lat="48.42788" lon="-4.43144">
        <ele>142.4</ele>
        <time>2011-09-04T08:02:10Z</time>
      </trkpt>
      <trkpt lat="48.42789" lon="-4.43136">
        <ele>142.1</ele>
        <time>2011-09-04T08:02:11Z</time>
      </trkpt>
      <trkpt lat="48.42791" lon="-4.43128">
        <ele>141.7</ele>
        <time>2011-09-04T08:02:12Z</time>
      </trkpt>
      <trkpt lat="48.42792" lon="-4.4312">
        <ele>141.3</ele>
        <time>2011-09-04T08:02:13Z</time>
      </trkpt>
      <trkpt lat="48.42794" lon="-4.43113">
        <ele>141.2</ele>
        <time>2011-09-04T08:02:14Z</time>
      </trkpt>
      <trkpt lat="48.42796" lon="-4.43105">
        <ele>141.2</ele>
        <time>2011-09-04T08:02:15Z</time>
      </trkpt>
      <trkpt lat="48.42797" lon="-4.43096">
        <ele>141.3</ele>
        <time>2011-09-04T08:02:16Z</time>
      </trkpt>
      <trkpt lat="48.42799" lon="-4.43089">
        <ele>140.8</ele>
        <time>2011-09-04T08:02:17Z</time>
      </trkpt>
      <trkpt lat="48.428" lon="-4.43081">
        <ele>140.7</ele>
        <time>2011-09-04T08:02:18Z</time>
      </trkpt>
      <trkpt lat="48.42802" lon="-4.43073">
        <ele>140.8</ele>
        <time>2011-09-04T08:02:19Z</time>
      </trkpt>
      <trkpt lat="48.42803" lon="-4.43065">
        <ele>140.8</ele>
        <time>2011-09-04T08:02:20Z</time>
      </trkpt>
      <trkpt lat="48.42805" lon="-4.43052">
        <ele>140.7</ele>
        <time>2011-09-04T08:02:22Z</time>
      </trkpt>
      <trkpt lat="48.42808" lon="-4.43041">
        <ele>140.6</ele>
        <time>2011-09-04T08:02:24Z</time>
      </trkpt>
      <trkpt lat="48.42811" lon="-4.43033">
        <ele>140.6</ele>
        <time>2011-09-04T08:02:25Z</time>
      </trkpt>
      <trkpt lat="48.42813" lon="-4.43026">
        <ele>140.6</ele>
        <time>2011-09-04T08:02:26Z</time>
      </trkpt>
      <trkpt lat="48.42815" lon="-4.43015">
        <ele>140.8</ele>
        <time>2011-09-04T08:02:28Z</time>
      </trkpt>
      <trkpt lat="48.42817" lon="-4.43007">
        <ele>141.5</ele>
        <time>2011-09-04T08:02:29Z</time>
      </trkpt>
      <trkpt lat="48.42822" lon="-4.42999">
        <ele>140.4</ele>
        <time>2011-09-04T08:02:30Z</time>
      </trkpt>
      <trkpt lat="48.42823" lon="-4.4299">
        <ele>139.9</ele>
        <time>2011-09-04T08:02:31Z</time>
      </trkpt>
      <trkpt lat="48.42823" lon="-4.42978">
        <ele>139.4</ele>
        <time>2011-09-04T08:02:32Z</time>
      </trkpt>
      <trkpt lat="48.42824" lon="-4.42964">
        <ele>139</ele>
        <time>2011-09-04T08:02:34Z</time>
      </trkpt>
      <trkpt lat="48.42829" lon="-4.42957">
        <ele>138.8</ele>
        <time>2011-09-04T08:02:35Z</time>
      </trkpt>
      <trkpt lat="48.42832" lon="-4.42952">
        <ele>139.3</ele>
        <time>2011-09-04T08:02:36Z</time>
      </trkpt>
      <trkpt lat="48.42835" lon="-4.42944">
        <ele>139.6</ele>
        <time>2011-09-04T08:02:37Z</time>
      </trkpt>
      <trkpt lat="48.42835" lon="-4.42935">
        <ele>140.4</ele>
        <time>2011-09-04T08:02:38Z</time>
      </trkpt>
      <trkpt lat="48.42836" lon="-4.42928">
        <ele>140.3</ele>
        <time>2011-09-04T08:02:39Z</time>
      </trkpt>
      <trkpt lat="48.42839" lon="-4.42919">
        <ele>139.8</ele>
        <time>2011-09-04T08:02:40Z</time>
      </trkpt>
      <trkpt lat="48.42838" lon="-4.42911">
        <ele>139.9</ele>
        <time>2011-09-04T08:02:41Z</time>
      </trkpt>
      <trkpt lat="48.42839" lon="-4.42904">
        <ele>140.5</ele>
        <time>2011-09-04T08:02:42Z</time>
      </trkpt>
      <trkpt lat="48.42838" lon="-4.42895">
        <ele>139.7</ele>
        <time>2011-09-04T08:02:43Z</time>
      </trkpt>
      <trkpt lat="48.42839" lon="-4.42887">
        <ele>139.5</ele>
        <time>2011-09-04T08:02:44Z</time>
      </trkpt>
      <trkpt lat="48.42839" lon="-4.4288">
        <ele>139.6</ele>
        <time>2011-09-04T08:02:45Z</time>
      </trkpt>
      <trkpt lat="48.42839" lon="-4.4287">
        <ele>139.1</ele>
        <time>2011-09-04T08:02:46Z</time>
      </trkpt>
      <trkpt lat="48.42839" lon="-4.42862">
        <ele>139.2</ele>
        <time>2011-09-04T08:02:47Z</time>
      </trkpt>
      <trkpt lat="48.42839" lon="-4.42855">
        <ele>138.5</ele>
        <time>2011-09-04T08:02:48Z</time>
      </trkpt>
      <trkpt lat="48.42839" lon="-4.42847">
        <ele>138.4</ele>
        <time>2011-09-04T08:02:49Z</time>
      </trkpt>
      <trkpt lat="48.42839" lon="-4.42839">
        <ele>138.3</ele>
        <time>2011-09-04T08:02:50Z</time>
      </trkpt>
      <trkpt lat="48.42837" lon="-4.42823">
        <ele>137.6</ele>
        <time>2011-09-04T08:02:52Z</time>
      </trkpt>
      <trkpt lat="48.42838" lon="-4.42816">
        <ele>137.4</ele>
        <time>2011-09-04T08:02:53Z</time>
      </trkpt>
      <trkpt lat="48.42838" lon="-4.42808">
        <ele>136.7</ele>
        <time>2011-09-04T08:02:54Z</time>
      </trkpt>
      <trkpt lat="48.4284" lon="-4.428">
        <ele>138.4</ele>
        <time>2011-09-04T08:02:55Z</time>
      </trkpt>
      <trkpt lat="48.42842" lon="-4.42793">
        <ele>138.1</ele>
        <time>2011-09-04T08:02:56Z</time>
      </trkpt>
      <trkpt lat="48.42846" lon="-4.42786">
        <ele>137.8</ele>
        <time>2011-09-04T08:02:57Z</time>
      </trkpt>
      <trkpt lat="48.42847" lon="-4.42779">
        <ele>138</ele>
        <time>2011-09-04T08:02:58Z</time>
      </trkpt>
      <trkpt lat="48.42849" lon="-4.42772">
        <ele>137.3</ele>
        <time>2011-09-04T08:02:59Z</time>
      </trkpt>
      <trkpt lat="48.42854" lon="-4.42761">
        <ele>137.3</ele>
        <time>2011-09-04T08:03:01Z</time>
      </trkpt>
      <trkpt lat="48.42856" lon="-4.42747">
        <ele>136.8</ele>
        <time>2011-09-04T08:03:03Z</time>
      </trkpt>
      <trkpt lat="48.42858" lon="-4.42736">
        <ele>137.4</ele>
        <time>2011-09-04T08:03:04Z</time>
      </trkpt>
      <trkpt lat="48.4286" lon="-4.42727">
        <ele>137.2</ele>
        <time>2011-09-04T08:03:05Z</time>
      </trkpt>
      <trkpt lat="48.42863" lon="-4.4272">
        <ele>136.7</ele>
        <time>2011-09-04T08:03:06Z</time>
      </trkpt>
      <trkpt lat="48.42862" lon="-4.4271">
        <ele>137.2</ele>
        <time>2011-09-04T08:03:07Z</time>
      </trkpt>
      <trkpt lat="48.42862" lon="-4.42703">
        <ele>136.9</ele>
        <time>2011-09-04T08:03:08Z</time>
      </trkpt>
      <trkpt lat="48.4286" lon="-4.42695">
        <ele>136.6</ele>
        <time>2011-09-04T08:03:09Z</time>
      </trkpt>
      <trkpt lat="48.42866" lon="-4.4269">
        <ele>136.2</ele>
        <time>2011-09-04T08:03:10Z</time>
      </trkpt>
      <trkpt lat="48.42871" lon="-4.42684">
        <ele>136.8</ele>
        <time>2011-09-04T08:03:11Z</time>
      </trkpt>
      <trkpt lat="48.42873" lon="-4.42677">
        <ele>136.7</ele>
        <time>2011-09-04T08:03:12Z</time>
      </trkpt>
      <trkpt lat="48.42875" lon="-4.42663">
        <ele>137.6</ele>
        <time>2011-09-04T08:03:14Z</time>
      </trkpt>
      <trkpt lat="48.42875" lon="-4.42655">
        <ele>137.5</ele>
        <time>2011-09-04T08:03:15Z</time>
      </trkpt>
      <trkpt lat="48.42877" lon="-4.42647">
        <ele>138.3</ele>
        <time>2011-09-04T08:03:16Z</time>
      </trkpt>
      <trkpt lat="48.42878" lon="-4.4264">
        <ele>138.4</ele>
        <time>2011-09-04T08:03:17Z</time>
      </trkpt>
      <trkpt lat="48.42879" lon="-4.4263">
        <ele>137.9</ele>
        <time>2011-09-04T08:03:18Z</time>
      </trkpt>
      <trkpt lat="48.42881" lon="-4.42623">
        <ele>138.8</ele>
        <time>2011-09-04T08:03:19Z</time>
      </trkpt>
      <trkpt lat="48.4288" lon="-4.42615">
        <ele>138.8</ele>
        <time>2011-09-04T08:03:20Z</time>
      </trkpt>
      <trkpt lat="48.42882" lon="-4.42607">
        <ele>139.3</ele>
        <time>2011-09-04T08:03:21Z</time>
      </trkpt>
      <trkpt lat="48.42881" lon="-4.42596">
        <ele>138.3</ele>
        <time>2011-09-04T08:03:23Z</time>
      </trkpt>
      <trkpt lat="48.42875" lon="-4.42591">
        <ele>136.8</ele>
        <time>2011-09-04T08:03:25Z</time>
      </trkpt>
      <trkpt lat="48.4287" lon="-4.42588">
        <ele>136.5</ele>
        <time>2011-09-04T08:03:26Z</time>
      </trkpt>
      <trkpt lat="48.42863" lon="-4.42583">
        <ele>136.7</ele>
        <time>2011-09-04T08:03:28Z</time>
      </trkpt>
      <trkpt lat="48.42854" lon="-4.42579">
        <ele>136.1</ele>
        <time>2011-09-04T08:03:30Z</time>
      </trkpt>
      <trkpt lat="48.42843" lon="-4.42573">
        <ele>135.6</ele>
        <time>2011-09-04T08:03:32Z</time>
      </trkpt>
      <trkpt lat="48.42834" lon="-4.4257">
        <ele>134.3</ele>
        <time>2011-09-04T08:03:34Z</time>
      </trkpt>
      <trkpt lat="48.42826" lon="-4.42562">
        <ele>133.4</ele>
        <time>2011-09-04T08:03:36Z</time>
      </trkpt>
      <trkpt lat="48.42817" lon="-4.42558">
        <ele>133.6</ele>
        <time>2011-09-04T08:03:38Z</time>
      </trkpt>
      <trkpt lat="48.42811" lon="-4.42554">
        <ele>132.9</ele>
        <time>2011-09-04T08:03:39Z</time>
      </trkpt>
      <trkpt lat="48.42806" lon="-4.42551">
        <ele>132.6</ele>
        <time>2011-09-04T08:03:40Z</time>
      </trkpt>
      <trkpt lat="48.42799" lon="-4.42547">
        <ele>132.6</ele>
        <time>2011-09-04T08:03:41Z</time>
      </trkpt>
      <trkpt lat="48.42795" lon="-4.42543">
        <ele>132.5</ele>
        <time>2011-09-04T08:03:42Z</time>
      </trkpt>
      <trkpt lat="48.42789" lon="-4.4254">
        <ele>133</ele>
        <time>2011-09-04T08:03:43Z</time>
      </trkpt>
      <trkpt lat="48.42785" lon="-4.42535">
        <ele>132.5</ele>
        <time>2011-09-04T08:03:44Z</time>
      </trkpt>
      <trkpt lat="48.4278" lon="-4.42532">
        <ele>132.5</ele>
        <time>2011-09-04T08:03:45Z</time>
      </trkpt>
      <trkpt lat="48.4278" lon="-4.42524">
        <ele>130.1</ele>
        <time>2011-09-04T08:03:46Z</time>
      </trkpt>
      <trkpt lat="48.42779" lon="-4.42515">
        <ele>130.4</ele>
        <time>2011-09-04T08:03:47Z</time>
      </trkpt>
      <trkpt lat="48.42779" lon="-4.42506">
        <ele>130.4</ele>
        <time>2011-09-04T08:03:48Z</time>
      </trkpt>
      <trkpt lat="48.4278" lon="-4.42497">
        <ele>129</ele>
        <time>2011-09-04T08:03:49Z</time>
      </trkpt>
      <trkpt lat="48.42781" lon="-4.42488">
        <ele>128.6</ele>
        <time>2011-09-04T08:03:50Z</time>
      </trkpt>
      <trkpt lat="48.42783" lon="-4.42478">
        <ele>129.8</ele>
        <time>2011-09-04T08:03:51Z</time>
      </trkpt>
      <trkpt lat="48.42785" lon="-4.42468">
        <ele>129.2</ele>
        <time>2011-09-04T08:03:52Z</time>
      </trkpt>
      <trkpt lat="48.42787" lon="-4.42459">
        <ele>129.5</ele>
        <time>2011-09-04T08:03:53Z</time>
      </trkpt>
      <trkpt lat="48.42791" lon="-4.42451">
        <ele>129.1</ele>
        <time>2011-09-04T08:03:54Z</time>
      </trkpt>
      <trkpt lat="48.42794" lon="-4.42443">
        <ele>129.4</ele>
        <time>2011-09-04T08:03:55Z</time>
      </trkpt>
      <trkpt lat="48.42798" lon="-4.42434">
        <ele>130.4</ele>
        <time>2011-09-04T08:03:56Z</time>
      </trkpt>
      <trkpt lat="48.42802" lon="-4.42426">
        <ele>130.7</ele>
        <time>2011-09-04T08:03:57Z</time>
      </trkpt>
      <trkpt lat="48.42806" lon="-4.4242">
        <ele>130.5</ele>
        <time>2011-09-04T08:03:58Z</time>
      </trkpt>
      <trkpt lat="48.42807" lon="-4.4241">
        <ele>130.2</ele>
        <time>2011-09-04T08:03:59Z</time>
      </trkpt>
      <trkpt lat="48.4281" lon="-4.42399">
        <ele>128.5</ele>
        <time>2011-09-04T08:04:00Z</time>
      </trkpt>
      <trkpt lat="48.42811" lon="-4.4239">
        <ele>128.1</ele>
        <time>2011-09-04T08:04:01Z</time>
      </trkpt>
      <trkpt lat="48.42811" lon="-4.42379">
        <ele>127.6</ele>
        <time>2011-09-04T08:04:02Z</time>
      </trkpt>
      <trkpt lat="48.42812" lon="-4.42371">
        <ele>127.4</ele>
        <time>2011-09-04T08:04:03Z</time>
      </trkpt>
      <trkpt lat="48.42812" lon="-4.42363">
        <ele>127.1</ele>
        <time>2011-09-04T08:04:04Z</time>
      </trkpt>
      <trkpt lat="48.42814" lon="-4.42353">
        <ele>127.4</ele>
        <time>2011-09-04T08:04:05Z</time>
      </trkpt>
      <trkpt lat="48.42814" lon="-4.42343">
        <ele>127.4</ele>
        <time>2011-09-04T08:04:06Z</time>
      </trkpt>
      <trkpt lat="48.42813" lon="-4.4233">
        <ele>129</ele>
        <time>2011-09-04T08:04:07Z</time>
      </trkpt>
      <trkpt lat="48.42813" lon="-4.42319">
        <ele>128.7</ele>
        <time>2011-09-04T08:04:08Z</time>
      </trkpt>
      <trkpt lat="48.42813" lon="-4.42309">
        <ele>128.9</ele>
        <time>2011-09-04T08:04:09Z</time>
      </trkpt>
      <trkpt lat="48.42814" lon="-4.42299">
        <ele>129</ele>
        <time>2011-09-04T08:04:10Z</time>
      </trkpt>
      <trkpt lat="48.42815" lon="-4.42292">
        <ele>128.8</ele>
        <time>2011-09-04T08:04:11Z</time>
      </trkpt>
      <trkpt lat="48.42816" lon="-4.42283">
        <ele>128.7</ele>
        <time>2011-09-04T08:04:12Z</time>
      </trkpt>
      <trkpt lat="48.42815" lon="-4.42275">
        <ele>128.6</ele>
        <time>2011-09-04T08:04:13Z</time>
      </trkpt>
      <trkpt lat="48.42814" lon="-4.42268">
        <ele>129.3</ele>
        <time>2011-09-04T08:04:14Z</time>
      </trkpt>
      <trkpt lat="48.42814" lon="-4.42254">
        <ele>129.7</ele>
        <time>2011-09-04T08:04:16Z</time>
      </trkpt>
      <trkpt lat="48.42814" lon="-4.42247">
        <ele>129.6</ele>
        <time>2011-09-04T08:04:17Z</time>
      </trkpt>
      <trkpt lat="48.42813" lon="-4.42239">
        <ele>129.5</ele>
        <time>2011-09-04T08:04:18Z</time>
      </trkpt>
      <trkpt lat="48.42812" lon="-4.42232">
        <ele>129.6</ele>
        <time>2011-09-04T08:04:19Z</time>
      </trkpt>
      <trkpt lat="48.42812" lon="-4.42225">
        <ele>129.7</ele>
        <time>2011-09-04T08:04:20Z</time>
      </trkpt>
      <trkpt lat="48.42814" lon="-4.42209">
        <ele>130.6</ele>
        <time>2011-09-04T08:04:22Z</time>
      </trkpt>
      <trkpt lat="48.42814" lon="-4.42197">
        <ele>130.1</ele>
        <time>2011-09-04T08:04:23Z</time>
      </trkpt>
      <trkpt lat="48.42812" lon="-4.42186">
        <ele>129.6</ele>
        <time>2011-09-04T08:04:24Z</time>
      </trkpt>
      <trkpt lat="48.42811" lon="-4.42177">
        <ele>129</ele>
        <time>2011-09-04T08:04:25Z</time>
      </trkpt>
      <trkpt lat="48.42811" lon="-4.42165">
        <ele>128.9</ele>
        <time>2011-09-04T08:04:26Z</time>
      </trkpt>
      <trkpt lat="48.42811" lon="-4.42154">
        <ele>129</ele>
        <time>2011-09-04T08:04:27Z</time>
      </trkpt>
      <trkpt lat="48.4281" lon="-4.42144">
        <ele>128.9</ele>
        <time>2011-09-04T08:04:28Z</time>
      </trkpt>
      <trkpt lat="48.42808" lon="-4.42135">
        <ele>128.7</ele>
        <time>2011-09-04T08:04:29Z</time>
      </trkpt>
      <trkpt lat="48.42806" lon="-4.42124">
        <ele>128.5</ele>
        <time>2011-09-04T08:04:30Z</time>
      </trkpt>
      <trkpt lat="48.42804" lon="-4.42112">
        <ele>128.7</ele>
        <time>2011-09-04T08:04:31Z</time>
      </trkpt>
      <trkpt lat="48.42804" lon="-4.42104">
        <ele>128.7</ele>
        <time>2011-09-04T08:04:32Z</time>
      </trkpt>
      <trkpt lat="48.42804" lon="-4.42095">
        <ele>128.4</ele>
        <time>2011-09-04T08:04:33Z</time>
      </trkpt>
      <trkpt lat="48.42804" lon="-4.42085">
        <ele>127.9</ele>
        <time>2011-09-04T08:04:34Z</time>
      </trkpt>
      <trkpt lat="48.42804" lon="-4.42076">
        <ele>127.8</ele>
        <time>2011-09-04T08:04:35Z</time>
      </trkpt>
      <trkpt lat="48.42803" lon="-4.42067">
        <ele>128</ele>
        <time>2011-09-04T08:04:36Z</time>
      </trkpt>
      <trkpt lat="48.42802" lon="-4.42057">
        <ele>127.9</ele>
        <time>2011-09-04T08:04:37Z</time>
      </trkpt>
      <trkpt lat="48.42802" lon="-4.42045">
        <ele>127.1</ele>
        <time>2011-09-04T08:04:38Z</time>
      </trkpt>
      <trkpt lat="48.42801" lon="-4.42035">
        <ele>126.7</ele>
        <time>2011-09-04T08:04:39Z</time>
      </trkpt>
      <trkpt lat="48.42798" lon="-4.42024">
        <ele>126.4</ele>
        <time>2011-09-04T08:04:41Z</time>
      </trkpt>
      <trkpt lat="48.428" lon="-4.42018">
        <ele>124.6</ele>
        <time>2011-09-04T08:04:50Z</time>
      </trkpt>
      <trkpt lat="48.42804" lon="-4.42012">
        <ele>124.6</ele>
        <time>2011-09-04T08:04:54Z</time>
      </trkpt>
      <trkpt lat="48.42802" lon="-4.42004">
        <ele>125.7</ele>
        <time>2011-09-04T08:04:57Z</time>
      </trkpt>
      <trkpt lat="48.42798" lon="-4.42004">
        <ele>127.9</ele>
        <time>2011-09-04T08:05:04Z</time>
      </trkpt>
      <trkpt lat="48.42798" lon="-4.41998">
        <ele>123.4</ele>
        <time>2011-09-04T08:12:34Z</time>
      </trkpt>
      <trkpt lat="48.42796" lon="-4.4199">
        <ele>123.5</ele>
        <time>2011-09-04T08:12:37Z</time>
      </trkpt>
      <trkpt lat="48.42796" lon="-4.41982">
        <ele>122.9</ele>
        <time>2011-09-04T08:12:39Z</time>
      </trkpt>
      <trkpt lat="48.42798" lon="-4.41973">
        <ele>122.9</ele>
        <time>2011-09-04T08:12:41Z</time>
      </trkpt>
      <trkpt lat="48.42798" lon="-4.41964">
        <ele>126.3</ele>
        <time>2011-09-04T08:12:43Z</time>
      </trkpt>
      <trkpt lat="48.42797" lon="-4.41953">
        <ele>125.9</ele>
        <time>2011-09-04T08:12:45Z</time>
      </trkpt>
      <trkpt lat="48.42797" lon="-4.41943">
        <ele>125.9</ele>
        <time>2011-09-04T08:12:48Z</time>
      </trkpt>
      <trkpt lat="48.42797" lon="-4.41932">
        <ele>126.2</ele>
        <time>2011-09-04T08:12:50Z</time>
      </trkpt>
      <trkpt lat="48.42798" lon="-4.41919">
        <ele>126.1</ele>
        <time>2011-09-04T08:12:51Z</time>
      </trkpt>
      <trkpt lat="48.42795" lon="-4.41907">
        <ele>125.6</ele>
        <time>2011-09-04T08:12:53Z</time>
      </trkpt>
      <trkpt lat="48.42794" lon="-4.419">
        <ele>124.9</ele>
        <time>2011-09-04T08:12:54Z</time>
      </trkpt>
      <trkpt lat="48.42791" lon="-4.41892">
        <ele>124.5</ele>
        <time>2011-09-04T08:12:55Z</time>
      </trkpt>
      <trkpt lat="48.42792" lon="-4.41885">
        <ele>123.4</ele>
        <time>2011-09-04T08:12:56Z</time>
      </trkpt>
      <trkpt lat="48.42791" lon="-4.41877">
        <ele>122.6</ele>
        <time>2011-09-04T08:12:57Z</time>
      </trkpt>
      <trkpt lat="48.42789" lon="-4.41863">
        <ele>120</ele>
        <time>2011-09-04T08:13:00Z</time>
      </trkpt>
      <trkpt lat="48.42789" lon="-4.41854">
        <ele>118.7</ele>
        <time>2011-09-04T08:13:00Z</time>
      </trkpt>
      <trkpt lat="48.42789" lon="-4.41839">
        <ele>119.3</ele>
        <time>2011-09-04T08:13:03Z</time>
      </trkpt>
      <trkpt lat="48.42791" lon="-4.41825">
        <ele>119.5</ele>
        <time>2011-09-04T08:13:05Z</time>
      </trkpt>
      <trkpt lat="48.42792" lon="-4.41817">
        <ele>118.7</ele>
        <time>2011-09-04T08:13:05Z</time>
      </trkpt>
      <trkpt lat="48.42792" lon="-4.41808">
        <ele>118.4</ele>
        <time>2011-09-04T08:13:06Z</time>
      </trkpt>
      <trkpt lat="48.42792" lon="-4.418">
        <ele>117.8</ele>
        <time>2011-09-04T08:13:07Z</time>
      </trkpt>
      <trkpt lat="48.42793" lon="-4.41791">
        <ele>117.8</ele>
        <time>2011-09-04T08:13:08Z</time>
      </trkpt>
      <trkpt lat="48.42794" lon="-4.41784">
        <ele>117.7</ele>
        <time>2011-09-04T08:13:09Z</time>
      </trkpt>
      <trkpt lat="48.42795" lon="-4.41776">
        <ele>117.7</ele>
        <time>2011-09-04T08:13:10Z</time>
      </trkpt>
      <trkpt lat="48.42799" lon="-4.41769">
        <ele>117.1</ele>
        <time>2011-09-04T08:13:11Z</time>
      </trkpt>
      <trkpt lat="48.42802" lon="-4.41761">
        <ele>116.9</ele>
        <time>2011-09-04T08:13:12Z</time>
      </trkpt>
      <trkpt lat="48.42804" lon="-4.41754">
        <ele>117</ele>
        <time>2011-09-04T08:13:13Z</time>
      </trkpt>
      <trkpt lat="48.42807" lon="-4.41747">
        <ele>116.7</ele>
        <time>2011-09-04T08:13:14Z</time>
      </trkpt>
      <trkpt lat="48.4281" lon="-4.4174">
        <ele>116.8</ele>
        <time>2011-09-04T08:13:15Z</time>
      </trkpt>
      <trkpt lat="48.42812" lon="-4.41732">
        <ele>116.2</ele>
        <time>2011-09-04T08:13:16Z</time>
      </trkpt>
      <trkpt lat="48.42815" lon="-4.41724">
        <ele>116.6</ele>
        <time>2011-09-04T08:13:17Z</time>
      </trkpt>
      <trkpt lat="48.42817" lon="-4.41716">
        <ele>116.4</ele>
        <time>2011-09-04T08:13:18Z</time>
      </trkpt>
      <trkpt lat="48.42821" lon="-4.41708">
        <ele>116.2</ele>
        <time>2011-09-04T08:13:19Z</time>
      </trkpt>
      <trkpt lat="48.42824" lon="-4.41701">
        <ele>116.2</ele>
        <time>2011-09-04T08:13:20Z</time>
      </trkpt>
      <trkpt lat="48.42827" lon="-4.41694">
        <ele>115.8</ele>
        <time>2011-09-04T08:13:21Z</time>
      </trkpt>
      <trkpt lat="48.42831" lon="-4.41686">
        <ele>114.8</ele>
        <time>2011-09-04T08:13:22Z</time>
      </trkpt>
      <trkpt lat="48.42834" lon="-4.4168">
        <ele>115.8</ele>
        <time>2011-09-04T08:13:23Z</time>
      </trkpt>
      <trkpt lat="48.42836" lon="-4.41673">
        <ele>116.3</ele>
        <time>2011-09-04T08:13:24Z</time>
      </trkpt>
      <trkpt lat="48.42839" lon="-4.41666">
        <ele>116.8</ele>
        <time>2011-09-04T08:13:25Z</time>
      </trkpt>
      <trkpt lat="48.42841" lon="-4.41659">
        <ele>116</ele>
        <time>2011-09-04T08:13:26Z</time>
      </trkpt>
      <trkpt lat="48.42846" lon="-4.41654">
        <ele>117.7</ele>
        <time>2011-09-04T08:13:27Z</time>
      </trkpt>
      <trkpt lat="48.42851" lon="-4.41642">
        <ele>117.4</ele>
        <time>2011-09-04T08:13:30Z</time>
      </trkpt>
      <trkpt lat="48.42854" lon="-4.41636">
        <ele>116.9</ele>
        <time>2011-09-04T08:13:30Z</time>
      </trkpt>
      <trkpt lat="48.42857" lon="-4.41628">
        <ele>116.5</ele>
        <time>2011-09-04T08:13:31Z</time>
      </trkpt>
      <trkpt lat="48.42859" lon="-4.41617">
        <ele>115.8</ele>
        <time>2011-09-04T08:13:32Z</time>
      </trkpt>
      <trkpt lat="48.42862" lon="-4.41605">
        <ele>115.4</ele>
        <time>2011-09-04T08:13:33Z</time>
      </trkpt>
      <trkpt lat="48.42865" lon="-4.41596">
        <ele>114.1</ele>
        <time>2011-09-04T08:13:34Z</time>
      </trkpt>
      <trkpt lat="48.42867" lon="-4.41586">
        <ele>114.2</ele>
        <time>2011-09-04T08:13:35Z</time>
      </trkpt>
      <trkpt lat="48.42869" lon="-4.41576">
        <ele>113.7</ele>
        <time>2011-09-04T08:13:36Z</time>
      </trkpt>
      <trkpt lat="48.42871" lon="-4.41568">
        <ele>113</ele>
        <time>2011-09-04T08:13:37Z</time>
      </trkpt>
      <trkpt lat="48.42872" lon="-4.41558">
        <ele>112.4</ele>
        <time>2011-09-04T08:13:38Z</time>
      </trkpt>
      <trkpt lat="48.42873" lon="-4.4155">
        <ele>112.4</ele>
        <time>2011-09-04T08:13:39Z</time>
      </trkpt>
      <trkpt lat="48.42874" lon="-4.41541">
        <ele>112</ele>
        <time>2011-09-04T08:13:40Z</time>
      </trkpt>
      <trkpt lat="48.42875" lon="-4.41533">
        <ele>112.9</ele>
        <time>2011-09-04T08:13:41Z</time>
      </trkpt>
      <trkpt lat="48.42877" lon="-4.41525">
        <ele>112.9</ele>
        <time>2011-09-04T08:13:42Z</time>
      </trkpt>
      <trkpt lat="48.42878" lon="-4.41516">
        <ele>111.2</ele>
        <time>2011-09-04T08:13:43Z</time>
      </trkpt>
      <trkpt lat="48.42879" lon="-4.4151">
        <ele>110.5</ele>
        <time>2011-09-04T08:13:44Z</time>
      </trkpt>
      <trkpt lat="48.42879" lon="-4.41502">
        <ele>110.3</ele>
        <time>2011-09-04T08:13:45Z</time>
      </trkpt>
      <trkpt lat="48.4288" lon="-4.41494">
        <ele>110.2</ele>
        <time>2011-09-04T08:13:46Z</time>
      </trkpt>
      <trkpt lat="48.42881" lon="-4.41488">
        <ele>109.5</ele>
        <time>2011-09-04T08:13:47Z</time>
      </trkpt>
      <trkpt lat="48.42882" lon="-4.41481">
        <ele>109.3</ele>
        <time>2011-09-04T08:13:48Z</time>
      </trkpt>
      <trkpt lat="48.42884" lon="-4.41474">
        <ele>108.9</ele>
        <time>2011-09-04T08:13:49Z</time>
      </trkpt>
      <trkpt lat="48.42885" lon="-4.41467">
        <ele>109.1</ele>
        <time>2011-09-04T08:13:50Z</time>
      </trkpt>
      <trkpt lat="48.42886" lon="-4.41457">
        <ele>108.6</ele>
        <time>2011-09-04T08:13:52Z</time>
      </trkpt>
      <trkpt lat="48.4289" lon="-4.41454">
        <ele>109</ele>
        <time>2011-09-04T08:14:10Z</time>
      </trkpt>
      <trkpt lat="48.42893" lon="-4.41446">
        <ele>108.4</ele>
        <time>2011-09-04T08:14:14Z</time>
      </trkpt>
      <trkpt lat="48.42893" lon="-4.41436">
        <ele>107.9</ele>
        <time>2011-09-04T08:14:18Z</time>
      </trkpt>
      <trkpt lat="48.42896" lon="-4.41441">
        <ele>107.6</ele>
        <time>2011-09-04T08:14:56Z</time>
      </trkpt>
      <trkpt lat="48.42902" lon="-4.41445">
        <ele>107.4</ele>
        <time>2011-09-04T08:14:59Z</time>
      </trkpt>
      <trkpt lat="48.42908" lon="-4.41447">
        <ele>104.3</ele>
        <time>2011-09-04T08:15:00Z</time>
      </trkpt>
      <trkpt lat="48.42916" lon="-4.41452">
        <ele>103.5</ele>
        <time>2011-09-04T08:15:02Z</time>
      </trkpt>
      <trkpt lat="48.4292" lon="-4.41455">
        <ele>103.6</ele>
        <time>2011-09-04T08:15:03Z</time>
      </trkpt>
      <trkpt lat="48.42928" lon="-4.41459">
        <ele>104.5</ele>
        <time>2011-09-04T08:15:05Z</time>
      </trkpt>
      <trkpt lat="48.42934" lon="-4.41464">
        <ele>105.7</ele>
        <time>2011-09-04T08:15:07Z</time>
      </trkpt>
      <trkpt lat="48.42939" lon="-4.41467">
        <ele>105.4</ele>
        <time>2011-09-04T08:15:09Z</time>
      </trkpt>
      <trkpt lat="48.42944" lon="-4.4147">
        <ele>105</ele>
        <time>2011-09-04T08:15:11Z</time>
      </trkpt>
      <trkpt lat="48.4295" lon="-4.41473">
        <ele>102</ele>
        <time>2011-09-04T08:15:13Z</time>
      </trkpt>
      <trkpt lat="48.42958" lon="-4.41477">
        <ele>101.4</ele>
        <time>2011-09-04T08:15:15Z</time>
      </trkpt>
      <trkpt lat="48.42966" lon="-4.41481">
        <ele>101.7</ele>
        <time>2011-09-04T08:15:17Z</time>
      </trkpt>
      <trkpt lat="48.42972" lon="-4.41488">
        <ele>101.7</ele>
        <time>2011-09-04T08:15:19Z</time>
      </trkpt>
      <trkpt lat="48.42978" lon="-4.41494">
        <ele>101.8</ele>
        <time>2011-09-04T08:15:21Z</time>
      </trkpt>
      <trkpt lat="48.42982" lon="-4.41503">
        <ele>101.7</ele>
        <time>2011-09-04T08:15:24Z</time>
      </trkpt>
      <trkpt lat="48.42983" lon="-4.41515">
        <ele>105.4</ele>
        <time>2011-09-04T08:15:26Z</time>
      </trkpt>
      <trkpt lat="48.42985" lon="-4.41528">
        <ele>107.2</ele>
        <time>2011-09-04T08:15:28Z</time>
      </trkpt>
      <trkpt lat="48.42989" lon="-4.41533">
        <ele>108.1</ele>
        <time>2011-09-04T08:15:29Z</time>
      </trkpt>
      <trkpt lat="48.42993" lon="-4.41539">
        <ele>107.5</ele>
        <time>2011-09-04T08:15:30Z</time>
      </trkpt>
      <trkpt lat="48.42998" lon="-4.41547">
        <ele>107.8</ele>
        <time>2011-09-04T08:15:32Z</time>
      </trkpt>
      <trkpt lat="48.43007" lon="-4.41551">
        <ele>106.8</ele>
        <time>2011-09-04T08:15:34Z</time>
      </trkpt>
      <trkpt lat="48.43014" lon="-4.41554">
        <ele>106.7</ele>
        <time>2011-09-04T08:15:36Z</time>
      </trkpt>
      <trkpt lat="48.4302" lon="-4.41557">
        <ele>106</ele>
        <time>2011-09-04T08:15:38Z</time>
      </trkpt>
      <trkpt lat="48.43026" lon="-4.4156">
        <ele>106.7</ele>
        <time>2011-09-04T08:15:39Z</time>
      </trkpt>
      <trkpt lat="48.43033" lon="-4.41567">
        <ele>108.4</ele>
        <time>2011-09-04T08:15:41Z</time>
      </trkpt>
      <trkpt lat="48.43037" lon="-4.41573">
        <ele>108.7</ele>
        <time>2011-09-04T08:15:43Z</time>
      </trkpt>
      <trkpt lat="48.43043" lon="-4.41574">
        <ele>108.1</ele>
        <time>2011-09-04T08:15:44Z</time>
      </trkpt>
      <trkpt lat="48.43051" lon="-4.41579">
        <ele>106.1</ele>
        <time>2011-09-04T08:15:46Z</time>
      </trkpt>
      <trkpt lat="48.4306" lon="-4.41582">
        <ele>104.3</ele>
        <time>2011-09-04T08:15:48Z</time>
      </trkpt>
      <trkpt lat="48.43066" lon="-4.41585">
        <ele>105</ele>
        <time>2011-09-04T08:15:49Z</time>
      </trkpt>
      <trkpt lat="48.43072" lon="-4.41592">
        <ele>104.8</ele>
        <time>2011-09-04T08:15:53Z</time>
      </trkpt>
      <trkpt lat="48.43076" lon="-4.4159">
        <ele>104.5</ele>
        <time>2011-09-04T08:15:54Z</time>
      </trkpt>
      <trkpt lat="48.43081" lon="-4.41594">
        <ele>104.1</ele>
        <time>2011-09-04T08:15:56Z</time>
      </trkpt>
      <trkpt lat="48.43086" lon="-4.416">
        <ele>104.5</ele>
        <time>2011-09-04T08:15:57Z</time>
      </trkpt>
      <trkpt lat="48.43091" lon="-4.41601">
        <ele>105.1</ele>
        <time>2011-09-04T08:15:59Z</time>
      </trkpt>
      <trkpt lat="48.43098" lon="-4.41602">
        <ele>103.4</ele>
        <time>2011-09-04T08:16:00Z</time>
      </trkpt>
      <trkpt lat="48.43105" lon="-4.41605">
        <ele>104.1</ele>
        <time>2011-09-04T08:16:02Z</time>
      </trkpt>
      <trkpt lat="48.43112" lon="-4.4161">
        <ele>104.8</ele>
        <time>2011-09-04T08:16:04Z</time>
      </trkpt>
      <trkpt lat="48.43117" lon="-4.41611">
        <ele>103.8</ele>
        <time>2011-09-04T08:16:05Z</time>
      </trkpt>
      <trkpt lat="48.43122" lon="-4.41617">
        <ele>102.4</ele>
        <time>2011-09-04T08:16:06Z</time>
      </trkpt>
      <trkpt lat="48.43128" lon="-4.41617">
        <ele>102.4</ele>
        <time>2011-09-04T08:16:08Z</time>
      </trkpt>
      <trkpt lat="48.43133" lon="-4.41624">
        <ele>101.5</ele>
        <time>2011-09-04T08:16:11Z</time>
      </trkpt>
      <trkpt lat="48.43137" lon="-4.41629">
        <ele>101.3</ele>
        <time>2011-09-04T08:16:13Z</time>
      </trkpt>
      <trkpt lat="48.4314" lon="-4.41634">
        <ele>100.9</ele>
        <time>2011-09-04T08:16:15Z</time>
      </trkpt>
      <trkpt lat="48.43143" lon="-4.41639">
        <ele>101.9</ele>
        <time>2011-09-04T08:16:17Z</time>
      </trkpt>
      <trkpt lat="48.43147" lon="-4.41635">
        <ele>103.9</ele>
        <time>2011-09-04T08:16:20Z</time>
      </trkpt>
      <trkpt lat="48.43151" lon="-4.41642">
        <ele>100.6</ele>
        <time>2011-09-04T08:16:22Z</time>
      </trkpt>
      <trkpt lat="48.43156" lon="-4.41647">
        <ele>101.3</ele>
        <time>2011-09-04T08:16:23Z</time>
      </trkpt>
      <trkpt lat="48.4316" lon="-4.41649">
        <ele>101</ele>
        <time>2011-09-04T08:16:25Z</time>
      </trkpt>
      <trkpt lat="48.43166" lon="-4.41648">
        <ele>104.8</ele>
        <time>2011-09-04T08:16:27Z</time>
      </trkpt>
      <trkpt lat="48.43174" lon="-4.41651">
        <ele>107.1</ele>
        <time>2011-09-04T08:16:29Z</time>
      </trkpt>
      <trkpt lat="48.43181" lon="-4.41654">
        <ele>107.4</ele>
        <time>2011-09-04T08:16:31Z</time>
      </trkpt>
      <trkpt lat="48.43186" lon="-4.4166">
        <ele>108.1</ele>
        <time>2011-09-04T08:16:33Z</time>
      </trkpt>
      <trkpt lat="48.43193" lon="-4.41658">
        <ele>107.6</ele>
        <time>2011-09-04T08:16:35Z</time>
      </trkpt>
      <trkpt lat="48.43197" lon="-4.41661">
        <ele>107.5</ele>
        <time>2011-09-04T08:16:37Z</time>
      </trkpt>
      <trkpt lat="48.43195" lon="-4.4167">
        <ele>108.7</ele>
        <time>2011-09-04T08:16:39Z</time>
      </trkpt>
      <trkpt lat="48.43194" lon="-4.41681">
        <ele>112.8</ele>
        <time>2011-09-04T08:16:43Z</time>
      </trkpt>
      <trkpt lat="48.43194" lon="-4.41688">
        <ele>114.5</ele>
        <time>2011-09-04T08:16:45Z</time>
      </trkpt>
      <trkpt lat="48.43188" lon="-4.41694">
        <ele>114.5</ele>
        <time>2011-09-04T08:16:48Z</time>
      </trkpt>
      <trkpt lat="48.4319" lon="-4.41703">
        <ele>116.2</ele>
        <time>2011-09-04T08:16:50Z</time>
      </trkpt>
      <trkpt lat="48.43192" lon="-4.41711">
        <ele>117.2</ele>
        <time>2011-09-04T08:16:52Z</time>
      </trkpt>
      <trkpt lat="48.43192" lon="-4.4172">
        <ele>116.9</ele>
        <time>2011-09-04T08:16:54Z</time>
      </trkpt>
      <trkpt lat="48.43191" lon="-4.41728">
        <ele>116.5</ele>
        <time>2011-09-04T08:16:57Z</time>
      </trkpt>
      <trkpt lat="48.43187" lon="-4.41739">
        <ele>116.2</ele>
        <time>2011-09-04T08:16:59Z</time>
      </trkpt>
      <trkpt lat="48.43185" lon="-4.41748">
        <ele>116.2</ele>
        <time>2011-09-04T08:17:02Z</time>
      </trkpt>
      <trkpt lat="48.4318" lon="-4.41756">
        <ele>116.2</ele>
        <time>2011-09-04T08:17:05Z</time>
      </trkpt>
      <trkpt lat="48.43177" lon="-4.41762">
        <ele>115.3</ele>
        <time>2011-09-04T08:17:07Z</time>
      </trkpt>
      <trkpt lat="48.43174" lon="-4.41769">
        <ele>117</ele>
        <time>2011-09-04T08:17:09Z</time>
      </trkpt>
      <trkpt lat="48.43173" lon="-4.41776">
        <ele>117.4</ele>
        <time>2011-09-04T08:17:11Z</time>
      </trkpt>
      <trkpt lat="48.43174" lon="-4.41792">
        <ele>116.8</ele>
        <time>2011-09-04T08:17:15Z</time>
      </trkpt>
      <trkpt lat="48.43174" lon="-4.418">
        <ele>116.3</ele>
        <time>2011-09-04T08:17:17Z</time>
      </trkpt>
      <trkpt lat="48.4317" lon="-4.4181">
        <ele>116.6</ele>
        <time>2011-09-04T08:17:19Z</time>
      </trkpt>
      <trkpt lat="48.43168" lon="-4.41819">
        <ele>117.9</ele>
        <time>2011-09-04T08:17:22Z</time>
      </trkpt>
      <trkpt lat="48.43168" lon="-4.41827">
        <ele>116.4</ele>
        <time>2011-09-04T08:17:25Z</time>
      </trkpt>
      <trkpt lat="48.43166" lon="-4.41833">
        <ele>116.8</ele>
        <time>2011-09-04T08:17:26Z</time>
      </trkpt>
      <trkpt lat="48.43163" lon="-4.41844">
        <ele>117.7</ele>
        <time>2011-09-04T08:17:28Z</time>
      </trkpt>
      <trkpt lat="48.43159" lon="-4.4185">
        <ele>118.5</ele>
        <time>2011-09-04T08:17:31Z</time>
      </trkpt>
      <trkpt lat="48.43162" lon="-4.41857">
        <ele>119.5</ele>
        <time>2011-09-04T08:17:34Z</time>
      </trkpt>
      <trkpt lat="48.43164" lon="-4.41864">
        <ele>120.3</ele>
        <time>2011-09-04T08:17:36Z</time>
      </trkpt>
      <trkpt lat="48.4317" lon="-4.41869">
        <ele>120.8</ele>
        <time>2011-09-04T08:17:38Z</time>
      </trkpt>
      <trkpt lat="48.43176" lon="-4.41875">
        <ele>119.5</ele>
        <time>2011-09-04T08:17:40Z</time>
      </trkpt>
      <trkpt lat="48.43181" lon="-4.41875">
        <ele>120.5</ele>
        <time>2011-09-04T08:17:42Z</time>
      </trkpt>
      <trkpt lat="48.43186" lon="-4.41879">
        <ele>121.2</ele>
        <time>2011-09-04T08:17:44Z</time>
      </trkpt>
      <trkpt lat="48.4319" lon="-4.41882">
        <ele>120.2</ele>
        <time>2011-09-04T08:17:45Z</time>
      </trkpt>
      <trkpt lat="48.43193" lon="-4.41873">
        <ele>115</ele>
        <time>2011-09-04T08:17:46Z</time>
      </trkpt>
      <trkpt lat="48.43198" lon="-4.41866">
        <ele>113.8</ele>
        <time>2011-09-04T08:17:48Z</time>
      </trkpt>
      <trkpt lat="48.43202" lon="-4.41858">
        <ele>112.8</ele>
        <time>2011-09-04T08:17:50Z</time>
      </trkpt>
      <trkpt lat="48.43204" lon="-4.4185">
        <ele>112.8</ele>
        <time>2011-09-04T08:17:52Z</time>
      </trkpt>
      <trkpt lat="48.43205" lon="-4.41839">
        <ele>121.3</ele>
        <time>2011-09-04T08:17:56Z</time>
      </trkpt>
      <trkpt lat="48.43208" lon="-4.41831">
        <ele>123.3</ele>
        <time>2011-09-04T08:17:58Z</time>
      </trkpt>
      <trkpt lat="48.43209" lon="-4.41818">
        <ele>124.9</ele>
        <time>2011-09-04T08:18:00Z</time>
      </trkpt>
      <trkpt lat="48.43211" lon="-4.41812">
        <ele>123.3</ele>
        <time>2011-09-04T08:18:01Z</time>
      </trkpt>
      <trkpt lat="48.43216" lon="-4.41802">
        <ele>119.9</ele>
        <time>2011-09-04T08:18:02Z</time>
      </trkpt>
      <trkpt lat="48.43218" lon="-4.41794">
        <ele>122.1</ele>
        <time>2011-09-04T08:18:04Z</time>
      </trkpt>
      <trkpt lat="48.43219" lon="-4.41786">
        <ele>121.1</ele>
        <time>2011-09-04T08:18:05Z</time>
      </trkpt>
      <trkpt lat="48.4322" lon="-4.41775">
        <ele>120.2</ele>
        <time>2011-09-04T08:18:07Z</time>
      </trkpt>
      <trkpt lat="48.43221" lon="-4.41765">
        <ele>119.3</ele>
        <time>2011-09-04T08:18:09Z</time>
      </trkpt>
      <trkpt lat="48.43219" lon="-4.41757">
        <ele>119.9</ele>
        <time>2011-09-04T08:18:10Z</time>
      </trkpt>
      <trkpt lat="48.43222" lon="-4.41751">
        <ele>121.3</ele>
        <time>2011-09-04T08:18:11Z</time>
      </trkpt>
      <trkpt lat="48.43222" lon="-4.41737">
        <ele>122.5</ele>
        <time>2011-09-04T08:18:13Z</time>
      </trkpt>
      <trkpt lat="48.4322" lon="-4.41726">
        <ele>122.9</ele>
        <time>2011-09-04T08:18:14Z</time>
      </trkpt>
      <trkpt lat="48.43219" lon="-4.4172">
        <ele>121.6</ele>
        <time>2011-09-04T08:18:16Z</time>
      </trkpt>
      <trkpt lat="48.43221" lon="-4.4171">
        <ele>121.6</ele>
        <time>2011-09-04T08:18:18Z</time>
      </trkpt>
      <trkpt lat="48.43222" lon="-4.417">
        <ele>119.6</ele>
        <time>2011-09-04T08:18:19Z</time>
      </trkpt>
      <trkpt lat="48.43225" lon="-4.41693">
        <ele>119.4</ele>
        <time>2011-09-04T08:18:21Z</time>
      </trkpt>
      <trkpt lat="48.43224" lon="-4.4168">
        <ele>119.7</ele>
        <time>2011-09-04T08:18:22Z</time>
      </trkpt>
      <trkpt lat="48.43228" lon="-4.41673">
        <ele>120</ele>
        <time>2011-09-04T08:18:23Z</time>
      </trkpt>
      <trkpt lat="48.43232" lon="-4.41661">
        <ele>119.9</ele>
        <time>2011-09-04T08:18:25Z</time>
      </trkpt>
      <trkpt lat="48.43233" lon="-4.4165">
        <ele>118.3</ele>
        <time>2011-09-04T08:18:27Z</time>
      </trkpt>
      <trkpt lat="48.43243" lon="-4.41642">
        <ele>118.3</ele>
        <time>2011-09-04T08:18:30Z</time>
      </trkpt>
      <trkpt lat="48.43244" lon="-4.41635">
        <ele>118.7</ele>
        <time>2011-09-04T08:18:31Z</time>
      </trkpt>
      <trkpt lat="48.4325" lon="-4.41628">
        <ele>117</ele>
        <time>2011-09-04T08:18:32Z</time>
      </trkpt>
      <trkpt lat="48.43255" lon="-4.41623">
        <ele>117.1</ele>
        <time>2011-09-04T08:18:34Z</time>
      </trkpt>
      <trkpt lat="48.4326" lon="-4.4162">
        <ele>115.9</ele>
        <time>2011-09-04T08:18:35Z</time>
      </trkpt>
      <trkpt lat="48.43264" lon="-4.41618">
        <ele>117</ele>
        <time>2011-09-04T08:18:36Z</time>
      </trkpt>
      <trkpt lat="48.43271" lon="-4.41612">
        <ele>117.7</ele>
        <time>2011-09-04T08:18:38Z</time>
      </trkpt>
      <trkpt lat="48.43272" lon="-4.41603">
        <ele>116.1</ele>
        <time>2011-09-04T08:18:40Z</time>
      </trkpt>
      <trkpt lat="48.43273" lon="-4.41589">
        <ele>113.6</ele>
        <time>2011-09-04T08:18:43Z</time>
      </trkpt>
      <trkpt lat="48.43274" lon="-4.41582">
        <ele>112.9</ele>
        <time>2011-09-04T08:18:45Z</time>
      </trkpt>
      <trkpt lat="48.43277" lon="-4.41577">
        <ele>111.2</ele>
        <time>2011-09-04T08:18:50Z</time>
      </trkpt>
      <trkpt lat="48.43277" lon="-4.4157">
        <ele>117</ele>
        <time>2011-09-04T08:19:48Z</time>
      </trkpt>
      <trkpt lat="48.43278" lon="-4.4156">
        <ele>121.1</ele>
        <time>2011-09-04T08:19:51Z</time>
      </trkpt>
      <trkpt lat="48.43282" lon="-4.41557">
        <ele>125.6</ele>
        <time>2011-09-04T08:19:53Z</time>
      </trkpt>
      <trkpt lat="48.43285" lon="-4.41552">
        <ele>130.6</ele>
        <time>2011-09-04T08:19:58Z</time>
      </trkpt>
      <trkpt lat="48.43291" lon="-4.41552">
        <ele>130.1</ele>
        <time>2011-09-04T08:20:01Z</time>
      </trkpt>
      <trkpt lat="48.43295" lon="-4.41559">
        <ele>130.7</ele>
        <time>2011-09-04T08:20:02Z</time>
      </trkpt>
      <trkpt lat="48.43299" lon="-4.41559">
        <ele>128</ele>
        <time>2011-09-04T08:20:05Z</time>
      </trkpt>
      <trkpt lat="48.43305" lon="-4.41563">
        <ele>130.6</ele>
        <time>2011-09-04T08:20:08Z</time>
      </trkpt>
      <trkpt lat="48.4331" lon="-4.41562">
        <ele>131.5</ele>
        <time>2011-09-04T08:20:10Z</time>
      </trkpt>
      <trkpt lat="48.43315" lon="-4.41567">
        <ele>133.1</ele>
        <time>2011-09-04T08:20:13Z</time>
      </trkpt>
      <trkpt lat="48.43317" lon="-4.41573">
        <ele>134</ele>
        <time>2011-09-04T08:20:15Z</time>
      </trkpt>
      <trkpt lat="48.43322" lon="-4.41573">
        <ele>135.6</ele>
        <time>2011-09-04T08:20:18Z</time>
      </trkpt>
      <trkpt lat="48.43328" lon="-4.4158">
        <ele>135.7</ele>
        <time>2011-09-04T08:20:21Z</time>
      </trkpt>
      <trkpt lat="48.43328" lon="-4.41588">
        <ele>137.3</ele>
        <time>2011-09-04T08:20:23Z</time>
      </trkpt>
      <trkpt lat="48.43333" lon="-4.41593">
        <ele>139.1</ele>
        <time>2011-09-04T08:20:26Z</time>
      </trkpt>
      <trkpt lat="48.43338" lon="-4.41594">
        <ele>141.2</ele>
        <time>2011-09-04T08:20:28Z</time>
      </trkpt>
      <trkpt lat="48.43343" lon="-4.41596">
        <ele>142.6</ele>
        <time>2011-09-04T08:20:32Z</time>
      </trkpt>
      <trkpt lat="48.43347" lon="-4.41593">
        <ele>140.9</ele>
        <time>2011-09-04T08:20:38Z</time>
      </trkpt>
      <trkpt lat="48.43347" lon="-4.41593">
        <ele>140.9</ele>
        <time>2011-09-04T08:20:38Z</time>
      </trkpt>
      <trkpt lat="48.43347" lon="-4.41593">
        <ele>140.9</ele>
        <time>2011-09-04T08:20:39Z</time>
      </trkpt>
      <trkpt lat="48.43353" lon="-4.41593">
        <ele>142.2</ele>
        <time>2011-09-04T08:20:53Z</time>
      </trkpt>
      <trkpt lat="48.4336" lon="-4.41596">
        <ele>143.1</ele>
        <time>2011-09-04T08:20:56Z</time>
      </trkpt>
      <trkpt lat="48.43366" lon="-4.41601">
        <ele>144.3</ele>
        <time>2011-09-04T08:20:58Z</time>
      </trkpt>
      <trkpt lat="48.43374" lon="-4.41604">
        <ele>142.9</ele>
        <time>2011-09-04T08:21:00Z</time>
      </trkpt>
      <trkpt lat="48.43378" lon="-4.41608">
        <ele>143.4</ele>
        <time>2011-09-04T08:21:02Z</time>
      </trkpt>
      <trkpt lat="48.43385" lon="-4.41606">
        <ele>144.4</ele>
        <time>2011-09-04T08:21:04Z</time>
      </trkpt>
      <trkpt lat="48.43388" lon="-4.4161">
        <ele>146.6</ele>
        <time>2011-09-04T08:21:08Z</time>
      </trkpt>
      <trkpt lat="48.43395" lon="-4.41616">
        <ele>148.4</ele>
        <time>2011-09-04T08:21:11Z</time>
      </trkpt>
      <trkpt lat="48.43399" lon="-4.41625">
        <ele>152.3</ele>
        <time>2011-09-04T08:21:13Z</time>
      </trkpt>
      <trkpt lat="48.43404" lon="-4.4163">
        <ele>154.2</ele>
        <time>2011-09-04T08:21:15Z</time>
      </trkpt>
      <trkpt lat="48.43409" lon="-4.41632">
        <ele>154.2</ele>
        <time>2011-09-04T08:21:19Z</time>
      </trkpt>
      <trkpt lat="48.43412" lon="-4.41637">
        <ele>155.9</ele>
        <time>2011-09-04T08:21:23Z</time>
      </trkpt>
      <trkpt lat="48.43419" lon="-4.41641">
        <ele>157.7</ele>
        <time>2011-09-04T08:21:27Z</time>
      </trkpt>
      <trkpt lat="48.43422" lon="-4.41647">
        <ele>160</ele>
        <time>2011-09-04T08:21:31Z</time>
      </trkpt>
      <trkpt lat="48.43425" lon="-4.41656">
        <ele>161.7</ele>
        <time>2011-09-04T08:21:35Z</time>
      </trkpt>
      <trkpt lat="48.43431" lon="-4.41661">
        <ele>162.5</ele>
        <time>2011-09-04T08:21:37Z</time>
      </trkpt>
      <trkpt lat="48.43436" lon="-4.41667">
        <ele>163.6</ele>
        <time>2011-09-04T08:21:39Z</time>
      </trkpt>
      <trkpt lat="48.43439" lon="-4.41672">
        <ele>163.8</ele>
        <time>2011-09-04T08:21:41Z</time>
      </trkpt>
      <trkpt lat="48.43444" lon="-4.41672">
        <ele>160.3</ele>
        <time>2011-09-04T08:21:42Z</time>
      </trkpt>
      <trkpt lat="48.43445" lon="-4.41679">
        <ele>159.2</ele>
        <time>2011-09-04T08:21:43Z</time>
      </trkpt>
      <trkpt lat="48.43449" lon="-4.41684">
        <ele>156</ele>
        <time>2011-09-04T08:21:45Z</time>
      </trkpt>
      <trkpt lat="48.43454" lon="-4.41685">
        <ele>153</ele>
        <time>2011-09-04T08:21:47Z</time>
      </trkpt>
      <trkpt lat="48.4346" lon="-4.41691">
        <ele>150.5</ele>
        <time>2011-09-04T08:21:49Z</time>
      </trkpt>
      <trkpt lat="48.43461" lon="-4.41698">
        <ele>150.7</ele>
        <time>2011-09-04T08:21:50Z</time>
      </trkpt>
      <trkpt lat="48.43464" lon="-4.41704">
        <ele>146.8</ele>
        <time>2011-09-04T08:21:52Z</time>
      </trkpt>
      <trkpt lat="48.43466" lon="-4.4171">
        <ele>148.2</ele>
        <time>2011-09-04T08:21:54Z</time>
      </trkpt>
      <trkpt lat="48.4347" lon="-4.41719">
        <ele>150.7</ele>
        <time>2011-09-04T08:21:57Z</time>
      </trkpt>
      <trkpt lat="48.43473" lon="-4.41726">
        <ele>147.2</ele>
        <time>2011-09-04T08:21:58Z</time>
      </trkpt>
      <trkpt lat="48.43478" lon="-4.41729">
        <ele>144.5</ele>
        <time>2011-09-04T08:22:00Z</time>
      </trkpt>
      <trkpt lat="48.43484" lon="-4.4173">
        <ele>136.7</ele>
        <time>2011-09-04T08:22:18Z</time>
      </trkpt>
      <trkpt lat="48.43488" lon="-4.41734">
        <ele>136.6</ele>
        <time>2011-09-04T08:22:19Z</time>
      </trkpt>
      <trkpt lat="48.43492" lon="-4.41742">
        <ele>135.8</ele>
        <time>2011-09-04T08:22:20Z</time>
      </trkpt>
      <trkpt lat="48.43496" lon="-4.41748">
        <ele>134.9</ele>
        <time>2011-09-04T08:22:21Z</time>
      </trkpt>
      <trkpt lat="48.43501" lon="-4.41759">
        <ele>134.5</ele>
        <time>2011-09-04T08:22:23Z</time>
      </trkpt>
      <trkpt lat="48.43503" lon="-4.41765">
        <ele>134.7</ele>
        <time>2011-09-04T08:22:24Z</time>
      </trkpt>
      <trkpt lat="48.43506" lon="-4.41771">
        <ele>134.7</ele>
        <time>2011-09-04T08:22:25Z</time>
      </trkpt>
      <trkpt lat="48.4351" lon="-4.41776">
        <ele>134.2</ele>
        <time>2011-09-04T08:22:26Z</time>
      </trkpt>
      <trkpt lat="48.43515" lon="-4.41784">
        <ele>133.4</ele>
        <time>2011-09-04T08:22:28Z</time>
      </trkpt>
      <trkpt lat="48.43518" lon="-4.41791">
        <ele>132.5</ele>
        <time>2011-09-04T08:22:30Z</time>
      </trkpt>
      <trkpt lat="48.43522" lon="-4.41792">
        <ele>137.8</ele>
        <time>2011-09-04T08:22:33Z</time>
      </trkpt>
      <trkpt lat="48.43526" lon="-4.41798">
        <ele>136.3</ele>
        <time>2011-09-04T08:22:35Z</time>
      </trkpt>
      <trkpt lat="48.4353" lon="-4.41802">
        <ele>137.3</ele>
        <time>2011-09-04T08:22:37Z</time>
      </trkpt>
      <trkpt lat="48.43536" lon="-4.41809">
        <ele>137.8</ele>
        <time>2011-09-04T08:22:40Z</time>
      </trkpt>
      <trkpt lat="48.4354" lon="-4.41813">
        <ele>138.3</ele>
        <time>2011-09-04T08:22:43Z</time>
      </trkpt>
      <trkpt lat="48.43544" lon="-4.4181">
        <ele>138</ele>
        <time>2011-09-04T08:22:45Z</time>
      </trkpt>
      <trkpt lat="48.43549" lon="-4.41807">
        <ele>139.9</ele>
        <time>2011-09-04T08:22:47Z</time>
      </trkpt>
      <trkpt lat="48.43554" lon="-4.41807">
        <ele>139.5</ele>
        <time>2011-09-04T08:22:50Z</time>
      </trkpt>
      <trkpt lat="48.43561" lon="-4.41809">
        <ele>139.4</ele>
        <time>2011-09-04T08:22:53Z</time>
      </trkpt>
      <trkpt lat="48.43566" lon="-4.41809">
        <ele>138.8</ele>
        <time>2011-09-04T08:22:55Z</time>
      </trkpt>
      <trkpt lat="48.43573" lon="-4.41813">
        <ele>138.9</ele>
        <time>2011-09-04T08:22:58Z</time>
      </trkpt>
      <trkpt lat="48.43577" lon="-4.41814">
        <ele>138.5</ele>
        <time>2011-09-04T08:23:00Z</time>
      </trkpt>
      <trkpt lat="48.43585" lon="-4.41818">
        <ele>139.3</ele>
        <time>2011-09-04T08:23:02Z</time>
      </trkpt>
      <trkpt lat="48.43588" lon="-4.41822">
        <ele>138.8</ele>
        <time>2011-09-04T08:23:03Z</time>
      </trkpt>
      <trkpt lat="48.43595" lon="-4.41822">
        <ele>138.8</ele>
        <time>2011-09-04T08:23:05Z</time>
      </trkpt>
      <trkpt lat="48.436" lon="-4.41823">
        <ele>138.9</ele>
        <time>2011-09-04T08:23:07Z</time>
      </trkpt>
      <trkpt lat="48.43608" lon="-4.41828">
        <ele>139.1</ele>
        <time>2011-09-04T08:23:09Z</time>
      </trkpt>
      <trkpt lat="48.43614" lon="-4.41828">
        <ele>139.5</ele>
        <time>2011-09-04T08:23:11Z</time>
      </trkpt>
      <trkpt lat="48.43619" lon="-4.41828">
        <ele>139.5</ele>
        <time>2011-09-04T08:23:13Z</time>
      </trkpt>
      <trkpt lat="48.43626" lon="-4.4183">
        <ele>139.2</ele>
        <time>2011-09-04T08:23:15Z</time>
      </trkpt>
      <trkpt lat="48.4363" lon="-4.41832">
        <ele>139.3</ele>
        <time>2011-09-04T08:23:16Z</time>
      </trkpt>
      <trkpt lat="48.43636" lon="-4.41832">
        <ele>138.9</ele>
        <time>2011-09-04T08:23:17Z</time>
      </trkpt>
      <trkpt lat="48.43643" lon="-4.41834">
        <ele>137.8</ele>
        <time>2011-09-04T08:23:19Z</time>
      </trkpt>
      <trkpt lat="48.4365" lon="-4.41835">
        <ele>137.5</ele>
        <time>2011-09-04T08:23:21Z</time>
      </trkpt>
      <trkpt lat="48.43655" lon="-4.41841">
        <ele>137.5</ele>
        <time>2011-09-04T08:23:23Z</time>
      </trkpt>
      <trkpt lat="48.43661" lon="-4.41839">
        <ele>136</ele>
        <time>2011-09-04T08:23:25Z</time>
      </trkpt>
      <trkpt lat="48.43667" lon="-4.41838">
        <ele>135</ele>
        <time>2011-09-04T08:23:26Z</time>
      </trkpt>
      <trkpt lat="48.43673" lon="-4.41839">
        <ele>134.4</ele>
        <time>2011-09-04T08:23:27Z</time>
      </trkpt>
      <trkpt lat="48.4368" lon="-4.41838">
        <ele>134.5</ele>
        <time>2011-09-04T08:23:29Z</time>
      </trkpt>
      <trkpt lat="48.43685" lon="-4.41844">
        <ele>135.1</ele>
        <time>2011-09-04T08:23:32Z</time>
      </trkpt>
      <trkpt lat="48.4369" lon="-4.41843">
        <ele>133.5</ele>
        <time>2011-09-04T08:23:34Z</time>
      </trkpt>
      <trkpt lat="48.43696" lon="-4.41846">
        <ele>133.1</ele>
        <time>2011-09-04T08:23:36Z</time>
      </trkpt>
      <trkpt lat="48.43705" lon="-4.41851">
        <ele>131.2</ele>
        <time>2011-09-04T08:23:38Z</time>
      </trkpt>
      <trkpt lat="48.43709" lon="-4.41854">
        <ele>130.3</ele>
        <time>2011-09-04T08:23:40Z</time>
      </trkpt>
      <trkpt lat="48.43715" lon="-4.41855">
        <ele>131.1</ele>
        <time>2011-09-04T08:23:42Z</time>
      </trkpt>
      <trkpt lat="48.43717" lon="-4.41849">
        <ele>130.9</ele>
        <time>2011-09-04T08:23:43Z</time>
      </trkpt>
      <trkpt lat="48.43722" lon="-4.41851">
        <ele>132.6</ele>
        <time>2011-09-04T08:23:45Z</time>
      </trkpt>
      <trkpt lat="48.43727" lon="-4.41853">
        <ele>132.4</ele>
        <time>2011-09-04T08:23:48Z</time>
      </trkpt>
      <trkpt lat="48.43733" lon="-4.41855">
        <ele>132.3</ele>
        <time>2011-09-04T08:23:51Z</time>
      </trkpt>
      <trkpt lat="48.43738" lon="-4.41856">
        <ele>130.1</ele>
        <time>2011-09-04T08:23:52Z</time>
      </trkpt>
      <trkpt lat="48.43743" lon="-4.41856">
        <ele>130.3</ele>
        <time>2011-09-04T08:23:56Z</time>
      </trkpt>
      <trkpt lat="48.43748" lon="-4.4186">
        <ele>130.7</ele>
        <time>2011-09-04T08:24:00Z</time>
      </trkpt>
      <trkpt lat="48.43752" lon="-4.41857">
        <ele>128.1</ele>
        <time>2011-09-04T08:24:03Z</time>
      </trkpt>
      <trkpt lat="48.43757" lon="-4.41865">
        <ele>130.8</ele>
        <time>2011-09-04T08:24:13Z</time>
      </trkpt>
      <trkpt lat="48.4376" lon="-4.41871">
        <ele>130.8</ele>
        <time>2011-09-04T08:24:15Z</time>
      </trkpt>
      <trkpt lat="48.43765" lon="-4.41872">
        <ele>131.5</ele>
        <time>2011-09-04T08:24:17Z</time>
      </trkpt>
      <trkpt lat="48.43771" lon="-4.41874">
        <ele>133.8</ele>
        <time>2011-09-04T08:24:19Z</time>
      </trkpt>
      <trkpt lat="48.43775" lon="-4.41875">
        <ele>135.1</ele>
        <time>2011-09-04T08:24:22Z</time>
      </trkpt>
      <trkpt lat="48.43782" lon="-4.41877">
        <ele>132.2</ele>
        <time>2011-09-04T08:24:25Z</time>
      </trkpt>
      <trkpt lat="48.43789" lon="-4.41876">
        <ele>133.5</ele>
        <time>2011-09-04T08:24:28Z</time>
      </trkpt>
      <trkpt lat="48.43796" lon="-4.41882">
        <ele>135.5</ele>
        <time>2011-09-04T08:24:31Z</time>
      </trkpt>
      <trkpt lat="48.438" lon="-4.41883">
        <ele>136.1</ele>
        <time>2011-09-04T08:24:34Z</time>
      </trkpt>
      <trkpt lat="48.43805" lon="-4.41889">
        <ele>137</ele>
        <time>2011-09-04T08:24:37Z</time>
      </trkpt>
      <trkpt lat="48.43809" lon="-4.41892">
        <ele>136.8</ele>
        <time>2011-09-04T08:24:40Z</time>
      </trkpt>
      <trkpt lat="48.43814" lon="-4.41893">
        <ele>140.2</ele>
        <time>2011-09-04T08:24:42Z</time>
      </trkpt>
      <trkpt lat="48.43818" lon="-4.41891">
        <ele>143.4</ele>
        <time>2011-09-04T08:24:46Z</time>
      </trkpt>
      <trkpt lat="48.43823" lon="-4.41891">
        <ele>145.1</ele>
        <time>2011-09-04T08:24:49Z</time>
      </trkpt>
      <trkpt lat="48.43826" lon="-4.41883">
        <ele>148.2</ele>
        <time>2011-09-04T08:24:53Z</time>
      </trkpt>
      <trkpt lat="48.4383" lon="-4.41885">
        <ele>148.6</ele>
        <time>2011-09-04T08:24:54Z</time>
      </trkpt>
      <trkpt lat="48.43836" lon="-4.41885">
        <ele>149.9</ele>
        <time>2011-09-04T08:24:57Z</time>
      </trkpt>
      <trkpt lat="48.43841" lon="-4.41885">
        <ele>147.7</ele>
        <time>2011-09-04T08:24:59Z</time>
      </trkpt>
      <trkpt lat="48.43845" lon="-4.41889">
        <ele>148.6</ele>
        <time>2011-09-04T08:25:02Z</time>
      </trkpt>
      <trkpt lat="48.43847" lon="-4.41896">
        <ele>147.6</ele>
        <time>2011-09-04T08:25:07Z</time>
      </trkpt>
      <trkpt lat="48.4385" lon="-4.41902">
        <ele>144.9</ele>
        <time>2011-09-04T08:25:09Z</time>
      </trkpt>
      <trkpt lat="48.43853" lon="-4.41907">
        <ele>147.5</ele>
        <time>2011-09-04T08:25:10Z</time>
      </trkpt>
      <trkpt lat="48.43857" lon="-4.41913">
        <ele>147.6</ele>
        <time>2011-09-04T08:25:12Z</time>
      </trkpt>
      <trkpt lat="48.43863" lon="-4.41916">
        <ele>147.1</ele>
        <time>2011-09-04T08:25:15Z</time>
      </trkpt>
      <trkpt lat="48.43866" lon="-4.4192">
        <ele>141.9</ele>
        <time>2011-09-04T08:25:21Z</time>
      </trkpt>
      <trkpt lat="48.43866" lon="-4.41913">
        <ele>138.8</ele>
        <time>2011-09-04T08:25:58Z</time>
      </trkpt>
      <trkpt lat="48.4387" lon="-4.41914">
        <ele>137.9</ele>
        <time>2011-09-04T08:26:04Z</time>
      </trkpt>
      <trkpt lat="48.43872" lon="-4.41906">
        <ele>135.8</ele>
        <time>2011-09-04T08:26:09Z</time>
      </trkpt>
      <trkpt lat="48.43874" lon="-4.41896">
        <ele>136.4</ele>
        <time>2011-09-04T08:26:12Z</time>
      </trkpt>
      <trkpt lat="48.43876" lon="-4.41886">
        <ele>136.8</ele>
        <time>2011-09-04T08:26:15Z</time>
      </trkpt>
      <trkpt lat="48.43878" lon="-4.41877">
        <ele>135.2</ele>
        <time>2011-09-04T08:26:17Z</time>
      </trkpt>
      <trkpt lat="48.43881" lon="-4.41869">
        <ele>134.8</ele>
        <time>2011-09-04T08:26:19Z</time>
      </trkpt>
      <trkpt lat="48.43884" lon="-4.41861">
        <ele>135.5</ele>
        <time>2011-09-04T08:26:21Z</time>
      </trkpt>
      <trkpt lat="48.43887" lon="-4.41853">
        <ele>135.7</ele>
        <time>2011-09-04T08:26:23Z</time>
      </trkpt>
      <trkpt lat="48.4389" lon="-4.41844">
        <ele>134.1</ele>
        <time>2011-09-04T08:26:25Z</time>
      </trkpt>
      <trkpt lat="48.43893" lon="-4.41836">
        <ele>134.5</ele>
        <time>2011-09-04T08:26:27Z</time>
      </trkpt>
      <trkpt lat="48.43896" lon="-4.41827">
        <ele>135.6</ele>
        <time>2011-09-04T08:26:29Z</time>
      </trkpt>
      <trkpt lat="48.43898" lon="-4.41817">
        <ele>136.4</ele>
        <time>2011-09-04T08:26:31Z</time>
      </trkpt>
      <trkpt lat="48.43901" lon="-4.41807">
        <ele>136.8</ele>
        <time>2011-09-04T08:26:33Z</time>
      </trkpt>
      <trkpt lat="48.43904" lon="-4.41797">
        <ele>137</ele>
        <time>2011-09-04T08:26:35Z</time>
      </trkpt>
      <trkpt lat="48.43907" lon="-4.41787">
        <ele>137.4</ele>
        <time>2011-09-04T08:26:37Z</time>
      </trkpt>
      <trkpt lat="48.43909" lon="-4.41777">
        <ele>138.1</ele>
        <time>2011-09-04T08:26:39Z</time>
      </trkpt>
      <trkpt lat="48.43912" lon="-4.41767">
        <ele>138.2</ele>
        <time>2011-09-04T08:26:41Z</time>
      </trkpt>
      <trkpt lat="48.43914" lon="-4.41757">
        <ele>138.6</ele>
        <time>2011-09-04T08:26:43Z</time>
      </trkpt>
      <trkpt lat="48.43917" lon="-4.41747">
        <ele>139</ele>
        <time>2011-09-04T08:26:45Z</time>
      </trkpt>
      <trkpt lat="48.43919" lon="-4.41738">
        <ele>139.1</ele>
        <time>2011-09-04T08:26:47Z</time>
      </trkpt>
      <trkpt lat="48.43922" lon="-4.41728">
        <ele>138.6</ele>
        <time>2011-09-04T08:26:49Z</time>
      </trkpt>
      <trkpt lat="48.43923" lon="-4.41719">
        <ele>139.6</ele>
        <time>2011-09-04T08:26:51Z</time>
      </trkpt>
      <trkpt lat="48.43925" lon="-4.41709">
        <ele>139.6</ele>
        <time>2011-09-04T08:26:53Z</time>
      </trkpt>
      <trkpt lat="48.43926" lon="-4.41699">
        <ele>140.1</ele>
        <time>2011-09-04T08:26:55Z</time>
      </trkpt>
      <trkpt lat="48.43926" lon="-4.4169">
        <ele>141.2</ele>
        <time>2011-09-04T08:26:57Z</time>
      </trkpt>
      <trkpt lat="48.43926" lon="-4.41678">
        <ele>139.7</ele>
        <time>2011-09-04T08:26:59Z</time>
      </trkpt>
      <trkpt lat="48.43925" lon="-4.41667">
        <ele>139.9</ele>
        <time>2011-09-04T08:27:01Z</time>
      </trkpt>
      <trkpt lat="48.43927" lon="-4.41658">
        <ele>141.9</ele>
        <time>2011-09-04T08:27:03Z</time>
      </trkpt>
      <trkpt lat="48.43927" lon="-4.41647">
        <ele>141.7</ele>
        <time>2011-09-04T08:27:05Z</time>
      </trkpt>
      <trkpt lat="48.43927" lon="-4.41634">
        <ele>141.5</ele>
        <time>2011-09-04T08:27:07Z</time>
      </trkpt>
      <trkpt lat="48.43928" lon="-4.41623">
        <ele>142.9</ele>
        <time>2011-09-04T08:27:09Z</time>
      </trkpt>
      <trkpt lat="48.43929" lon="-4.41611">
        <ele>143.7</ele>
        <time>2011-09-04T08:27:11Z</time>
      </trkpt>
      <trkpt lat="48.43928" lon="-4.41602">
        <ele>144.4</ele>
        <time>2011-09-04T08:27:13Z</time>
      </trkpt>
      <trkpt lat="48.43927" lon="-4.41594">
        <ele>144.5</ele>
        <time>2011-09-04T08:27:15Z</time>
      </trkpt>
      <trkpt lat="48.43921" lon="-4.4159">
        <ele>144.5</ele>
        <time>2011-09-04T08:27:17Z</time>
      </trkpt>
      <trkpt lat="48.43914" lon="-4.41586">
        <ele>144.3</ele>
        <time>2011-09-04T08:27:19Z</time>
      </trkpt>
      <trkpt lat="48.43909" lon="-4.41583">
        <ele>145.7</ele>
        <time>2011-09-04T08:27:21Z</time>
      </trkpt>
      <trkpt lat="48.43902" lon="-4.41576">
        <ele>144.2</ele>
        <time>2011-09-04T08:27:23Z</time>
      </trkpt>
      <trkpt lat="48.43898" lon="-4.41574">
        <ele>143.7</ele>
        <time>2011-09-04T08:27:24Z</time>
      </trkpt>
      <trkpt lat="48.43889" lon="-4.41573">
        <ele>146</ele>
        <time>2011-09-04T08:27:26Z</time>
      </trkpt>
      <trkpt lat="48.43886" lon="-4.41569">
        <ele>147</ele>
        <time>2011-09-04T08:27:27Z</time>
      </trkpt>
      <trkpt lat="48.4388" lon="-4.41563">
        <ele>149.1</ele>
        <time>2011-09-04T08:27:29Z</time>
      </trkpt>
      <trkpt lat="48.43873" lon="-4.41556">
        <ele>150</ele>
        <time>2011-09-04T08:27:31Z</time>
      </trkpt>
      <trkpt lat="48.43864" lon="-4.41549">
        <ele>150.6</ele>
        <time>2011-09-04T08:27:33Z</time>
      </trkpt>
      <trkpt lat="48.4386" lon="-4.41546">
        <ele>150.7</ele>
        <time>2011-09-04T08:27:34Z</time>
      </trkpt>
      <trkpt lat="48.43854" lon="-4.41543">
        <ele>151</ele>
        <time>2011-09-04T08:27:35Z</time>
      </trkpt>
      <trkpt lat="48.43849" lon="-4.4154">
        <ele>148.4</ele>
        <time>2011-09-04T08:27:36Z</time>
      </trkpt>
      <trkpt lat="48.43844" lon="-4.41537">
        <ele>147.3</ele>
        <time>2011-09-04T08:27:37Z</time>
      </trkpt>
      <trkpt lat="48.4384" lon="-4.41534">
        <ele>146.9</ele>
        <time>2011-09-04T08:27:38Z</time>
      </trkpt>
      <trkpt lat="48.43835" lon="-4.41532">
        <ele>146.6</ele>
        <time>2011-09-04T08:27:39Z</time>
      </trkpt>
      <trkpt lat="48.43831" lon="-4.41527">
        <ele>146.9</ele>
        <time>2011-09-04T08:27:40Z</time>
      </trkpt>
      <trkpt lat="48.43827" lon="-4.41524">
        <ele>146.5</ele>
        <time>2011-09-04T08:27:41Z</time>
      </trkpt>
      <trkpt lat="48.43822" lon="-4.4152">
        <ele>146.2</ele>
        <time>2011-09-04T08:27:42Z</time>
      </trkpt>
      <trkpt lat="48.43819" lon="-4.41513">
        <ele>143.6</ele>
        <time>2011-09-04T08:27:43Z</time>
      </trkpt>
      <trkpt lat="48.43814" lon="-4.41507">
        <ele>142.5</ele>
        <time>2011-09-04T08:27:45Z</time>
      </trkpt>
      <trkpt lat="48.43802" lon="-4.41499">
        <ele>142.3</ele>
        <time>2011-09-04T08:27:47Z</time>
      </trkpt>
      <trkpt lat="48.43797" lon="-4.41495">
        <ele>141.9</ele>
        <time>2011-09-04T08:27:48Z</time>
      </trkpt>
      <trkpt lat="48.43791" lon="-4.4149">
        <ele>142</ele>
        <time>2011-09-04T08:27:49Z</time>
      </trkpt>
      <trkpt lat="48.43785" lon="-4.41488">
        <ele>141.7</ele>
        <time>2011-09-04T08:27:50Z</time>
      </trkpt>
      <trkpt lat="48.43772" lon="-4.41481">
        <ele>139.6</ele>
        <time>2011-09-04T08:27:52Z</time>
      </trkpt>
      <trkpt lat="48.43764" lon="-4.41478">
        <ele>139.5</ele>
        <time>2011-09-04T08:27:53Z</time>
      </trkpt>
      <trkpt lat="48.43757" lon="-4.41474">
        <ele>139.1</ele>
        <time>2011-09-04T08:27:54Z</time>
      </trkpt>
      <trkpt lat="48.43749" lon="-4.41471">
        <ele>139.1</ele>
        <time>2011-09-04T08:27:55Z</time>
      </trkpt>
      <trkpt lat="48.43741" lon="-4.41467">
        <ele>140.2</ele>
        <time>2011-09-04T08:27:56Z</time>
      </trkpt>
      <trkpt lat="48.43732" lon="-4.41457">
        <ele>140.4</ele>
        <time>2011-09-04T08:27:58Z</time>
      </trkpt>
      <trkpt lat="48.43728" lon="-4.41453">
        <ele>139.9</ele>
        <time>2011-09-04T08:27:59Z</time>
      </trkpt>
      <trkpt lat="48.43723" lon="-4.4145">
        <ele>140.4</ele>
        <time>2011-09-04T08:28:00Z</time>
      </trkpt>
      <trkpt lat="48.43718" lon="-4.41447">
        <ele>139.1</ele>
        <time>2011-09-04T08:28:01Z</time>
      </trkpt>
      <trkpt lat="48.43713" lon="-4.41444">
        <ele>137.7</ele>
        <time>2011-09-04T08:28:02Z</time>
      </trkpt>
      <trkpt lat="48.43707" lon="-4.41442">
        <ele>138</ele>
        <time>2011-09-04T08:28:03Z</time>
      </trkpt>
      <trkpt lat="48.43702" lon="-4.4144">
        <ele>137.8</ele>
        <time>2011-09-04T08:28:04Z</time>
      </trkpt>
      <trkpt lat="48.43696" lon="-4.41435">
        <ele>137.9</ele>
        <time>2011-09-04T08:28:06Z</time>
      </trkpt>
      <trkpt lat="48.4369" lon="-4.41429">
        <ele>138.5</ele>
        <time>2011-09-04T08:28:08Z</time>
      </trkpt>
      <trkpt lat="48.43688" lon="-4.41422">
        <ele>149.5</ele>
        <time>2011-09-04T08:28:12Z</time>
      </trkpt>
      <trkpt lat="48.43683" lon="-4.41417">
        <ele>148.9</ele>
        <time>2011-09-04T08:28:16Z</time>
      </trkpt>
      <trkpt lat="48.43678" lon="-4.4141">
        <ele>148.3</ele>
        <time>2011-09-04T08:28:19Z</time>
      </trkpt>
      <trkpt lat="48.43674" lon="-4.41407">
        <ele>148.3</ele>
        <time>2011-09-04T08:28:21Z</time>
      </trkpt>
      <trkpt lat="48.4367" lon="-4.41402">
        <ele>147.9</ele>
        <time>2011-09-04T08:28:23Z</time>
      </trkpt>
      <trkpt lat="48.43665" lon="-4.41396">
        <ele>146.7</ele>
        <time>2011-09-04T08:28:25Z</time>
      </trkpt>
      <trkpt lat="48.43661" lon="-4.41395">
        <ele>147.8</ele>
        <time>2011-09-04T08:28:28Z</time>
      </trkpt>
      <trkpt lat="48.43659" lon="-4.41388">
        <ele>146.5</ele>
        <time>2011-09-04T08:28:31Z</time>
      </trkpt>
      <trkpt lat="48.43654" lon="-4.41388">
        <ele>144.4</ele>
        <time>2011-09-04T08:28:36Z</time>
      </trkpt>
      <trkpt lat="48.43648" lon="-4.41386">
        <ele>141.4</ele>
        <time>2011-09-04T08:28:44Z</time>
      </trkpt>
      <trkpt lat="48.43644" lon="-4.4139">
        <ele>145.1</ele>
        <time>2011-09-04T08:28:46Z</time>
      </trkpt>
      <trkpt lat="48.43642" lon="-4.41381">
        <ele>143.7</ele>
        <time>2011-09-04T08:28:49Z</time>
      </trkpt>
      <trkpt lat="48.43641" lon="-4.41373">
        <ele>144</ele>
        <time>2011-09-04T08:28:51Z</time>
      </trkpt>
      <trkpt lat="48.43639" lon="-4.41362">
        <ele>142.4</ele>
        <time>2011-09-04T08:28:53Z</time>
      </trkpt>
      <trkpt lat="48.43641" lon="-4.4135">
        <ele>142.6</ele>
        <time>2011-09-04T08:28:55Z</time>
      </trkpt>
      <trkpt lat="48.43642" lon="-4.41342">
        <ele>142.4</ele>
        <time>2011-09-04T08:28:56Z</time>
      </trkpt>
      <trkpt lat="48.43645" lon="-4.41329">
        <ele>142.5</ele>
        <time>2011-09-04T08:28:58Z</time>
      </trkpt>
      <trkpt lat="48.43645" lon="-4.41321">
        <ele>141.8</ele>
        <time>2011-09-04T08:28:59Z</time>
      </trkpt>
      <trkpt lat="48.43647" lon="-4.41315">
        <ele>141.5</ele>
        <time>2011-09-04T08:29:00Z</time>
      </trkpt>
      <trkpt lat="48.43649" lon="-4.41308">
        <ele>141.3</ele>
        <time>2011-09-04T08:29:01Z</time>
      </trkpt>
      <trkpt lat="48.4365" lon="-4.41301">
        <ele>141.3</ele>
        <time>2011-09-04T08:29:02Z</time>
      </trkpt>
      <trkpt lat="48.43653" lon="-4.4129">
        <ele>141.1</ele>
        <time>2011-09-04T08:29:04Z</time>
      </trkpt>
      <trkpt lat="48.43657" lon="-4.4128">
        <ele>140.9</ele>
        <time>2011-09-04T08:29:06Z</time>
      </trkpt>
      <trkpt lat="48.43661" lon="-4.41271">
        <ele>140.7</ele>
        <time>2011-09-04T08:29:08Z</time>
      </trkpt>
      <trkpt lat="48.43666" lon="-4.41263">
        <ele>140.9</ele>
        <time>2011-09-04T08:29:10Z</time>
      </trkpt>
      <trkpt lat="48.43671" lon="-4.41255">
        <ele>141.1</ele>
        <time>2011-09-04T08:29:12Z</time>
      </trkpt>
      <trkpt lat="48.43675" lon="-4.41246">
        <ele>141</ele>
        <time>2011-09-04T08:29:14Z</time>
      </trkpt>
      <trkpt lat="48.4368" lon="-4.41237">
        <ele>141.4</ele>
        <time>2011-09-04T08:29:16Z</time>
      </trkpt>
      <trkpt lat="48.43685" lon="-4.41228">
        <ele>141.5</ele>
        <time>2011-09-04T08:29:18Z</time>
      </trkpt>
      <trkpt lat="48.4369" lon="-4.4122">
        <ele>141.7</ele>
        <time>2011-09-04T08:29:20Z</time>
      </trkpt>
      <trkpt lat="48.43694" lon="-4.41212">
        <ele>142.1</ele>
        <time>2011-09-04T08:29:22Z</time>
      </trkpt>
      <trkpt lat="48.43699" lon="-4.41203">
        <ele>142.3</ele>
        <time>2011-09-04T08:29:23Z</time>
      </trkpt>
      <trkpt lat="48.43704" lon="-4.41195">
        <ele>142.3</ele>
        <time>2011-09-04T08:29:25Z</time>
      </trkpt>
      <trkpt lat="48.43709" lon="-4.41186">
        <ele>142.2</ele>
        <time>2011-09-04T08:29:27Z</time>
      </trkpt>
      <trkpt lat="48.43713" lon="-4.41178">
        <ele>142.3</ele>
        <time>2011-09-04T08:29:29Z</time>
      </trkpt>
      <trkpt lat="48.43718" lon="-4.41168">
        <ele>141.7</ele>
        <time>2011-09-04T08:29:31Z</time>
      </trkpt>
      <trkpt lat="48.43724" lon="-4.41161">
        <ele>141.9</ele>
        <time>2011-09-04T08:29:33Z</time>
      </trkpt>
      <trkpt lat="48.43729" lon="-4.41153">
        <ele>141</ele>
        <time>2011-09-04T08:29:35Z</time>
      </trkpt>
      <trkpt lat="48.43735" lon="-4.41144">
        <ele>141.2</ele>
        <time>2011-09-04T08:29:37Z</time>
      </trkpt>
      <trkpt lat="48.43739" lon="-4.41135">
        <ele>142.7</ele>
        <time>2011-09-04T08:29:39Z</time>
      </trkpt>
      <trkpt lat="48.43744" lon="-4.41126">
        <ele>144.1</ele>
        <time>2011-09-04T08:29:42Z</time>
      </trkpt>
      <trkpt lat="48.43746" lon="-4.4112">
        <ele>143.3</ele>
        <time>2011-09-04T08:29:42Z</time>
      </trkpt>
      <trkpt lat="48.4375" lon="-4.4111">
        <ele>143.1</ele>
        <time>2011-09-04T08:29:45Z</time>
      </trkpt>
      <trkpt lat="48.43754" lon="-4.41101">
        <ele>143.6</ele>
        <time>2011-09-04T08:29:46Z</time>
      </trkpt>
      <trkpt lat="48.43758" lon="-4.41091">
        <ele>143.2</ele>
        <time>2011-09-04T08:29:48Z</time>
      </trkpt>
      <trkpt lat="48.4376" lon="-4.41081">
        <ele>141.9</ele>
        <time>2011-09-04T08:29:50Z</time>
      </trkpt>
      <trkpt lat="48.43762" lon="-4.41073">
        <ele>142.3</ele>
        <time>2011-09-04T08:29:52Z</time>
      </trkpt>
      <trkpt lat="48.43764" lon="-4.41066">
        <ele>142.6</ele>
        <time>2011-09-04T08:29:55Z</time>
      </trkpt>
      <trkpt lat="48.43767" lon="-4.41058">
        <ele>142.6</ele>
        <time>2011-09-04T08:29:57Z</time>
      </trkpt>
      <trkpt lat="48.43769" lon="-4.41049">
        <ele>143</ele>
        <time>2011-09-04T08:29:58Z</time>
      </trkpt>
      <trkpt lat="48.43773" lon="-4.41042">
        <ele>143.6</ele>
        <time>2011-09-04T08:30:01Z</time>
      </trkpt>
      <trkpt lat="48.43777" lon="-4.41033">
        <ele>144</ele>
        <time>2011-09-04T08:30:03Z</time>
      </trkpt>
      <trkpt lat="48.43782" lon="-4.41027">
        <ele>144.4</ele>
        <time>2011-09-04T08:30:04Z</time>
      </trkpt>
      <trkpt lat="48.4379" lon="-4.41023">
        <ele>144.5</ele>
        <time>2011-09-04T08:30:06Z</time>
      </trkpt>
      <trkpt lat="48.43798" lon="-4.4102">
        <ele>144.4</ele>
        <time>2011-09-04T08:30:08Z</time>
      </trkpt>
      <trkpt lat="48.43803" lon="-4.4102">
        <ele>144.2</ele>
        <time>2011-09-04T08:30:09Z</time>
      </trkpt>
      <trkpt lat="48.43807" lon="-4.41021">
        <ele>144</ele>
        <time>2011-09-04T08:30:10Z</time>
      </trkpt>
      <trkpt lat="48.43812" lon="-4.4102">
        <ele>144</ele>
        <time>2011-09-04T08:30:11Z</time>
      </trkpt>
      <trkpt lat="48.43816" lon="-4.4102">
        <ele>144</ele>
        <time>2011-09-04T08:30:12Z</time>
      </trkpt>
      <trkpt lat="48.43821" lon="-4.41019">
        <ele>144.3</ele>
        <time>2011-09-04T08:30:13Z</time>
      </trkpt>
      <trkpt lat="48.43826" lon="-4.41017">
        <ele>144.6</ele>
        <time>2011-09-04T08:30:14Z</time>
      </trkpt>
      <trkpt lat="48.4383" lon="-4.41014">
        <ele>145.2</ele>
        <time>2011-09-04T08:30:15Z</time>
      </trkpt>
      <trkpt lat="48.43835" lon="-4.41012">
        <ele>144.9</ele>
        <time>2011-09-04T08:30:16Z</time>
      </trkpt>
      <trkpt lat="48.43843" lon="-4.41007">
        <ele>145.7</ele>
        <time>2011-09-04T08:30:18Z</time>
      </trkpt>
      <trkpt lat="48.43846" lon="-4.41003">
        <ele>145.7</ele>
        <time>2011-09-04T08:30:19Z</time>
      </trkpt>
      <trkpt lat="48.43851" lon="-4.40998">
        <ele>145.8</ele>
        <time>2011-09-04T08:30:20Z</time>
      </trkpt>
      <trkpt lat="48.43855" lon="-4.40993">
        <ele>145.2</ele>
        <time>2011-09-04T08:30:21Z</time>
      </trkpt>
      <trkpt lat="48.43859" lon="-4.40988">
        <ele>144.9</ele>
        <time>2011-09-04T08:30:22Z</time>
      </trkpt>
      <trkpt lat="48.43863" lon="-4.40984">
        <ele>145.2</ele>
        <time>2011-09-04T08:30:23Z</time>
      </trkpt>
      <trkpt lat="48.43869" lon="-4.40974">
        <ele>146.7</ele>
        <time>2011-09-04T08:30:26Z</time>
      </trkpt>
      <trkpt lat="48.43873" lon="-4.40969">
        <ele>146.1</ele>
        <time>2011-09-04T08:30:26Z</time>
      </trkpt>
      <trkpt lat="48.43876" lon="-4.40965">
        <ele>145.9</ele>
        <time>2011-09-04T08:30:27Z</time>
      </trkpt>
      <trkpt lat="48.4388" lon="-4.40958">
        <ele>145.8</ele>
        <time>2011-09-04T08:30:28Z</time>
      </trkpt>
      <trkpt lat="48.43884" lon="-4.40953">
        <ele>145.9</ele>
        <time>2011-09-04T08:30:29Z</time>
      </trkpt>
      <trkpt lat="48.4389" lon="-4.40944">
        <ele>146.8</ele>
        <time>2011-09-04T08:30:32Z</time>
      </trkpt>
      <trkpt lat="48.43894" lon="-4.40939">
        <ele>146.8</ele>
        <time>2011-09-04T08:30:32Z</time>
      </trkpt>
      <trkpt lat="48.43897" lon="-4.40933">
        <ele>146.8</ele>
        <time>2011-09-04T08:30:33Z</time>
      </trkpt>
      <trkpt lat="48.439" lon="-4.40921">
        <ele>147.8</ele>
        <time>2011-09-04T08:30:36Z</time>
      </trkpt>
      <trkpt lat="48.43903" lon="-4.40908">
        <ele>147.3</ele>
        <time>2011-09-04T08:30:37Z</time>
      </trkpt>
      <trkpt lat="48.43906" lon="-4.40896">
        <ele>147.8</ele>
        <time>2011-09-04T08:30:39Z</time>
      </trkpt>
      <trkpt lat="48.43909" lon="-4.40891">
        <ele>147.5</ele>
        <time>2011-09-04T08:30:40Z</time>
      </trkpt>
      <trkpt lat="48.43912" lon="-4.40885">
        <ele>147.2</ele>
        <time>2011-09-04T08:30:41Z</time>
      </trkpt>
      <trkpt lat="48.43913" lon="-4.40872">
        <ele>146.8</ele>
        <time>2011-09-04T08:30:43Z</time>
      </trkpt>
      <trkpt lat="48.43914" lon="-4.40865">
        <ele>146.1</ele>
        <time>2011-09-04T08:30:44Z</time>
      </trkpt>
      <trkpt lat="48.43914" lon="-4.40858">
        <ele>145.8</ele>
        <time>2011-09-04T08:30:45Z</time>
      </trkpt>
      <trkpt lat="48.43914" lon="-4.40845">
        <ele>146.5</ele>
        <time>2011-09-04T08:30:48Z</time>
      </trkpt>
      <trkpt lat="48.43915" lon="-4.40833">
        <ele>146.5</ele>
        <time>2011-09-04T08:30:49Z</time>
      </trkpt>
      <trkpt lat="48.43916" lon="-4.40821">
        <ele>146.5</ele>
        <time>2011-09-04T08:30:52Z</time>
      </trkpt>
      <trkpt lat="48.43918" lon="-4.40808">
        <ele>146.4</ele>
        <time>2011-09-04T08:30:53Z</time>
      </trkpt>
      <trkpt lat="48.4392" lon="-4.40795">
        <ele>145.8</ele>
        <time>2011-09-04T08:30:55Z</time>
      </trkpt>
      <trkpt lat="48.43921" lon="-4.40788">
        <ele>146.1</ele>
        <time>2011-09-04T08:30:56Z</time>
      </trkpt>
      <trkpt lat="48.43923" lon="-4.40782">
        <ele>146.2</ele>
        <time>2011-09-04T08:30:57Z</time>
      </trkpt>
      <trkpt lat="48.43925" lon="-4.40769">
        <ele>146.3</ele>
        <time>2011-09-04T08:31:00Z</time>
      </trkpt>
      <trkpt lat="48.43926" lon="-4.40762">
        <ele>146.7</ele>
        <time>2011-09-04T08:31:00Z</time>
      </trkpt>
      <trkpt lat="48.43928" lon="-4.40749">
        <ele>146.7</ele>
        <time>2011-09-04T08:31:02Z</time>
      </trkpt>
      <trkpt lat="48.43929" lon="-4.40742">
        <ele>146.5</ele>
        <time>2011-09-04T08:31:03Z</time>
      </trkpt>
      <trkpt lat="48.43931" lon="-4.40735">
        <ele>146.7</ele>
        <time>2011-09-04T08:31:04Z</time>
      </trkpt>
      <trkpt lat="48.43931" lon="-4.40728">
        <ele>147</ele>
        <time>2011-09-04T08:31:05Z</time>
      </trkpt>
      <trkpt lat="48.43933" lon="-4.4072">
        <ele>146.5</ele>
        <time>2011-09-04T08:31:06Z</time>
      </trkpt>
      <trkpt lat="48.43935" lon="-4.40713">
        <ele>145.7</ele>
        <time>2011-09-04T08:31:07Z</time>
      </trkpt>
      <trkpt lat="48.43936" lon="-4.40705">
        <ele>145.7</ele>
        <time>2011-09-04T08:31:08Z</time>
      </trkpt>
      <trkpt lat="48.43937" lon="-4.40697">
        <ele>146.6</ele>
        <time>2011-09-04T08:31:09Z</time>
      </trkpt>
      <trkpt lat="48.43939" lon="-4.4069">
        <ele>146.5</ele>
        <time>2011-09-04T08:31:10Z</time>
      </trkpt>
      <trkpt lat="48.4394" lon="-4.40683">
        <ele>146.4</ele>
        <time>2011-09-04T08:31:11Z</time>
      </trkpt>
      <trkpt lat="48.43941" lon="-4.40676">
        <ele>146.8</ele>
        <time>2011-09-04T08:31:12Z</time>
      </trkpt>
      <trkpt lat="48.43942" lon="-4.40668">
        <ele>146.9</ele>
        <time>2011-09-04T08:31:13Z</time>
      </trkpt>
      <trkpt lat="48.43944" lon="-4.40662">
        <ele>146.5</ele>
        <time>2011-09-04T08:31:14Z</time>
      </trkpt>
      <trkpt lat="48.43945" lon="-4.40654">
        <ele>146.5</ele>
        <time>2011-09-04T08:31:15Z</time>
      </trkpt>
      <trkpt lat="48.43947" lon="-4.40646">
        <ele>146.1</ele>
        <time>2011-09-04T08:31:16Z</time>
      </trkpt>
      <trkpt lat="48.43948" lon="-4.40639">
        <ele>146</ele>
        <time>2011-09-04T08:31:17Z</time>
      </trkpt>
      <trkpt lat="48.4395" lon="-4.40632">
        <ele>145.8</ele>
        <time>2011-09-04T08:31:18Z</time>
      </trkpt>
      <trkpt lat="48.43952" lon="-4.40624">
        <ele>145.5</ele>
        <time>2011-09-04T08:31:19Z</time>
      </trkpt>
      <trkpt lat="48.43953" lon="-4.40617">
        <ele>145.1</ele>
        <time>2011-09-04T08:31:20Z</time>
      </trkpt>
      <trkpt lat="48.43955" lon="-4.4061">
        <ele>145.6</ele>
        <time>2011-09-04T08:31:21Z</time>
      </trkpt>
      <trkpt lat="48.43956" lon="-4.40603">
        <ele>145.6</ele>
        <time>2011-09-04T08:31:22Z</time>
      </trkpt>
      <trkpt lat="48.43958" lon="-4.40595">
        <ele>145.1</ele>
        <time>2011-09-04T08:31:23Z</time>
      </trkpt>
      <trkpt lat="48.43959" lon="-4.40588">
        <ele>145.3</ele>
        <time>2011-09-04T08:31:24Z</time>
      </trkpt>
      <trkpt lat="48.43961" lon="-4.4058">
        <ele>145.3</ele>
        <time>2011-09-04T08:31:25Z</time>
      </trkpt>
      <trkpt lat="48.43963" lon="-4.40573">
        <ele>144.7</ele>
        <time>2011-09-04T08:31:26Z</time>
      </trkpt>
      <trkpt lat="48.43965" lon="-4.40567">
        <ele>144.6</ele>
        <time>2011-09-04T08:31:27Z</time>
      </trkpt>
      <trkpt lat="48.43967" lon="-4.40561">
        <ele>145.2</ele>
        <time>2011-09-04T08:31:28Z</time>
      </trkpt>
      <trkpt lat="48.43969" lon="-4.40554">
        <ele>146.4</ele>
        <time>2011-09-04T08:31:29Z</time>
      </trkpt>
      <trkpt lat="48.43971" lon="-4.40548">
        <ele>147.2</ele>
        <time>2011-09-04T08:31:30Z</time>
      </trkpt>
      <trkpt lat="48.43975" lon="-4.40535">
        <ele>147.3</ele>
        <time>2011-09-04T08:31:32Z</time>
      </trkpt>
      <trkpt lat="48.43976" lon="-4.40529">
        <ele>147.9</ele>
        <time>2011-09-04T08:31:33Z</time>
      </trkpt>
      <trkpt lat="48.43978" lon="-4.40522">
        <ele>147.9</ele>
        <time>2011-09-04T08:31:34Z</time>
      </trkpt>
      <trkpt lat="48.43978" lon="-4.4051">
        <ele>148.8</ele>
        <time>2011-09-04T08:31:36Z</time>
      </trkpt>
      <trkpt lat="48.43977" lon="-4.40498">
        <ele>149.1</ele>
        <time>2011-09-04T08:31:38Z</time>
      </trkpt>
      <trkpt lat="48.43982" lon="-4.40489">
        <ele>148.7</ele>
        <time>2011-09-04T08:31:40Z</time>
      </trkpt>
      <trkpt lat="48.43988" lon="-4.40498">
        <ele>148.7</ele>
        <time>2011-09-04T08:31:42Z</time>
      </trkpt>
      <trkpt lat="48.43991" lon="-4.40509">
        <ele>148.8</ele>
        <time>2011-09-04T08:31:44Z</time>
      </trkpt>
      <trkpt lat="48.43996" lon="-4.4052">
        <ele>149.2</ele>
        <time>2011-09-04T08:31:46Z</time>
      </trkpt>
      <trkpt lat="48.43999" lon="-4.40524">
        <ele>149.2</ele>
        <time>2011-09-04T08:31:47Z</time>
      </trkpt>
      <trkpt lat="48.44002" lon="-4.4053">
        <ele>149.4</ele>
        <time>2011-09-04T08:31:48Z</time>
      </trkpt>
      <trkpt lat="48.44009" lon="-4.40539">
        <ele>148.8</ele>
        <time>2011-09-04T08:31:50Z</time>
      </trkpt>
      <trkpt lat="48.44015" lon="-4.40548">
        <ele>148.6</ele>
        <time>2011-09-04T08:31:52Z</time>
      </trkpt>
      <trkpt lat="48.44021" lon="-4.40557">
        <ele>148.9</ele>
        <time>2011-09-04T08:31:54Z</time>
      </trkpt>
      <trkpt lat="48.44025" lon="-4.40562">
        <ele>149.2</ele>
        <time>2011-09-04T08:31:55Z</time>
      </trkpt>
      <trkpt lat="48.44028" lon="-4.40567">
        <ele>149.6</ele>
        <time>2011-09-04T08:31:56Z</time>
      </trkpt>
      <trkpt lat="48.44031" lon="-4.40572">
        <ele>149</ele>
        <time>2011-09-04T08:31:57Z</time>
      </trkpt>
      <trkpt lat="48.44034" lon="-4.40577">
        <ele>148.7</ele>
        <time>2011-09-04T08:31:58Z</time>
      </trkpt>
      <trkpt lat="48.4404" lon="-4.40588">
        <ele>147.8</ele>
        <time>2011-09-04T08:32:00Z</time>
      </trkpt>
      <trkpt lat="48.44043" lon="-4.40593">
        <ele>147.8</ele>
        <time>2011-09-04T08:32:01Z</time>
      </trkpt>
      <trkpt lat="48.44047" lon="-4.40598">
        <ele>147.1</ele>
        <time>2011-09-04T08:32:02Z</time>
      </trkpt>
      <trkpt lat="48.44051" lon="-4.40603">
        <ele>146.4</ele>
        <time>2011-09-04T08:32:03Z</time>
      </trkpt>
      <trkpt lat="48.44054" lon="-4.40609">
        <ele>146.1</ele>
        <time>2011-09-04T08:32:04Z</time>
      </trkpt>
      <trkpt lat="48.44057" lon="-4.40614">
        <ele>146.4</ele>
        <time>2011-09-04T08:32:05Z</time>
      </trkpt>
      <trkpt lat="48.44061" lon="-4.4062">
        <ele>146.4</ele>
        <time>2011-09-04T08:32:06Z</time>
      </trkpt>
      <trkpt lat="48.44063" lon="-4.40626">
        <ele>146.3</ele>
        <time>2011-09-04T08:32:07Z</time>
      </trkpt>
      <trkpt lat="48.44068" lon="-4.40633">
        <ele>145.8</ele>
        <time>2011-09-04T08:32:08Z</time>
      </trkpt>
      <trkpt lat="48.44071" lon="-4.40639">
        <ele>145.4</ele>
        <time>2011-09-04T08:32:09Z</time>
      </trkpt>
      <trkpt lat="48.44074" lon="-4.40645">
        <ele>144.8</ele>
        <time>2011-09-04T08:32:10Z</time>
      </trkpt>
      <trkpt lat="48.44078" lon="-4.40648">
        <ele>143.8</ele>
        <time>2011-09-04T08:32:11Z</time>
      </trkpt>
      <trkpt lat="48.44081" lon="-4.40654">
        <ele>143.5</ele>
        <time>2011-09-04T08:32:12Z</time>
      </trkpt>
      <trkpt lat="48.44084" lon="-4.40659">
        <ele>143.7</ele>
        <time>2011-09-04T08:32:13Z</time>
      </trkpt>
      <trkpt lat="48.44087" lon="-4.40666">
        <ele>143.3</ele>
        <time>2011-09-04T08:32:14Z</time>
      </trkpt>
      <trkpt lat="48.4409" lon="-4.40672">
        <ele>142.9</ele>
        <time>2011-09-04T08:32:15Z</time>
      </trkpt>
      <trkpt lat="48.44093" lon="-4.40679">
        <ele>142.3</ele>
        <time>2011-09-04T08:32:16Z</time>
      </trkpt>
      <trkpt lat="48.44096" lon="-4.40685">
        <ele>141.9</ele>
        <time>2011-09-04T08:32:17Z</time>
      </trkpt>
      <trkpt lat="48.441" lon="-4.4069">
        <ele>142</ele>
        <time>2011-09-04T08:32:18Z</time>
      </trkpt>
      <trkpt lat="48.44103" lon="-4.40695">
        <ele>142.4</ele>
        <time>2011-09-04T08:32:19Z</time>
      </trkpt>
      <trkpt lat="48.44106" lon="-4.40703">
        <ele>142.1</ele>
        <time>2011-09-04T08:32:20Z</time>
      </trkpt>
      <trkpt lat="48.44108" lon="-4.40709">
        <ele>141</ele>
        <time>2011-09-04T08:32:21Z</time>
      </trkpt>
      <trkpt lat="48.44112" lon="-4.40715">
        <ele>141.2</ele>
        <time>2011-09-04T08:32:22Z</time>
      </trkpt>
      <trkpt lat="48.44114" lon="-4.40722">
        <ele>141</ele>
        <time>2011-09-04T08:32:23Z</time>
      </trkpt>
      <trkpt lat="48.44117" lon="-4.40729">
        <ele>140.5</ele>
        <time>2011-09-04T08:32:24Z</time>
      </trkpt>
      <trkpt lat="48.4412" lon="-4.40737">
        <ele>140.6</ele>
        <time>2011-09-04T08:32:25Z</time>
      </trkpt>
      <trkpt lat="48.44123" lon="-4.40744">
        <ele>140.4</ele>
        <time>2011-09-04T08:32:26Z</time>
      </trkpt>
      <trkpt lat="48.44125" lon="-4.40751">
        <ele>140.3</ele>
        <time>2011-09-04T08:32:27Z</time>
      </trkpt>
      <trkpt lat="48.44128" lon="-4.40759">
        <ele>140</ele>
        <time>2011-09-04T08:32:28Z</time>
      </trkpt>
      <trkpt lat="48.44131" lon="-4.40766">
        <ele>140.1</ele>
        <time>2011-09-04T08:32:29Z</time>
      </trkpt>
      <trkpt lat="48.44134" lon="-4.40773">
        <ele>139.7</ele>
        <time>2011-09-04T08:32:30Z</time>
      </trkpt>
      <trkpt lat="48.44138" lon="-4.40781">
        <ele>139.1</ele>
        <time>2011-09-04T08:32:31Z</time>
      </trkpt>
      <trkpt lat="48.44141" lon="-4.40789">
        <ele>139.3</ele>
        <time>2011-09-04T08:32:32Z</time>
      </trkpt>
      <trkpt lat="48.44145" lon="-4.40795">
        <ele>138.6</ele>
        <time>2011-09-04T08:32:33Z</time>
      </trkpt>
      <trkpt lat="48.44148" lon="-4.40801">
        <ele>138.6</ele>
        <time>2011-09-04T08:32:34Z</time>
      </trkpt>
      <trkpt lat="48.44152" lon="-4.40807">
        <ele>138.7</ele>
        <time>2011-09-04T08:32:35Z</time>
      </trkpt>
      <trkpt lat="48.44156" lon="-4.40812">
        <ele>138.2</ele>
        <time>2011-09-04T08:32:36Z</time>
      </trkpt>
      <trkpt lat="48.44161" lon="-4.40818">
        <ele>138.1</ele>
        <time>2011-09-04T08:32:37Z</time>
      </trkpt>
      <trkpt lat="48.44165" lon="-4.40824">
        <ele>138.2</ele>
        <time>2011-09-04T08:32:38Z</time>
      </trkpt>
      <trkpt lat="48.44169" lon="-4.4083">
        <ele>138.2</ele>
        <time>2011-09-04T08:32:39Z</time>
      </trkpt>
      <trkpt lat="48.44173" lon="-4.40837">
        <ele>138.3</ele>
        <time>2011-09-04T08:32:40Z</time>
      </trkpt>
      <trkpt lat="48.44177" lon="-4.40843">
        <ele>138.4</ele>
        <time>2011-09-04T08:32:41Z</time>
      </trkpt>
      <trkpt lat="48.44182" lon="-4.40838">
        <ele>139.1</ele>
        <time>2011-09-04T08:32:42Z</time>
      </trkpt>
      <trkpt lat="48.44188" lon="-4.40828">
        <ele>138.4</ele>
        <time>2011-09-04T08:32:45Z</time>
      </trkpt>
      <trkpt lat="48.44192" lon="-4.40819">
        <ele>140.4</ele>
        <time>2011-09-04T08:32:47Z</time>
      </trkpt>
      <trkpt lat="48.44192" lon="-4.40812">
        <ele>140.9</ele>
        <time>2011-09-04T08:32:48Z</time>
      </trkpt>
      <trkpt lat="48.44194" lon="-4.40802">
        <ele>142</ele>
        <time>2011-09-04T08:32:50Z</time>
      </trkpt>
      <trkpt lat="48.44196" lon="-4.40789">
        <ele>141.3</ele>
        <time>2011-09-04T08:32:52Z</time>
      </trkpt>
      <trkpt lat="48.44199" lon="-4.40777">
        <ele>142.1</ele>
        <time>2011-09-04T08:32:54Z</time>
      </trkpt>
      <trkpt lat="48.44203" lon="-4.40765">
        <ele>142.9</ele>
        <time>2011-09-04T08:32:56Z</time>
      </trkpt>
      <trkpt lat="48.44207" lon="-4.40756">
        <ele>142.6</ele>
        <time>2011-09-04T08:32:58Z</time>
      </trkpt>
      <trkpt lat="48.44211" lon="-4.40744">
        <ele>142.3</ele>
        <time>2011-09-04T08:33:00Z</time>
      </trkpt>
      <trkpt lat="48.44215" lon="-4.40734">
        <ele>142.5</ele>
        <time>2011-09-04T08:33:02Z</time>
      </trkpt>
      <trkpt lat="48.44217" lon="-4.40728">
        <ele>141.7</ele>
        <time>2011-09-04T08:33:03Z</time>
      </trkpt>
      <trkpt lat="48.4422" lon="-4.40716">
        <ele>141.9</ele>
        <time>2011-09-04T08:33:05Z</time>
      </trkpt>
      <trkpt lat="48.44224" lon="-4.40702">
        <ele>140.4</ele>
        <time>2011-09-04T08:33:07Z</time>
      </trkpt>
      <trkpt lat="48.44227" lon="-4.4069">
        <ele>141.2</ele>
        <time>2011-09-04T08:33:09Z</time>
      </trkpt>
      <trkpt lat="48.44229" lon="-4.40684">
        <ele>140.5</ele>
        <time>2011-09-04T08:33:10Z</time>
      </trkpt>
      <trkpt lat="48.44233" lon="-4.40672">
        <ele>141</ele>
        <time>2011-09-04T08:33:12Z</time>
      </trkpt>
      <trkpt lat="48.44237" lon="-4.40659">
        <ele>141</ele>
        <time>2011-09-04T08:33:14Z</time>
      </trkpt>
      <trkpt lat="48.44239" lon="-4.40651">
        <ele>140.5</ele>
        <time>2011-09-04T08:33:15Z</time>
      </trkpt>
      <trkpt lat="48.44241" lon="-4.40644">
        <ele>140.2</ele>
        <time>2011-09-04T08:33:16Z</time>
      </trkpt>
      <trkpt lat="48.44244" lon="-4.40637">
        <ele>140.3</ele>
        <time>2011-09-04T08:33:17Z</time>
      </trkpt>
      <trkpt lat="48.44246" lon="-4.40629">
        <ele>139.6</ele>
        <time>2011-09-04T08:33:18Z</time>
      </trkpt>
      <trkpt lat="48.44248" lon="-4.40621">
        <ele>138.6</ele>
        <time>2011-09-04T08:33:19Z</time>
      </trkpt>
      <trkpt lat="48.4425" lon="-4.40614">
        <ele>138.9</ele>
        <time>2011-09-04T08:33:20Z</time>
      </trkpt>
      <trkpt lat="48.44253" lon="-4.40604">
        <ele>139.2</ele>
        <time>2011-09-04T08:33:22Z</time>
      </trkpt>
      <trkpt lat="48.44256" lon="-4.40592">
        <ele>139.8</ele>
        <time>2011-09-04T08:33:24Z</time>
      </trkpt>
      <trkpt lat="48.44258" lon="-4.40585">
        <ele>138.2</ele>
        <time>2011-09-04T08:33:25Z</time>
      </trkpt>
      <trkpt lat="48.4426" lon="-4.40579">
        <ele>138.2</ele>
        <time>2011-09-04T08:33:26Z</time>
      </trkpt>
      <trkpt lat="48.44263" lon="-4.40567">
        <ele>139.5</ele>
        <time>2011-09-04T08:33:28Z</time>
      </trkpt>
      <trkpt lat="48.44267" lon="-4.40555">
        <ele>137.4</ele>
        <time>2011-09-04T08:33:30Z</time>
      </trkpt>
      <trkpt lat="48.44271" lon="-4.40541">
        <ele>136.5</ele>
        <time>2011-09-04T08:33:32Z</time>
      </trkpt>
      <trkpt lat="48.44272" lon="-4.40534">
        <ele>136.3</ele>
        <time>2011-09-04T08:33:33Z</time>
      </trkpt>
      <trkpt lat="48.44274" lon="-4.40526">
        <ele>135.9</ele>
        <time>2011-09-04T08:33:34Z</time>
      </trkpt>
      <trkpt lat="48.44276" lon="-4.40518">
        <ele>135.8</ele>
        <time>2011-09-04T08:33:35Z</time>
      </trkpt>
      <trkpt lat="48.44279" lon="-4.40511">
        <ele>135.3</ele>
        <time>2011-09-04T08:33:36Z</time>
      </trkpt>
      <trkpt lat="48.44281" lon="-4.40504">
        <ele>135.4</ele>
        <time>2011-09-04T08:33:37Z</time>
      </trkpt>
      <trkpt lat="48.44284" lon="-4.40496">
        <ele>135.9</ele>
        <time>2011-09-04T08:33:38Z</time>
      </trkpt>
      <trkpt lat="48.44286" lon="-4.40488">
        <ele>136.4</ele>
        <time>2011-09-04T08:33:39Z</time>
      </trkpt>
      <trkpt lat="48.44288" lon="-4.40481">
        <ele>136.2</ele>
        <time>2011-09-04T08:33:40Z</time>
      </trkpt>
      <trkpt lat="48.4429" lon="-4.40473">
        <ele>136.8</ele>
        <time>2011-09-04T08:33:41Z</time>
      </trkpt>
      <trkpt lat="48.44293" lon="-4.40465">
        <ele>137.9</ele>
        <time>2011-09-04T08:33:42Z</time>
      </trkpt>
      <trkpt lat="48.44296" lon="-4.40459">
        <ele>137.7</ele>
        <time>2011-09-04T08:33:43Z</time>
      </trkpt>
      <trkpt lat="48.443" lon="-4.4045">
        <ele>137.8</ele>
        <time>2011-09-04T08:33:44Z</time>
      </trkpt>
      <trkpt lat="48.44302" lon="-4.40443">
        <ele>137.9</ele>
        <time>2011-09-04T08:33:45Z</time>
      </trkpt>
      <trkpt lat="48.44304" lon="-4.40434">
        <ele>137.6</ele>
        <time>2011-09-04T08:33:46Z</time>
      </trkpt>
      <trkpt lat="48.44308" lon="-4.40427">
        <ele>137.9</ele>
        <time>2011-09-04T08:33:47Z</time>
      </trkpt>
      <trkpt lat="48.4431" lon="-4.40419">
        <ele>137.2</ele>
        <time>2011-09-04T08:33:48Z</time>
      </trkpt>
      <trkpt lat="48.44312" lon="-4.40411">
        <ele>136.7</ele>
        <time>2011-09-04T08:33:49Z</time>
      </trkpt>
      <trkpt lat="48.44315" lon="-4.40404">
        <ele>136.4</ele>
        <time>2011-09-04T08:33:50Z</time>
      </trkpt>
      <trkpt lat="48.44317" lon="-4.40396">
        <ele>135.6</ele>
        <time>2011-09-04T08:33:51Z</time>
      </trkpt>
      <trkpt lat="48.4432" lon="-4.4039">
        <ele>135.3</ele>
        <time>2011-09-04T08:33:52Z</time>
      </trkpt>
      <trkpt lat="48.44322" lon="-4.40383">
        <ele>134.9</ele>
        <time>2011-09-04T08:33:53Z</time>
      </trkpt>
      <trkpt lat="48.44324" lon="-4.40374">
        <ele>133.5</ele>
        <time>2011-09-04T08:33:54Z</time>
      </trkpt>
      <trkpt lat="48.44326" lon="-4.40367">
        <ele>132.9</ele>
        <time>2011-09-04T08:33:55Z</time>
      </trkpt>
      <trkpt lat="48.44328" lon="-4.40359">
        <ele>133.1</ele>
        <time>2011-09-04T08:33:56Z</time>
      </trkpt>
      <trkpt lat="48.4433" lon="-4.40352">
        <ele>133.6</ele>
        <time>2011-09-04T08:33:57Z</time>
      </trkpt>
      <trkpt lat="48.44332" lon="-4.40344">
        <ele>133.3</ele>
        <time>2011-09-04T08:33:58Z</time>
      </trkpt>
      <trkpt lat="48.44334" lon="-4.40337">
        <ele>132.7</ele>
        <time>2011-09-04T08:33:59Z</time>
      </trkpt>
      <trkpt lat="48.44337" lon="-4.4033">
        <ele>132.8</ele>
        <time>2011-09-04T08:34:00Z</time>
      </trkpt>
      <trkpt lat="48.44339" lon="-4.40323">
        <ele>133.8</ele>
        <time>2011-09-04T08:34:01Z</time>
      </trkpt>
      <trkpt lat="48.44342" lon="-4.40316">
        <ele>133.8</ele>
        <time>2011-09-04T08:34:02Z</time>
      </trkpt>
      <trkpt lat="48.44344" lon="-4.40309">
        <ele>133.9</ele>
        <time>2011-09-04T08:34:03Z</time>
      </trkpt>
      <trkpt lat="48.44346" lon="-4.40303">
        <ele>134.4</ele>
        <time>2011-09-04T08:34:04Z</time>
      </trkpt>
      <trkpt lat="48.44348" lon="-4.40296">
        <ele>134.8</ele>
        <time>2011-09-04T08:34:05Z</time>
      </trkpt>
      <trkpt lat="48.44351" lon="-4.40289">
        <ele>134.8</ele>
        <time>2011-09-04T08:34:06Z</time>
      </trkpt>
      <trkpt lat="48.44352" lon="-4.40283">
        <ele>135</ele>
        <time>2011-09-04T08:34:07Z</time>
      </trkpt>
      <trkpt lat="48.44354" lon="-4.40276">
        <ele>135.7</ele>
        <time>2011-09-04T08:34:08Z</time>
      </trkpt>
      <trkpt lat="48.44356" lon="-4.40269">
        <ele>136.3</ele>
        <time>2011-09-04T08:34:09Z</time>
      </trkpt>
      <trkpt lat="48.44358" lon="-4.40263">
        <ele>137.2</ele>
        <time>2011-09-04T08:34:10Z</time>
      </trkpt>
      <trkpt lat="48.44363" lon="-4.40252">
        <ele>139</ele>
        <time>2011-09-04T08:34:12Z</time>
      </trkpt>
      <trkpt lat="48.44365" lon="-4.40246">
        <ele>138.5</ele>
        <time>2011-09-04T08:34:13Z</time>
      </trkpt>
      <trkpt lat="48.44369" lon="-4.40234">
        <ele>138.9</ele>
        <time>2011-09-04T08:34:15Z</time>
      </trkpt>
      <trkpt lat="48.44374" lon="-4.40222">
        <ele>138.9</ele>
        <time>2011-09-04T08:34:17Z</time>
      </trkpt>
      <trkpt lat="48.44376" lon="-4.40216">
        <ele>139.4</ele>
        <time>2011-09-04T08:34:18Z</time>
      </trkpt>
      <trkpt lat="48.44379" lon="-4.4021">
        <ele>139.3</ele>
        <time>2011-09-04T08:34:19Z</time>
      </trkpt>
      <trkpt lat="48.44381" lon="-4.40204">
        <ele>139</ele>
        <time>2011-09-04T08:34:20Z</time>
      </trkpt>
      <trkpt lat="48.44383" lon="-4.40198">
        <ele>139</ele>
        <time>2011-09-04T08:34:21Z</time>
      </trkpt>
      <trkpt lat="48.44385" lon="-4.40192">
        <ele>138.5</ele>
        <time>2011-09-04T08:34:22Z</time>
      </trkpt>
      <trkpt lat="48.44388" lon="-4.40184">
        <ele>138.3</ele>
        <time>2011-09-04T08:34:23Z</time>
      </trkpt>
      <trkpt lat="48.4439" lon="-4.40178">
        <ele>138.8</ele>
        <time>2011-09-04T08:34:24Z</time>
      </trkpt>
      <trkpt lat="48.44392" lon="-4.40172">
        <ele>138.8</ele>
        <time>2011-09-04T08:34:25Z</time>
      </trkpt>
      <trkpt lat="48.44397" lon="-4.40161">
        <ele>138.9</ele>
        <time>2011-09-04T08:34:27Z</time>
      </trkpt>
      <trkpt lat="48.44399" lon="-4.40155">
        <ele>138.9</ele>
        <time>2011-09-04T08:34:28Z</time>
      </trkpt>
      <trkpt lat="48.44401" lon="-4.40147">
        <ele>138</ele>
        <time>2011-09-04T08:34:29Z</time>
      </trkpt>
      <trkpt lat="48.44403" lon="-4.40141">
        <ele>138.4</ele>
        <time>2011-09-04T08:34:30Z</time>
      </trkpt>
      <trkpt lat="48.44407" lon="-4.40136">
        <ele>137.4</ele>
        <time>2011-09-04T08:34:31Z</time>
      </trkpt>
      <trkpt lat="48.4441" lon="-4.40128">
        <ele>136.8</ele>
        <time>2011-09-04T08:34:32Z</time>
      </trkpt>
      <trkpt lat="48.44413" lon="-4.40123">
        <ele>135.7</ele>
        <time>2011-09-04T08:34:33Z</time>
      </trkpt>
      <trkpt lat="48.44416" lon="-4.40116">
        <ele>135.6</ele>
        <time>2011-09-04T08:34:34Z</time>
      </trkpt>
      <trkpt lat="48.44419" lon="-4.4011">
        <ele>136.2</ele>
        <time>2011-09-04T08:34:35Z</time>
      </trkpt>
      <trkpt lat="48.44421" lon="-4.40103">
        <ele>135.9</ele>
        <time>2011-09-04T08:34:36Z</time>
      </trkpt>
      <trkpt lat="48.44423" lon="-4.40096">
        <ele>134.4</ele>
        <time>2011-09-04T08:34:37Z</time>
      </trkpt>
      <trkpt lat="48.44426" lon="-4.40089">
        <ele>134.7</ele>
        <time>2011-09-04T08:34:38Z</time>
      </trkpt>
      <trkpt lat="48.44428" lon="-4.40082">
        <ele>134.8</ele>
        <time>2011-09-04T08:34:39Z</time>
      </trkpt>
      <trkpt lat="48.4443" lon="-4.40075">
        <ele>134.9</ele>
        <time>2011-09-04T08:34:40Z</time>
      </trkpt>
      <trkpt lat="48.44432" lon="-4.40068">
        <ele>134.5</ele>
        <time>2011-09-04T08:34:41Z</time>
      </trkpt>
      <trkpt lat="48.44435" lon="-4.40061">
        <ele>134.2</ele>
        <time>2011-09-04T08:34:42Z</time>
      </trkpt>
      <trkpt lat="48.44438" lon="-4.40054">
        <ele>134.4</ele>
        <time>2011-09-04T08:34:43Z</time>
      </trkpt>
      <trkpt lat="48.4444" lon="-4.40046">
        <ele>134.2</ele>
        <time>2011-09-04T08:34:44Z</time>
      </trkpt>
      <trkpt lat="48.44442" lon="-4.40038">
        <ele>133.5</ele>
        <time>2011-09-04T08:34:45Z</time>
      </trkpt>
      <trkpt lat="48.44445" lon="-4.40032">
        <ele>133.2</ele>
        <time>2011-09-04T08:34:46Z</time>
      </trkpt>
      <trkpt lat="48.44448" lon="-4.40024">
        <ele>131.9</ele>
        <time>2011-09-04T08:34:47Z</time>
      </trkpt>
      <trkpt lat="48.4445" lon="-4.40018">
        <ele>132</ele>
        <time>2011-09-04T08:34:48Z</time>
      </trkpt>
      <trkpt lat="48.44453" lon="-4.40012">
        <ele>131.5</ele>
        <time>2011-09-04T08:34:49Z</time>
      </trkpt>
      <trkpt lat="48.44457" lon="-4.39998">
        <ele>131.1</ele>
        <time>2011-09-04T08:34:51Z</time>
      </trkpt>
      <trkpt lat="48.44459" lon="-4.39991">
        <ele>131.2</ele>
        <time>2011-09-04T08:34:52Z</time>
      </trkpt>
      <trkpt lat="48.44462" lon="-4.39984">
        <ele>130.6</ele>
        <time>2011-09-04T08:34:53Z</time>
      </trkpt>
      <trkpt lat="48.44465" lon="-4.39978">
        <ele>130.7</ele>
        <time>2011-09-04T08:34:54Z</time>
      </trkpt>
      <trkpt lat="48.44467" lon="-4.39972">
        <ele>130.9</ele>
        <time>2011-09-04T08:34:55Z</time>
      </trkpt>
      <trkpt lat="48.4447" lon="-4.39965">
        <ele>130.7</ele>
        <time>2011-09-04T08:34:56Z</time>
      </trkpt>
      <trkpt lat="48.44473" lon="-4.39959">
        <ele>131</ele>
        <time>2011-09-04T08:34:57Z</time>
      </trkpt>
      <trkpt lat="48.44476" lon="-4.39951">
        <ele>132.1</ele>
        <time>2011-09-04T08:34:59Z</time>
      </trkpt>
      <trkpt lat="48.44479" lon="-4.39944">
        <ele>132.5</ele>
        <time>2011-09-04T08:35:02Z</time>
      </trkpt>
      <trkpt lat="48.44481" lon="-4.39935">
        <ele>134.3</ele>
        <time>2011-09-04T08:35:13Z</time>
      </trkpt>
      <trkpt lat="48.44485" lon="-4.39928">
        <ele>134.5</ele>
        <time>2011-09-04T08:35:15Z</time>
      </trkpt>
      <trkpt lat="48.44488" lon="-4.3992">
        <ele>134.9</ele>
        <time>2011-09-04T08:35:17Z</time>
      </trkpt>
      <trkpt lat="48.44491" lon="-4.39913">
        <ele>135.9</ele>
        <time>2011-09-04T08:35:19Z</time>
      </trkpt>
      <trkpt lat="48.44495" lon="-4.39906">
        <ele>136.4</ele>
        <time>2011-09-04T08:35:21Z</time>
      </trkpt>
      <trkpt lat="48.44499" lon="-4.39898">
        <ele>136.7</ele>
        <time>2011-09-04T08:35:23Z</time>
      </trkpt>
      <trkpt lat="48.44502" lon="-4.3989">
        <ele>137.6</ele>
        <time>2011-09-04T08:35:25Z</time>
      </trkpt>
      <trkpt lat="48.44505" lon="-4.39882">
        <ele>137.4</ele>
        <time>2011-09-04T08:35:27Z</time>
      </trkpt>
      <trkpt lat="48.44507" lon="-4.39874">
        <ele>137</ele>
        <time>2011-09-04T08:35:29Z</time>
      </trkpt>
      <trkpt lat="48.4451" lon="-4.39864">
        <ele>137.2</ele>
        <time>2011-09-04T08:35:31Z</time>
      </trkpt>
      <trkpt lat="48.44514" lon="-4.39856">
        <ele>136.6</ele>
        <time>2011-09-04T08:35:33Z</time>
      </trkpt>
      <trkpt lat="48.44519" lon="-4.39847">
        <ele>136.8</ele>
        <time>2011-09-04T08:35:35Z</time>
      </trkpt>
      <trkpt lat="48.44522" lon="-4.39839">
        <ele>136.6</ele>
        <time>2011-09-04T08:35:37Z</time>
      </trkpt>
      <trkpt lat="48.44525" lon="-4.3983">
        <ele>136.7</ele>
        <time>2011-09-04T08:35:39Z</time>
      </trkpt>
      <trkpt lat="48.44529" lon="-4.39822">
        <ele>136.6</ele>
        <time>2011-09-04T08:35:41Z</time>
      </trkpt>
      <trkpt lat="48.44532" lon="-4.39815">
        <ele>137.2</ele>
        <time>2011-09-04T08:35:43Z</time>
      </trkpt>
      <trkpt lat="48.44536" lon="-4.39807">
        <ele>137.1</ele>
        <time>2011-09-04T08:35:45Z</time>
      </trkpt>
      <trkpt lat="48.44541" lon="-4.39801">
        <ele>137.2</ele>
        <time>2011-09-04T08:35:47Z</time>
      </trkpt>
      <trkpt lat="48.44546" lon="-4.39797">
        <ele>137</ele>
        <time>2011-09-04T08:35:49Z</time>
      </trkpt>
      <trkpt lat="48.44552" lon="-4.39796">
        <ele>137.3</ele>
        <time>2011-09-04T08:35:51Z</time>
      </trkpt>
      <trkpt lat="48.44556" lon="-4.39795">
        <ele>137.9</ele>
        <time>2011-09-04T08:35:53Z</time>
      </trkpt>
      <trkpt lat="48.44562" lon="-4.39797">
        <ele>138.1</ele>
        <time>2011-09-04T08:35:56Z</time>
      </trkpt>
      <trkpt lat="48.44568" lon="-4.39801">
        <ele>137.4</ele>
        <time>2011-09-04T08:35:59Z</time>
      </trkpt>
      <trkpt lat="48.44569" lon="-4.39809">
        <ele>138.4</ele>
        <time>2011-09-04T08:36:01Z</time>
      </trkpt>
      <trkpt lat="48.44569" lon="-4.39817">
        <ele>139.2</ele>
        <time>2011-09-04T08:36:03Z</time>
      </trkpt>
      <trkpt lat="48.44569" lon="-4.39824">
        <ele>140.4</ele>
        <time>2011-09-04T08:36:05Z</time>
      </trkpt>
      <trkpt lat="48.4457" lon="-4.39831">
        <ele>139.9</ele>
        <time>2011-09-04T08:36:07Z</time>
      </trkpt>
      <trkpt lat="48.44568" lon="-4.3984">
        <ele>141.5</ele>
        <time>2011-09-04T08:36:10Z</time>
      </trkpt>
      <trkpt lat="48.4457" lon="-4.39848">
        <ele>141.1</ele>
        <time>2011-09-04T08:36:11Z</time>
      </trkpt>
      <trkpt lat="48.44571" lon="-4.39861">
        <ele>140.2</ele>
        <time>2011-09-04T08:36:13Z</time>
      </trkpt>
      <trkpt lat="48.4457" lon="-4.39876">
        <ele>140.6</ele>
        <time>2011-09-04T08:36:15Z</time>
      </trkpt>
      <trkpt lat="48.44571" lon="-4.39883">
        <ele>140.4</ele>
        <time>2011-09-04T08:36:16Z</time>
      </trkpt>
      <trkpt lat="48.44571" lon="-4.3989">
        <ele>140.5</ele>
        <time>2011-09-04T08:36:17Z</time>
      </trkpt>
      <trkpt lat="48.44572" lon="-4.399">
        <ele>140.8</ele>
        <time>2011-09-04T08:36:18Z</time>
      </trkpt>
      <trkpt lat="48.44573" lon="-4.39907">
        <ele>140.7</ele>
        <time>2011-09-04T08:36:19Z</time>
      </trkpt>
      <trkpt lat="48.44574" lon="-4.39914">
        <ele>140.8</ele>
        <time>2011-09-04T08:36:20Z</time>
      </trkpt>
      <trkpt lat="48.44578" lon="-4.39926">
        <ele>140.6</ele>
        <time>2011-09-04T08:36:22Z</time>
      </trkpt>
      <trkpt lat="48.44583" lon="-4.39937">
        <ele>140</ele>
        <time>2011-09-04T08:36:24Z</time>
      </trkpt>
      <trkpt lat="48.44584" lon="-4.39944">
        <ele>139.5</ele>
        <time>2011-09-04T08:36:25Z</time>
      </trkpt>
      <trkpt lat="48.44582" lon="-4.39956">
        <ele>138.6</ele>
        <time>2011-09-04T08:36:27Z</time>
      </trkpt>
      <trkpt lat="48.4458" lon="-4.39967">
        <ele>138.6</ele>
        <time>2011-09-04T08:36:29Z</time>
      </trkpt>
      <trkpt lat="48.44578" lon="-4.39979">
        <ele>138.4</ele>
        <time>2011-09-04T08:36:31Z</time>
      </trkpt>
      <trkpt lat="48.44577" lon="-4.39992">
        <ele>137.5</ele>
        <time>2011-09-04T08:36:33Z</time>
      </trkpt>
      <trkpt lat="48.44576" lon="-4.4">
        <ele>137.8</ele>
        <time>2011-09-04T08:36:35Z</time>
      </trkpt>
      <trkpt lat="48.44573" lon="-4.40007">
        <ele>135.8</ele>
        <time>2011-09-04T08:36:37Z</time>
      </trkpt>
      <trkpt lat="48.44574" lon="-4.40016">
        <ele>136.8</ele>
        <time>2011-09-04T08:36:38Z</time>
      </trkpt>
      <trkpt lat="48.44574" lon="-4.40028">
        <ele>137.9</ele>
        <time>2011-09-04T08:36:40Z</time>
      </trkpt>
      <trkpt lat="48.44575" lon="-4.40034">
        <ele>138.6</ele>
        <time>2011-09-04T08:36:41Z</time>
      </trkpt>
      <trkpt lat="48.44576" lon="-4.40045">
        <ele>139.3</ele>
        <time>2011-09-04T08:36:43Z</time>
      </trkpt>
      <trkpt lat="48.44578" lon="-4.40056">
        <ele>139.6</ele>
        <time>2011-09-04T08:36:45Z</time>
      </trkpt>
      <trkpt lat="48.44579" lon="-4.40066">
        <ele>140.7</ele>
        <time>2011-09-04T08:36:47Z</time>
      </trkpt>
      <trkpt lat="48.44577" lon="-4.40074">
        <ele>138.8</ele>
        <time>2011-09-04T08:36:48Z</time>
      </trkpt>
      <trkpt lat="48.44579" lon="-4.40081">
        <ele>139.2</ele>
        <time>2011-09-04T08:36:49Z</time>
      </trkpt>
      <trkpt lat="48.44579" lon="-4.40089">
        <ele>138.7</ele>
        <time>2011-09-04T08:36:50Z</time>
      </trkpt>
      <trkpt lat="48.44577" lon="-4.40097">
        <ele>140</ele>
        <time>2011-09-04T08:36:51Z</time>
      </trkpt>
      <trkpt lat="48.44577" lon="-4.40108">
        <ele>140.7</ele>
        <time>2011-09-04T08:36:53Z</time>
      </trkpt>
      <trkpt lat="48.44572" lon="-4.40117">
        <ele>141.9</ele>
        <time>2011-09-04T08:36:55Z</time>
      </trkpt>
      <trkpt lat="48.44568" lon="-4.4012">
        <ele>137.6</ele>
        <time>2011-09-04T08:36:58Z</time>
      </trkpt>
      <trkpt lat="48.44564" lon="-4.40126">
        <ele>137.5</ele>
        <time>2011-09-04T08:37:00Z</time>
      </trkpt>
      <trkpt lat="48.44558" lon="-4.40131">
        <ele>138.2</ele>
        <time>2011-09-04T08:37:02Z</time>
      </trkpt>
      <trkpt lat="48.44556" lon="-4.40145">
        <ele>141.1</ele>
        <time>2011-09-04T08:37:04Z</time>
      </trkpt>
      <trkpt lat="48.44556" lon="-4.40152">
        <ele>140.5</ele>
        <time>2011-09-04T08:37:05Z</time>
      </trkpt>
      <trkpt lat="48.44557" lon="-4.40161">
        <ele>141.1</ele>
        <time>2011-09-04T08:37:08Z</time>
      </trkpt>
      <trkpt lat="48.44562" lon="-4.40165">
        <ele>139.2</ele>
        <time>2011-09-04T08:37:09Z</time>
      </trkpt>
      <trkpt lat="48.44567" lon="-4.40169">
        <ele>139.6</ele>
        <time>2011-09-04T08:37:11Z</time>
      </trkpt>
      <trkpt lat="48.44571" lon="-4.40169">
        <ele>140.5</ele>
        <time>2011-09-04T08:37:14Z</time>
      </trkpt>
      <trkpt lat="48.44576" lon="-4.40162">
        <ele>139.8</ele>
        <time>2011-09-04T08:37:15Z</time>
      </trkpt>
      <trkpt lat="48.44583" lon="-4.40155">
        <ele>139</ele>
        <time>2011-09-04T08:37:17Z</time>
      </trkpt>
      <trkpt lat="48.4459" lon="-4.40149">
        <ele>139.4</ele>
        <time>2011-09-04T08:37:19Z</time>
      </trkpt>
      <trkpt lat="48.44596" lon="-4.40144">
        <ele>139</ele>
        <time>2011-09-04T08:37:21Z</time>
      </trkpt>
      <trkpt lat="48.44591" lon="-4.40138">
        <ele>141</ele>
        <time>2011-09-04T08:37:22Z</time>
      </trkpt>
      <trkpt lat="48.4459" lon="-4.40131">
        <ele>141</ele>
        <time>2011-09-04T08:37:23Z</time>
      </trkpt>
      <trkpt lat="48.44591" lon="-4.40121">
        <ele>140.6</ele>
        <time>2011-09-04T08:37:25Z</time>
      </trkpt>
      <trkpt lat="48.44591" lon="-4.4011">
        <ele>139.6</ele>
        <time>2011-09-04T08:37:27Z</time>
      </trkpt>
      <trkpt lat="48.4459" lon="-4.40102">
        <ele>139.2</ele>
        <time>2011-09-04T08:37:29Z</time>
      </trkpt>
      <trkpt lat="48.44593" lon="-4.40094">
        <ele>141.7</ele>
        <time>2011-09-04T08:37:36Z</time>
      </trkpt>
      <trkpt lat="48.4459" lon="-4.40088">
        <ele>143.9</ele>
        <time>2011-09-04T08:37:39Z</time>
      </trkpt>
      <trkpt lat="48.4459" lon="-4.4008">
        <ele>141.5</ele>
        <time>2011-09-04T08:37:41Z</time>
      </trkpt>
      <trkpt lat="48.44592" lon="-4.40071">
        <ele>141.9</ele>
        <time>2011-09-04T08:37:43Z</time>
      </trkpt>
      <trkpt lat="48.44592" lon="-4.40063">
        <ele>141.7</ele>
        <time>2011-09-04T08:37:45Z</time>
      </trkpt>
      <trkpt lat="48.44595" lon="-4.40055">
        <ele>146.9</ele>
        <time>2011-09-04T08:37:48Z</time>
      </trkpt>
      <trkpt lat="48.44592" lon="-4.40048">
        <ele>147.8</ele>
        <time>2011-09-04T08:37:49Z</time>
      </trkpt>
      <trkpt lat="48.44593" lon="-4.40035">
        <ele>145.5</ele>
        <time>2011-09-04T08:37:51Z</time>
      </trkpt>
      <trkpt lat="48.44594" lon="-4.40028">
        <ele>143.3</ele>
        <time>2011-09-04T08:37:52Z</time>
      </trkpt>
      <trkpt lat="48.44596" lon="-4.40014">
        <ele>140.3</ele>
        <time>2011-09-04T08:37:54Z</time>
      </trkpt>
      <trkpt lat="48.44601" lon="-4.40011">
        <ele>140.8</ele>
        <time>2011-09-04T08:37:55Z</time>
      </trkpt>
      <trkpt lat="48.44607" lon="-4.40003">
        <ele>141.3</ele>
        <time>2011-09-04T08:37:57Z</time>
      </trkpt>
      <trkpt lat="48.44614" lon="-4.4001">
        <ele>141.5</ele>
        <time>2011-09-04T08:37:59Z</time>
      </trkpt>
      <trkpt lat="48.44619" lon="-4.40013">
        <ele>138.9</ele>
        <time>2011-09-04T08:38:01Z</time>
      </trkpt>
      <trkpt lat="48.44617" lon="-4.40021">
        <ele>142.5</ele>
        <time>2011-09-04T08:38:05Z</time>
      </trkpt>
      <trkpt lat="48.44613" lon="-4.40032">
        <ele>143.6</ele>
        <time>2011-09-04T08:38:08Z</time>
      </trkpt>
      <trkpt lat="48.44611" lon="-4.40039">
        <ele>143.9</ele>
        <time>2011-09-04T08:38:09Z</time>
      </trkpt>
      <trkpt lat="48.44609" lon="-4.40045">
        <ele>143.9</ele>
        <time>2011-09-04T08:38:10Z</time>
      </trkpt>
      <trkpt lat="48.44607" lon="-4.40052">
        <ele>144.4</ele>
        <time>2011-09-04T08:38:11Z</time>
      </trkpt>
      <trkpt lat="48.44609" lon="-4.40068">
        <ele>142.7</ele>
        <time>2011-09-04T08:38:12Z</time>
      </trkpt>
      <trkpt lat="48.44609" lon="-4.40076">
        <ele>141.9</ele>
        <time>2011-09-04T08:38:13Z</time>
      </trkpt>
      <trkpt lat="48.44606" lon="-4.40088">
        <ele>144.3</ele>
        <time>2011-09-04T08:38:15Z</time>
      </trkpt>
      <trkpt lat="48.44604" lon="-4.40099">
        <ele>144.6</ele>
        <time>2011-09-04T08:38:17Z</time>
      </trkpt>
      <trkpt lat="48.44601" lon="-4.40107">
        <ele>144.6</ele>
        <time>2011-09-04T08:38:19Z</time>
      </trkpt>
      <trkpt lat="48.44598" lon="-4.40121">
        <ele>145.7</ele>
        <time>2011-09-04T08:38:21Z</time>
      </trkpt>
      <trkpt lat="48.44595" lon="-4.40132">
        <ele>145.9</ele>
        <time>2011-09-04T08:38:23Z</time>
      </trkpt>
      <trkpt lat="48.44592" lon="-4.40141">
        <ele>145.4</ele>
        <time>2011-09-04T08:38:25Z</time>
      </trkpt>
      <trkpt lat="48.44589" lon="-4.40154">
        <ele>144.4</ele>
        <time>2011-09-04T08:38:27Z</time>
      </trkpt>
      <trkpt lat="48.44585" lon="-4.4016">
        <ele>144.7</ele>
        <time>2011-09-04T08:38:29Z</time>
      </trkpt>
      <trkpt lat="48.44583" lon="-4.40173">
        <ele>144.3</ele>
        <time>2011-09-04T08:38:31Z</time>
      </trkpt>
      <trkpt lat="48.44589" lon="-4.40183">
        <ele>147.9</ele>
        <time>2011-09-04T08:38:32Z</time>
      </trkpt>
      <trkpt lat="48.44591" lon="-4.4019">
        <ele>146.4</ele>
        <time>2011-09-04T08:38:33Z</time>
      </trkpt>
      <trkpt lat="48.44597" lon="-4.40197">
        <ele>148</ele>
        <time>2011-09-04T08:38:35Z</time>
      </trkpt>
      <trkpt lat="48.44603" lon="-4.40194">
        <ele>143.6</ele>
        <time>2011-09-04T08:38:38Z</time>
      </trkpt>
      <trkpt lat="48.44609" lon="-4.4019">
        <ele>142.9</ele>
        <time>2011-09-04T08:38:40Z</time>
      </trkpt>
      <trkpt lat="48.44611" lon="-4.40182">
        <ele>144.1</ele>
        <time>2011-09-04T08:38:43Z</time>
      </trkpt>
      <trkpt lat="48.44611" lon="-4.4017">
        <ele>144.3</ele>
        <time>2011-09-04T08:38:46Z</time>
      </trkpt>
      <trkpt lat="48.44612" lon="-4.40156">
        <ele>145.9</ele>
        <time>2011-09-04T08:38:48Z</time>
      </trkpt>
      <trkpt lat="48.44611" lon="-4.40144">
        <ele>146.1</ele>
        <time>2011-09-04T08:38:50Z</time>
      </trkpt>
      <trkpt lat="48.44613" lon="-4.40133">
        <ele>142.9</ele>
        <time>2011-09-04T08:38:51Z</time>
      </trkpt>
      <trkpt lat="48.44614" lon="-4.40124">
        <ele>143.6</ele>
        <time>2011-09-04T08:38:52Z</time>
      </trkpt>
      <trkpt lat="48.44611" lon="-4.40114">
        <ele>145.4</ele>
        <time>2011-09-04T08:38:54Z</time>
      </trkpt>
      <trkpt lat="48.44608" lon="-4.40104">
        <ele>146</ele>
        <time>2011-09-04T08:38:56Z</time>
      </trkpt>
      <trkpt lat="48.44612" lon="-4.40094">
        <ele>143.3</ele>
        <time>2011-09-04T08:38:57Z</time>
      </trkpt>
      <trkpt lat="48.44614" lon="-4.40087">
        <ele>143.7</ele>
        <time>2011-09-04T08:38:58Z</time>
      </trkpt>
      <trkpt lat="48.44615" lon="-4.40076">
        <ele>144.8</ele>
        <time>2011-09-04T08:39:00Z</time>
      </trkpt>
      <trkpt lat="48.44616" lon="-4.40069">
        <ele>146.6</ele>
        <time>2011-09-04T08:39:02Z</time>
      </trkpt>
      <trkpt lat="48.44621" lon="-4.40056">
        <ele>144.4</ele>
        <time>2011-09-04T08:39:04Z</time>
      </trkpt>
      <trkpt lat="48.44621" lon="-4.40048">
        <ele>143.5</ele>
        <time>2011-09-04T08:39:05Z</time>
      </trkpt>
      <trkpt lat="48.44623" lon="-4.40042">
        <ele>142.9</ele>
        <time>2011-09-04T08:39:06Z</time>
      </trkpt>
      <trkpt lat="48.44625" lon="-4.40034">
        <ele>141.6</ele>
        <time>2011-09-04T08:39:08Z</time>
      </trkpt>
      <trkpt lat="48.44631" lon="-4.40027">
        <ele>141.8</ele>
        <time>2011-09-04T08:39:10Z</time>
      </trkpt>
      <trkpt lat="48.4464" lon="-4.40028">
        <ele>142.8</ele>
        <time>2011-09-04T08:39:12Z</time>
      </trkpt>
      <trkpt lat="48.44646" lon="-4.40029">
        <ele>140.7</ele>
        <time>2011-09-04T08:39:13Z</time>
      </trkpt>
      <trkpt lat="48.44653" lon="-4.40028">
        <ele>141</ele>
        <time>2011-09-04T08:39:14Z</time>
      </trkpt>
      <trkpt lat="48.4466" lon="-4.40026">
        <ele>141</ele>
        <time>2011-09-04T08:39:16Z</time>
      </trkpt>
      <trkpt lat="48.44667" lon="-4.40032">
        <ele>141.9</ele>
        <time>2011-09-04T08:39:18Z</time>
      </trkpt>
      <trkpt lat="48.44674" lon="-4.40038">
        <ele>142</ele>
        <time>2011-09-04T08:39:20Z</time>
      </trkpt>
      <trkpt lat="48.4468" lon="-4.40048">
        <ele>142.3</ele>
        <time>2011-09-04T08:39:22Z</time>
      </trkpt>
      <trkpt lat="48.44682" lon="-4.40056">
        <ele>142.6</ele>
        <time>2011-09-04T08:39:24Z</time>
      </trkpt>
      <trkpt lat="48.44682" lon="-4.40063">
        <ele>142.3</ele>
        <time>2011-09-04T08:39:25Z</time>
      </trkpt>
      <trkpt lat="48.4468" lon="-4.40075">
        <ele>141.7</ele>
        <time>2011-09-04T08:39:27Z</time>
      </trkpt>
      <trkpt lat="48.44674" lon="-4.40085">
        <ele>141.9</ele>
        <time>2011-09-04T08:39:29Z</time>
      </trkpt>
      <trkpt lat="48.44674" lon="-4.40094">
        <ele>142.5</ele>
        <time>2011-09-04T08:39:31Z</time>
      </trkpt>
      <trkpt lat="48.44672" lon="-4.40102">
        <ele>143.1</ele>
        <time>2011-09-04T08:39:33Z</time>
      </trkpt>
      <trkpt lat="48.44666" lon="-4.40096">
        <ele>143.3</ele>
        <time>2011-09-04T08:39:35Z</time>
      </trkpt>
      <trkpt lat="48.4466" lon="-4.40086">
        <ele>144.6</ele>
        <time>2011-09-04T08:39:37Z</time>
      </trkpt>
      <trkpt lat="48.44655" lon="-4.40084">
        <ele>145.7</ele>
        <time>2011-09-04T08:39:38Z</time>
      </trkpt>
      <trkpt lat="48.44656" lon="-4.40077">
        <ele>145.5</ele>
        <time>2011-09-04T08:39:39Z</time>
      </trkpt>
      <trkpt lat="48.44659" lon="-4.40069">
        <ele>144.3</ele>
        <time>2011-09-04T08:39:41Z</time>
      </trkpt>
      <trkpt lat="48.4466" lon="-4.40058">
        <ele>143.7</ele>
        <time>2011-09-04T08:39:43Z</time>
      </trkpt>
      <trkpt lat="48.44655" lon="-4.40048">
        <ele>143.5</ele>
        <time>2011-09-04T08:39:45Z</time>
      </trkpt>
      <trkpt lat="48.4465" lon="-4.40043">
        <ele>143.3</ele>
        <time>2011-09-04T08:39:47Z</time>
      </trkpt>
      <trkpt lat="48.44648" lon="-4.40051">
        <ele>144.1</ele>
        <time>2011-09-04T08:39:48Z</time>
      </trkpt>
      <trkpt lat="48.44646" lon="-4.40059">
        <ele>145.3</ele>
        <time>2011-09-04T08:39:50Z</time>
      </trkpt>
      <trkpt lat="48.44645" lon="-4.40069">
        <ele>145.5</ele>
        <time>2011-09-04T08:39:52Z</time>
      </trkpt>
      <trkpt lat="48.44642" lon="-4.40075">
        <ele>149.1</ele>
        <time>2011-09-04T08:39:54Z</time>
      </trkpt>
      <trkpt lat="48.4464" lon="-4.40084">
        <ele>150.8</ele>
        <time>2011-09-04T08:39:56Z</time>
      </trkpt>
      <trkpt lat="48.44636" lon="-4.40098">
        <ele>148.5</ele>
        <time>2011-09-04T08:39:58Z</time>
      </trkpt>
      <trkpt lat="48.44634" lon="-4.40105">
        <ele>147.9</ele>
        <time>2011-09-04T08:39:59Z</time>
      </trkpt>
      <trkpt lat="48.44632" lon="-4.40115">
        <ele>147.9</ele>
        <time>2011-09-04T08:40:01Z</time>
      </trkpt>
      <trkpt lat="48.44635" lon="-4.40125">
        <ele>146.3</ele>
        <time>2011-09-04T08:40:02Z</time>
      </trkpt>
      <trkpt lat="48.44637" lon="-4.40133">
        <ele>147.4</ele>
        <time>2011-09-04T08:40:03Z</time>
      </trkpt>
      <trkpt lat="48.44641" lon="-4.4014">
        <ele>148.6</ele>
        <time>2011-09-04T08:40:04Z</time>
      </trkpt>
      <trkpt lat="48.44645" lon="-4.40146">
        <ele>149.5</ele>
        <time>2011-09-04T08:40:05Z</time>
      </trkpt>
      <trkpt lat="48.4465" lon="-4.40142">
        <ele>146.4</ele>
        <time>2011-09-04T08:40:07Z</time>
      </trkpt>
      <trkpt lat="48.44655" lon="-4.40141">
        <ele>145.9</ele>
        <time>2011-09-04T08:40:09Z</time>
      </trkpt>
      <trkpt lat="48.44661" lon="-4.40138">
        <ele>146.3</ele>
        <time>2011-09-04T08:40:11Z</time>
      </trkpt>
      <trkpt lat="48.44663" lon="-4.40128">
        <ele>145.2</ele>
        <time>2011-09-04T08:40:12Z</time>
      </trkpt>
      <trkpt lat="48.44669" lon="-4.40123">
        <ele>144.6</ele>
        <time>2011-09-04T08:40:14Z</time>
      </trkpt>
      <trkpt lat="48.44676" lon="-4.40117">
        <ele>145.2</ele>
        <time>2011-09-04T08:40:17Z</time>
      </trkpt>
      <trkpt lat="48.4468" lon="-4.40111">
        <ele>148.8</ele>
        <time>2011-09-04T08:40:19Z</time>
      </trkpt>
      <trkpt lat="48.44686" lon="-4.40106">
        <ele>149.8</ele>
        <time>2011-09-04T08:40:21Z</time>
      </trkpt>
      <trkpt lat="48.4469" lon="-4.40101">
        <ele>150.2</ele>
        <time>2011-09-04T08:40:23Z</time>
      </trkpt>
      <trkpt lat="48.44692" lon="-4.40091">
        <ele>149.8</ele>
        <time>2011-09-04T08:40:24Z</time>
      </trkpt>
      <trkpt lat="48.44695" lon="-4.4008">
        <ele>150.4</ele>
        <time>2011-09-04T08:40:26Z</time>
      </trkpt>
      <trkpt lat="48.44694" lon="-4.40069">
        <ele>150.7</ele>
        <time>2011-09-04T08:40:28Z</time>
      </trkpt>
      <trkpt lat="48.44694" lon="-4.40059">
        <ele>149.4</ele>
        <time>2011-09-04T08:40:30Z</time>
      </trkpt>
      <trkpt lat="48.44694" lon="-4.40048">
        <ele>148.9</ele>
        <time>2011-09-04T08:40:32Z</time>
      </trkpt>
      <trkpt lat="48.44693" lon="-4.40037">
        <ele>148.6</ele>
        <time>2011-09-04T08:40:34Z</time>
      </trkpt>
      <trkpt lat="48.44692" lon="-4.40026">
        <ele>145.7</ele>
        <time>2011-09-04T08:40:36Z</time>
      </trkpt>
      <trkpt lat="48.4469" lon="-4.40012">
        <ele>142.6</ele>
        <time>2011-09-04T08:40:38Z</time>
      </trkpt>
      <trkpt lat="48.44695" lon="-4.40014">
        <ele>143.9</ele>
        <time>2011-09-04T08:40:39Z</time>
      </trkpt>
      <trkpt lat="48.44699" lon="-4.40008">
        <ele>141.8</ele>
        <time>2011-09-04T08:40:41Z</time>
      </trkpt>
      <trkpt lat="48.44705" lon="-4.40004">
        <ele>142</ele>
        <time>2011-09-04T08:40:43Z</time>
      </trkpt>
      <trkpt lat="48.44711" lon="-4.39997">
        <ele>141.5</ele>
        <time>2011-09-04T08:40:45Z</time>
      </trkpt>
      <trkpt lat="48.44717" lon="-4.39989">
        <ele>140.4</ele>
        <time>2011-09-04T08:40:47Z</time>
      </trkpt>
      <trkpt lat="48.44721" lon="-4.39981">
        <ele>140.9</ele>
        <time>2011-09-04T08:40:49Z</time>
      </trkpt>
      <trkpt lat="48.44724" lon="-4.3997">
        <ele>140.9</ele>
        <time>2011-09-04T08:40:51Z</time>
      </trkpt>
      <trkpt lat="48.44726" lon="-4.39959">
        <ele>141.3</ele>
        <time>2011-09-04T08:40:53Z</time>
      </trkpt>
      <trkpt lat="48.44727" lon="-4.39946">
        <ele>140.9</ele>
        <time>2011-09-04T08:40:55Z</time>
      </trkpt>
      <trkpt lat="48.44727" lon="-4.39939">
        <ele>141.3</ele>
        <time>2011-09-04T08:40:56Z</time>
      </trkpt>
      <trkpt lat="48.44726" lon="-4.39927">
        <ele>141.3</ele>
        <time>2011-09-04T08:40:58Z</time>
      </trkpt>
      <trkpt lat="48.44724" lon="-4.39917">
        <ele>140.7</ele>
        <time>2011-09-04T08:41:00Z</time>
      </trkpt>
      <trkpt lat="48.4472" lon="-4.39908">
        <ele>141.1</ele>
        <time>2011-09-04T08:41:02Z</time>
      </trkpt>
      <trkpt lat="48.44715" lon="-4.39898">
        <ele>141.7</ele>
        <time>2011-09-04T08:41:04Z</time>
      </trkpt>
      <trkpt lat="48.4471" lon="-4.39888">
        <ele>142.2</ele>
        <time>2011-09-04T08:41:06Z</time>
      </trkpt>
      <trkpt lat="48.4471" lon="-4.3988">
        <ele>140.5</ele>
        <time>2011-09-04T08:41:07Z</time>
      </trkpt>
      <trkpt lat="48.44709" lon="-4.39868">
        <ele>139.8</ele>
        <time>2011-09-04T08:41:09Z</time>
      </trkpt>
      <trkpt lat="48.44709" lon="-4.39856">
        <ele>139.4</ele>
        <time>2011-09-04T08:41:11Z</time>
      </trkpt>
      <trkpt lat="48.44711" lon="-4.39844">
        <ele>139.9</ele>
        <time>2011-09-04T08:41:13Z</time>
      </trkpt>
      <trkpt lat="48.44713" lon="-4.39832">
        <ele>140.5</ele>
        <time>2011-09-04T08:41:15Z</time>
      </trkpt>
      <trkpt lat="48.44714" lon="-4.39822">
        <ele>140.8</ele>
        <time>2011-09-04T08:41:17Z</time>
      </trkpt>
      <trkpt lat="48.44718" lon="-4.39816">
        <ele>138.4</ele>
        <time>2011-09-04T08:41:18Z</time>
      </trkpt>
      <trkpt lat="48.44721" lon="-4.39806">
        <ele>137.6</ele>
        <time>2011-09-04T08:41:20Z</time>
      </trkpt>
      <trkpt lat="48.44722" lon="-4.39792">
        <ele>137.8</ele>
        <time>2011-09-04T08:41:22Z</time>
      </trkpt>
      <trkpt lat="48.44724" lon="-4.39786">
        <ele>137.8</ele>
        <time>2011-09-04T08:41:23Z</time>
      </trkpt>
      <trkpt lat="48.44724" lon="-4.39776">
        <ele>145.3</ele>
        <time>2011-09-04T08:41:25Z</time>
      </trkpt>
      <trkpt lat="48.44728" lon="-4.39765">
        <ele>146.3</ele>
        <time>2011-09-04T08:41:27Z</time>
      </trkpt>
      <trkpt lat="48.44734" lon="-4.39756">
        <ele>144.9</ele>
        <time>2011-09-04T08:41:29Z</time>
      </trkpt>
      <trkpt lat="48.44736" lon="-4.3975">
        <ele>148.6</ele>
        <time>2011-09-04T08:41:31Z</time>
      </trkpt>
      <trkpt lat="48.44734" lon="-4.39739">
        <ele>149.4</ele>
        <time>2011-09-04T08:41:34Z</time>
      </trkpt>
      <trkpt lat="48.44732" lon="-4.39731">
        <ele>150</ele>
        <time>2011-09-04T08:41:36Z</time>
      </trkpt>
      <trkpt lat="48.44732" lon="-4.39723">
        <ele>148.5</ele>
        <time>2011-09-04T08:41:37Z</time>
      </trkpt>
      <trkpt lat="48.44734" lon="-4.39716">
        <ele>146.3</ele>
        <time>2011-09-04T08:41:38Z</time>
      </trkpt>
      <trkpt lat="48.44734" lon="-4.39707">
        <ele>146.6</ele>
        <time>2011-09-04T08:41:39Z</time>
      </trkpt>
      <trkpt lat="48.44733" lon="-4.397">
        <ele>145</ele>
        <time>2011-09-04T08:41:40Z</time>
      </trkpt>
      <trkpt lat="48.44731" lon="-4.39692">
        <ele>145.5</ele>
        <time>2011-09-04T08:41:41Z</time>
      </trkpt>
      <trkpt lat="48.44727" lon="-4.39682">
        <ele>145.4</ele>
        <time>2011-09-04T08:41:43Z</time>
      </trkpt>
      <trkpt lat="48.4472" lon="-4.39674">
        <ele>144.3</ele>
        <time>2011-09-04T08:41:45Z</time>
      </trkpt>
      <trkpt lat="48.44716" lon="-4.3967">
        <ele>143.9</ele>
        <time>2011-09-04T08:41:46Z</time>
      </trkpt>
      <trkpt lat="48.4471" lon="-4.39664">
        <ele>142.1</ele>
        <time>2011-09-04T08:41:48Z</time>
      </trkpt>
      <trkpt lat="48.44702" lon="-4.39659">
        <ele>141</ele>
        <time>2011-09-04T08:41:50Z</time>
      </trkpt>
      <trkpt lat="48.44696" lon="-4.39655">
        <ele>141</ele>
        <time>2011-09-04T08:41:52Z</time>
      </trkpt>
      <trkpt lat="48.44689" lon="-4.3965">
        <ele>140.4</ele>
        <time>2011-09-04T08:41:54Z</time>
      </trkpt>
      <trkpt lat="48.44684" lon="-4.39641">
        <ele>140.5</ele>
        <time>2011-09-04T08:41:56Z</time>
      </trkpt>
      <trkpt lat="48.44682" lon="-4.3963">
        <ele>141.3</ele>
        <time>2011-09-04T08:41:58Z</time>
      </trkpt>
      <trkpt lat="48.44683" lon="-4.39616">
        <ele>139.8</ele>
        <time>2011-09-04T08:42:00Z</time>
      </trkpt>
      <trkpt lat="48.44684" lon="-4.39609">
        <ele>139.7</ele>
        <time>2011-09-04T08:42:01Z</time>
      </trkpt>
      <trkpt lat="48.44684" lon="-4.39602">
        <ele>139.4</ele>
        <time>2011-09-04T08:42:02Z</time>
      </trkpt>
      <trkpt lat="48.44684" lon="-4.39595">
        <ele>138.7</ele>
        <time>2011-09-04T08:42:03Z</time>
      </trkpt>
      <trkpt lat="48.44684" lon="-4.39588">
        <ele>138</ele>
        <time>2011-09-04T08:42:04Z</time>
      </trkpt>
      <trkpt lat="48.44684" lon="-4.39581">
        <ele>138.7</ele>
        <time>2011-09-04T08:42:05Z</time>
      </trkpt>
      <trkpt lat="48.44683" lon="-4.39574">
        <ele>138.5</ele>
        <time>2011-09-04T08:42:06Z</time>
      </trkpt>
      <trkpt lat="48.44684" lon="-4.39567">
        <ele>138.3</ele>
        <time>2011-09-04T08:42:07Z</time>
      </trkpt>
      <trkpt lat="48.44687" lon="-4.39556">
        <ele>138.9</ele>
        <time>2011-09-04T08:42:09Z</time>
      </trkpt>
      <trkpt lat="48.44688" lon="-4.39549">
        <ele>138.6</ele>
        <time>2011-09-04T08:42:11Z</time>
      </trkpt>
      <trkpt lat="48.44688" lon="-4.39541">
        <ele>137.9</ele>
        <time>2011-09-04T08:42:13Z</time>
      </trkpt>
      <trkpt lat="48.44687" lon="-4.39532">
        <ele>138.3</ele>
        <time>2011-09-04T08:42:15Z</time>
      </trkpt>
      <trkpt lat="48.44686" lon="-4.39521">
        <ele>136.9</ele>
        <time>2011-09-04T08:42:17Z</time>
      </trkpt>
      <trkpt lat="48.44686" lon="-4.39507">
        <ele>136.6</ele>
        <time>2011-09-04T08:42:19Z</time>
      </trkpt>
      <trkpt lat="48.44687" lon="-4.39494">
        <ele>135.8</ele>
        <time>2011-09-04T08:42:21Z</time>
      </trkpt>
      <trkpt lat="48.44687" lon="-4.39482">
        <ele>135.9</ele>
        <time>2011-09-04T08:42:23Z</time>
      </trkpt>
      <trkpt lat="48.44686" lon="-4.3947">
        <ele>136.5</ele>
        <time>2011-09-04T08:42:25Z</time>
      </trkpt>
      <trkpt lat="48.44685" lon="-4.3946">
        <ele>137.2</ele>
        <time>2011-09-04T08:42:27Z</time>
      </trkpt>
      <trkpt lat="48.44686" lon="-4.39447">
        <ele>137.4</ele>
        <time>2011-09-04T08:42:29Z</time>
      </trkpt>
      <trkpt lat="48.44688" lon="-4.3944">
        <ele>136.8</ele>
        <time>2011-09-04T08:42:30Z</time>
      </trkpt>
      <trkpt lat="48.4469" lon="-4.39434">
        <ele>136.7</ele>
        <time>2011-09-04T08:42:31Z</time>
      </trkpt>
      <trkpt lat="48.44691" lon="-4.39427">
        <ele>135.5</ele>
        <time>2011-09-04T08:42:32Z</time>
      </trkpt>
      <trkpt lat="48.44693" lon="-4.3942">
        <ele>134.7</ele>
        <time>2011-09-04T08:42:33Z</time>
      </trkpt>
      <trkpt lat="48.44694" lon="-4.39412">
        <ele>134.5</ele>
        <time>2011-09-04T08:42:34Z</time>
      </trkpt>
      <trkpt lat="48.44696" lon="-4.39405">
        <ele>134.5</ele>
        <time>2011-09-04T08:42:35Z</time>
      </trkpt>
      <trkpt lat="48.44699" lon="-4.39398">
        <ele>134.3</ele>
        <time>2011-09-04T08:42:36Z</time>
      </trkpt>
      <trkpt lat="48.44702" lon="-4.3939">
        <ele>134.3</ele>
        <time>2011-09-04T08:42:37Z</time>
      </trkpt>
      <trkpt lat="48.44705" lon="-4.39382">
        <ele>134</ele>
        <time>2011-09-04T08:42:38Z</time>
      </trkpt>
      <trkpt lat="48.44709" lon="-4.39375">
        <ele>133.8</ele>
        <time>2011-09-04T08:42:39Z</time>
      </trkpt>
      <trkpt lat="48.44712" lon="-4.39368">
        <ele>133.1</ele>
        <time>2011-09-04T08:42:40Z</time>
      </trkpt>
      <trkpt lat="48.44715" lon="-4.39359">
        <ele>132.7</ele>
        <time>2011-09-04T08:42:41Z</time>
      </trkpt>
      <trkpt lat="48.44719" lon="-4.39352">
        <ele>131.9</ele>
        <time>2011-09-04T08:42:42Z</time>
      </trkpt>
      <trkpt lat="48.44724" lon="-4.39344">
        <ele>131.2</ele>
        <time>2011-09-04T08:42:43Z</time>
      </trkpt>
      <trkpt lat="48.44728" lon="-4.39336">
        <ele>130.3</ele>
        <time>2011-09-04T08:42:44Z</time>
      </trkpt>
      <trkpt lat="48.44732" lon="-4.39327">
        <ele>130</ele>
        <time>2011-09-04T08:42:45Z</time>
      </trkpt>
      <trkpt lat="48.44737" lon="-4.39318">
        <ele>129.8</ele>
        <time>2011-09-04T08:42:46Z</time>
      </trkpt>
      <trkpt lat="48.44741" lon="-4.39308">
        <ele>129.6</ele>
        <time>2011-09-04T08:42:47Z</time>
      </trkpt>
      <trkpt lat="48.44744" lon="-4.393">
        <ele>129.4</ele>
        <time>2011-09-04T08:42:48Z</time>
      </trkpt>
      <trkpt lat="48.44747" lon="-4.39294">
        <ele>129.8</ele>
        <time>2011-09-04T08:42:49Z</time>
      </trkpt>
      <trkpt lat="48.4475" lon="-4.39288">
        <ele>129.4</ele>
        <time>2011-09-04T08:42:50Z</time>
      </trkpt>
      <trkpt lat="48.44753" lon="-4.39276">
        <ele>128.6</ele>
        <time>2011-09-04T08:42:52Z</time>
      </trkpt>
      <trkpt lat="48.44757" lon="-4.3927">
        <ele>128</ele>
        <time>2011-09-04T08:42:54Z</time>
      </trkpt>
      <trkpt lat="48.4476" lon="-4.39263">
        <ele>129</ele>
        <time>2011-09-04T08:42:56Z</time>
      </trkpt>
      <trkpt lat="48.4476" lon="-4.39254">
        <ele>129.2</ele>
        <time>2011-09-04T08:42:58Z</time>
      </trkpt>
      <trkpt lat="48.44762" lon="-4.39248">
        <ele>130.1</ele>
        <time>2011-09-04T08:43:00Z</time>
      </trkpt>
      <trkpt lat="48.44763" lon="-4.3924">
        <ele>128.8</ele>
        <time>2011-09-04T08:43:02Z</time>
      </trkpt>
      <trkpt lat="48.44763" lon="-4.39232">
        <ele>128.2</ele>
        <time>2011-09-04T08:43:04Z</time>
      </trkpt>
      <trkpt lat="48.44766" lon="-4.39223">
        <ele>128.9</ele>
        <time>2011-09-04T08:43:07Z</time>
      </trkpt>
      <trkpt lat="48.44769" lon="-4.39215">
        <ele>130.2</ele>
        <time>2011-09-04T08:43:10Z</time>
      </trkpt>
      <trkpt lat="48.44772" lon="-4.39207">
        <ele>131.5</ele>
        <time>2011-09-04T08:43:13Z</time>
      </trkpt>
      <trkpt lat="48.44775" lon="-4.392">
        <ele>132.7</ele>
        <time>2011-09-04T08:43:16Z</time>
      </trkpt>
      <trkpt lat="48.44778" lon="-4.39194">
        <ele>135.7</ele>
        <time>2011-09-04T08:43:30Z</time>
      </trkpt>
      <trkpt lat="48.44781" lon="-4.39189">
        <ele>135.6</ele>
        <time>2011-09-04T08:43:32Z</time>
      </trkpt>
      <trkpt lat="48.44784" lon="-4.39181">
        <ele>136.1</ele>
        <time>2011-09-04T08:43:35Z</time>
      </trkpt>
      <trkpt lat="48.44787" lon="-4.39175">
        <ele>136.1</ele>
        <time>2011-09-04T08:43:37Z</time>
      </trkpt>
      <trkpt lat="48.44788" lon="-4.39168">
        <ele>136</ele>
        <time>2011-09-04T08:43:39Z</time>
      </trkpt>
      <trkpt lat="48.44791" lon="-4.39162">
        <ele>135.8</ele>
        <time>2011-09-04T08:43:41Z</time>
      </trkpt>
      <trkpt lat="48.44793" lon="-4.39155">
        <ele>136.3</ele>
        <time>2011-09-04T08:43:43Z</time>
      </trkpt>
      <trkpt lat="48.44795" lon="-4.39147">
        <ele>136.9</ele>
        <time>2011-09-04T08:43:45Z</time>
      </trkpt>
      <trkpt lat="48.44798" lon="-4.39142">
        <ele>137.9</ele>
        <time>2011-09-04T08:43:47Z</time>
      </trkpt>
      <trkpt lat="48.44801" lon="-4.39134">
        <ele>137.4</ele>
        <time>2011-09-04T08:43:49Z</time>
      </trkpt>
      <trkpt lat="48.44803" lon="-4.39128">
        <ele>137.6</ele>
        <time>2011-09-04T08:43:51Z</time>
      </trkpt>
      <trkpt lat="48.44806" lon="-4.3912">
        <ele>138.2</ele>
        <time>2011-09-04T08:43:53Z</time>
      </trkpt>
      <trkpt lat="48.44809" lon="-4.39112">
        <ele>138.9</ele>
        <time>2011-09-04T08:43:55Z</time>
      </trkpt>
      <trkpt lat="48.44812" lon="-4.39105">
        <ele>138</ele>
        <time>2011-09-04T08:43:57Z</time>
      </trkpt>
      <trkpt lat="48.44814" lon="-4.39096">
        <ele>137.5</ele>
        <time>2011-09-04T08:43:59Z</time>
      </trkpt>
      <trkpt lat="48.44816" lon="-4.39088">
        <ele>136.2</ele>
        <time>2011-09-04T08:44:01Z</time>
      </trkpt>
      <trkpt lat="48.4482" lon="-4.39081">
        <ele>136.5</ele>
        <time>2011-09-04T08:44:03Z</time>
      </trkpt>
      <trkpt lat="48.44823" lon="-4.39073">
        <ele>135</ele>
        <time>2011-09-04T08:44:05Z</time>
      </trkpt>
      <trkpt lat="48.44825" lon="-4.39064">
        <ele>135.1</ele>
        <time>2011-09-04T08:44:07Z</time>
      </trkpt>
      <trkpt lat="48.44828" lon="-4.39054">
        <ele>133.6</ele>
        <time>2011-09-04T08:44:09Z</time>
      </trkpt>
      <trkpt lat="48.4483" lon="-4.39046">
        <ele>132.9</ele>
        <time>2011-09-04T08:44:11Z</time>
      </trkpt>
      <trkpt lat="48.44832" lon="-4.39037">
        <ele>132.6</ele>
        <time>2011-09-04T08:44:13Z</time>
      </trkpt>
      <trkpt lat="48.44836" lon="-4.39028">
        <ele>131.2</ele>
        <time>2011-09-04T08:44:15Z</time>
      </trkpt>
      <trkpt lat="48.44841" lon="-4.39025">
        <ele>130.7</ele>
        <time>2011-09-04T08:44:17Z</time>
      </trkpt>
      <trkpt lat="48.44845" lon="-4.39021">
        <ele>129.5</ele>
        <time>2011-09-04T08:44:19Z</time>
      </trkpt>
      <trkpt lat="48.44848" lon="-4.39013">
        <ele>130</ele>
        <time>2011-09-04T08:44:21Z</time>
      </trkpt>
      <trkpt lat="48.44851" lon="-4.39004">
        <ele>129.3</ele>
        <time>2011-09-04T08:44:23Z</time>
      </trkpt>
      <trkpt lat="48.44854" lon="-4.38993">
        <ele>129.4</ele>
        <time>2011-09-04T08:44:25Z</time>
      </trkpt>
      <trkpt lat="48.44857" lon="-4.38983">
        <ele>126.9</ele>
        <time>2011-09-04T08:44:27Z</time>
      </trkpt>
      <trkpt lat="48.44859" lon="-4.38974">
        <ele>126.2</ele>
        <time>2011-09-04T08:44:29Z</time>
      </trkpt>
      <trkpt lat="48.44861" lon="-4.38968">
        <ele>125.7</ele>
        <time>2011-09-04T08:44:30Z</time>
      </trkpt>
      <trkpt lat="48.44864" lon="-4.38955">
        <ele>124.7</ele>
        <time>2011-09-04T08:44:32Z</time>
      </trkpt>
      <trkpt lat="48.44866" lon="-4.38943">
        <ele>124.4</ele>
        <time>2011-09-04T08:44:34Z</time>
      </trkpt>
      <trkpt lat="48.44868" lon="-4.38936">
        <ele>123.9</ele>
        <time>2011-09-04T08:44:35Z</time>
      </trkpt>
      <trkpt lat="48.4487" lon="-4.3893">
        <ele>124.5</ele>
        <time>2011-09-04T08:44:36Z</time>
      </trkpt>
      <trkpt lat="48.44872" lon="-4.38924">
        <ele>124.4</ele>
        <time>2011-09-04T08:44:37Z</time>
      </trkpt>
      <trkpt lat="48.44875" lon="-4.38917">
        <ele>124.2</ele>
        <time>2011-09-04T08:44:38Z</time>
      </trkpt>
      <trkpt lat="48.44879" lon="-4.3891">
        <ele>123.9</ele>
        <time>2011-09-04T08:44:39Z</time>
      </trkpt>
      <trkpt lat="48.44883" lon="-4.38904">
        <ele>123.3</ele>
        <time>2011-09-04T08:44:40Z</time>
      </trkpt>
      <trkpt lat="48.44887" lon="-4.38897">
        <ele>122.6</ele>
        <time>2011-09-04T08:44:41Z</time>
      </trkpt>
      <trkpt lat="48.44891" lon="-4.38889">
        <ele>122</ele>
        <time>2011-09-04T08:44:42Z</time>
      </trkpt>
      <trkpt lat="48.44894" lon="-4.38881">
        <ele>122.5</ele>
        <time>2011-09-04T08:44:43Z</time>
      </trkpt>
      <trkpt lat="48.44896" lon="-4.38873">
        <ele>122.4</ele>
        <time>2011-09-04T08:44:44Z</time>
      </trkpt>
      <trkpt lat="48.44899" lon="-4.38864">
        <ele>121.7</ele>
        <time>2011-09-04T08:44:45Z</time>
      </trkpt>
      <trkpt lat="48.449" lon="-4.38858">
        <ele>121.2</ele>
        <time>2011-09-04T08:44:46Z</time>
      </trkpt>
      <trkpt lat="48.44902" lon="-4.38844">
        <ele>122.9</ele>
        <time>2011-09-04T08:44:48Z</time>
      </trkpt>
      <trkpt lat="48.44903" lon="-4.38833">
        <ele>124.3</ele>
        <time>2011-09-04T08:44:50Z</time>
      </trkpt>
      <trkpt lat="48.44904" lon="-4.38823">
        <ele>123.8</ele>
        <time>2011-09-04T08:44:52Z</time>
      </trkpt>
      <trkpt lat="48.44906" lon="-4.38815">
        <ele>125.3</ele>
        <time>2011-09-04T08:44:54Z</time>
      </trkpt>
      <trkpt lat="48.44909" lon="-4.38807">
        <ele>125.9</ele>
        <time>2011-09-04T08:44:56Z</time>
      </trkpt>
      <trkpt lat="48.44911" lon="-4.388">
        <ele>126.3</ele>
        <time>2011-09-04T08:44:58Z</time>
      </trkpt>
      <trkpt lat="48.44914" lon="-4.38792">
        <ele>126.2</ele>
        <time>2011-09-04T08:45:00Z</time>
      </trkpt>
      <trkpt lat="48.44916" lon="-4.38785">
        <ele>127.1</ele>
        <time>2011-09-04T08:45:02Z</time>
      </trkpt>
      <trkpt lat="48.4492" lon="-4.38777">
        <ele>128.2</ele>
        <time>2011-09-04T08:45:04Z</time>
      </trkpt>
      <trkpt lat="48.44922" lon="-4.38769">
        <ele>127.6</ele>
        <time>2011-09-04T08:45:06Z</time>
      </trkpt>
      <trkpt lat="48.44926" lon="-4.3876">
        <ele>127.4</ele>
        <time>2011-09-04T08:45:08Z</time>
      </trkpt>
      <trkpt lat="48.44929" lon="-4.38752">
        <ele>128.3</ele>
        <time>2011-09-04T08:45:10Z</time>
      </trkpt>
      <trkpt lat="48.44932" lon="-4.38746">
        <ele>129.6</ele>
        <time>2011-09-04T08:45:12Z</time>
      </trkpt>
      <trkpt lat="48.44934" lon="-4.38738">
        <ele>130.3</ele>
        <time>2011-09-04T08:45:14Z</time>
      </trkpt>
      <trkpt lat="48.44937" lon="-4.3873">
        <ele>131.3</ele>
        <time>2011-09-04T08:45:16Z</time>
      </trkpt>
      <trkpt lat="48.4494" lon="-4.38723">
        <ele>132.8</ele>
        <time>2011-09-04T08:45:18Z</time>
      </trkpt>
      <trkpt lat="48.44943" lon="-4.38716">
        <ele>133.1</ele>
        <time>2011-09-04T08:45:20Z</time>
      </trkpt>
      <trkpt lat="48.44946" lon="-4.38709">
        <ele>133.1</ele>
        <time>2011-09-04T08:45:22Z</time>
      </trkpt>
      <trkpt lat="48.4495" lon="-4.38702">
        <ele>132.7</ele>
        <time>2011-09-04T08:45:24Z</time>
      </trkpt>
      <trkpt lat="48.44952" lon="-4.38694">
        <ele>133.3</ele>
        <time>2011-09-04T08:45:26Z</time>
      </trkpt>
      <trkpt lat="48.44951" lon="-4.38686">
        <ele>134</ele>
        <time>2011-09-04T08:45:28Z</time>
      </trkpt>
      <trkpt lat="48.44946" lon="-4.38682">
        <ele>135.1</ele>
        <time>2011-09-04T08:45:30Z</time>
      </trkpt>
      <trkpt lat="48.44942" lon="-4.38679">
        <ele>135.2</ele>
        <time>2011-09-04T08:45:32Z</time>
      </trkpt>
      <trkpt lat="48.44936" lon="-4.38673">
        <ele>136.4</ele>
        <time>2011-09-04T08:45:34Z</time>
      </trkpt>
      <trkpt lat="48.44931" lon="-4.38669">
        <ele>137.1</ele>
        <time>2011-09-04T08:45:36Z</time>
      </trkpt>
      <trkpt lat="48.44926" lon="-4.38664">
        <ele>137.7</ele>
        <time>2011-09-04T08:45:38Z</time>
      </trkpt>
      <trkpt lat="48.4492" lon="-4.3866">
        <ele>138.1</ele>
        <time>2011-09-04T08:45:40Z</time>
      </trkpt>
      <trkpt lat="48.44914" lon="-4.38656">
        <ele>137.9</ele>
        <time>2011-09-04T08:45:42Z</time>
      </trkpt>
      <trkpt lat="48.44908" lon="-4.38651">
        <ele>137</ele>
        <time>2011-09-04T08:45:44Z</time>
      </trkpt>
      <trkpt lat="48.44904" lon="-4.38648">
        <ele>136.5</ele>
        <time>2011-09-04T08:45:45Z</time>
      </trkpt>
      <trkpt lat="48.44899" lon="-4.38646">
        <ele>136.4</ele>
        <time>2011-09-04T08:45:46Z</time>
      </trkpt>
      <trkpt lat="48.44895" lon="-4.38643">
        <ele>135.9</ele>
        <time>2011-09-04T08:45:47Z</time>
      </trkpt>
      <trkpt lat="48.4489" lon="-4.3864">
        <ele>135.7</ele>
        <time>2011-09-04T08:45:48Z</time>
      </trkpt>
      <trkpt lat="48.44884" lon="-4.38639">
        <ele>135.7</ele>
        <time>2011-09-04T08:45:49Z</time>
      </trkpt>
      <trkpt lat="48.44878" lon="-4.38637">
        <ele>135.3</ele>
        <time>2011-09-04T08:45:50Z</time>
      </trkpt>
      <trkpt lat="48.44873" lon="-4.38636">
        <ele>135</ele>
        <time>2011-09-04T08:45:51Z</time>
      </trkpt>
      <trkpt lat="48.44866" lon="-4.38636">
        <ele>135</ele>
        <time>2011-09-04T08:45:52Z</time>
      </trkpt>
      <trkpt lat="48.4486" lon="-4.38632">
        <ele>134.4</ele>
        <time>2011-09-04T08:45:53Z</time>
      </trkpt>
      <trkpt lat="48.44854" lon="-4.3863">
        <ele>134.5</ele>
        <time>2011-09-04T08:45:54Z</time>
      </trkpt>
      <trkpt lat="48.44848" lon="-4.38627">
        <ele>134.5</ele>
        <time>2011-09-04T08:45:55Z</time>
      </trkpt>
      <trkpt lat="48.44842" lon="-4.38627">
        <ele>134.6</ele>
        <time>2011-09-04T08:45:56Z</time>
      </trkpt>
      <trkpt lat="48.44836" lon="-4.38626">
        <ele>134.4</ele>
        <time>2011-09-04T08:45:57Z</time>
      </trkpt>
      <trkpt lat="48.44831" lon="-4.38624">
        <ele>134.1</ele>
        <time>2011-09-04T08:45:58Z</time>
      </trkpt>
      <trkpt lat="48.44824" lon="-4.38622">
        <ele>133.8</ele>
        <time>2011-09-04T08:45:59Z</time>
      </trkpt>
      <trkpt lat="48.44818" lon="-4.38619">
        <ele>133.5</ele>
        <time>2011-09-04T08:46:00Z</time>
      </trkpt>
      <trkpt lat="48.44812" lon="-4.38617">
        <ele>133.2</ele>
        <time>2011-09-04T08:46:00Z</time>
      </trkpt>
      <trkpt lat="48.44805" lon="-4.38614">
        <ele>133.4</ele>
        <time>2011-09-04T08:46:02Z</time>
      </trkpt>
      <trkpt lat="48.448" lon="-4.38612">
        <ele>133.6</ele>
        <time>2011-09-04T08:46:02Z</time>
      </trkpt>
      <trkpt lat="48.44794" lon="-4.38609">
        <ele>133.7</ele>
        <time>2011-09-04T08:46:03Z</time>
      </trkpt>
      <trkpt lat="48.44788" lon="-4.38606">
        <ele>133.4</ele>
        <time>2011-09-04T08:46:05Z</time>
      </trkpt>
      <trkpt lat="48.44782" lon="-4.38604">
        <ele>133.2</ele>
        <time>2011-09-04T08:46:06Z</time>
      </trkpt>
      <trkpt lat="48.44777" lon="-4.38601">
        <ele>132.9</ele>
        <time>2011-09-04T08:46:07Z</time>
      </trkpt>
      <trkpt lat="48.44771" lon="-4.38597">
        <ele>133.1</ele>
        <time>2011-09-04T08:46:07Z</time>
      </trkpt>
      <trkpt lat="48.44767" lon="-4.38594">
        <ele>133.3</ele>
        <time>2011-09-04T08:46:08Z</time>
      </trkpt>
      <trkpt lat="48.44762" lon="-4.38591">
        <ele>133.1</ele>
        <time>2011-09-04T08:46:09Z</time>
      </trkpt>
      <trkpt lat="48.44756" lon="-4.38589">
        <ele>133.4</ele>
        <time>2011-09-04T08:46:10Z</time>
      </trkpt>
      <trkpt lat="48.44751" lon="-4.38585">
        <ele>133.2</ele>
        <time>2011-09-04T08:46:11Z</time>
      </trkpt>
      <trkpt lat="48.44745" lon="-4.38581">
        <ele>133.3</ele>
        <time>2011-09-04T08:46:12Z</time>
      </trkpt>
      <trkpt lat="48.44739" lon="-4.38578">
        <ele>133.4</ele>
        <time>2011-09-04T08:46:13Z</time>
      </trkpt>
      <trkpt lat="48.44734" lon="-4.38573">
        <ele>133.4</ele>
        <time>2011-09-04T08:46:14Z</time>
      </trkpt>
      <trkpt lat="48.44729" lon="-4.38568">
        <ele>133.4</ele>
        <time>2011-09-04T08:46:15Z</time>
      </trkpt>
      <trkpt lat="48.44723" lon="-4.38564">
        <ele>133.2</ele>
        <time>2011-09-04T08:46:16Z</time>
      </trkpt>
      <trkpt lat="48.44718" lon="-4.3856">
        <ele>133.1</ele>
        <time>2011-09-04T08:46:17Z</time>
      </trkpt>
      <trkpt lat="48.4471" lon="-4.38556">
        <ele>132.1</ele>
        <time>2011-09-04T08:46:19Z</time>
      </trkpt>
      <trkpt lat="48.447" lon="-4.38551">
        <ele>131.4</ele>
        <time>2011-09-04T08:46:21Z</time>
      </trkpt>
      <trkpt lat="48.44695" lon="-4.38549">
        <ele>131.7</ele>
        <time>2011-09-04T08:46:22Z</time>
      </trkpt>
      <trkpt lat="48.4469" lon="-4.38547">
        <ele>132.1</ele>
        <time>2011-09-04T08:46:23Z</time>
      </trkpt>
      <trkpt lat="48.44686" lon="-4.38543">
        <ele>132.2</ele>
        <time>2011-09-04T08:46:24Z</time>
      </trkpt>
      <trkpt lat="48.4468" lon="-4.38537">
        <ele>134.1</ele>
        <time>2011-09-04T08:46:26Z</time>
      </trkpt>
      <trkpt lat="48.44674" lon="-4.38533">
        <ele>135.2</ele>
        <time>2011-09-04T08:46:28Z</time>
      </trkpt>
      <trkpt lat="48.44667" lon="-4.38531">
        <ele>136.3</ele>
        <time>2011-09-04T08:46:30Z</time>
      </trkpt>
      <trkpt lat="48.4466" lon="-4.38533">
        <ele>136.5</ele>
        <time>2011-09-04T08:46:32Z</time>
      </trkpt>
      <trkpt lat="48.44654" lon="-4.38537">
        <ele>136.2</ele>
        <time>2011-09-04T08:46:34Z</time>
      </trkpt>
      <trkpt lat="48.4465" lon="-4.38544">
        <ele>138</ele>
        <time>2011-09-04T08:46:36Z</time>
      </trkpt>
      <trkpt lat="48.44644" lon="-4.38549">
        <ele>137.8</ele>
        <time>2011-09-04T08:46:38Z</time>
      </trkpt>
      <trkpt lat="48.44638" lon="-4.38556">
        <ele>137.2</ele>
        <time>2011-09-04T08:46:41Z</time>
      </trkpt>
      <trkpt lat="48.44634" lon="-4.38562">
        <ele>138.3</ele>
        <time>2011-09-04T08:46:42Z</time>
      </trkpt>
      <trkpt lat="48.44629" lon="-4.38567">
        <ele>138.4</ele>
        <time>2011-09-04T08:46:44Z</time>
      </trkpt>
      <trkpt lat="48.44624" lon="-4.38573">
        <ele>137.7</ele>
        <time>2011-09-04T08:46:46Z</time>
      </trkpt>
      <trkpt lat="48.44619" lon="-4.38579">
        <ele>138.9</ele>
        <time>2011-09-04T08:46:48Z</time>
      </trkpt>
      <trkpt lat="48.44612" lon="-4.38585">
        <ele>138.8</ele>
        <time>2011-09-04T08:46:50Z</time>
      </trkpt>
      <trkpt lat="48.44607" lon="-4.38589">
        <ele>139.3</ele>
        <time>2011-09-04T08:46:53Z</time>
      </trkpt>
      <trkpt lat="48.44601" lon="-4.38594">
        <ele>139.8</ele>
        <time>2011-09-04T08:46:54Z</time>
      </trkpt>
      <trkpt lat="48.44594" lon="-4.38597">
        <ele>141.1</ele>
        <time>2011-09-04T08:46:56Z</time>
      </trkpt>
      <trkpt lat="48.44587" lon="-4.386">
        <ele>140.1</ele>
        <time>2011-09-04T08:46:58Z</time>
      </trkpt>
      <trkpt lat="48.44581" lon="-4.38598">
        <ele>141.3</ele>
        <time>2011-09-04T08:47:00Z</time>
      </trkpt>
      <trkpt lat="48.44577" lon="-4.38591">
        <ele>141.9</ele>
        <time>2011-09-04T08:47:02Z</time>
      </trkpt>
      <trkpt lat="48.44574" lon="-4.38582">
        <ele>141.9</ele>
        <time>2011-09-04T08:47:04Z</time>
      </trkpt>
      <trkpt lat="48.44573" lon="-4.38574">
        <ele>141.2</ele>
        <time>2011-09-04T08:47:07Z</time>
      </trkpt>
      <trkpt lat="48.44571" lon="-4.38564">
        <ele>140.4</ele>
        <time>2011-09-04T08:47:08Z</time>
      </trkpt>
      <trkpt lat="48.44568" lon="-4.38552">
        <ele>139.7</ele>
        <time>2011-09-04T08:47:11Z</time>
      </trkpt>
      <trkpt lat="48.44568" lon="-4.38541">
        <ele>139.6</ele>
        <time>2011-09-04T08:47:13Z</time>
      </trkpt>
      <trkpt lat="48.44568" lon="-4.3853">
        <ele>140.5</ele>
        <time>2011-09-04T08:47:14Z</time>
      </trkpt>
      <trkpt lat="48.44568" lon="-4.38519">
        <ele>139.7</ele>
        <time>2011-09-04T08:47:16Z</time>
      </trkpt>
      <trkpt lat="48.44568" lon="-4.38509">
        <ele>139</ele>
        <time>2011-09-04T08:47:18Z</time>
      </trkpt>
      <trkpt lat="48.44566" lon="-4.38499">
        <ele>138.9</ele>
        <time>2011-09-04T08:47:20Z</time>
      </trkpt>
      <trkpt lat="48.44564" lon="-4.38489">
        <ele>139</ele>
        <time>2011-09-04T08:47:23Z</time>
      </trkpt>
      <trkpt lat="48.44559" lon="-4.38482">
        <ele>140.5</ele>
        <time>2011-09-04T08:47:25Z</time>
      </trkpt>
      <trkpt lat="48.44552" lon="-4.38476">
        <ele>139.3</ele>
        <time>2011-09-04T08:47:27Z</time>
      </trkpt>
      <trkpt lat="48.44546" lon="-4.38472">
        <ele>138.9</ele>
        <time>2011-09-04T08:47:28Z</time>
      </trkpt>
      <trkpt lat="48.44541" lon="-4.38476">
        <ele>140.5</ele>
        <time>2011-09-04T08:47:31Z</time>
      </trkpt>
      <trkpt lat="48.44535" lon="-4.38476">
        <ele>140.9</ele>
        <time>2011-09-04T08:47:32Z</time>
      </trkpt>
      <trkpt lat="48.44526" lon="-4.38473">
        <ele>135.1</ele>
        <time>2011-09-04T08:47:34Z</time>
      </trkpt>
      <trkpt lat="48.44518" lon="-4.38471">
        <ele>134.3</ele>
        <time>2011-09-04T08:47:36Z</time>
      </trkpt>
      <trkpt lat="48.4451" lon="-4.38469">
        <ele>133.9</ele>
        <time>2011-09-04T08:47:38Z</time>
      </trkpt>
      <trkpt lat="48.44503" lon="-4.38469">
        <ele>132.9</ele>
        <time>2011-09-04T08:47:41Z</time>
      </trkpt>
      <trkpt lat="48.44499" lon="-4.38468">
        <ele>132</ele>
        <time>2011-09-04T08:47:41Z</time>
      </trkpt>
      <trkpt lat="48.44493" lon="-4.38468">
        <ele>132.7</ele>
        <time>2011-09-04T08:47:43Z</time>
      </trkpt>
      <trkpt lat="48.44487" lon="-4.38466">
        <ele>133</ele>
        <time>2011-09-04T08:47:46Z</time>
      </trkpt>
      <trkpt lat="48.44484" lon="-4.3846">
        <ele>134.8</ele>
        <time>2011-09-04T08:47:47Z</time>
      </trkpt>
      <trkpt lat="48.44487" lon="-4.38452">
        <ele>135</ele>
        <time>2011-09-04T08:47:50Z</time>
      </trkpt>
      <trkpt lat="48.44487" lon="-4.38444">
        <ele>135.2</ele>
        <time>2011-09-04T08:47:51Z</time>
      </trkpt>
      <trkpt lat="48.44488" lon="-4.38436">
        <ele>136</ele>
        <time>2011-09-04T08:47:53Z</time>
      </trkpt>
      <trkpt lat="48.44488" lon="-4.38427">
        <ele>135.4</ele>
        <time>2011-09-04T08:47:55Z</time>
      </trkpt>
      <trkpt lat="48.44488" lon="-4.38416">
        <ele>136.2</ele>
        <time>2011-09-04T08:47:58Z</time>
      </trkpt>
      <trkpt lat="48.44488" lon="-4.38409">
        <ele>134.5</ele>
        <time>2011-09-04T08:47:58Z</time>
      </trkpt>
      <trkpt lat="48.44488" lon="-4.384">
        <ele>135.4</ele>
        <time>2011-09-04T08:48:01Z</time>
      </trkpt>
      <trkpt lat="48.4449" lon="-4.38392">
        <ele>136</ele>
        <time>2011-09-04T08:48:03Z</time>
      </trkpt>
      <trkpt lat="48.44491" lon="-4.38383">
        <ele>137.1</ele>
        <time>2011-09-04T08:48:04Z</time>
      </trkpt>
      <trkpt lat="48.44492" lon="-4.38374">
        <ele>136.5</ele>
        <time>2011-09-04T08:48:06Z</time>
      </trkpt>
      <trkpt lat="48.44494" lon="-4.38365">
        <ele>136.9</ele>
        <time>2011-09-04T08:48:08Z</time>
      </trkpt>
      <trkpt lat="48.44497" lon="-4.38356">
        <ele>137.7</ele>
        <time>2011-09-04T08:48:11Z</time>
      </trkpt>
      <trkpt lat="48.44499" lon="-4.38346">
        <ele>136.4</ele>
        <time>2011-09-04T08:48:12Z</time>
      </trkpt>
      <trkpt lat="48.44502" lon="-4.38336">
        <ele>136.6</ele>
        <time>2011-09-04T08:48:15Z</time>
      </trkpt>
      <trkpt lat="48.44504" lon="-4.38326">
        <ele>136.8</ele>
        <time>2011-09-04T08:48:16Z</time>
      </trkpt>
      <trkpt lat="48.44508" lon="-4.38318">
        <ele>137.6</ele>
        <time>2011-09-04T08:48:18Z</time>
      </trkpt>
      <trkpt lat="48.44511" lon="-4.38309">
        <ele>137.2</ele>
        <time>2011-09-04T08:48:21Z</time>
      </trkpt>
      <trkpt lat="48.44514" lon="-4.383">
        <ele>136.9</ele>
        <time>2011-09-04T08:48:23Z</time>
      </trkpt>
      <trkpt lat="48.44517" lon="-4.38289">
        <ele>136.2</ele>
        <time>2011-09-04T08:48:24Z</time>
      </trkpt>
      <trkpt lat="48.4452" lon="-4.38279">
        <ele>136.6</ele>
        <time>2011-09-04T08:48:26Z</time>
      </trkpt>
      <trkpt lat="48.44524" lon="-4.3827">
        <ele>136.3</ele>
        <time>2011-09-04T08:48:28Z</time>
      </trkpt>
      <trkpt lat="48.44528" lon="-4.3826">
        <ele>136.3</ele>
        <time>2011-09-04T08:48:30Z</time>
      </trkpt>
      <trkpt lat="48.44533" lon="-4.38251">
        <ele>137.2</ele>
        <time>2011-09-04T08:48:32Z</time>
      </trkpt>
      <trkpt lat="48.44537" lon="-4.38241">
        <ele>137.7</ele>
        <time>2011-09-04T08:48:34Z</time>
      </trkpt>
      <trkpt lat="48.44541" lon="-4.3823">
        <ele>138.8</ele>
        <time>2011-09-04T08:48:36Z</time>
      </trkpt>
      <trkpt lat="48.44545" lon="-4.3822">
        <ele>139.6</ele>
        <time>2011-09-04T08:48:38Z</time>
      </trkpt>
      <trkpt lat="48.4455" lon="-4.38211">
        <ele>140.2</ele>
        <time>2011-09-04T08:48:40Z</time>
      </trkpt>
      <trkpt lat="48.44553" lon="-4.38206">
        <ele>139.2</ele>
        <time>2011-09-04T08:48:41Z</time>
      </trkpt>
      <trkpt lat="48.44559" lon="-4.38196">
        <ele>138.2</ele>
        <time>2011-09-04T08:48:43Z</time>
      </trkpt>
      <trkpt lat="48.44564" lon="-4.38185">
        <ele>138.4</ele>
        <time>2011-09-04T08:48:45Z</time>
      </trkpt>
      <trkpt lat="48.44566" lon="-4.38179">
        <ele>138</ele>
        <time>2011-09-04T08:48:46Z</time>
      </trkpt>
      <trkpt lat="48.44569" lon="-4.38174">
        <ele>138.3</ele>
        <time>2011-09-04T08:48:47Z</time>
      </trkpt>
      <trkpt lat="48.44572" lon="-4.38168">
        <ele>138.7</ele>
        <time>2011-09-04T08:48:48Z</time>
      </trkpt>
      <trkpt lat="48.44576" lon="-4.38156">
        <ele>138.7</ele>
        <time>2011-09-04T08:48:50Z</time>
      </trkpt>
      <trkpt lat="48.44579" lon="-4.38149">
        <ele>138.8</ele>
        <time>2011-09-04T08:48:51Z</time>
      </trkpt>
      <trkpt lat="48.44582" lon="-4.38142">
        <ele>139.2</ele>
        <time>2011-09-04T08:48:52Z</time>
      </trkpt>
      <trkpt lat="48.44584" lon="-4.38134">
        <ele>140.8</ele>
        <time>2011-09-04T08:48:53Z</time>
      </trkpt>
      <trkpt lat="48.44586" lon="-4.38126">
        <ele>141</ele>
        <time>2011-09-04T08:48:54Z</time>
      </trkpt>
      <trkpt lat="48.44588" lon="-4.3812">
        <ele>141.3</ele>
        <time>2011-09-04T08:48:55Z</time>
      </trkpt>
      <trkpt lat="48.44591" lon="-4.38114">
        <ele>141.1</ele>
        <time>2011-09-04T08:48:56Z</time>
      </trkpt>
      <trkpt lat="48.44594" lon="-4.38107">
        <ele>140.2</ele>
        <time>2011-09-04T08:48:57Z</time>
      </trkpt>
      <trkpt lat="48.44597" lon="-4.381">
        <ele>139.6</ele>
        <time>2011-09-04T08:48:58Z</time>
      </trkpt>
      <trkpt lat="48.44599" lon="-4.38094">
        <ele>139.6</ele>
        <time>2011-09-04T08:48:59Z</time>
      </trkpt>
      <trkpt lat="48.44602" lon="-4.38087">
        <ele>138.7</ele>
        <time>2011-09-04T08:49:00Z</time>
      </trkpt>
      <trkpt lat="48.44605" lon="-4.38081">
        <ele>138.2</ele>
        <time>2011-09-04T08:49:01Z</time>
      </trkpt>
      <trkpt lat="48.44608" lon="-4.38074">
        <ele>139</ele>
        <time>2011-09-04T08:49:02Z</time>
      </trkpt>
      <trkpt lat="48.4461" lon="-4.38067">
        <ele>139.6</ele>
        <time>2011-09-04T08:49:03Z</time>
      </trkpt>
      <trkpt lat="48.4461" lon="-4.38059">
        <ele>139.1</ele>
        <time>2011-09-04T08:49:04Z</time>
      </trkpt>
      <trkpt lat="48.44609" lon="-4.3805">
        <ele>138.7</ele>
        <time>2011-09-04T08:49:05Z</time>
      </trkpt>
      <trkpt lat="48.44608" lon="-4.38041">
        <ele>137.9</ele>
        <time>2011-09-04T08:49:06Z</time>
      </trkpt>
      <trkpt lat="48.44606" lon="-4.38033">
        <ele>137.5</ele>
        <time>2011-09-04T08:49:07Z</time>
      </trkpt>
      <trkpt lat="48.44604" lon="-4.38025">
        <ele>137.5</ele>
        <time>2011-09-04T08:49:08Z</time>
      </trkpt>
      <trkpt lat="48.44602" lon="-4.38017">
        <ele>137.1</ele>
        <time>2011-09-04T08:49:09Z</time>
      </trkpt>
      <trkpt lat="48.446" lon="-4.38008">
        <ele>136.4</ele>
        <time>2011-09-04T08:49:10Z</time>
      </trkpt>
      <trkpt lat="48.44597" lon="-4.38001">
        <ele>136.7</ele>
        <time>2011-09-04T08:49:11Z</time>
      </trkpt>
      <trkpt lat="48.44595" lon="-4.37993">
        <ele>136.7</ele>
        <time>2011-09-04T08:49:12Z</time>
      </trkpt>
      <trkpt lat="48.44594" lon="-4.37984">
        <ele>136.7</ele>
        <time>2011-09-04T08:49:13Z</time>
      </trkpt>
      <trkpt lat="48.44592" lon="-4.37977">
        <ele>136.6</ele>
        <time>2011-09-04T08:49:14Z</time>
      </trkpt>
      <trkpt lat="48.44591" lon="-4.3797">
        <ele>136.9</ele>
        <time>2011-09-04T08:49:15Z</time>
      </trkpt>
      <trkpt lat="48.44589" lon="-4.37963">
        <ele>136.4</ele>
        <time>2011-09-04T08:49:16Z</time>
      </trkpt>
      <trkpt lat="48.44586" lon="-4.37951">
        <ele>136.5</ele>
        <time>2011-09-04T08:49:18Z</time>
      </trkpt>
      <trkpt lat="48.44582" lon="-4.37939">
        <ele>136.1</ele>
        <time>2011-09-04T08:49:20Z</time>
      </trkpt>
      <trkpt lat="48.4458" lon="-4.37933">
        <ele>137.4</ele>
        <time>2011-09-04T08:49:21Z</time>
      </trkpt>
      <trkpt lat="48.4458" lon="-4.37926">
        <ele>137.5</ele>
        <time>2011-09-04T08:49:22Z</time>
      </trkpt>
      <trkpt lat="48.4458" lon="-4.37919">
        <ele>136.8</ele>
        <time>2011-09-04T08:49:23Z</time>
      </trkpt>
      <trkpt lat="48.44578" lon="-4.37907">
        <ele>135.6</ele>
        <time>2011-09-04T08:49:25Z</time>
      </trkpt>
      <trkpt lat="48.44576" lon="-4.379">
        <ele>135</ele>
        <time>2011-09-04T08:49:26Z</time>
      </trkpt>
      <trkpt lat="48.44574" lon="-4.37893">
        <ele>135</ele>
        <time>2011-09-04T08:49:27Z</time>
      </trkpt>
      <trkpt lat="48.44573" lon="-4.37886">
        <ele>135.4</ele>
        <time>2011-09-04T08:49:28Z</time>
      </trkpt>
      <trkpt lat="48.44571" lon="-4.37874">
        <ele>134.8</ele>
        <time>2011-09-04T08:49:30Z</time>
      </trkpt>
      <trkpt lat="48.44569" lon="-4.37867">
        <ele>135</ele>
        <time>2011-09-04T08:49:31Z</time>
      </trkpt>
      <trkpt lat="48.44565" lon="-4.37853">
        <ele>134.8</ele>
        <time>2011-09-04T08:49:33Z</time>
      </trkpt>
      <trkpt lat="48.44563" lon="-4.37846">
        <ele>135.4</ele>
        <time>2011-09-04T08:49:34Z</time>
      </trkpt>
      <trkpt lat="48.44561" lon="-4.3784">
        <ele>135.2</ele>
        <time>2011-09-04T08:49:35Z</time>
      </trkpt>
      <trkpt lat="48.44558" lon="-4.37827">
        <ele>136.6</ele>
        <time>2011-09-04T08:49:37Z</time>
      </trkpt>
      <trkpt lat="48.44556" lon="-4.37816">
        <ele>137.2</ele>
        <time>2011-09-04T08:49:39Z</time>
      </trkpt>
      <trkpt lat="48.44555" lon="-4.37809">
        <ele>137</ele>
        <time>2011-09-04T08:49:40Z</time>
      </trkpt>
      <trkpt lat="48.44556" lon="-4.37797">
        <ele>136.8</ele>
        <time>2011-09-04T08:49:42Z</time>
      </trkpt>
      <trkpt lat="48.44562" lon="-4.37792">
        <ele>137.7</ele>
        <time>2011-09-04T08:49:44Z</time>
      </trkpt>
      <trkpt lat="48.44568" lon="-4.37787">
        <ele>135.1</ele>
        <time>2011-09-04T08:49:47Z</time>
      </trkpt>
      <trkpt lat="48.44574" lon="-4.37784">
        <ele>133.4</ele>
        <time>2011-09-04T08:49:49Z</time>
      </trkpt>
      <trkpt lat="48.4458" lon="-4.37782">
        <ele>133.8</ele>
        <time>2011-09-04T08:49:51Z</time>
      </trkpt>
      <trkpt lat="48.44587" lon="-4.37784">
        <ele>134.3</ele>
        <time>2011-09-04T08:49:53Z</time>
      </trkpt>
      <trkpt lat="48.44591" lon="-4.37787">
        <ele>133.5</ele>
        <time>2011-09-04T08:49:54Z</time>
      </trkpt>
      <trkpt lat="48.44596" lon="-4.37784">
        <ele>133.5</ele>
        <time>2011-09-04T08:49:55Z</time>
      </trkpt>
      <trkpt lat="48.446" lon="-4.37783">
        <ele>134.7</ele>
        <time>2011-09-04T08:49:56Z</time>
      </trkpt>
      <trkpt lat="48.44611" lon="-4.37777">
        <ele>134.9</ele>
        <time>2011-09-04T08:49:58Z</time>
      </trkpt>
      <trkpt lat="48.44619" lon="-4.37776">
        <ele>135</ele>
        <time>2011-09-04T08:50:00Z</time>
      </trkpt>
      <trkpt lat="48.44624" lon="-4.37775">
        <ele>135.5</ele>
        <time>2011-09-04T08:50:02Z</time>
      </trkpt>
      <trkpt lat="48.44629" lon="-4.37772">
        <ele>134.6</ele>
        <time>2011-09-04T08:50:03Z</time>
      </trkpt>
      <trkpt lat="48.44633" lon="-4.37769">
        <ele>133.9</ele>
        <time>2011-09-04T08:50:04Z</time>
      </trkpt>
      <trkpt lat="48.4464" lon="-4.37766">
        <ele>134.2</ele>
        <time>2011-09-04T08:50:06Z</time>
      </trkpt>
      <trkpt lat="48.44645" lon="-4.37764">
        <ele>135</ele>
        <time>2011-09-04T08:50:07Z</time>
      </trkpt>
      <trkpt lat="48.44649" lon="-4.37762">
        <ele>134.9</ele>
        <time>2011-09-04T08:50:08Z</time>
      </trkpt>
      <trkpt lat="48.44654" lon="-4.3776">
        <ele>136.7</ele>
        <time>2011-09-04T08:50:10Z</time>
      </trkpt>
      <trkpt lat="48.44661" lon="-4.37754">
        <ele>142.1</ele>
        <time>2011-09-04T08:50:12Z</time>
      </trkpt>
      <trkpt lat="48.44668" lon="-4.37751">
        <ele>143.7</ele>
        <time>2011-09-04T08:50:14Z</time>
      </trkpt>
      <trkpt lat="48.44675" lon="-4.37747">
        <ele>141.2</ele>
        <time>2011-09-04T08:50:15Z</time>
      </trkpt>
      <trkpt lat="48.4468" lon="-4.37745">
        <ele>142.1</ele>
        <time>2011-09-04T08:50:16Z</time>
      </trkpt>
      <trkpt lat="48.44683" lon="-4.37738">
        <ele>142.7</ele>
        <time>2011-09-04T08:50:18Z</time>
      </trkpt>
      <trkpt lat="48.44683" lon="-4.37728">
        <ele>143.2</ele>
        <time>2011-09-04T08:50:20Z</time>
      </trkpt>
      <trkpt lat="48.4468" lon="-4.37719">
        <ele>142.5</ele>
        <time>2011-09-04T08:50:22Z</time>
      </trkpt>
      <trkpt lat="48.44677" lon="-4.37705">
        <ele>142.7</ele>
        <time>2011-09-04T08:50:24Z</time>
      </trkpt>
      <trkpt lat="48.44673" lon="-4.37698">
        <ele>144.2</ele>
        <time>2011-09-04T08:50:25Z</time>
      </trkpt>
      <trkpt lat="48.44672" lon="-4.37689">
        <ele>143.8</ele>
        <time>2011-09-04T08:50:26Z</time>
      </trkpt>
      <trkpt lat="48.4467" lon="-4.3768">
        <ele>143.9</ele>
        <time>2011-09-04T08:50:27Z</time>
      </trkpt>
      <trkpt lat="48.44669" lon="-4.37672">
        <ele>143.3</ele>
        <time>2011-09-04T08:50:28Z</time>
      </trkpt>
      <trkpt lat="48.44668" lon="-4.37665">
        <ele>143.9</ele>
        <time>2011-09-04T08:50:29Z</time>
      </trkpt>
      <trkpt lat="48.44667" lon="-4.37658">
        <ele>144.7</ele>
        <time>2011-09-04T08:50:30Z</time>
      </trkpt>
      <trkpt lat="48.44665" lon="-4.37649">
        <ele>144.3</ele>
        <time>2011-09-04T08:50:31Z</time>
      </trkpt>
      <trkpt lat="48.44662" lon="-4.37642">
        <ele>144.9</ele>
        <time>2011-09-04T08:50:32Z</time>
      </trkpt>
      <trkpt lat="48.44661" lon="-4.37633">
        <ele>143.6</ele>
        <time>2011-09-04T08:50:33Z</time>
      </trkpt>
      <trkpt lat="48.44659" lon="-4.37624">
        <ele>142.7</ele>
        <time>2011-09-04T08:50:34Z</time>
      </trkpt>
      <trkpt lat="48.44657" lon="-4.37616">
        <ele>141.8</ele>
        <time>2011-09-04T08:50:35Z</time>
      </trkpt>
      <trkpt lat="48.44656" lon="-4.37606">
        <ele>141.6</ele>
        <time>2011-09-04T08:50:36Z</time>
      </trkpt>
      <trkpt lat="48.44655" lon="-4.37595">
        <ele>140.8</ele>
        <time>2011-09-04T08:50:37Z</time>
      </trkpt>
      <trkpt lat="48.44654" lon="-4.37585">
        <ele>140.6</ele>
        <time>2011-09-04T08:50:38Z</time>
      </trkpt>
      <trkpt lat="48.44653" lon="-4.37577">
        <ele>140</ele>
        <time>2011-09-04T08:50:39Z</time>
      </trkpt>
      <trkpt lat="48.44651" lon="-4.37568">
        <ele>138.6</ele>
        <time>2011-09-04T08:50:40Z</time>
      </trkpt>
      <trkpt lat="48.4465" lon="-4.37558">
        <ele>139.1</ele>
        <time>2011-09-04T08:50:41Z</time>
      </trkpt>
      <trkpt lat="48.44649" lon="-4.37548">
        <ele>139.3</ele>
        <time>2011-09-04T08:50:42Z</time>
      </trkpt>
      <trkpt lat="48.44649" lon="-4.37538">
        <ele>138.8</ele>
        <time>2011-09-04T08:50:43Z</time>
      </trkpt>
      <trkpt lat="48.44649" lon="-4.37528">
        <ele>139.3</ele>
        <time>2011-09-04T08:50:44Z</time>
      </trkpt>
      <trkpt lat="48.44648" lon="-4.37518">
        <ele>138.7</ele>
        <time>2011-09-04T08:50:45Z</time>
      </trkpt>
      <trkpt lat="48.44647" lon="-4.37507">
        <ele>138.1</ele>
        <time>2011-09-04T08:50:46Z</time>
      </trkpt>
      <trkpt lat="48.44645" lon="-4.37496">
        <ele>137.4</ele>
        <time>2011-09-04T08:50:47Z</time>
      </trkpt>
      <trkpt lat="48.44644" lon="-4.37485">
        <ele>135.7</ele>
        <time>2011-09-04T08:50:48Z</time>
      </trkpt>
      <trkpt lat="48.44642" lon="-4.37474">
        <ele>135.7</ele>
        <time>2011-09-04T08:50:49Z</time>
      </trkpt>
      <trkpt lat="48.44641" lon="-4.37464">
        <ele>136.1</ele>
        <time>2011-09-04T08:50:50Z</time>
      </trkpt>
      <trkpt lat="48.4464" lon="-4.37452">
        <ele>135.2</ele>
        <time>2011-09-04T08:50:51Z</time>
      </trkpt>
      <trkpt lat="48.44638" lon="-4.37442">
        <ele>136</ele>
        <time>2011-09-04T08:50:52Z</time>
      </trkpt>
      <trkpt lat="48.44637" lon="-4.37432">
        <ele>136.1</ele>
        <time>2011-09-04T08:50:53Z</time>
      </trkpt>
      <trkpt lat="48.44635" lon="-4.37421">
        <ele>136.4</ele>
        <time>2011-09-04T08:50:54Z</time>
      </trkpt>
      <trkpt lat="48.44632" lon="-4.3741">
        <ele>136.4</ele>
        <time>2011-09-04T08:50:55Z</time>
      </trkpt>
      <trkpt lat="48.44629" lon="-4.37399">
        <ele>136.1</ele>
        <time>2011-09-04T08:50:56Z</time>
      </trkpt>
      <trkpt lat="48.44626" lon="-4.37389">
        <ele>135.8</ele>
        <time>2011-09-04T08:50:57Z</time>
      </trkpt>
      <trkpt lat="48.44623" lon="-4.37379">
        <ele>135.3</ele>
        <time>2011-09-04T08:50:58Z</time>
      </trkpt>
      <trkpt lat="48.44619" lon="-4.37369">
        <ele>135.7</ele>
        <time>2011-09-04T08:50:59Z</time>
      </trkpt>
      <trkpt lat="48.44614" lon="-4.37361">
        <ele>136.3</ele>
        <time>2011-09-04T08:51:00Z</time>
      </trkpt>
      <trkpt lat="48.4461" lon="-4.37352">
        <ele>136.9</ele>
        <time>2011-09-04T08:51:01Z</time>
      </trkpt>
      <trkpt lat="48.44606" lon="-4.37342">
        <ele>136.7</ele>
        <time>2011-09-04T08:51:02Z</time>
      </trkpt>
      <trkpt lat="48.44602" lon="-4.37335">
        <ele>136.5</ele>
        <time>2011-09-04T08:51:03Z</time>
      </trkpt>
      <trkpt lat="48.44598" lon="-4.37328">
        <ele>136.6</ele>
        <time>2011-09-04T08:51:04Z</time>
      </trkpt>
      <trkpt lat="48.44594" lon="-4.3732">
        <ele>136.2</ele>
        <time>2011-09-04T08:51:05Z</time>
      </trkpt>
      <trkpt lat="48.4459" lon="-4.37311">
        <ele>135.8</ele>
        <time>2011-09-04T08:51:06Z</time>
      </trkpt>
      <trkpt lat="48.44586" lon="-4.37303">
        <ele>135.7</ele>
        <time>2011-09-04T08:51:07Z</time>
      </trkpt>
      <trkpt lat="48.44581" lon="-4.37295">
        <ele>135.7</ele>
        <time>2011-09-04T08:51:08Z</time>
      </trkpt>
      <trkpt lat="48.44577" lon="-4.3729">
        <ele>135.7</ele>
        <time>2011-09-04T08:51:09Z</time>
      </trkpt>
      <trkpt lat="48.44573" lon="-4.3728">
        <ele>134.4</ele>
        <time>2011-09-04T08:51:10Z</time>
      </trkpt>
      <trkpt lat="48.44569" lon="-4.37274">
        <ele>134.7</ele>
        <time>2011-09-04T08:51:11Z</time>
      </trkpt>
      <trkpt lat="48.44565" lon="-4.37265">
        <ele>134.1</ele>
        <time>2011-09-04T08:51:12Z</time>
      </trkpt>
      <trkpt lat="48.44561" lon="-4.37258">
        <ele>134</ele>
        <time>2011-09-04T08:51:13Z</time>
      </trkpt>
      <trkpt lat="48.44557" lon="-4.3725">
        <ele>132.6</ele>
        <time>2011-09-04T08:51:14Z</time>
      </trkpt>
      <trkpt lat="48.44553" lon="-4.37244">
        <ele>131.9</ele>
        <time>2011-09-04T08:51:15Z</time>
      </trkpt>
      <trkpt lat="48.44549" lon="-4.37237">
        <ele>132.4</ele>
        <time>2011-09-04T08:51:16Z</time>
      </trkpt>
      <trkpt lat="48.44545" lon="-4.37228">
        <ele>132.1</ele>
        <time>2011-09-04T08:51:17Z</time>
      </trkpt>
      <trkpt lat="48.44541" lon="-4.3722">
        <ele>132.1</ele>
        <time>2011-09-04T08:51:18Z</time>
      </trkpt>
      <trkpt lat="48.44536" lon="-4.37213">
        <ele>132.6</ele>
        <time>2011-09-04T08:51:19Z</time>
      </trkpt>
      <trkpt lat="48.44531" lon="-4.37206">
        <ele>132.6</ele>
        <time>2011-09-04T08:51:20Z</time>
      </trkpt>
      <trkpt lat="48.44526" lon="-4.37195">
        <ele>129.9</ele>
        <time>2011-09-04T08:51:21Z</time>
      </trkpt>
      <trkpt lat="48.44522" lon="-4.37188">
        <ele>129</ele>
        <time>2011-09-04T08:51:22Z</time>
      </trkpt>
      <trkpt lat="48.4452" lon="-4.37178">
        <ele>131</ele>
        <time>2011-09-04T08:51:23Z</time>
      </trkpt>
      <trkpt lat="48.44518" lon="-4.3717">
        <ele>131.9</ele>
        <time>2011-09-04T08:51:24Z</time>
      </trkpt>
      <trkpt lat="48.44514" lon="-4.37162">
        <ele>131.8</ele>
        <time>2011-09-04T08:51:25Z</time>
      </trkpt>
      <trkpt lat="48.4451" lon="-4.37154">
        <ele>132</ele>
        <time>2011-09-04T08:51:26Z</time>
      </trkpt>
      <trkpt lat="48.44503" lon="-4.37147">
        <ele>132.6</ele>
        <time>2011-09-04T08:51:27Z</time>
      </trkpt>
      <trkpt lat="48.44497" lon="-4.37131">
        <ele>133</ele>
        <time>2011-09-04T08:51:29Z</time>
      </trkpt>
      <trkpt lat="48.44493" lon="-4.37123">
        <ele>133</ele>
        <time>2011-09-04T08:51:30Z</time>
      </trkpt>
      <trkpt lat="48.44491" lon="-4.37113">
        <ele>132.9</ele>
        <time>2011-09-04T08:51:31Z</time>
      </trkpt>
      <trkpt lat="48.44488" lon="-4.37103">
        <ele>132.8</ele>
        <time>2011-09-04T08:51:32Z</time>
      </trkpt>
      <trkpt lat="48.44482" lon="-4.37093">
        <ele>132.3</ele>
        <time>2011-09-04T08:51:33Z</time>
      </trkpt>
      <trkpt lat="48.44477" lon="-4.37084">
        <ele>132.2</ele>
        <time>2011-09-04T08:51:34Z</time>
      </trkpt>
      <trkpt lat="48.44471" lon="-4.3707">
        <ele>132.5</ele>
        <time>2011-09-04T08:51:35Z</time>
      </trkpt>
      <trkpt lat="48.44461" lon="-4.37059">
        <ele>129.8</ele>
        <time>2011-09-04T08:51:36Z</time>
      </trkpt>
      <trkpt lat="48.44457" lon="-4.37049">
        <ele>131.3</ele>
        <time>2011-09-04T08:51:37Z</time>
      </trkpt>
      <trkpt lat="48.44449" lon="-4.37039">
        <ele>131.9</ele>
        <time>2011-09-04T08:51:38Z</time>
      </trkpt>
      <trkpt lat="48.44444" lon="-4.37029">
        <ele>133.1</ele>
        <time>2011-09-04T08:51:39Z</time>
      </trkpt>
      <trkpt lat="48.44439" lon="-4.37019">
        <ele>133.1</ele>
        <time>2011-09-04T08:51:40Z</time>
      </trkpt>
      <trkpt lat="48.44435" lon="-4.3701">
        <ele>133.6</ele>
        <time>2011-09-04T08:51:41Z</time>
      </trkpt>
      <trkpt lat="48.44429" lon="-4.37001">
        <ele>133</ele>
        <time>2011-09-04T08:51:42Z</time>
      </trkpt>
      <trkpt lat="48.44423" lon="-4.36993">
        <ele>132.4</ele>
        <time>2011-09-04T08:51:43Z</time>
      </trkpt>
      <trkpt lat="48.44417" lon="-4.36982">
        <ele>132.8</ele>
        <time>2011-09-04T08:51:44Z</time>
      </trkpt>
      <trkpt lat="48.44411" lon="-4.36974">
        <ele>133.3</ele>
        <time>2011-09-04T08:51:45Z</time>
      </trkpt>
      <trkpt lat="48.44406" lon="-4.3697">
        <ele>131.7</ele>
        <time>2011-09-04T08:51:46Z</time>
      </trkpt>
      <trkpt lat="48.44404" lon="-4.36963">
        <ele>133.4</ele>
        <time>2011-09-04T08:51:47Z</time>
      </trkpt>
      <trkpt lat="48.444" lon="-4.36958">
        <ele>134.8</ele>
        <time>2011-09-04T08:51:48Z</time>
      </trkpt>
      <trkpt lat="48.44396" lon="-4.36951">
        <ele>134.7</ele>
        <time>2011-09-04T08:51:49Z</time>
      </trkpt>
      <trkpt lat="48.44392" lon="-4.36944">
        <ele>134.4</ele>
        <time>2011-09-04T08:51:50Z</time>
      </trkpt>
      <trkpt lat="48.4439" lon="-4.36936">
        <ele>135.6</ele>
        <time>2011-09-04T08:51:51Z</time>
      </trkpt>
      <trkpt lat="48.44387" lon="-4.3693">
        <ele>136.9</ele>
        <time>2011-09-04T08:51:52Z</time>
      </trkpt>
      <trkpt lat="48.44383" lon="-4.36923">
        <ele>136.3</ele>
        <time>2011-09-04T08:51:53Z</time>
      </trkpt>
      <trkpt lat="48.44379" lon="-4.36917">
        <ele>136.9</ele>
        <time>2011-09-04T08:51:54Z</time>
      </trkpt>
      <trkpt lat="48.44375" lon="-4.3691">
        <ele>136.6</ele>
        <time>2011-09-04T08:51:55Z</time>
      </trkpt>
      <trkpt lat="48.44371" lon="-4.36906">
        <ele>137.6</ele>
        <time>2011-09-04T08:51:56Z</time>
      </trkpt>
      <trkpt lat="48.4437" lon="-4.36895">
        <ele>133.9</ele>
        <time>2011-09-04T08:51:57Z</time>
      </trkpt>
      <trkpt lat="48.44367" lon="-4.36888">
        <ele>134.3</ele>
        <time>2011-09-04T08:51:58Z</time>
      </trkpt>
      <trkpt lat="48.44364" lon="-4.36883">
        <ele>134.3</ele>
        <time>2011-09-04T08:51:59Z</time>
      </trkpt>
      <trkpt lat="48.44359" lon="-4.36876">
        <ele>134.4</ele>
        <time>2011-09-04T08:52:00Z</time>
      </trkpt>
      <trkpt lat="48.44357" lon="-4.3687">
        <ele>134.1</ele>
        <time>2011-09-04T08:52:01Z</time>
      </trkpt>
      <trkpt lat="48.44353" lon="-4.36861">
        <ele>133.7</ele>
        <time>2011-09-04T08:52:02Z</time>
      </trkpt>
      <trkpt lat="48.44351" lon="-4.36854">
        <ele>133.7</ele>
        <time>2011-09-04T08:52:03Z</time>
      </trkpt>
      <trkpt lat="48.44348" lon="-4.36847">
        <ele>133.4</ele>
        <time>2011-09-04T08:52:04Z</time>
      </trkpt>
      <trkpt lat="48.44346" lon="-4.36839">
        <ele>133</ele>
        <time>2011-09-04T08:52:05Z</time>
      </trkpt>
      <trkpt lat="48.44342" lon="-4.3683">
        <ele>131.5</ele>
        <time>2011-09-04T08:52:06Z</time>
      </trkpt>
      <trkpt lat="48.44339" lon="-4.36822">
        <ele>132.2</ele>
        <time>2011-09-04T08:52:07Z</time>
      </trkpt>
      <trkpt lat="48.44337" lon="-4.36813">
        <ele>131.7</ele>
        <time>2011-09-04T08:52:08Z</time>
      </trkpt>
      <trkpt lat="48.44334" lon="-4.36802">
        <ele>130.8</ele>
        <time>2011-09-04T08:52:09Z</time>
      </trkpt>
      <trkpt lat="48.44331" lon="-4.36793">
        <ele>128.3</ele>
        <time>2011-09-04T08:52:10Z</time>
      </trkpt>
      <trkpt lat="48.4433" lon="-4.36784">
        <ele>128.2</ele>
        <time>2011-09-04T08:52:11Z</time>
      </trkpt>
      <trkpt lat="48.44328" lon="-4.36777">
        <ele>129.5</ele>
        <time>2011-09-04T08:52:12Z</time>
      </trkpt>
      <trkpt lat="48.44326" lon="-4.36767">
        <ele>128</ele>
        <time>2011-09-04T08:52:13Z</time>
      </trkpt>
      <trkpt lat="48.44325" lon="-4.3676">
        <ele>129.8</ele>
        <time>2011-09-04T08:52:14Z</time>
      </trkpt>
      <trkpt lat="48.44322" lon="-4.3675">
        <ele>129.4</ele>
        <time>2011-09-04T08:52:15Z</time>
      </trkpt>
      <trkpt lat="48.44321" lon="-4.36741">
        <ele>128.9</ele>
        <time>2011-09-04T08:52:16Z</time>
      </trkpt>
      <trkpt lat="48.44319" lon="-4.36731">
        <ele>128.2</ele>
        <time>2011-09-04T08:52:17Z</time>
      </trkpt>
      <trkpt lat="48.44316" lon="-4.36723">
        <ele>128.3</ele>
        <time>2011-09-04T08:52:18Z</time>
      </trkpt>
      <trkpt lat="48.44314" lon="-4.36712">
        <ele>128.7</ele>
        <time>2011-09-04T08:52:19Z</time>
      </trkpt>
      <trkpt lat="48.44311" lon="-4.36701">
        <ele>128.7</ele>
        <time>2011-09-04T08:52:20Z</time>
      </trkpt>
      <trkpt lat="48.44308" lon="-4.3669">
        <ele>127.6</ele>
        <time>2011-09-04T08:52:21Z</time>
      </trkpt>
      <trkpt lat="48.44305" lon="-4.36677">
        <ele>126.3</ele>
        <time>2011-09-04T08:52:22Z</time>
      </trkpt>
      <trkpt lat="48.44302" lon="-4.36667">
        <ele>125.9</ele>
        <time>2011-09-04T08:52:23Z</time>
      </trkpt>
      <trkpt lat="48.44298" lon="-4.36656">
        <ele>125.7</ele>
        <time>2011-09-04T08:52:24Z</time>
      </trkpt>
      <trkpt lat="48.44294" lon="-4.36645">
        <ele>125.8</ele>
        <time>2011-09-04T08:52:25Z</time>
      </trkpt>
      <trkpt lat="48.4429" lon="-4.36637">
        <ele>125.8</ele>
        <time>2011-09-04T08:52:26Z</time>
      </trkpt>
      <trkpt lat="48.44286" lon="-4.36632">
        <ele>129.5</ele>
        <time>2011-09-04T08:52:27Z</time>
      </trkpt>
      <trkpt lat="48.44282" lon="-4.36627">
        <ele>129.8</ele>
        <time>2011-09-04T08:52:28Z</time>
      </trkpt>
      <trkpt lat="48.44277" lon="-4.36619">
        <ele>129.9</ele>
        <time>2011-09-04T08:52:29Z</time>
      </trkpt>
      <trkpt lat="48.44273" lon="-4.3661">
        <ele>130.2</ele>
        <time>2011-09-04T08:52:30Z</time>
      </trkpt>
      <trkpt lat="48.44268" lon="-4.36602">
        <ele>130.2</ele>
        <time>2011-09-04T08:52:31Z</time>
      </trkpt>
      <trkpt lat="48.44262" lon="-4.366">
        <ele>130</ele>
        <time>2011-09-04T08:52:32Z</time>
      </trkpt>
      <trkpt lat="48.44257" lon="-4.36596">
        <ele>131.4</ele>
        <time>2011-09-04T08:52:33Z</time>
      </trkpt>
      <trkpt lat="48.44249" lon="-4.36593">
        <ele>129.4</ele>
        <time>2011-09-04T08:52:34Z</time>
      </trkpt>
      <trkpt lat="48.44244" lon="-4.36589">
        <ele>129.2</ele>
        <time>2011-09-04T08:52:35Z</time>
      </trkpt>
      <trkpt lat="48.44238" lon="-4.36585">
        <ele>129.3</ele>
        <time>2011-09-04T08:52:36Z</time>
      </trkpt>
      <trkpt lat="48.44232" lon="-4.3658">
        <ele>129.1</ele>
        <time>2011-09-04T08:52:37Z</time>
      </trkpt>
      <trkpt lat="48.44226" lon="-4.36577">
        <ele>129.4</ele>
        <time>2011-09-04T08:52:38Z</time>
      </trkpt>
      <trkpt lat="48.44222" lon="-4.36572">
        <ele>128.2</ele>
        <time>2011-09-04T08:52:39Z</time>
      </trkpt>
      <trkpt lat="48.44216" lon="-4.36569">
        <ele>129.1</ele>
        <time>2011-09-04T08:52:40Z</time>
      </trkpt>
      <trkpt lat="48.44206" lon="-4.36569">
        <ele>130.2</ele>
        <time>2011-09-04T08:52:42Z</time>
      </trkpt>
      <trkpt lat="48.44201" lon="-4.36568">
        <ele>130</ele>
        <time>2011-09-04T08:52:43Z</time>
      </trkpt>
      <trkpt lat="48.44197" lon="-4.36564">
        <ele>130.4</ele>
        <time>2011-09-04T08:52:44Z</time>
      </trkpt>
      <trkpt lat="48.44186" lon="-4.36564">
        <ele>131.2</ele>
        <time>2011-09-04T08:52:46Z</time>
      </trkpt>
      <trkpt lat="48.44177" lon="-4.36562">
        <ele>130</ele>
        <time>2011-09-04T08:52:48Z</time>
      </trkpt>
      <trkpt lat="48.44171" lon="-4.36564">
        <ele>128.8</ele>
        <time>2011-09-04T08:52:50Z</time>
      </trkpt>
      <trkpt lat="48.44171" lon="-4.3658">
        <ele>128</ele>
        <time>2011-09-04T08:52:52Z</time>
      </trkpt>
      <trkpt lat="48.4417" lon="-4.36589">
        <ele>127.2</ele>
        <time>2011-09-04T08:52:53Z</time>
      </trkpt>
      <trkpt lat="48.44169" lon="-4.36597">
        <ele>126.6</ele>
        <time>2011-09-04T08:52:54Z</time>
      </trkpt>
      <trkpt lat="48.44167" lon="-4.36605">
        <ele>126.6</ele>
        <time>2011-09-04T08:52:55Z</time>
      </trkpt>
      <trkpt lat="48.44165" lon="-4.36612">
        <ele>126.7</ele>
        <time>2011-09-04T08:52:56Z</time>
      </trkpt>
      <trkpt lat="48.4416" lon="-4.36615">
        <ele>126.9</ele>
        <time>2011-09-04T08:52:57Z</time>
      </trkpt>
      <trkpt lat="48.44156" lon="-4.3662">
        <ele>127.8</ele>
        <time>2011-09-04T08:52:58Z</time>
      </trkpt>
      <trkpt lat="48.44153" lon="-4.36626">
        <ele>128.2</ele>
        <time>2011-09-04T08:52:59Z</time>
      </trkpt>
      <trkpt lat="48.44148" lon="-4.36634">
        <ele>130.4</ele>
        <time>2011-09-04T08:53:01Z</time>
      </trkpt>
      <trkpt lat="48.44142" lon="-4.36644">
        <ele>130.5</ele>
        <time>2011-09-04T08:53:03Z</time>
      </trkpt>
      <trkpt lat="48.44139" lon="-4.3665">
        <ele>129.7</ele>
        <time>2011-09-04T08:53:04Z</time>
      </trkpt>
      <trkpt lat="48.44139" lon="-4.36659">
        <ele>129.1</ele>
        <time>2011-09-04T08:53:05Z</time>
      </trkpt>
      <trkpt lat="48.44138" lon="-4.36669">
        <ele>128.6</ele>
        <time>2011-09-04T08:53:06Z</time>
      </trkpt>
      <trkpt lat="48.4414" lon="-4.36678">
        <ele>126.6</ele>
        <time>2011-09-04T08:53:07Z</time>
      </trkpt>
      <trkpt lat="48.44142" lon="-4.36685">
        <ele>125.6</ele>
        <time>2011-09-04T08:53:08Z</time>
      </trkpt>
      <trkpt lat="48.44145" lon="-4.36693">
        <ele>125.2</ele>
        <time>2011-09-04T08:53:09Z</time>
      </trkpt>
      <trkpt lat="48.44148" lon="-4.36701">
        <ele>124.4</ele>
        <time>2011-09-04T08:53:10Z</time>
      </trkpt>
      <trkpt lat="48.44151" lon="-4.36706">
        <ele>123.4</ele>
        <time>2011-09-04T08:53:11Z</time>
      </trkpt>
      <trkpt lat="48.44153" lon="-4.36712">
        <ele>123.4</ele>
        <time>2011-09-04T08:53:12Z</time>
      </trkpt>
      <trkpt lat="48.44153" lon="-4.36719">
        <ele>123.5</ele>
        <time>2011-09-04T08:53:13Z</time>
      </trkpt>
      <trkpt lat="48.4415" lon="-4.36726">
        <ele>123.4</ele>
        <time>2011-09-04T08:53:14Z</time>
      </trkpt>
      <trkpt lat="48.44147" lon="-4.36732">
        <ele>123.7</ele>
        <time>2011-09-04T08:53:15Z</time>
      </trkpt>
      <trkpt lat="48.44145" lon="-4.3674">
        <ele>123.8</ele>
        <time>2011-09-04T08:53:16Z</time>
      </trkpt>
      <trkpt lat="48.44143" lon="-4.36748">
        <ele>124.1</ele>
        <time>2011-09-04T08:53:17Z</time>
      </trkpt>
      <trkpt lat="48.44141" lon="-4.36755">
        <ele>124.4</ele>
        <time>2011-09-04T08:53:18Z</time>
      </trkpt>
      <trkpt lat="48.44141" lon="-4.36767">
        <ele>124.9</ele>
        <time>2011-09-04T08:53:20Z</time>
      </trkpt>
      <trkpt lat="48.44143" lon="-4.36774">
        <ele>125.4</ele>
        <time>2011-09-04T08:53:21Z</time>
      </trkpt>
      <trkpt lat="48.44144" lon="-4.36783">
        <ele>124.4</ele>
        <time>2011-09-04T08:53:22Z</time>
      </trkpt>
      <trkpt lat="48.44143" lon="-4.36791">
        <ele>123.6</ele>
        <time>2011-09-04T08:53:23Z</time>
      </trkpt>
      <trkpt lat="48.44146" lon="-4.36801">
        <ele>122.7</ele>
        <time>2011-09-04T08:53:24Z</time>
      </trkpt>
      <trkpt lat="48.44146" lon="-4.36808">
        <ele>124.1</ele>
        <time>2011-09-04T08:53:25Z</time>
      </trkpt>
      <trkpt lat="48.44146" lon="-4.36816">
        <ele>124.6</ele>
        <time>2011-09-04T08:53:26Z</time>
      </trkpt>
      <trkpt lat="48.44147" lon="-4.36824">
        <ele>125</ele>
        <time>2011-09-04T08:53:27Z</time>
      </trkpt>
      <trkpt lat="48.44147" lon="-4.36835">
        <ele>124.3</ele>
        <time>2011-09-04T08:53:28Z</time>
      </trkpt>
      <trkpt lat="48.44148" lon="-4.36843">
        <ele>124.3</ele>
        <time>2011-09-04T08:53:29Z</time>
      </trkpt>
      <trkpt lat="48.44152" lon="-4.36856">
        <ele>124.5</ele>
        <time>2011-09-04T08:53:31Z</time>
      </trkpt>
      <trkpt lat="48.44154" lon="-4.36866">
        <ele>124.9</ele>
        <time>2011-09-04T08:53:32Z</time>
      </trkpt>
      <trkpt lat="48.44155" lon="-4.36874">
        <ele>125</ele>
        <time>2011-09-04T08:53:33Z</time>
      </trkpt>
      <trkpt lat="48.44151" lon="-4.36882">
        <ele>123.3</ele>
        <time>2011-09-04T08:53:34Z</time>
      </trkpt>
      <trkpt lat="48.44149" lon="-4.36889">
        <ele>125.3</ele>
        <time>2011-09-04T08:53:36Z</time>
      </trkpt>
      <trkpt lat="48.44142" lon="-4.36894">
        <ele>127.6</ele>
        <time>2011-09-04T08:53:40Z</time>
      </trkpt>
      <trkpt lat="48.44136" lon="-4.36895">
        <ele>126.8</ele>
        <time>2011-09-04T08:53:46Z</time>
      </trkpt>
      <trkpt lat="48.44132" lon="-4.36892">
        <ele>126.7</ele>
        <time>2011-09-04T08:53:50Z</time>
      </trkpt>
      <trkpt lat="48.44127" lon="-4.36895">
        <ele>130.1</ele>
        <time>2011-09-04T08:53:55Z</time>
      </trkpt>
      <trkpt lat="48.44122" lon="-4.36895">
        <ele>129.7</ele>
        <time>2011-09-04T08:53:57Z</time>
      </trkpt>
      <trkpt lat="48.44116" lon="-4.36895">
        <ele>128.7</ele>
        <time>2011-09-04T08:53:59Z</time>
      </trkpt>
      <trkpt lat="48.44109" lon="-4.36895">
        <ele>129.1</ele>
        <time>2011-09-04T08:54:01Z</time>
      </trkpt>
      <trkpt lat="48.44102" lon="-4.36894">
        <ele>127.9</ele>
        <time>2011-09-04T08:54:03Z</time>
      </trkpt>
      <trkpt lat="48.44095" lon="-4.36892">
        <ele>129.4</ele>
        <time>2011-09-04T08:54:05Z</time>
      </trkpt>
      <trkpt lat="48.44087" lon="-4.36892">
        <ele>130.2</ele>
        <time>2011-09-04T08:54:07Z</time>
      </trkpt>
      <trkpt lat="48.44081" lon="-4.36889">
        <ele>130.6</ele>
        <time>2011-09-04T08:54:09Z</time>
      </trkpt>
      <trkpt lat="48.44075" lon="-4.36888">
        <ele>131</ele>
        <time>2011-09-04T08:54:11Z</time>
      </trkpt>
      <trkpt lat="48.44072" lon="-4.36895">
        <ele>131.4</ele>
        <time>2011-09-04T08:54:13Z</time>
      </trkpt>
      <trkpt lat="48.44069" lon="-4.36901">
        <ele>128.7</ele>
        <time>2011-09-04T08:54:14Z</time>
      </trkpt>
      <trkpt lat="48.44065" lon="-4.36909">
        <ele>129.1</ele>
        <time>2011-09-04T08:54:16Z</time>
      </trkpt>
      <trkpt lat="48.4406" lon="-4.3691">
        <ele>129.3</ele>
        <time>2011-09-04T08:54:18Z</time>
      </trkpt>
      <trkpt lat="48.44055" lon="-4.36907">
        <ele>130.5</ele>
        <time>2011-09-04T08:54:19Z</time>
      </trkpt>
      <trkpt lat="48.44046" lon="-4.36906">
        <ele>137.4</ele>
        <time>2011-09-04T08:54:23Z</time>
      </trkpt>
      <trkpt lat="48.4404" lon="-4.36904">
        <ele>136.8</ele>
        <time>2011-09-04T08:54:24Z</time>
      </trkpt>
      <trkpt lat="48.44033" lon="-4.36902">
        <ele>135.3</ele>
        <time>2011-09-04T08:54:25Z</time>
      </trkpt>
      <trkpt lat="48.44027" lon="-4.369">
        <ele>134.8</ele>
        <time>2011-09-04T08:54:26Z</time>
      </trkpt>
      <trkpt lat="48.44019" lon="-4.36898">
        <ele>133.5</ele>
        <time>2011-09-04T08:54:27Z</time>
      </trkpt>
      <trkpt lat="48.44008" lon="-4.36896">
        <ele>131.7</ele>
        <time>2011-09-04T08:54:29Z</time>
      </trkpt>
      <trkpt lat="48.44009" lon="-4.36884">
        <ele>130</ele>
        <time>2011-09-04T08:54:31Z</time>
      </trkpt>
      <trkpt lat="48.44008" lon="-4.36874">
        <ele>127.6</ele>
        <time>2011-09-04T08:54:33Z</time>
      </trkpt>
      <trkpt lat="48.44006" lon="-4.36867">
        <ele>127.4</ele>
        <time>2011-09-04T08:54:35Z</time>
      </trkpt>
      <trkpt lat="48.44" lon="-4.36865">
        <ele>128.1</ele>
        <time>2011-09-04T08:54:37Z</time>
      </trkpt>
      <trkpt lat="48.43996" lon="-4.36868">
        <ele>128.5</ele>
        <time>2011-09-04T08:54:38Z</time>
      </trkpt>
      <trkpt lat="48.43989" lon="-4.36868">
        <ele>127.6</ele>
        <time>2011-09-04T08:54:39Z</time>
      </trkpt>
      <trkpt lat="48.43976" lon="-4.36863">
        <ele>126.3</ele>
        <time>2011-09-04T08:54:40Z</time>
      </trkpt>
      <trkpt lat="48.43968" lon="-4.36856">
        <ele>127.6</ele>
        <time>2011-09-04T08:54:41Z</time>
      </trkpt>
      <trkpt lat="48.43963" lon="-4.36855">
        <ele>125.9</ele>
        <time>2011-09-04T08:54:42Z</time>
      </trkpt>
      <trkpt lat="48.43956" lon="-4.36853">
        <ele>124.9</ele>
        <time>2011-09-04T08:54:43Z</time>
      </trkpt>
      <trkpt lat="48.4395" lon="-4.36853">
        <ele>125.5</ele>
        <time>2011-09-04T08:54:45Z</time>
      </trkpt>
      <trkpt lat="48.43946" lon="-4.36848">
        <ele>125.1</ele>
        <time>2011-09-04T08:54:47Z</time>
      </trkpt>
      <trkpt lat="48.43942" lon="-4.36841">
        <ele>125.1</ele>
        <time>2011-09-04T08:54:49Z</time>
      </trkpt>
      <trkpt lat="48.43943" lon="-4.36832">
        <ele>125.7</ele>
        <time>2011-09-04T08:54:51Z</time>
      </trkpt>
      <trkpt lat="48.43942" lon="-4.36821">
        <ele>124.3</ele>
        <time>2011-09-04T08:54:53Z</time>
      </trkpt>
      <trkpt lat="48.4394" lon="-4.36812">
        <ele>122.6</ele>
        <time>2011-09-04T08:54:55Z</time>
      </trkpt>
      <trkpt lat="48.43942" lon="-4.36802">
        <ele>122.1</ele>
        <time>2011-09-04T08:54:57Z</time>
      </trkpt>
      <trkpt lat="48.43943" lon="-4.3679">
        <ele>122.1</ele>
        <time>2011-09-04T08:54:59Z</time>
      </trkpt>
      <trkpt lat="48.43945" lon="-4.3678">
        <ele>122.3</ele>
        <time>2011-09-04T08:55:01Z</time>
      </trkpt>
      <trkpt lat="48.43946" lon="-4.3677">
        <ele>122.5</ele>
        <time>2011-09-04T08:55:03Z</time>
      </trkpt>
      <trkpt lat="48.43948" lon="-4.36763">
        <ele>125</ele>
        <time>2011-09-04T08:55:05Z</time>
      </trkpt>
      <trkpt lat="48.4395" lon="-4.36751">
        <ele>126.4</ele>
        <time>2011-09-04T08:55:08Z</time>
      </trkpt>
      <trkpt lat="48.4395" lon="-4.36743">
        <ele>126</ele>
        <time>2011-09-04T08:55:09Z</time>
      </trkpt>
      <trkpt lat="48.43951" lon="-4.36732">
        <ele>126.8</ele>
        <time>2011-09-04T08:55:11Z</time>
      </trkpt>
      <trkpt lat="48.43953" lon="-4.36722">
        <ele>127.7</ele>
        <time>2011-09-04T08:55:13Z</time>
      </trkpt>
      <trkpt lat="48.43956" lon="-4.3671">
        <ele>127.3</ele>
        <time>2011-09-04T08:55:15Z</time>
      </trkpt>
      <trkpt lat="48.43958" lon="-4.36701">
        <ele>126.5</ele>
        <time>2011-09-04T08:55:17Z</time>
      </trkpt>
      <trkpt lat="48.43958" lon="-4.36689">
        <ele>124.5</ele>
        <time>2011-09-04T08:55:19Z</time>
      </trkpt>
      <trkpt lat="48.4396" lon="-4.36678">
        <ele>124.2</ele>
        <time>2011-09-04T08:55:21Z</time>
      </trkpt>
      <trkpt lat="48.4396" lon="-4.36669">
        <ele>123.4</ele>
        <time>2011-09-04T08:55:23Z</time>
      </trkpt>
      <trkpt lat="48.43958" lon="-4.36658">
        <ele>124.9</ele>
        <time>2011-09-04T08:55:25Z</time>
      </trkpt>
      <trkpt lat="48.43956" lon="-4.36648">
        <ele>124.9</ele>
        <time>2011-09-04T08:55:26Z</time>
      </trkpt>
      <trkpt lat="48.43957" lon="-4.36636">
        <ele>123.7</ele>
        <time>2011-09-04T08:55:28Z</time>
      </trkpt>
      <trkpt lat="48.43958" lon="-4.36628">
        <ele>123.4</ele>
        <time>2011-09-04T08:55:29Z</time>
      </trkpt>
      <trkpt lat="48.43956" lon="-4.36617">
        <ele>122.6</ele>
        <time>2011-09-04T08:55:31Z</time>
      </trkpt>
      <trkpt lat="48.43957" lon="-4.36605">
        <ele>123</ele>
        <time>2011-09-04T08:55:33Z</time>
      </trkpt>
      <trkpt lat="48.43957" lon="-4.36598">
        <ele>122.9</ele>
        <time>2011-09-04T08:55:34Z</time>
      </trkpt>
      <trkpt lat="48.43958" lon="-4.36586">
        <ele>123.1</ele>
        <time>2011-09-04T08:55:36Z</time>
      </trkpt>
      <trkpt lat="48.43959" lon="-4.36573">
        <ele>123.7</ele>
        <time>2011-09-04T08:55:38Z</time>
      </trkpt>
      <trkpt lat="48.4396" lon="-4.36562">
        <ele>124.4</ele>
        <time>2011-09-04T08:55:40Z</time>
      </trkpt>
      <trkpt lat="48.4396" lon="-4.36555">
        <ele>124.6</ele>
        <time>2011-09-04T08:55:41Z</time>
      </trkpt>
      <trkpt lat="48.43962" lon="-4.36546">
        <ele>124</ele>
        <time>2011-09-04T08:55:42Z</time>
      </trkpt>
      <trkpt lat="48.43964" lon="-4.36539">
        <ele>123.9</ele>
        <time>2011-09-04T08:55:43Z</time>
      </trkpt>
      <trkpt lat="48.43962" lon="-4.36526">
        <ele>125.2</ele>
        <time>2011-09-04T08:55:45Z</time>
      </trkpt>
      <trkpt lat="48.43963" lon="-4.36514">
        <ele>126.3</ele>
        <time>2011-09-04T08:55:47Z</time>
      </trkpt>
      <trkpt lat="48.43963" lon="-4.36502">
        <ele>124.9</ele>
        <time>2011-09-04T08:55:49Z</time>
      </trkpt>
      <trkpt lat="48.43967" lon="-4.36489">
        <ele>122.1</ele>
        <time>2011-09-04T08:55:51Z</time>
      </trkpt>
      <trkpt lat="48.43969" lon="-4.36478">
        <ele>121.2</ele>
        <time>2011-09-04T08:55:53Z</time>
      </trkpt>
      <trkpt lat="48.4397" lon="-4.36471">
        <ele>121.3</ele>
        <time>2011-09-04T08:55:54Z</time>
      </trkpt>
      <trkpt lat="48.43972" lon="-4.36459">
        <ele>121.2</ele>
        <time>2011-09-04T08:55:56Z</time>
      </trkpt>
      <trkpt lat="48.43972" lon="-4.36451">
        <ele>120.5</ele>
        <time>2011-09-04T08:55:57Z</time>
      </trkpt>
      <trkpt lat="48.43973" lon="-4.3644">
        <ele>119.9</ele>
        <time>2011-09-04T08:55:59Z</time>
      </trkpt>
      <trkpt lat="48.43973" lon="-4.36427">
        <ele>119.9</ele>
        <time>2011-09-04T08:56:01Z</time>
      </trkpt>
      <trkpt lat="48.43973" lon="-4.36418">
        <ele>121.6</ele>
        <time>2011-09-04T08:56:03Z</time>
      </trkpt>
      <trkpt lat="48.43973" lon="-4.36407">
        <ele>121</ele>
        <time>2011-09-04T08:56:05Z</time>
      </trkpt>
      <trkpt lat="48.43971" lon="-4.36396">
        <ele>119.7</ele>
        <time>2011-09-04T08:56:07Z</time>
      </trkpt>
      <trkpt lat="48.4397" lon="-4.36386">
        <ele>120.3</ele>
        <time>2011-09-04T08:56:09Z</time>
      </trkpt>
      <trkpt lat="48.43967" lon="-4.36376">
        <ele>120.4</ele>
        <time>2011-09-04T08:56:11Z</time>
      </trkpt>
      <trkpt lat="48.43961" lon="-4.3637">
        <ele>120.1</ele>
        <time>2011-09-04T08:56:13Z</time>
      </trkpt>
      <trkpt lat="48.43955" lon="-4.36366">
        <ele>119.9</ele>
        <time>2011-09-04T08:56:15Z</time>
      </trkpt>
      <trkpt lat="48.43949" lon="-4.36362">
        <ele>119</ele>
        <time>2011-09-04T08:56:17Z</time>
      </trkpt>
      <trkpt lat="48.43942" lon="-4.36356">
        <ele>119.7</ele>
        <time>2011-09-04T08:56:19Z</time>
      </trkpt>
      <trkpt lat="48.43936" lon="-4.3635">
        <ele>119.2</ele>
        <time>2011-09-04T08:56:21Z</time>
      </trkpt>
      <trkpt lat="48.43932" lon="-4.36347">
        <ele>119.6</ele>
        <time>2011-09-04T08:56:22Z</time>
      </trkpt>
      <trkpt lat="48.43924" lon="-4.36341">
        <ele>120.5</ele>
        <time>2011-09-04T08:56:24Z</time>
      </trkpt>
      <trkpt lat="48.43918" lon="-4.36336">
        <ele>120</ele>
        <time>2011-09-04T08:56:26Z</time>
      </trkpt>
      <trkpt lat="48.43912" lon="-4.36331">
        <ele>120.4</ele>
        <time>2011-09-04T08:56:28Z</time>
      </trkpt>
      <trkpt lat="48.43902" lon="-4.36326">
        <ele>123.6</ele>
        <time>2011-09-04T08:56:30Z</time>
      </trkpt>
      <trkpt lat="48.43898" lon="-4.36322">
        <ele>123.7</ele>
        <time>2011-09-04T08:56:31Z</time>
      </trkpt>
      <trkpt lat="48.4389" lon="-4.3632">
        <ele>124.7</ele>
        <time>2011-09-04T08:56:33Z</time>
      </trkpt>
      <trkpt lat="48.43882" lon="-4.36317">
        <ele>125.4</ele>
        <time>2011-09-04T08:56:35Z</time>
      </trkpt>
      <trkpt lat="48.43877" lon="-4.36314">
        <ele>122.9</ele>
        <time>2011-09-04T08:56:36Z</time>
      </trkpt>
      <trkpt lat="48.43871" lon="-4.3631">
        <ele>121.9</ele>
        <time>2011-09-04T08:56:38Z</time>
      </trkpt>
      <trkpt lat="48.43866" lon="-4.36308">
        <ele>121.7</ele>
        <time>2011-09-04T08:56:40Z</time>
      </trkpt>
      <trkpt lat="48.43859" lon="-4.36305">
        <ele>122</ele>
        <time>2011-09-04T08:56:42Z</time>
      </trkpt>
      <trkpt lat="48.43852" lon="-4.363">
        <ele>119.4</ele>
        <time>2011-09-04T08:56:44Z</time>
      </trkpt>
      <trkpt lat="48.43846" lon="-4.36296">
        <ele>118.9</ele>
        <time>2011-09-04T08:56:46Z</time>
      </trkpt>
      <trkpt lat="48.43839" lon="-4.36292">
        <ele>119.7</ele>
        <time>2011-09-04T08:56:48Z</time>
      </trkpt>
      <trkpt lat="48.43833" lon="-4.36288">
        <ele>121.6</ele>
        <time>2011-09-04T08:56:50Z</time>
      </trkpt>
      <trkpt lat="48.43828" lon="-4.36288">
        <ele>128.3</ele>
        <time>2011-09-04T08:56:54Z</time>
      </trkpt>
      <trkpt lat="48.43822" lon="-4.36284">
        <ele>128.7</ele>
        <time>2011-09-04T08:56:56Z</time>
      </trkpt>
      <trkpt lat="48.43816" lon="-4.36275">
        <ele>128.7</ele>
        <time>2011-09-04T08:56:58Z</time>
      </trkpt>
      <trkpt lat="48.43811" lon="-4.3627">
        <ele>128.9</ele>
        <time>2011-09-04T08:57:00Z</time>
      </trkpt>
      <trkpt lat="48.43807" lon="-4.36266">
        <ele>128.9</ele>
        <time>2011-09-04T08:57:01Z</time>
      </trkpt>
      <trkpt lat="48.438" lon="-4.36261">
        <ele>129.5</ele>
        <time>2011-09-04T08:57:03Z</time>
      </trkpt>
      <trkpt lat="48.43794" lon="-4.3626">
        <ele>141.9</ele>
        <time>2011-09-04T08:57:07Z</time>
      </trkpt>
      <trkpt lat="48.43788" lon="-4.36258">
        <ele>143.9</ele>
        <time>2011-09-04T08:57:09Z</time>
      </trkpt>
      <trkpt lat="48.43785" lon="-4.36252">
        <ele>142.5</ele>
        <time>2011-09-04T08:57:11Z</time>
      </trkpt>
      <trkpt lat="48.4378" lon="-4.36244">
        <ele>145.1</ele>
        <time>2011-09-04T08:57:14Z</time>
      </trkpt>
      <trkpt lat="48.43776" lon="-4.36238">
        <ele>144</ele>
        <time>2011-09-04T08:57:16Z</time>
      </trkpt>
      <trkpt lat="48.43771" lon="-4.36233">
        <ele>144.9</ele>
        <time>2011-09-04T08:57:20Z</time>
      </trkpt>
      <trkpt lat="48.4377" lon="-4.36226">
        <ele>148.8</ele>
        <time>2011-09-04T08:57:31Z</time>
      </trkpt>
      <trkpt lat="48.4377" lon="-4.36226">
        <ele>148.8</ele>
        <time>2011-09-04T08:57:31Z</time>
      </trkpt>
      <trkpt lat="48.4377" lon="-4.36226">
        <ele>148.8</ele>
        <time>2011-09-04T08:57:32Z</time>
      </trkpt>
      <trkpt lat="48.43765" lon="-4.36225">
        <ele>146.2</ele>
        <time>2011-09-04T08:58:19Z</time>
      </trkpt>
      <trkpt lat="48.4376" lon="-4.36222">
        <ele>144.6</ele>
        <time>2011-09-04T08:58:21Z</time>
      </trkpt>
      <trkpt lat="48.43756" lon="-4.36216">
        <ele>146.5</ele>
        <time>2011-09-04T08:58:24Z</time>
      </trkpt>
      <trkpt lat="48.43749" lon="-4.3621">
        <ele>147.4</ele>
        <time>2011-09-04T08:58:27Z</time>
      </trkpt>
      <trkpt lat="48.43745" lon="-4.36207">
        <ele>145.7</ele>
        <time>2011-09-04T08:58:28Z</time>
      </trkpt>
      <trkpt lat="48.43738" lon="-4.36203">
        <ele>143.4</ele>
        <time>2011-09-04T08:58:30Z</time>
      </trkpt>
      <trkpt lat="48.43744" lon="-4.36207">
        <ele>145.3</ele>
        <time>2011-09-04T08:58:31Z</time>
      </trkpt>
      <trkpt lat="48.4374" lon="-4.36203">
        <ele>144.8</ele>
        <time>2011-09-04T08:58:33Z</time>
      </trkpt>
      <trkpt lat="48.43735" lon="-4.36198">
        <ele>143.4</ele>
        <time>2011-09-04T08:58:35Z</time>
      </trkpt>
      <trkpt lat="48.43729" lon="-4.36194">
        <ele>142.3</ele>
        <time>2011-09-04T08:58:37Z</time>
      </trkpt>
      <trkpt lat="48.43722" lon="-4.36191">
        <ele>142.4</ele>
        <time>2011-09-04T08:58:39Z</time>
      </trkpt>
      <trkpt lat="48.43718" lon="-4.36185">
        <ele>144.5</ele>
        <time>2011-09-04T08:58:42Z</time>
      </trkpt>
      <trkpt lat="48.43713" lon="-4.3618">
        <ele>146</ele>
        <time>2011-09-04T08:58:44Z</time>
      </trkpt>
      <trkpt lat="48.43707" lon="-4.36177">
        <ele>146</ele>
        <time>2011-09-04T08:58:46Z</time>
      </trkpt>
      <trkpt lat="48.43702" lon="-4.36172">
        <ele>144.3</ele>
        <time>2011-09-04T08:58:48Z</time>
      </trkpt>
      <trkpt lat="48.43697" lon="-4.36168">
        <ele>145.5</ele>
        <time>2011-09-04T08:58:50Z</time>
      </trkpt>
      <trkpt lat="48.43692" lon="-4.36163">
        <ele>147.4</ele>
        <time>2011-09-04T08:58:52Z</time>
      </trkpt>
      <trkpt lat="48.43685" lon="-4.36159">
        <ele>147.9</ele>
        <time>2011-09-04T08:58:54Z</time>
      </trkpt>
      <trkpt lat="48.43679" lon="-4.36157">
        <ele>149.5</ele>
        <time>2011-09-04T08:58:56Z</time>
      </trkpt>
      <trkpt lat="48.43676" lon="-4.36152">
        <ele>149.7</ele>
        <time>2011-09-04T08:58:58Z</time>
      </trkpt>
      <trkpt lat="48.43669" lon="-4.36147">
        <ele>148.8</ele>
        <time>2011-09-04T08:59:00Z</time>
      </trkpt>
      <trkpt lat="48.43663" lon="-4.36143">
        <ele>148.7</ele>
        <time>2011-09-04T08:59:02Z</time>
      </trkpt>
      <trkpt lat="48.43658" lon="-4.3614">
        <ele>147.8</ele>
        <time>2011-09-04T08:59:04Z</time>
      </trkpt>
      <trkpt lat="48.43651" lon="-4.36136">
        <ele>146.9</ele>
        <time>2011-09-04T08:59:07Z</time>
      </trkpt>
      <trkpt lat="48.43646" lon="-4.3613">
        <ele>146.6</ele>
        <time>2011-09-04T08:59:09Z</time>
      </trkpt>
      <trkpt lat="48.4364" lon="-4.36126">
        <ele>148.9</ele>
        <time>2011-09-04T08:59:11Z</time>
      </trkpt>
      <trkpt lat="48.43634" lon="-4.3612">
        <ele>148.5</ele>
        <time>2011-09-04T08:59:13Z</time>
      </trkpt>
      <trkpt lat="48.43627" lon="-4.36111">
        <ele>149.6</ele>
        <time>2011-09-04T08:59:15Z</time>
      </trkpt>
      <trkpt lat="48.4362" lon="-4.36103">
        <ele>148.1</ele>
        <time>2011-09-04T08:59:17Z</time>
      </trkpt>
      <trkpt lat="48.43613" lon="-4.36096">
        <ele>146</ele>
        <time>2011-09-04T08:59:19Z</time>
      </trkpt>
      <trkpt lat="48.43609" lon="-4.36092">
        <ele>144</ele>
        <time>2011-09-04T08:59:20Z</time>
      </trkpt>
      <trkpt lat="48.43602" lon="-4.36095">
        <ele>138</ele>
        <time>2011-09-04T08:59:22Z</time>
      </trkpt>
      <trkpt lat="48.43596" lon="-4.36096">
        <ele>135</ele>
        <time>2011-09-04T08:59:24Z</time>
      </trkpt>
      <trkpt lat="48.43592" lon="-4.361">
        <ele>135.2</ele>
        <time>2011-09-04T08:59:25Z</time>
      </trkpt>
      <trkpt lat="48.43577" lon="-4.36101">
        <ele>133.5</ele>
        <time>2011-09-04T08:59:27Z</time>
      </trkpt>
      <trkpt lat="48.43568" lon="-4.361">
        <ele>132.3</ele>
        <time>2011-09-04T08:59:28Z</time>
      </trkpt>
      <trkpt lat="48.4356" lon="-4.36098">
        <ele>131.9</ele>
        <time>2011-09-04T08:59:29Z</time>
      </trkpt>
      <trkpt lat="48.43554" lon="-4.36099">
        <ele>131.4</ele>
        <time>2011-09-04T08:59:30Z</time>
      </trkpt>
      <trkpt lat="48.43547" lon="-4.36099">
        <ele>131.1</ele>
        <time>2011-09-04T08:59:31Z</time>
      </trkpt>
      <trkpt lat="48.4354" lon="-4.36096">
        <ele>130.3</ele>
        <time>2011-09-04T08:59:32Z</time>
      </trkpt>
      <trkpt lat="48.43531" lon="-4.36097">
        <ele>133.2</ele>
        <time>2011-09-04T08:59:34Z</time>
      </trkpt>
      <trkpt lat="48.43525" lon="-4.36097">
        <ele>133</ele>
        <time>2011-09-04T08:59:35Z</time>
      </trkpt>
      <trkpt lat="48.4352" lon="-4.36094">
        <ele>132.8</ele>
        <time>2011-09-04T08:59:36Z</time>
      </trkpt>
      <trkpt lat="48.43518" lon="-4.36084">
        <ele>132.3</ele>
        <time>2011-09-04T08:59:37Z</time>
      </trkpt>
      <trkpt lat="48.43513" lon="-4.36077">
        <ele>133.7</ele>
        <time>2011-09-04T08:59:38Z</time>
      </trkpt>
      <trkpt lat="48.43509" lon="-4.36069">
        <ele>133.5</ele>
        <time>2011-09-04T08:59:39Z</time>
      </trkpt>
      <trkpt lat="48.43506" lon="-4.36062">
        <ele>133.6</ele>
        <time>2011-09-04T08:59:40Z</time>
      </trkpt>
      <trkpt lat="48.43502" lon="-4.36055">
        <ele>133.4</ele>
        <time>2011-09-04T08:59:41Z</time>
      </trkpt>
      <trkpt lat="48.43498" lon="-4.3605">
        <ele>133.4</ele>
        <time>2011-09-04T08:59:42Z</time>
      </trkpt>
      <trkpt lat="48.43491" lon="-4.36041">
        <ele>133.2</ele>
        <time>2011-09-04T08:59:44Z</time>
      </trkpt>
      <trkpt lat="48.43486" lon="-4.36033">
        <ele>133.2</ele>
        <time>2011-09-04T08:59:46Z</time>
      </trkpt>
      <trkpt lat="48.43479" lon="-4.36025">
        <ele>133.2</ele>
        <time>2011-09-04T08:59:48Z</time>
      </trkpt>
      <trkpt lat="48.43474" lon="-4.36012">
        <ele>129.9</ele>
        <time>2011-09-04T08:59:50Z</time>
      </trkpt>
      <trkpt lat="48.43473" lon="-4.36004">
        <ele>130.5</ele>
        <time>2011-09-04T08:59:52Z</time>
      </trkpt>
      <trkpt lat="48.43473" lon="-4.35996">
        <ele>131.3</ele>
        <time>2011-09-04T08:59:53Z</time>
      </trkpt>
      <trkpt lat="48.43473" lon="-4.35986">
        <ele>131.2</ele>
        <time>2011-09-04T08:59:55Z</time>
      </trkpt>
      <trkpt lat="48.43477" lon="-4.3598">
        <ele>130.8</ele>
        <time>2011-09-04T08:59:56Z</time>
      </trkpt>
      <trkpt lat="48.43478" lon="-4.35973">
        <ele>131.4</ele>
        <time>2011-09-04T08:59:57Z</time>
      </trkpt>
      <trkpt lat="48.43477" lon="-4.35962">
        <ele>131.2</ele>
        <time>2011-09-04T08:59:59Z</time>
      </trkpt>
      <trkpt lat="48.43477" lon="-4.35955">
        <ele>130.7</ele>
        <time>2011-09-04T09:00:00Z</time>
      </trkpt>
      <trkpt lat="48.43478" lon="-4.35943">
        <ele>130.9</ele>
        <time>2011-09-04T09:00:02Z</time>
      </trkpt>
      <trkpt lat="48.43476" lon="-4.35935">
        <ele>131.5</ele>
        <time>2011-09-04T09:00:04Z</time>
      </trkpt>
      <trkpt lat="48.43472" lon="-4.35929">
        <ele>131.3</ele>
        <time>2011-09-04T09:00:06Z</time>
      </trkpt>
      <trkpt lat="48.43467" lon="-4.35929">
        <ele>132.2</ele>
        <time>2011-09-04T09:00:08Z</time>
      </trkpt>
      <trkpt lat="48.43461" lon="-4.35932">
        <ele>132.5</ele>
        <time>2011-09-04T09:00:10Z</time>
      </trkpt>
      <trkpt lat="48.43455" lon="-4.35934">
        <ele>132.1</ele>
        <time>2011-09-04T09:00:12Z</time>
      </trkpt>
      <trkpt lat="48.43449" lon="-4.35935">
        <ele>132.2</ele>
        <time>2011-09-04T09:00:14Z</time>
      </trkpt>
      <trkpt lat="48.43443" lon="-4.35934">
        <ele>132</ele>
        <time>2011-09-04T09:00:16Z</time>
      </trkpt>
      <trkpt lat="48.43436" lon="-4.35932">
        <ele>132.5</ele>
        <time>2011-09-04T09:00:18Z</time>
      </trkpt>
      <trkpt lat="48.43428" lon="-4.35932">
        <ele>132.9</ele>
        <time>2011-09-04T09:00:20Z</time>
      </trkpt>
      <trkpt lat="48.43421" lon="-4.35932">
        <ele>132.9</ele>
        <time>2011-09-04T09:00:22Z</time>
      </trkpt>
      <trkpt lat="48.43413" lon="-4.35932">
        <ele>133.3</ele>
        <time>2011-09-04T09:00:24Z</time>
      </trkpt>
      <trkpt lat="48.43405" lon="-4.35933">
        <ele>132.6</ele>
        <time>2011-09-04T09:00:26Z</time>
      </trkpt>
      <trkpt lat="48.43397" lon="-4.35932">
        <ele>132.2</ele>
        <time>2011-09-04T09:00:28Z</time>
      </trkpt>
      <trkpt lat="48.43389" lon="-4.35932">
        <ele>132.4</ele>
        <time>2011-09-04T09:00:30Z</time>
      </trkpt>
      <trkpt lat="48.43384" lon="-4.35932">
        <ele>132.4</ele>
        <time>2011-09-04T09:00:31Z</time>
      </trkpt>
      <trkpt lat="48.4338" lon="-4.35932">
        <ele>132.1</ele>
        <time>2011-09-04T09:00:32Z</time>
      </trkpt>
      <trkpt lat="48.43372" lon="-4.35932">
        <ele>133</ele>
        <time>2011-09-04T09:00:34Z</time>
      </trkpt>
      <trkpt lat="48.43364" lon="-4.35932">
        <ele>133.2</ele>
        <time>2011-09-04T09:00:36Z</time>
      </trkpt>
      <trkpt lat="48.43359" lon="-4.35932">
        <ele>133.1</ele>
        <time>2011-09-04T09:00:37Z</time>
      </trkpt>
      <trkpt lat="48.43351" lon="-4.35932">
        <ele>133.4</ele>
        <time>2011-09-04T09:00:39Z</time>
      </trkpt>
      <trkpt lat="48.43342" lon="-4.35931">
        <ele>133.2</ele>
        <time>2011-09-04T09:00:41Z</time>
      </trkpt>
      <trkpt lat="48.43334" lon="-4.35931">
        <ele>133</ele>
        <time>2011-09-04T09:00:43Z</time>
      </trkpt>
      <trkpt lat="48.43325" lon="-4.35928">
        <ele>132.6</ele>
        <time>2011-09-04T09:00:45Z</time>
      </trkpt>
      <trkpt lat="48.43317" lon="-4.35925">
        <ele>132.5</ele>
        <time>2011-09-04T09:00:47Z</time>
      </trkpt>
      <trkpt lat="48.43308" lon="-4.35924">
        <ele>131</ele>
        <time>2011-09-04T09:00:49Z</time>
      </trkpt>
      <trkpt lat="48.433" lon="-4.35923">
        <ele>132.1</ele>
        <time>2011-09-04T09:00:51Z</time>
      </trkpt>
      <trkpt lat="48.43291" lon="-4.35923">
        <ele>130.8</ele>
        <time>2011-09-04T09:00:53Z</time>
      </trkpt>
      <trkpt lat="48.43286" lon="-4.35922">
        <ele>131.2</ele>
        <time>2011-09-04T09:00:54Z</time>
      </trkpt>
      <trkpt lat="48.43278" lon="-4.35919">
        <ele>131.4</ele>
        <time>2011-09-04T09:00:56Z</time>
      </trkpt>
      <trkpt lat="48.4327" lon="-4.35916">
        <ele>131.7</ele>
        <time>2011-09-04T09:00:58Z</time>
      </trkpt>
      <trkpt lat="48.43262" lon="-4.35913">
        <ele>132.2</ele>
        <time>2011-09-04T09:01:00Z</time>
      </trkpt>
      <trkpt lat="48.43255" lon="-4.35911">
        <ele>131.4</ele>
        <time>2011-09-04T09:01:02Z</time>
      </trkpt>
      <trkpt lat="48.43254" lon="-4.3592">
        <ele>136.5</ele>
        <time>2011-09-04T09:01:04Z</time>
      </trkpt>
      <trkpt lat="48.43252" lon="-4.35929">
        <ele>138.1</ele>
        <time>2011-09-04T09:01:06Z</time>
      </trkpt>
      <trkpt lat="48.43252" lon="-4.35938">
        <ele>140.1</ele>
        <time>2011-09-04T09:01:08Z</time>
      </trkpt>
      <trkpt lat="48.43249" lon="-4.35946">
        <ele>140.8</ele>
        <time>2011-09-04T09:01:10Z</time>
      </trkpt>
      <trkpt lat="48.43244" lon="-4.35954">
        <ele>140.5</ele>
        <time>2011-09-04T09:01:13Z</time>
      </trkpt>
      <trkpt lat="48.43239" lon="-4.35964">
        <ele>139.9</ele>
        <time>2011-09-04T09:01:15Z</time>
      </trkpt>
      <trkpt lat="48.43233" lon="-4.35969">
        <ele>139.2</ele>
        <time>2011-09-04T09:01:17Z</time>
      </trkpt>
      <trkpt lat="48.4323" lon="-4.35975">
        <ele>140.1</ele>
        <time>2011-09-04T09:01:18Z</time>
      </trkpt>
      <trkpt lat="48.43224" lon="-4.35984">
        <ele>141</ele>
        <time>2011-09-04T09:01:19Z</time>
      </trkpt>
      <trkpt lat="48.43223" lon="-4.35997">
        <ele>140.9</ele>
        <time>2011-09-04T09:01:21Z</time>
      </trkpt>
      <trkpt lat="48.43223" lon="-4.36004">
        <ele>141.6</ele>
        <time>2011-09-04T09:01:22Z</time>
      </trkpt>
      <trkpt lat="48.43216" lon="-4.36011">
        <ele>142.8</ele>
        <time>2011-09-04T09:01:24Z</time>
      </trkpt>
      <trkpt lat="48.43213" lon="-4.36019">
        <ele>142.6</ele>
        <time>2011-09-04T09:01:26Z</time>
      </trkpt>
      <trkpt lat="48.4321" lon="-4.36032">
        <ele>142.6</ele>
        <time>2011-09-04T09:01:28Z</time>
      </trkpt>
      <trkpt lat="48.43208" lon="-4.36038">
        <ele>141.7</ele>
        <time>2011-09-04T09:01:29Z</time>
      </trkpt>
      <trkpt lat="48.43205" lon="-4.36044">
        <ele>142.2</ele>
        <time>2011-09-04T09:01:30Z</time>
      </trkpt>
      <trkpt lat="48.43203" lon="-4.36053">
        <ele>141.8</ele>
        <time>2011-09-04T09:01:32Z</time>
      </trkpt>
      <trkpt lat="48.43198" lon="-4.36057">
        <ele>141.5</ele>
        <time>2011-09-04T09:01:33Z</time>
      </trkpt>
      <trkpt lat="48.43195" lon="-4.36067">
        <ele>141.2</ele>
        <time>2011-09-04T09:01:35Z</time>
      </trkpt>
      <trkpt lat="48.4319" lon="-4.3608">
        <ele>141.1</ele>
        <time>2011-09-04T09:01:37Z</time>
      </trkpt>
      <trkpt lat="48.43185" lon="-4.36086">
        <ele>139.8</ele>
        <time>2011-09-04T09:01:38Z</time>
      </trkpt>
      <trkpt lat="48.43177" lon="-4.361">
        <ele>144.6</ele>
        <time>2011-09-04T09:01:40Z</time>
      </trkpt>
      <trkpt lat="48.43172" lon="-4.3611">
        <ele>145.7</ele>
        <time>2011-09-04T09:01:42Z</time>
      </trkpt>
      <trkpt lat="48.43165" lon="-4.36115">
        <ele>144.3</ele>
        <time>2011-09-04T09:01:44Z</time>
      </trkpt>
      <trkpt lat="48.43159" lon="-4.36115">
        <ele>146</ele>
        <time>2011-09-04T09:01:45Z</time>
      </trkpt>
      <trkpt lat="48.43155" lon="-4.36118">
        <ele>146.2</ele>
        <time>2011-09-04T09:01:46Z</time>
      </trkpt>
      <trkpt lat="48.43149" lon="-4.36123">
        <ele>145.7</ele>
        <time>2011-09-04T09:01:48Z</time>
      </trkpt>
      <trkpt lat="48.43144" lon="-4.36126">
        <ele>146.1</ele>
        <time>2011-09-04T09:01:49Z</time>
      </trkpt>
      <trkpt lat="48.43137" lon="-4.36129">
        <ele>147.5</ele>
        <time>2011-09-04T09:01:51Z</time>
      </trkpt>
      <trkpt lat="48.43134" lon="-4.36137">
        <ele>146.5</ele>
        <time>2011-09-04T09:01:53Z</time>
      </trkpt>
      <trkpt lat="48.43131" lon="-4.36143">
        <ele>146</ele>
        <time>2011-09-04T09:01:55Z</time>
      </trkpt>
      <trkpt lat="48.43123" lon="-4.36155">
        <ele>145.1</ele>
        <time>2011-09-04T09:01:57Z</time>
      </trkpt>
      <trkpt lat="48.43118" lon="-4.36163">
        <ele>144.4</ele>
        <time>2011-09-04T09:01:59Z</time>
      </trkpt>
      <trkpt lat="48.43111" lon="-4.36172">
        <ele>144.1</ele>
        <time>2011-09-04T09:02:00Z</time>
      </trkpt>
      <trkpt lat="48.43106" lon="-4.36181">
        <ele>144.5</ele>
        <time>2011-09-04T09:02:02Z</time>
      </trkpt>
      <trkpt lat="48.43104" lon="-4.36191">
        <ele>144.7</ele>
        <time>2011-09-04T09:02:04Z</time>
      </trkpt>
      <trkpt lat="48.431" lon="-4.36197">
        <ele>144.5</ele>
        <time>2011-09-04T09:02:06Z</time>
      </trkpt>
      <trkpt lat="48.43098" lon="-4.36206">
        <ele>144.2</ele>
        <time>2011-09-04T09:02:07Z</time>
      </trkpt>
      <trkpt lat="48.43094" lon="-4.36215">
        <ele>140.5</ele>
        <time>2011-09-04T09:02:09Z</time>
      </trkpt>
      <trkpt lat="48.43086" lon="-4.36224">
        <ele>140.8</ele>
        <time>2011-09-04T09:02:11Z</time>
      </trkpt>
      <trkpt lat="48.43084" lon="-4.36232">
        <ele>143.3</ele>
        <time>2011-09-04T09:02:13Z</time>
      </trkpt>
      <trkpt lat="48.43082" lon="-4.36239">
        <ele>145.9</ele>
        <time>2011-09-04T09:02:15Z</time>
      </trkpt>
      <trkpt lat="48.43079" lon="-4.36245">
        <ele>146.6</ele>
        <time>2011-09-04T09:02:17Z</time>
      </trkpt>
      <trkpt lat="48.43075" lon="-4.36253">
        <ele>147</ele>
        <time>2011-09-04T09:02:19Z</time>
      </trkpt>
      <trkpt lat="48.43069" lon="-4.3626">
        <ele>147.8</ele>
        <time>2011-09-04T09:02:21Z</time>
      </trkpt>
      <trkpt lat="48.43063" lon="-4.36267">
        <ele>146.8</ele>
        <time>2011-09-04T09:02:23Z</time>
      </trkpt>
      <trkpt lat="48.43057" lon="-4.36273">
        <ele>142.4</ele>
        <time>2011-09-04T09:02:25Z</time>
      </trkpt>
      <trkpt lat="48.43052" lon="-4.3628">
        <ele>142</ele>
        <time>2011-09-04T09:02:27Z</time>
      </trkpt>
      <trkpt lat="48.43048" lon="-4.36289">
        <ele>141.2</ele>
        <time>2011-09-04T09:02:29Z</time>
      </trkpt>
      <trkpt lat="48.43045" lon="-4.36297">
        <ele>142</ele>
        <time>2011-09-04T09:02:31Z</time>
      </trkpt>
      <trkpt lat="48.43042" lon="-4.36307">
        <ele>142.4</ele>
        <time>2011-09-04T09:02:33Z</time>
      </trkpt>
      <trkpt lat="48.43038" lon="-4.36315">
        <ele>142.7</ele>
        <time>2011-09-04T09:02:35Z</time>
      </trkpt>
      <trkpt lat="48.43034" lon="-4.36327">
        <ele>142.8</ele>
        <time>2011-09-04T09:02:37Z</time>
      </trkpt>
      <trkpt lat="48.4303" lon="-4.3634">
        <ele>142.3</ele>
        <time>2011-09-04T09:02:39Z</time>
      </trkpt>
      <trkpt lat="48.4302" lon="-4.36361">
        <ele>143.1</ele>
        <time>2011-09-04T09:02:41Z</time>
      </trkpt>
      <trkpt lat="48.43015" lon="-4.36372">
        <ele>142.4</ele>
        <time>2011-09-04T09:02:42Z</time>
      </trkpt>
      <trkpt lat="48.43018" lon="-4.36378">
        <ele>142.8</ele>
        <time>2011-09-04T09:02:43Z</time>
      </trkpt>
      <trkpt lat="48.43023" lon="-4.36387">
        <ele>140.6</ele>
        <time>2011-09-04T09:02:45Z</time>
      </trkpt>
      <trkpt lat="48.43026" lon="-4.36392">
        <ele>141</ele>
        <time>2011-09-04T09:02:46Z</time>
      </trkpt>
      <trkpt lat="48.43032" lon="-4.36397">
        <ele>142.1</ele>
        <time>2011-09-04T09:02:47Z</time>
      </trkpt>
      <trkpt lat="48.43038" lon="-4.36402">
        <ele>140.8</ele>
        <time>2011-09-04T09:02:48Z</time>
      </trkpt>
      <trkpt lat="48.43043" lon="-4.36407">
        <ele>141.2</ele>
        <time>2011-09-04T09:02:49Z</time>
      </trkpt>
      <trkpt lat="48.43046" lon="-4.36412">
        <ele>140.5</ele>
        <time>2011-09-04T09:02:50Z</time>
      </trkpt>
      <trkpt lat="48.43048" lon="-4.36421">
        <ele>139.8</ele>
        <time>2011-09-04T09:02:51Z</time>
      </trkpt>
      <trkpt lat="48.4305" lon="-4.36429">
        <ele>139.9</ele>
        <time>2011-09-04T09:02:52Z</time>
      </trkpt>
      <trkpt lat="48.43044" lon="-4.36436">
        <ele>141.4</ele>
        <time>2011-09-04T09:02:54Z</time>
      </trkpt>
      <trkpt lat="48.43042" lon="-4.36446">
        <ele>140.7</ele>
        <time>2011-09-04T09:02:56Z</time>
      </trkpt>
      <trkpt lat="48.43041" lon="-4.36456">
        <ele>140.8</ele>
        <time>2011-09-04T09:02:58Z</time>
      </trkpt>
      <trkpt lat="48.43038" lon="-4.36465">
        <ele>141.6</ele>
        <time>2011-09-04T09:02:59Z</time>
      </trkpt>
      <trkpt lat="48.43038" lon="-4.36473">
        <ele>140.2</ele>
        <time>2011-09-04T09:03:02Z</time>
      </trkpt>
      <trkpt lat="48.43037" lon="-4.36485">
        <ele>141.9</ele>
        <time>2011-09-04T09:03:03Z</time>
      </trkpt>
      <trkpt lat="48.43036" lon="-4.36496">
        <ele>144</ele>
        <time>2011-09-04T09:03:05Z</time>
      </trkpt>
      <trkpt lat="48.43034" lon="-4.36506">
        <ele>147.1</ele>
        <time>2011-09-04T09:03:07Z</time>
      </trkpt>
      <trkpt lat="48.43033" lon="-4.36518">
        <ele>148.3</ele>
        <time>2011-09-04T09:03:09Z</time>
      </trkpt>
      <trkpt lat="48.4303" lon="-4.36525">
        <ele>149.3</ele>
        <time>2011-09-04T09:03:11Z</time>
      </trkpt>
      <trkpt lat="48.43026" lon="-4.36532">
        <ele>149</ele>
        <time>2011-09-04T09:03:15Z</time>
      </trkpt>
      <trkpt lat="48.4302" lon="-4.3653">
        <ele>147.7</ele>
        <time>2011-09-04T09:03:18Z</time>
      </trkpt>
      <trkpt lat="48.43013" lon="-4.36526">
        <ele>146.2</ele>
        <time>2011-09-04T09:03:20Z</time>
      </trkpt>
      <trkpt lat="48.43006" lon="-4.36523">
        <ele>144.8</ele>
        <time>2011-09-04T09:03:23Z</time>
      </trkpt>
      <trkpt lat="48.42999" lon="-4.3652">
        <ele>145</ele>
        <time>2011-09-04T09:03:24Z</time>
      </trkpt>
      <trkpt lat="48.42991" lon="-4.36519">
        <ele>144.1</ele>
        <time>2011-09-04T09:03:27Z</time>
      </trkpt>
      <trkpt lat="48.42984" lon="-4.36516">
        <ele>145.2</ele>
        <time>2011-09-04T09:03:28Z</time>
      </trkpt>
      <trkpt lat="48.42977" lon="-4.36515">
        <ele>145.6</ele>
        <time>2011-09-04T09:03:31Z</time>
      </trkpt>
      <trkpt lat="48.42969" lon="-4.36513">
        <ele>146.6</ele>
        <time>2011-09-04T09:03:32Z</time>
      </trkpt>
      <trkpt lat="48.42963" lon="-4.36513">
        <ele>146.7</ele>
        <time>2011-09-04T09:03:35Z</time>
      </trkpt>
      <trkpt lat="48.42957" lon="-4.36511">
        <ele>147.1</ele>
        <time>2011-09-04T09:03:36Z</time>
      </trkpt>
      <trkpt lat="48.4295" lon="-4.36509">
        <ele>147.4</ele>
        <time>2011-09-04T09:03:38Z</time>
      </trkpt>
      <trkpt lat="48.42944" lon="-4.36506">
        <ele>147.5</ele>
        <time>2011-09-04T09:03:41Z</time>
      </trkpt>
      <trkpt lat="48.42937" lon="-4.36504">
        <ele>146.9</ele>
        <time>2011-09-04T09:03:43Z</time>
      </trkpt>
      <trkpt lat="48.42931" lon="-4.36503">
        <ele>147</ele>
        <time>2011-09-04T09:03:44Z</time>
      </trkpt>
      <trkpt lat="48.42924" lon="-4.36502">
        <ele>147.8</ele>
        <time>2011-09-04T09:03:47Z</time>
      </trkpt>
      <trkpt lat="48.42919" lon="-4.365">
        <ele>147.7</ele>
        <time>2011-09-04T09:03:48Z</time>
      </trkpt>
      <trkpt lat="48.42911" lon="-4.36501">
        <ele>148.4</ele>
        <time>2011-09-04T09:03:50Z</time>
      </trkpt>
      <trkpt lat="48.42904" lon="-4.36501">
        <ele>148.5</ele>
        <time>2011-09-04T09:03:53Z</time>
      </trkpt>
      <trkpt lat="48.42898" lon="-4.36506">
        <ele>149.4</ele>
        <time>2011-09-04T09:03:54Z</time>
      </trkpt>
      <trkpt lat="48.42893" lon="-4.36509">
        <ele>149.4</ele>
        <time>2011-09-04T09:03:57Z</time>
      </trkpt>
      <trkpt lat="48.42888" lon="-4.36514">
        <ele>149.4</ele>
        <time>2011-09-04T09:03:58Z</time>
      </trkpt>
      <trkpt lat="48.42882" lon="-4.36518">
        <ele>150.3</ele>
        <time>2011-09-04T09:04:00Z</time>
      </trkpt>
      <trkpt lat="48.42878" lon="-4.36524">
        <ele>150.7</ele>
        <time>2011-09-04T09:04:03Z</time>
      </trkpt>
      <trkpt lat="48.42874" lon="-4.36528">
        <ele>152.6</ele>
        <time>2011-09-04T09:04:04Z</time>
      </trkpt>
      <trkpt lat="48.42868" lon="-4.36535">
        <ele>153.3</ele>
        <time>2011-09-04T09:04:07Z</time>
      </trkpt>
      <trkpt lat="48.42863" lon="-4.36541">
        <ele>154.5</ele>
        <time>2011-09-04T09:04:09Z</time>
      </trkpt>
      <trkpt lat="48.42857" lon="-4.36549">
        <ele>152.4</ele>
        <time>2011-09-04T09:04:11Z</time>
      </trkpt>
      <trkpt lat="48.42852" lon="-4.36554">
        <ele>151.5</ele>
        <time>2011-09-04T09:04:13Z</time>
      </trkpt>
      <trkpt lat="48.42846" lon="-4.36561">
        <ele>151</ele>
        <time>2011-09-04T09:04:15Z</time>
      </trkpt>
      <trkpt lat="48.42842" lon="-4.36569">
        <ele>150.4</ele>
        <time>2011-09-04T09:04:17Z</time>
      </trkpt>
      <trkpt lat="48.42844" lon="-4.36575">
        <ele>147.1</ele>
        <time>2011-09-04T09:04:18Z</time>
      </trkpt>
      <trkpt lat="48.42842" lon="-4.36583">
        <ele>145.4</ele>
        <time>2011-09-04T09:04:20Z</time>
      </trkpt>
      <trkpt lat="48.42841" lon="-4.36594">
        <ele>145.4</ele>
        <time>2011-09-04T09:04:22Z</time>
      </trkpt>
      <trkpt lat="48.42838" lon="-4.366">
        <ele>144.4</ele>
        <time>2011-09-04T09:04:25Z</time>
      </trkpt>
      <trkpt lat="48.42834" lon="-4.36611">
        <ele>144.1</ele>
        <time>2011-09-04T09:04:26Z</time>
      </trkpt>
      <trkpt lat="48.42831" lon="-4.3662">
        <ele>146.3</ele>
        <time>2011-09-04T09:04:28Z</time>
      </trkpt>
      <trkpt lat="48.42826" lon="-4.36632">
        <ele>146.5</ele>
        <time>2011-09-04T09:04:31Z</time>
      </trkpt>
      <trkpt lat="48.42818" lon="-4.36638">
        <ele>150.5</ele>
        <time>2011-09-04T09:04:32Z</time>
      </trkpt>
      <trkpt lat="48.42812" lon="-4.36646">
        <ele>149.9</ele>
        <time>2011-09-04T09:04:34Z</time>
      </trkpt>
      <trkpt lat="48.42808" lon="-4.36654">
        <ele>150.4</ele>
        <time>2011-09-04T09:04:36Z</time>
      </trkpt>
      <trkpt lat="48.42803" lon="-4.36662">
        <ele>149.9</ele>
        <time>2011-09-04T09:04:38Z</time>
      </trkpt>
      <trkpt lat="48.42803" lon="-4.36669">
        <ele>155.3</ele>
        <time>2011-09-04T09:04:51Z</time>
      </trkpt>
      <trkpt lat="48.42801" lon="-4.36678">
        <ele>155</ele>
        <time>2011-09-04T09:04:53Z</time>
      </trkpt>
      <trkpt lat="48.42798" lon="-4.36689">
        <ele>153.3</ele>
        <time>2011-09-04T09:04:55Z</time>
      </trkpt>
      <trkpt lat="48.42793" lon="-4.36696">
        <ele>151.5</ele>
        <time>2011-09-04T09:04:57Z</time>
      </trkpt>
      <trkpt lat="48.4279" lon="-4.36708">
        <ele>149.9</ele>
        <time>2011-09-04T09:04:59Z</time>
      </trkpt>
      <trkpt lat="48.42789" lon="-4.36715">
        <ele>150</ele>
        <time>2011-09-04T09:05:00Z</time>
      </trkpt>
      <trkpt lat="48.42787" lon="-4.36731">
        <ele>148.6</ele>
        <time>2011-09-04T09:05:02Z</time>
      </trkpt>
      <trkpt lat="48.42788" lon="-4.3674">
        <ele>148.3</ele>
        <time>2011-09-04T09:05:03Z</time>
      </trkpt>
      <trkpt lat="48.42786" lon="-4.36748">
        <ele>147.3</ele>
        <time>2011-09-04T09:05:04Z</time>
      </trkpt>
      <trkpt lat="48.42787" lon="-4.36759">
        <ele>147.7</ele>
        <time>2011-09-04T09:05:05Z</time>
      </trkpt>
      <trkpt lat="48.42786" lon="-4.36769">
        <ele>146.4</ele>
        <time>2011-09-04T09:05:06Z</time>
      </trkpt>
      <trkpt lat="48.42786" lon="-4.3678">
        <ele>145.8</ele>
        <time>2011-09-04T09:05:07Z</time>
      </trkpt>
      <trkpt lat="48.42786" lon="-4.36792">
        <ele>145</ele>
        <time>2011-09-04T09:05:08Z</time>
      </trkpt>
      <trkpt lat="48.42787" lon="-4.36802">
        <ele>144.7</ele>
        <time>2011-09-04T09:05:09Z</time>
      </trkpt>
      <trkpt lat="48.42787" lon="-4.36813">
        <ele>144.5</ele>
        <time>2011-09-04T09:05:10Z</time>
      </trkpt>
      <trkpt lat="48.42786" lon="-4.36826">
        <ele>145.2</ele>
        <time>2011-09-04T09:05:11Z</time>
      </trkpt>
      <trkpt lat="48.42786" lon="-4.36838">
        <ele>144.9</ele>
        <time>2011-09-04T09:05:12Z</time>
      </trkpt>
      <trkpt lat="48.42786" lon="-4.3685">
        <ele>145</ele>
        <time>2011-09-04T09:05:13Z</time>
      </trkpt>
      <trkpt lat="48.42785" lon="-4.36861">
        <ele>145.1</ele>
        <time>2011-09-04T09:05:14Z</time>
      </trkpt>
      <trkpt lat="48.42784" lon="-4.36872">
        <ele>144.6</ele>
        <time>2011-09-04T09:05:15Z</time>
      </trkpt>
      <trkpt lat="48.42784" lon="-4.36884">
        <ele>144.6</ele>
        <time>2011-09-04T09:05:16Z</time>
      </trkpt>
      <trkpt lat="48.42783" lon="-4.36896">
        <ele>145</ele>
        <time>2011-09-04T09:05:17Z</time>
      </trkpt>
      <trkpt lat="48.42783" lon="-4.3691">
        <ele>144.6</ele>
        <time>2011-09-04T09:05:18Z</time>
      </trkpt>
      <trkpt lat="48.42782" lon="-4.36923">
        <ele>144.6</ele>
        <time>2011-09-04T09:05:19Z</time>
      </trkpt>
      <trkpt lat="48.42784" lon="-4.36938">
        <ele>144.8</ele>
        <time>2011-09-04T09:05:20Z</time>
      </trkpt>
      <trkpt lat="48.42784" lon="-4.36951">
        <ele>144.8</ele>
        <time>2011-09-04T09:05:21Z</time>
      </trkpt>
      <trkpt lat="48.4279" lon="-4.36968">
        <ele>143.5</ele>
        <time>2011-09-04T09:05:22Z</time>
      </trkpt>
      <trkpt lat="48.42791" lon="-4.36982">
        <ele>143.5</ele>
        <time>2011-09-04T09:05:23Z</time>
      </trkpt>
      <trkpt lat="48.4279" lon="-4.36994">
        <ele>143.7</ele>
        <time>2011-09-04T09:05:24Z</time>
      </trkpt>
      <trkpt lat="48.42791" lon="-4.37009">
        <ele>143.1</ele>
        <time>2011-09-04T09:05:25Z</time>
      </trkpt>
      <trkpt lat="48.42782" lon="-4.37016">
        <ele>140.9</ele>
        <time>2011-09-04T09:05:26Z</time>
      </trkpt>
      <trkpt lat="48.42781" lon="-4.3703">
        <ele>139.5</ele>
        <time>2011-09-04T09:05:27Z</time>
      </trkpt>
      <trkpt lat="48.42779" lon="-4.37043">
        <ele>137.4</ele>
        <time>2011-09-04T09:05:28Z</time>
      </trkpt>
      <trkpt lat="48.42776" lon="-4.37054">
        <ele>136.8</ele>
        <time>2011-09-04T09:05:29Z</time>
      </trkpt>
      <trkpt lat="48.42774" lon="-4.37067">
        <ele>136.5</ele>
        <time>2011-09-04T09:05:30Z</time>
      </trkpt>
      <trkpt lat="48.42768" lon="-4.37079">
        <ele>134.4</ele>
        <time>2011-09-04T09:05:31Z</time>
      </trkpt>
      <trkpt lat="48.42765" lon="-4.3709">
        <ele>134.8</ele>
        <time>2011-09-04T09:05:32Z</time>
      </trkpt>
      <trkpt lat="48.42762" lon="-4.37102">
        <ele>134.7</ele>
        <time>2011-09-04T09:05:33Z</time>
      </trkpt>
      <trkpt lat="48.42761" lon="-4.37115">
        <ele>135.6</ele>
        <time>2011-09-04T09:05:34Z</time>
      </trkpt>
      <trkpt lat="48.42758" lon="-4.37127">
        <ele>135.9</ele>
        <time>2011-09-04T09:05:35Z</time>
      </trkpt>
      <trkpt lat="48.42756" lon="-4.37139">
        <ele>136.5</ele>
        <time>2011-09-04T09:05:36Z</time>
      </trkpt>
      <trkpt lat="48.42754" lon="-4.37153">
        <ele>136.8</ele>
        <time>2011-09-04T09:05:37Z</time>
      </trkpt>
      <trkpt lat="48.42753" lon="-4.37163">
        <ele>136.8</ele>
        <time>2011-09-04T09:05:38Z</time>
      </trkpt>
      <trkpt lat="48.42752" lon="-4.37176">
        <ele>136.8</ele>
        <time>2011-09-04T09:05:39Z</time>
      </trkpt>
      <trkpt lat="48.42752" lon="-4.3719">
        <ele>135.8</ele>
        <time>2011-09-04T09:05:40Z</time>
      </trkpt>
      <trkpt lat="48.42747" lon="-4.37198">
        <ele>135.4</ele>
        <time>2011-09-04T09:05:41Z</time>
      </trkpt>
      <trkpt lat="48.42746" lon="-4.3721">
        <ele>133.6</ele>
        <time>2011-09-04T09:05:42Z</time>
      </trkpt>
      <trkpt lat="48.42745" lon="-4.3722">
        <ele>132.3</ele>
        <time>2011-09-04T09:05:43Z</time>
      </trkpt>
      <trkpt lat="48.42742" lon="-4.37232">
        <ele>132.7</ele>
        <time>2011-09-04T09:05:44Z</time>
      </trkpt>
      <trkpt lat="48.4274" lon="-4.37242">
        <ele>132.2</ele>
        <time>2011-09-04T09:05:45Z</time>
      </trkpt>
      <trkpt lat="48.42738" lon="-4.37252">
        <ele>132.4</ele>
        <time>2011-09-04T09:05:46Z</time>
      </trkpt>
      <trkpt lat="48.42736" lon="-4.37264">
        <ele>133.5</ele>
        <time>2011-09-04T09:05:47Z</time>
      </trkpt>
      <trkpt lat="48.42735" lon="-4.37274">
        <ele>133.1</ele>
        <time>2011-09-04T09:05:48Z</time>
      </trkpt>
      <trkpt lat="48.42734" lon="-4.37284">
        <ele>132.8</ele>
        <time>2011-09-04T09:05:49Z</time>
      </trkpt>
      <trkpt lat="48.4273" lon="-4.37294">
        <ele>132.6</ele>
        <time>2011-09-04T09:05:50Z</time>
      </trkpt>
      <trkpt lat="48.42728" lon="-4.37302">
        <ele>131.9</ele>
        <time>2011-09-04T09:05:51Z</time>
      </trkpt>
      <trkpt lat="48.42727" lon="-4.37313">
        <ele>131.5</ele>
        <time>2011-09-04T09:05:52Z</time>
      </trkpt>
      <trkpt lat="48.42726" lon="-4.37326">
        <ele>131.6</ele>
        <time>2011-09-04T09:05:53Z</time>
      </trkpt>
      <trkpt lat="48.42722" lon="-4.37336">
        <ele>131</ele>
        <time>2011-09-04T09:05:54Z</time>
      </trkpt>
      <trkpt lat="48.4272" lon="-4.37348">
        <ele>130.9</ele>
        <time>2011-09-04T09:05:55Z</time>
      </trkpt>
      <trkpt lat="48.42718" lon="-4.37359">
        <ele>131.5</ele>
        <time>2011-09-04T09:05:56Z</time>
      </trkpt>
      <trkpt lat="48.42716" lon="-4.3737">
        <ele>131.2</ele>
        <time>2011-09-04T09:05:57Z</time>
      </trkpt>
      <trkpt lat="48.42714" lon="-4.3738">
        <ele>130.9</ele>
        <time>2011-09-04T09:05:58Z</time>
      </trkpt>
      <trkpt lat="48.42714" lon="-4.37391">
        <ele>130.6</ele>
        <time>2011-09-04T09:05:59Z</time>
      </trkpt>
      <trkpt lat="48.42714" lon="-4.37402">
        <ele>130.4</ele>
        <time>2011-09-04T09:06:00Z</time>
      </trkpt>
      <trkpt lat="48.42713" lon="-4.37415">
        <ele>131</ele>
        <time>2011-09-04T09:06:01Z</time>
      </trkpt>
      <trkpt lat="48.42713" lon="-4.37426">
        <ele>131.1</ele>
        <time>2011-09-04T09:06:02Z</time>
      </trkpt>
      <trkpt lat="48.42713" lon="-4.37438">
        <ele>131.1</ele>
        <time>2011-09-04T09:06:03Z</time>
      </trkpt>
      <trkpt lat="48.42714" lon="-4.37446">
        <ele>130.8</ele>
        <time>2011-09-04T09:06:04Z</time>
      </trkpt>
      <trkpt lat="48.42713" lon="-4.37457">
        <ele>130.7</ele>
        <time>2011-09-04T09:06:05Z</time>
      </trkpt>
      <trkpt lat="48.42714" lon="-4.37471">
        <ele>131.2</ele>
        <time>2011-09-04T09:06:06Z</time>
      </trkpt>
      <trkpt lat="48.42716" lon="-4.37484">
        <ele>130</ele>
        <time>2011-09-04T09:06:07Z</time>
      </trkpt>
      <trkpt lat="48.42715" lon="-4.37497">
        <ele>130</ele>
        <time>2011-09-04T09:06:08Z</time>
      </trkpt>
      <trkpt lat="48.42714" lon="-4.37508">
        <ele>130.5</ele>
        <time>2011-09-04T09:06:09Z</time>
      </trkpt>
      <trkpt lat="48.42715" lon="-4.37522">
        <ele>130.4</ele>
        <time>2011-09-04T09:06:10Z</time>
      </trkpt>
      <trkpt lat="48.42711" lon="-4.3753">
        <ele>127.6</ele>
        <time>2011-09-04T09:06:11Z</time>
      </trkpt>
      <trkpt lat="48.42712" lon="-4.37541">
        <ele>127.5</ele>
        <time>2011-09-04T09:06:12Z</time>
      </trkpt>
      <trkpt lat="48.42711" lon="-4.37551">
        <ele>127.8</ele>
        <time>2011-09-04T09:06:13Z</time>
      </trkpt>
      <trkpt lat="48.42711" lon="-4.37564">
        <ele>127.4</ele>
        <time>2011-09-04T09:06:14Z</time>
      </trkpt>
      <trkpt lat="48.42712" lon="-4.37577">
        <ele>125.7</ele>
        <time>2011-09-04T09:06:15Z</time>
      </trkpt>
      <trkpt lat="48.42712" lon="-4.37589">
        <ele>124.5</ele>
        <time>2011-09-04T09:06:16Z</time>
      </trkpt>
      <trkpt lat="48.42712" lon="-4.37602">
        <ele>123.3</ele>
        <time>2011-09-04T09:06:17Z</time>
      </trkpt>
      <trkpt lat="48.42711" lon="-4.37614">
        <ele>122.7</ele>
        <time>2011-09-04T09:06:18Z</time>
      </trkpt>
      <trkpt lat="48.42711" lon="-4.3763">
        <ele>122.1</ele>
        <time>2011-09-04T09:06:19Z</time>
      </trkpt>
      <trkpt lat="48.42712" lon="-4.37644">
        <ele>121.5</ele>
        <time>2011-09-04T09:06:20Z</time>
      </trkpt>
      <trkpt lat="48.42714" lon="-4.37659">
        <ele>121.4</ele>
        <time>2011-09-04T09:06:21Z</time>
      </trkpt>
      <trkpt lat="48.42719" lon="-4.37671">
        <ele>120.7</ele>
        <time>2011-09-04T09:06:22Z</time>
      </trkpt>
      <trkpt lat="48.42723" lon="-4.37684">
        <ele>119.7</ele>
        <time>2011-09-04T09:06:23Z</time>
      </trkpt>
      <trkpt lat="48.42725" lon="-4.37695">
        <ele>118.5</ele>
        <time>2011-09-04T09:06:24Z</time>
      </trkpt>
      <trkpt lat="48.4273" lon="-4.3771">
        <ele>117.6</ele>
        <time>2011-09-04T09:06:25Z</time>
      </trkpt>
      <trkpt lat="48.42735" lon="-4.37723">
        <ele>117.4</ele>
        <time>2011-09-04T09:06:26Z</time>
      </trkpt>
      <trkpt lat="48.42739" lon="-4.37737">
        <ele>117</ele>
        <time>2011-09-04T09:06:27Z</time>
      </trkpt>
      <trkpt lat="48.42743" lon="-4.3775">
        <ele>116.9</ele>
        <time>2011-09-04T09:06:28Z</time>
      </trkpt>
      <trkpt lat="48.4275" lon="-4.37767">
        <ele>114.2</ele>
        <time>2011-09-04T09:06:29Z</time>
      </trkpt>
      <trkpt lat="48.42754" lon="-4.37782">
        <ele>113.1</ele>
        <time>2011-09-04T09:06:30Z</time>
      </trkpt>
      <trkpt lat="48.42758" lon="-4.378">
        <ele>113.4</ele>
        <time>2011-09-04T09:06:31Z</time>
      </trkpt>
      <trkpt lat="48.42761" lon="-4.37818">
        <ele>113.2</ele>
        <time>2011-09-04T09:06:32Z</time>
      </trkpt>
      <trkpt lat="48.42766" lon="-4.37838">
        <ele>114.1</ele>
        <time>2011-09-04T09:06:33Z</time>
      </trkpt>
      <trkpt lat="48.42767" lon="-4.37857">
        <ele>111.8</ele>
        <time>2011-09-04T09:06:34Z</time>
      </trkpt>
      <trkpt lat="48.42774" lon="-4.37874">
        <ele>109.1</ele>
        <time>2011-09-04T09:06:35Z</time>
      </trkpt>
      <trkpt lat="48.4278" lon="-4.37894">
        <ele>106.5</ele>
        <time>2011-09-04T09:06:36Z</time>
      </trkpt>
      <trkpt lat="48.42783" lon="-4.37913">
        <ele>106.1</ele>
        <time>2011-09-04T09:06:37Z</time>
      </trkpt>
      <trkpt lat="48.42785" lon="-4.37932">
        <ele>105.4</ele>
        <time>2011-09-04T09:06:38Z</time>
      </trkpt>
      <trkpt lat="48.4279" lon="-4.37952">
        <ele>103.7</ele>
        <time>2011-09-04T09:06:39Z</time>
      </trkpt>
      <trkpt lat="48.42794" lon="-4.37968">
        <ele>101.5</ele>
        <time>2011-09-04T09:06:40Z</time>
      </trkpt>
      <trkpt lat="48.42797" lon="-4.37984">
        <ele>99.7</ele>
        <time>2011-09-04T09:06:41Z</time>
      </trkpt>
      <trkpt lat="48.42799" lon="-4.38001">
        <ele>97.4</ele>
        <time>2011-09-04T09:06:42Z</time>
      </trkpt>
      <trkpt lat="48.42803" lon="-4.38016">
        <ele>96</ele>
        <time>2011-09-04T09:06:43Z</time>
      </trkpt>
      <trkpt lat="48.42806" lon="-4.38032">
        <ele>95.3</ele>
        <time>2011-09-04T09:06:44Z</time>
      </trkpt>
      <trkpt lat="48.42809" lon="-4.38047">
        <ele>94.8</ele>
        <time>2011-09-04T09:06:45Z</time>
      </trkpt>
      <trkpt lat="48.4281" lon="-4.38057">
        <ele>93.6</ele>
        <time>2011-09-04T09:06:46Z</time>
      </trkpt>
      <trkpt lat="48.42813" lon="-4.38069">
        <ele>92.3</ele>
        <time>2011-09-04T09:06:47Z</time>
      </trkpt>
      <trkpt lat="48.42815" lon="-4.3808">
        <ele>91.9</ele>
        <time>2011-09-04T09:06:48Z</time>
      </trkpt>
      <trkpt lat="48.42818" lon="-4.38093">
        <ele>92.2</ele>
        <time>2011-09-04T09:06:49Z</time>
      </trkpt>
      <trkpt lat="48.42814" lon="-4.38103">
        <ele>91.7</ele>
        <time>2011-09-04T09:06:50Z</time>
      </trkpt>
      <trkpt lat="48.42815" lon="-4.38113">
        <ele>92.4</ele>
        <time>2011-09-04T09:06:51Z</time>
      </trkpt>
      <trkpt lat="48.42816" lon="-4.38122">
        <ele>91.5</ele>
        <time>2011-09-04T09:06:52Z</time>
      </trkpt>
      <trkpt lat="48.42816" lon="-4.3813">
        <ele>91.1</ele>
        <time>2011-09-04T09:06:53Z</time>
      </trkpt>
      <trkpt lat="48.42816" lon="-4.38138">
        <ele>89.8</ele>
        <time>2011-09-04T09:06:54Z</time>
      </trkpt>
      <trkpt lat="48.42818" lon="-4.38147">
        <ele>89.2</ele>
        <time>2011-09-04T09:06:55Z</time>
      </trkpt>
      <trkpt lat="48.42819" lon="-4.38157">
        <ele>89.2</ele>
        <time>2011-09-04T09:06:56Z</time>
      </trkpt>
      <trkpt lat="48.42823" lon="-4.38168">
        <ele>88.9</ele>
        <time>2011-09-04T09:06:57Z</time>
      </trkpt>
      <trkpt lat="48.42824" lon="-4.38178">
        <ele>89.2</ele>
        <time>2011-09-04T09:06:58Z</time>
      </trkpt>
      <trkpt lat="48.42827" lon="-4.38189">
        <ele>90</ele>
        <time>2011-09-04T09:06:59Z</time>
      </trkpt>
      <trkpt lat="48.42829" lon="-4.38199">
        <ele>90.6</ele>
        <time>2011-09-04T09:07:00Z</time>
      </trkpt>
      <trkpt lat="48.4283" lon="-4.3821">
        <ele>89.9</ele>
        <time>2011-09-04T09:07:01Z</time>
      </trkpt>
      <trkpt lat="48.42831" lon="-4.38219">
        <ele>90.1</ele>
        <time>2011-09-04T09:07:02Z</time>
      </trkpt>
      <trkpt lat="48.42831" lon="-4.38229">
        <ele>90</ele>
        <time>2011-09-04T09:07:03Z</time>
      </trkpt>
      <trkpt lat="48.42832" lon="-4.38238">
        <ele>89.8</ele>
        <time>2011-09-04T09:07:04Z</time>
      </trkpt>
      <trkpt lat="48.42832" lon="-4.3825">
        <ele>89.6</ele>
        <time>2011-09-04T09:07:05Z</time>
      </trkpt>
      <trkpt lat="48.42832" lon="-4.3826">
        <ele>89.3</ele>
        <time>2011-09-04T09:07:06Z</time>
      </trkpt>
      <trkpt lat="48.42832" lon="-4.38268">
        <ele>89.3</ele>
        <time>2011-09-04T09:07:07Z</time>
      </trkpt>
      <trkpt lat="48.42832" lon="-4.38278">
        <ele>89.9</ele>
        <time>2011-09-04T09:07:08Z</time>
      </trkpt>
      <trkpt lat="48.42832" lon="-4.38287">
        <ele>89.9</ele>
        <time>2011-09-04T09:07:09Z</time>
      </trkpt>
      <trkpt lat="48.4283" lon="-4.38295">
        <ele>89.9</ele>
        <time>2011-09-04T09:07:10Z</time>
      </trkpt>
      <trkpt lat="48.4283" lon="-4.38304">
        <ele>89.6</ele>
        <time>2011-09-04T09:07:11Z</time>
      </trkpt>
      <trkpt lat="48.42829" lon="-4.38313">
        <ele>88.5</ele>
        <time>2011-09-04T09:07:12Z</time>
      </trkpt>
      <trkpt lat="48.42828" lon="-4.38321">
        <ele>86.4</ele>
        <time>2011-09-04T09:07:13Z</time>
      </trkpt>
      <trkpt lat="48.42829" lon="-4.3833">
        <ele>87.7</ele>
        <time>2011-09-04T09:07:15Z</time>
      </trkpt>
      <trkpt lat="48.42828" lon="-4.38342">
        <ele>85.1</ele>
        <time>2011-09-04T09:07:17Z</time>
      </trkpt>
      <trkpt lat="48.42831" lon="-4.38355">
        <ele>83.5</ele>
        <time>2011-09-04T09:07:19Z</time>
      </trkpt>
      <trkpt lat="48.42836" lon="-4.38366">
        <ele>83.6</ele>
        <time>2011-09-04T09:07:21Z</time>
      </trkpt>
      <trkpt lat="48.4284" lon="-4.38371">
        <ele>83.1</ele>
        <time>2011-09-04T09:07:22Z</time>
      </trkpt>
      <trkpt lat="48.42844" lon="-4.38376">
        <ele>83.8</ele>
        <time>2011-09-04T09:07:23Z</time>
      </trkpt>
      <trkpt lat="48.42847" lon="-4.38382">
        <ele>83.9</ele>
        <time>2011-09-04T09:07:24Z</time>
      </trkpt>
      <trkpt lat="48.42853" lon="-4.38396">
        <ele>83.1</ele>
        <time>2011-09-04T09:07:26Z</time>
      </trkpt>
      <trkpt lat="48.42856" lon="-4.38402">
        <ele>83.1</ele>
        <time>2011-09-04T09:07:27Z</time>
      </trkpt>
      <trkpt lat="48.4286" lon="-4.38408">
        <ele>83.2</ele>
        <time>2011-09-04T09:07:28Z</time>
      </trkpt>
      <trkpt lat="48.42862" lon="-4.38417">
        <ele>82.7</ele>
        <time>2011-09-04T09:07:29Z</time>
      </trkpt>
      <trkpt lat="48.42858" lon="-4.38423">
        <ele>84.4</ele>
        <time>2011-09-04T09:07:30Z</time>
      </trkpt>
      <trkpt lat="48.42858" lon="-4.3843">
        <ele>86</ele>
        <time>2011-09-04T09:07:31Z</time>
      </trkpt>
      <trkpt lat="48.42859" lon="-4.38437">
        <ele>86.1</ele>
        <time>2011-09-04T09:07:32Z</time>
      </trkpt>
      <trkpt lat="48.42858" lon="-4.38445">
        <ele>86.2</ele>
        <time>2011-09-04T09:07:33Z</time>
      </trkpt>
      <trkpt lat="48.42857" lon="-4.38456">
        <ele>84.7</ele>
        <time>2011-09-04T09:07:35Z</time>
      </trkpt>
      <trkpt lat="48.42856" lon="-4.38463">
        <ele>85.1</ele>
        <time>2011-09-04T09:07:36Z</time>
      </trkpt>
      <trkpt lat="48.42856" lon="-4.38471">
        <ele>85.8</ele>
        <time>2011-09-04T09:07:37Z</time>
      </trkpt>
      <trkpt lat="48.42855" lon="-4.3848">
        <ele>86.8</ele>
        <time>2011-09-04T09:07:39Z</time>
      </trkpt>
      <trkpt lat="48.42858" lon="-4.3849">
        <ele>87.9</ele>
        <time>2011-09-04T09:07:41Z</time>
      </trkpt>
      <trkpt lat="48.42862" lon="-4.38496">
        <ele>85.9</ele>
        <time>2011-09-04T09:07:42Z</time>
      </trkpt>
      <trkpt lat="48.42863" lon="-4.38503">
        <ele>86.2</ele>
        <time>2011-09-04T09:07:43Z</time>
      </trkpt>
      <trkpt lat="48.4286" lon="-4.38511">
        <ele>85.3</ele>
        <time>2011-09-04T09:07:45Z</time>
      </trkpt>
      <trkpt lat="48.42859" lon="-4.3852">
        <ele>83.1</ele>
        <time>2011-09-04T09:07:47Z</time>
      </trkpt>
      <trkpt lat="48.42863" lon="-4.38532">
        <ele>78.8</ele>
        <time>2011-09-04T09:07:49Z</time>
      </trkpt>
      <trkpt lat="48.42864" lon="-4.38543">
        <ele>79.9</ele>
        <time>2011-09-04T09:07:51Z</time>
      </trkpt>
      <trkpt lat="48.42865" lon="-4.38553">
        <ele>80.4</ele>
        <time>2011-09-04T09:07:53Z</time>
      </trkpt>
      <trkpt lat="48.42865" lon="-4.38564">
        <ele>78.7</ele>
        <time>2011-09-04T09:07:55Z</time>
      </trkpt>
      <trkpt lat="48.42866" lon="-4.38574">
        <ele>79.3</ele>
        <time>2011-09-04T09:07:57Z</time>
      </trkpt>
      <trkpt lat="48.42863" lon="-4.38586">
        <ele>80.5</ele>
        <time>2011-09-04T09:07:59Z</time>
      </trkpt>
      <trkpt lat="48.42866" lon="-4.38596">
        <ele>81.3</ele>
        <time>2011-09-04T09:08:01Z</time>
      </trkpt>
      <trkpt lat="48.42868" lon="-4.38606">
        <ele>81.5</ele>
        <time>2011-09-04T09:08:03Z</time>
      </trkpt>
      <trkpt lat="48.42869" lon="-4.38617">
        <ele>81.9</ele>
        <time>2011-09-04T09:08:06Z</time>
      </trkpt>
      <trkpt lat="48.42871" lon="-4.38623">
        <ele>82.1</ele>
        <time>2011-09-04T09:08:07Z</time>
      </trkpt>
      <trkpt lat="48.42871" lon="-4.38632">
        <ele>82.7</ele>
        <time>2011-09-04T09:08:09Z</time>
      </trkpt>
      <trkpt lat="48.42872" lon="-4.38641">
        <ele>83.7</ele>
        <time>2011-09-04T09:08:11Z</time>
      </trkpt>
      <trkpt lat="48.42873" lon="-4.38649">
        <ele>86.3</ele>
        <time>2011-09-04T09:08:13Z</time>
      </trkpt>
      <trkpt lat="48.42871" lon="-4.38657">
        <ele>86.4</ele>
        <time>2011-09-04T09:08:15Z</time>
      </trkpt>
      <trkpt lat="48.4287" lon="-4.38666">
        <ele>86.3</ele>
        <time>2011-09-04T09:08:17Z</time>
      </trkpt>
      <trkpt lat="48.42869" lon="-4.38674">
        <ele>87.4</ele>
        <time>2011-09-04T09:08:19Z</time>
      </trkpt>
      <trkpt lat="48.4287" lon="-4.38683">
        <ele>86.5</ele>
        <time>2011-09-04T09:08:21Z</time>
      </trkpt>
      <trkpt lat="48.42873" lon="-4.38688">
        <ele>88.8</ele>
        <time>2011-09-04T09:08:22Z</time>
      </trkpt>
      <trkpt lat="48.42874" lon="-4.38697">
        <ele>86.8</ele>
        <time>2011-09-04T09:08:25Z</time>
      </trkpt>
      <trkpt lat="48.42874" lon="-4.38705">
        <ele>89.1</ele>
        <time>2011-09-04T09:08:27Z</time>
      </trkpt>
      <trkpt lat="48.42877" lon="-4.38712">
        <ele>89.4</ele>
        <time>2011-09-04T09:08:29Z</time>
      </trkpt>
      <trkpt lat="48.4288" lon="-4.3872">
        <ele>88.1</ele>
        <time>2011-09-04T09:08:31Z</time>
      </trkpt>
      <trkpt lat="48.4288" lon="-4.38727">
        <ele>91.7</ele>
        <time>2011-09-04T09:08:33Z</time>
      </trkpt>
      <trkpt lat="48.42882" lon="-4.38736">
        <ele>93.6</ele>
        <time>2011-09-04T09:08:35Z</time>
      </trkpt>
      <trkpt lat="48.42882" lon="-4.38744">
        <ele>94.1</ele>
        <time>2011-09-04T09:08:38Z</time>
      </trkpt>
      <trkpt lat="48.42882" lon="-4.38751">
        <ele>96.6</ele>
        <time>2011-09-04T09:08:40Z</time>
      </trkpt>
      <trkpt lat="48.42884" lon="-4.38757">
        <ele>97.4</ele>
        <time>2011-09-04T09:08:42Z</time>
      </trkpt>
      <trkpt lat="48.42885" lon="-4.38766">
        <ele>98.7</ele>
        <time>2011-09-04T09:08:44Z</time>
      </trkpt>
      <trkpt lat="48.42888" lon="-4.38774">
        <ele>96.9</ele>
        <time>2011-09-04T09:08:46Z</time>
      </trkpt>
      <trkpt lat="48.42888" lon="-4.38781">
        <ele>97.3</ele>
        <time>2011-09-04T09:08:48Z</time>
      </trkpt>
      <trkpt lat="48.42896" lon="-4.38794">
        <ele>95.9</ele>
        <time>2011-09-04T09:08:51Z</time>
      </trkpt>
      <trkpt lat="48.42899" lon="-4.38802">
        <ele>95.9</ele>
        <time>2011-09-04T09:08:53Z</time>
      </trkpt>
      <trkpt lat="48.42901" lon="-4.3881">
        <ele>97.2</ele>
        <time>2011-09-04T09:08:56Z</time>
      </trkpt>
      <trkpt lat="48.42906" lon="-4.38814">
        <ele>97.4</ele>
        <time>2011-09-04T09:08:59Z</time>
      </trkpt>
      <trkpt lat="48.42908" lon="-4.38822">
        <ele>100.6</ele>
        <time>2011-09-04T09:09:02Z</time>
      </trkpt>
      <trkpt lat="48.42911" lon="-4.38827">
        <ele>102.6</ele>
        <time>2011-09-04T09:09:04Z</time>
      </trkpt>
      <trkpt lat="48.42916" lon="-4.38833">
        <ele>102.6</ele>
        <time>2011-09-04T09:09:06Z</time>
      </trkpt>
      <trkpt lat="48.4292" lon="-4.38836">
        <ele>101</ele>
        <time>2011-09-04T09:09:07Z</time>
      </trkpt>
      <trkpt lat="48.42926" lon="-4.38838">
        <ele>99.3</ele>
        <time>2011-09-04T09:09:10Z</time>
      </trkpt>
      <trkpt lat="48.42931" lon="-4.38845">
        <ele>101.3</ele>
        <time>2011-09-04T09:09:13Z</time>
      </trkpt>
      <trkpt lat="48.42936" lon="-4.38848">
        <ele>99.7</ele>
        <time>2011-09-04T09:09:15Z</time>
      </trkpt>
      <trkpt lat="48.4294" lon="-4.38854">
        <ele>101.3</ele>
        <time>2011-09-04T09:09:18Z</time>
      </trkpt>
      <trkpt lat="48.42944" lon="-4.38859">
        <ele>103</ele>
        <time>2011-09-04T09:09:21Z</time>
      </trkpt>
      <trkpt lat="48.42948" lon="-4.38863">
        <ele>103.4</ele>
        <time>2011-09-04T09:09:24Z</time>
      </trkpt>
      <trkpt lat="48.42954" lon="-4.38868">
        <ele>103.9</ele>
        <time>2011-09-04T09:09:27Z</time>
      </trkpt>
      <trkpt lat="48.42958" lon="-4.38871">
        <ele>104.7</ele>
        <time>2011-09-04T09:09:29Z</time>
      </trkpt>
      <trkpt lat="48.42964" lon="-4.38875">
        <ele>105.6</ele>
        <time>2011-09-04T09:09:35Z</time>
      </trkpt>
      <trkpt lat="48.4297" lon="-4.38879">
        <ele>109.3</ele>
        <time>2011-09-04T09:09:39Z</time>
      </trkpt>
      <trkpt lat="48.42975" lon="-4.38878">
        <ele>111.1</ele>
        <time>2011-09-04T09:09:43Z</time>
      </trkpt>
      <trkpt lat="48.42978" lon="-4.38872">
        <ele>113.4</ele>
        <time>2011-09-04T09:09:46Z</time>
      </trkpt>
      <trkpt lat="48.42986" lon="-4.38873">
        <ele>112.3</ele>
        <time>2011-09-04T09:09:48Z</time>
      </trkpt>
      <trkpt lat="48.42993" lon="-4.38872">
        <ele>114.1</ele>
        <time>2011-09-04T09:09:52Z</time>
      </trkpt>
      <trkpt lat="48.42997" lon="-4.3887">
        <ele>114.9</ele>
        <time>2011-09-04T09:09:54Z</time>
      </trkpt>
      <trkpt lat="48.43002" lon="-4.38868">
        <ele>114.1</ele>
        <time>2011-09-04T09:09:56Z</time>
      </trkpt>
      <trkpt lat="48.43008" lon="-4.38865">
        <ele>113.3</ele>
        <time>2011-09-04T09:09:59Z</time>
      </trkpt>
      <trkpt lat="48.43013" lon="-4.3886">
        <ele>113</ele>
        <time>2011-09-04T09:10:02Z</time>
      </trkpt>
      <trkpt lat="48.43019" lon="-4.3886">
        <ele>114.2</ele>
        <time>2011-09-04T09:10:07Z</time>
      </trkpt>
      <trkpt lat="48.4302" lon="-4.38852">
        <ele>114.5</ele>
        <time>2011-09-04T09:10:10Z</time>
      </trkpt>
      <trkpt lat="48.43025" lon="-4.38855">
        <ele>117.1</ele>
        <time>2011-09-04T09:10:12Z</time>
      </trkpt>
      <trkpt lat="48.4303" lon="-4.38851">
        <ele>118.2</ele>
        <time>2011-09-04T09:10:14Z</time>
      </trkpt>
      <trkpt lat="48.43034" lon="-4.38849">
        <ele>119.5</ele>
        <time>2011-09-04T09:10:18Z</time>
      </trkpt>
      <trkpt lat="48.43041" lon="-4.38849">
        <ele>121.7</ele>
        <time>2011-09-04T09:10:21Z</time>
      </trkpt>
      <trkpt lat="48.43046" lon="-4.3885">
        <ele>122</ele>
        <time>2011-09-04T09:10:24Z</time>
      </trkpt>
      <trkpt lat="48.43051" lon="-4.38851">
        <ele>121</ele>
        <time>2011-09-04T09:10:27Z</time>
      </trkpt>
      <trkpt lat="48.43052" lon="-4.38858">
        <ele>124</ele>
        <time>2011-09-04T09:10:30Z</time>
      </trkpt>
      <trkpt lat="48.43056" lon="-4.38861">
        <ele>124.7</ele>
        <time>2011-09-04T09:10:32Z</time>
      </trkpt>
      <trkpt lat="48.43064" lon="-4.3886">
        <ele>122.3</ele>
        <time>2011-09-04T09:10:36Z</time>
      </trkpt>
      <trkpt lat="48.43068" lon="-4.38858">
        <ele>122</ele>
        <time>2011-09-04T09:10:38Z</time>
      </trkpt>
      <trkpt lat="48.43073" lon="-4.38859">
        <ele>126.1</ele>
        <time>2011-09-04T09:10:41Z</time>
      </trkpt>
      <trkpt lat="48.4308" lon="-4.38858">
        <ele>124.2</ele>
        <time>2011-09-04T09:10:44Z</time>
      </trkpt>
      <trkpt lat="48.43084" lon="-4.38856">
        <ele>121.7</ele>
        <time>2011-09-04T09:10:47Z</time>
      </trkpt>
      <trkpt lat="48.43089" lon="-4.38854">
        <ele>121.6</ele>
        <time>2011-09-04T09:10:50Z</time>
      </trkpt>
      <trkpt lat="48.43095" lon="-4.38855">
        <ele>123.2</ele>
        <time>2011-09-04T09:10:54Z</time>
      </trkpt>
      <trkpt lat="48.43102" lon="-4.3886">
        <ele>127.7</ele>
        <time>2011-09-04T09:11:01Z</time>
      </trkpt>
      <trkpt lat="48.43109" lon="-4.38863">
        <ele>127.6</ele>
        <time>2011-09-04T09:11:03Z</time>
      </trkpt>
      <trkpt lat="48.43117" lon="-4.38864">
        <ele>126.2</ele>
        <time>2011-09-04T09:11:05Z</time>
      </trkpt>
      <trkpt lat="48.43122" lon="-4.38865">
        <ele>125.3</ele>
        <time>2011-09-04T09:11:07Z</time>
      </trkpt>
      <trkpt lat="48.43129" lon="-4.38864">
        <ele>124.2</ele>
        <time>2011-09-04T09:11:10Z</time>
      </trkpt>
      <trkpt lat="48.43134" lon="-4.38863">
        <ele>123.5</ele>
        <time>2011-09-04T09:11:14Z</time>
      </trkpt>
      <trkpt lat="48.43137" lon="-4.38869">
        <ele>124</ele>
        <time>2011-09-04T09:11:20Z</time>
      </trkpt>
      <trkpt lat="48.43134" lon="-4.38876">
        <ele>119.8</ele>
        <time>2011-09-04T09:11:24Z</time>
      </trkpt>
      <trkpt lat="48.4313" lon="-4.38876">
        <ele>121.4</ele>
        <time>2011-09-04T09:11:30Z</time>
      </trkpt>
      <trkpt lat="48.43126" lon="-4.3887">
        <ele>121.7</ele>
        <time>2011-09-04T09:11:36Z</time>
      </trkpt>
      <trkpt lat="48.4313" lon="-4.38864">
        <ele>121.6</ele>
        <time>2011-09-04T09:11:43Z</time>
      </trkpt>
      <trkpt lat="48.43135" lon="-4.38862">
        <ele>121.6</ele>
        <time>2011-09-04T09:11:47Z</time>
      </trkpt>
      <trkpt lat="48.43141" lon="-4.38864">
        <ele>120.5</ele>
        <time>2011-09-04T09:11:52Z</time>
      </trkpt>
      <trkpt lat="48.43146" lon="-4.38862">
        <ele>120.2</ele>
        <time>2011-09-04T09:11:55Z</time>
      </trkpt>
      <trkpt lat="48.4315" lon="-4.38862">
        <ele>121.1</ele>
        <time>2011-09-04T09:11:58Z</time>
      </trkpt>
      <trkpt lat="48.43155" lon="-4.38863">
        <ele>120.4</ele>
        <time>2011-09-04T09:12:01Z</time>
      </trkpt>
      <trkpt lat="48.43161" lon="-4.38862">
        <ele>120.9</ele>
        <time>2011-09-04T09:12:04Z</time>
      </trkpt>
      <trkpt lat="48.43166" lon="-4.38861">
        <ele>121.7</ele>
        <time>2011-09-04T09:12:07Z</time>
      </trkpt>
      <trkpt lat="48.4317" lon="-4.38862">
        <ele>121.9</ele>
        <time>2011-09-04T09:12:10Z</time>
      </trkpt>
      <trkpt lat="48.43176" lon="-4.38864">
        <ele>121.7</ele>
        <time>2011-09-04T09:12:13Z</time>
      </trkpt>
      <trkpt lat="48.4318" lon="-4.38867">
        <ele>122.4</ele>
        <time>2011-09-04T09:12:16Z</time>
      </trkpt>
      <trkpt lat="48.43186" lon="-4.38869">
        <ele>122.8</ele>
        <time>2011-09-04T09:12:19Z</time>
      </trkpt>
      <trkpt lat="48.4319" lon="-4.38874">
        <ele>122.6</ele>
        <time>2011-09-04T09:12:22Z</time>
      </trkpt>
      <trkpt lat="48.43195" lon="-4.38879">
        <ele>123</ele>
        <time>2011-09-04T09:12:25Z</time>
      </trkpt>
      <trkpt lat="48.43201" lon="-4.3888">
        <ele>123.4</ele>
        <time>2011-09-04T09:12:28Z</time>
      </trkpt>
      <trkpt lat="48.43207" lon="-4.38882">
        <ele>124</ele>
        <time>2011-09-04T09:12:31Z</time>
      </trkpt>
      <trkpt lat="48.43213" lon="-4.38884">
        <ele>124.3</ele>
        <time>2011-09-04T09:12:34Z</time>
      </trkpt>
      <trkpt lat="48.43219" lon="-4.38885">
        <ele>124.2</ele>
        <time>2011-09-04T09:12:37Z</time>
      </trkpt>
      <trkpt lat="48.43226" lon="-4.38888">
        <ele>124.1</ele>
        <time>2011-09-04T09:12:40Z</time>
      </trkpt>
      <trkpt lat="48.43231" lon="-4.3889">
        <ele>124.7</ele>
        <time>2011-09-04T09:12:43Z</time>
      </trkpt>
      <trkpt lat="48.43237" lon="-4.38892">
        <ele>124.9</ele>
        <time>2011-09-04T09:12:46Z</time>
      </trkpt>
      <trkpt lat="48.43242" lon="-4.38894">
        <ele>124.6</ele>
        <time>2011-09-04T09:12:48Z</time>
      </trkpt>
      <trkpt lat="48.43248" lon="-4.38897">
        <ele>125.3</ele>
        <time>2011-09-04T09:12:51Z</time>
      </trkpt>
      <trkpt lat="48.43252" lon="-4.389">
        <ele>125.2</ele>
        <time>2011-09-04T09:12:53Z</time>
      </trkpt>
      <trkpt lat="48.43258" lon="-4.38903">
        <ele>125.5</ele>
        <time>2011-09-04T09:12:56Z</time>
      </trkpt>
      <trkpt lat="48.43263" lon="-4.38907">
        <ele>126.8</ele>
        <time>2011-09-04T09:12:59Z</time>
      </trkpt>
      <trkpt lat="48.43269" lon="-4.3891">
        <ele>127.3</ele>
        <time>2011-09-04T09:13:02Z</time>
      </trkpt>
      <trkpt lat="48.43275" lon="-4.38914">
        <ele>127.1</ele>
        <time>2011-09-04T09:13:05Z</time>
      </trkpt>
      <trkpt lat="48.4328" lon="-4.3892">
        <ele>127</ele>
        <time>2011-09-04T09:13:08Z</time>
      </trkpt>
      <trkpt lat="48.43285" lon="-4.38922">
        <ele>127.3</ele>
        <time>2011-09-04T09:13:10Z</time>
      </trkpt>
      <trkpt lat="48.4329" lon="-4.38926">
        <ele>128.2</ele>
        <time>2011-09-04T09:13:13Z</time>
      </trkpt>
      <trkpt lat="48.43294" lon="-4.38928">
        <ele>129</ele>
        <time>2011-09-04T09:13:15Z</time>
      </trkpt>
      <trkpt lat="48.43299" lon="-4.3893">
        <ele>128.7</ele>
        <time>2011-09-04T09:13:17Z</time>
      </trkpt>
      <trkpt lat="48.43303" lon="-4.3893">
        <ele>128.5</ele>
        <time>2011-09-04T09:13:19Z</time>
      </trkpt>
      <trkpt lat="48.4331" lon="-4.38932">
        <ele>128.4</ele>
        <time>2011-09-04T09:13:22Z</time>
      </trkpt>
      <trkpt lat="48.43315" lon="-4.38934">
        <ele>128.1</ele>
        <time>2011-09-04T09:13:24Z</time>
      </trkpt>
      <trkpt lat="48.4332" lon="-4.38935">
        <ele>127.8</ele>
        <time>2011-09-04T09:13:26Z</time>
      </trkpt>
      <trkpt lat="48.43326" lon="-4.38937">
        <ele>127.8</ele>
        <time>2011-09-04T09:13:28Z</time>
      </trkpt>
      <trkpt lat="48.43333" lon="-4.38938">
        <ele>127.8</ele>
        <time>2011-09-04T09:13:30Z</time>
      </trkpt>
      <trkpt lat="48.43341" lon="-4.38939">
        <ele>127</ele>
        <time>2011-09-04T09:13:32Z</time>
      </trkpt>
      <trkpt lat="48.43349" lon="-4.38941">
        <ele>126.6</ele>
        <time>2011-09-04T09:13:34Z</time>
      </trkpt>
      <trkpt lat="48.43353" lon="-4.38942">
        <ele>126.5</ele>
        <time>2011-09-04T09:13:35Z</time>
      </trkpt>
      <trkpt lat="48.43359" lon="-4.38942">
        <ele>126.3</ele>
        <time>2011-09-04T09:13:36Z</time>
      </trkpt>
      <trkpt lat="48.43364" lon="-4.38943">
        <ele>126</ele>
        <time>2011-09-04T09:13:37Z</time>
      </trkpt>
      <trkpt lat="48.4337" lon="-4.38944">
        <ele>125.4</ele>
        <time>2011-09-04T09:13:38Z</time>
      </trkpt>
      <trkpt lat="48.43376" lon="-4.38944">
        <ele>125.3</ele>
        <time>2011-09-04T09:13:39Z</time>
      </trkpt>
      <trkpt lat="48.43382" lon="-4.38944">
        <ele>124.6</ele>
        <time>2011-09-04T09:13:40Z</time>
      </trkpt>
      <trkpt lat="48.43388" lon="-4.38945">
        <ele>124.4</ele>
        <time>2011-09-04T09:13:41Z</time>
      </trkpt>
      <trkpt lat="48.43395" lon="-4.38947">
        <ele>123.9</ele>
        <time>2011-09-04T09:13:42Z</time>
      </trkpt>
      <trkpt lat="48.43401" lon="-4.38948">
        <ele>123.7</ele>
        <time>2011-09-04T09:13:43Z</time>
      </trkpt>
      <trkpt lat="48.43408" lon="-4.38951">
        <ele>123.4</ele>
        <time>2011-09-04T09:13:44Z</time>
      </trkpt>
      <trkpt lat="48.43415" lon="-4.38954">
        <ele>123.1</ele>
        <time>2011-09-04T09:13:45Z</time>
      </trkpt>
      <trkpt lat="48.43422" lon="-4.38958">
        <ele>122.9</ele>
        <time>2011-09-04T09:13:46Z</time>
      </trkpt>
      <trkpt lat="48.43429" lon="-4.38963">
        <ele>122.6</ele>
        <time>2011-09-04T09:13:47Z</time>
      </trkpt>
      <trkpt lat="48.43436" lon="-4.38966">
        <ele>122.4</ele>
        <time>2011-09-04T09:13:48Z</time>
      </trkpt>
      <trkpt lat="48.43442" lon="-4.3897">
        <ele>122.2</ele>
        <time>2011-09-04T09:13:49Z</time>
      </trkpt>
      <trkpt lat="48.43447" lon="-4.38974">
        <ele>122.5</ele>
        <time>2011-09-04T09:13:50Z</time>
      </trkpt>
      <trkpt lat="48.43452" lon="-4.38978">
        <ele>122.6</ele>
        <time>2011-09-04T09:13:51Z</time>
      </trkpt>
      <trkpt lat="48.43457" lon="-4.3898">
        <ele>122.7</ele>
        <time>2011-09-04T09:13:52Z</time>
      </trkpt>
      <trkpt lat="48.43461" lon="-4.38983">
        <ele>122.2</ele>
        <time>2011-09-04T09:13:53Z</time>
      </trkpt>
      <trkpt lat="48.43469" lon="-4.38988">
        <ele>121.9</ele>
        <time>2011-09-04T09:13:55Z</time>
      </trkpt>
      <trkpt lat="48.43476" lon="-4.38993">
        <ele>121.6</ele>
        <time>2011-09-04T09:13:57Z</time>
      </trkpt>
      <trkpt lat="48.43482" lon="-4.38997">
        <ele>122</ele>
        <time>2011-09-04T09:13:59Z</time>
      </trkpt>
      <trkpt lat="48.43488" lon="-4.38999">
        <ele>122.6</ele>
        <time>2011-09-04T09:14:01Z</time>
      </trkpt>
      <trkpt lat="48.43494" lon="-4.38999">
        <ele>121.5</ele>
        <time>2011-09-04T09:14:03Z</time>
      </trkpt>
      <trkpt lat="48.43499" lon="-4.38998">
        <ele>122.2</ele>
        <time>2011-09-04T09:14:05Z</time>
      </trkpt>
      <trkpt lat="48.43504" lon="-4.39">
        <ele>122.6</ele>
        <time>2011-09-04T09:14:07Z</time>
      </trkpt>
      <trkpt lat="48.43508" lon="-4.39005">
        <ele>122.8</ele>
        <time>2011-09-04T09:14:09Z</time>
      </trkpt>
      <trkpt lat="48.43509" lon="-4.39012">
        <ele>121.8</ele>
        <time>2011-09-04T09:14:11Z</time>
      </trkpt>
      <trkpt lat="48.43507" lon="-4.3902">
        <ele>120.2</ele>
        <time>2011-09-04T09:14:13Z</time>
      </trkpt>
      <trkpt lat="48.43503" lon="-4.39028">
        <ele>119.5</ele>
        <time>2011-09-04T09:14:15Z</time>
      </trkpt>
      <trkpt lat="48.435" lon="-4.39035">
        <ele>119.5</ele>
        <time>2011-09-04T09:14:17Z</time>
      </trkpt>
      <trkpt lat="48.43502" lon="-4.39043">
        <ele>119.9</ele>
        <time>2011-09-04T09:14:18Z</time>
      </trkpt>
      <trkpt lat="48.43501" lon="-4.39054">
        <ele>120.5</ele>
        <time>2011-09-04T09:14:20Z</time>
      </trkpt>
      <trkpt lat="48.43499" lon="-4.39064">
        <ele>121.8</ele>
        <time>2011-09-04T09:14:22Z</time>
      </trkpt>
      <trkpt lat="48.43499" lon="-4.39073">
        <ele>121.9</ele>
        <time>2011-09-04T09:14:24Z</time>
      </trkpt>
      <trkpt lat="48.43498" lon="-4.39085">
        <ele>121.8</ele>
        <time>2011-09-04T09:14:26Z</time>
      </trkpt>
      <trkpt lat="48.43497" lon="-4.39097">
        <ele>121.4</ele>
        <time>2011-09-04T09:14:28Z</time>
      </trkpt>
      <trkpt lat="48.43496" lon="-4.39108">
        <ele>121.1</ele>
        <time>2011-09-04T09:14:30Z</time>
      </trkpt>
      <trkpt lat="48.43495" lon="-4.39121">
        <ele>121.7</ele>
        <time>2011-09-04T09:14:32Z</time>
      </trkpt>
      <trkpt lat="48.43494" lon="-4.39132">
        <ele>121.8</ele>
        <time>2011-09-04T09:14:34Z</time>
      </trkpt>
      <trkpt lat="48.43492" lon="-4.39144">
        <ele>122.3</ele>
        <time>2011-09-04T09:14:36Z</time>
      </trkpt>
      <trkpt lat="48.43492" lon="-4.39156">
        <ele>122.2</ele>
        <time>2011-09-04T09:14:38Z</time>
      </trkpt>
      <trkpt lat="48.4349" lon="-4.39167">
        <ele>122.5</ele>
        <time>2011-09-04T09:14:40Z</time>
      </trkpt>
      <trkpt lat="48.43488" lon="-4.39179">
        <ele>122.9</ele>
        <time>2011-09-04T09:14:42Z</time>
      </trkpt>
      <trkpt lat="48.43486" lon="-4.39191">
        <ele>122.2</ele>
        <time>2011-09-04T09:14:44Z</time>
      </trkpt>
      <trkpt lat="48.43485" lon="-4.39204">
        <ele>122.1</ele>
        <time>2011-09-04T09:14:46Z</time>
      </trkpt>
      <trkpt lat="48.43483" lon="-4.39215">
        <ele>121.7</ele>
        <time>2011-09-04T09:14:48Z</time>
      </trkpt>
      <trkpt lat="48.43481" lon="-4.39228">
        <ele>122.1</ele>
        <time>2011-09-04T09:14:50Z</time>
      </trkpt>
      <trkpt lat="48.43478" lon="-4.3924">
        <ele>122.2</ele>
        <time>2011-09-04T09:14:52Z</time>
      </trkpt>
      <trkpt lat="48.43476" lon="-4.39252">
        <ele>122.5</ele>
        <time>2011-09-04T09:14:54Z</time>
      </trkpt>
      <trkpt lat="48.43475" lon="-4.39264">
        <ele>122.7</ele>
        <time>2011-09-04T09:14:56Z</time>
      </trkpt>
      <trkpt lat="48.43472" lon="-4.3927">
        <ele>126.2</ele>
        <time>2011-09-04T09:14:57Z</time>
      </trkpt>
      <trkpt lat="48.4347" lon="-4.39276">
        <ele>127.3</ele>
        <time>2011-09-04T09:14:58Z</time>
      </trkpt>
      <trkpt lat="48.43468" lon="-4.39283">
        <ele>127.5</ele>
        <time>2011-09-04T09:14:59Z</time>
      </trkpt>
      <trkpt lat="48.43466" lon="-4.39296">
        <ele>127.4</ele>
        <time>2011-09-04T09:15:01Z</time>
      </trkpt>
      <trkpt lat="48.43465" lon="-4.39307">
        <ele>127.2</ele>
        <time>2011-09-04T09:15:03Z</time>
      </trkpt>
      <trkpt lat="48.43462" lon="-4.39318">
        <ele>127.2</ele>
        <time>2011-09-04T09:15:05Z</time>
      </trkpt>
      <trkpt lat="48.4346" lon="-4.39328">
        <ele>127.7</ele>
        <time>2011-09-04T09:15:07Z</time>
      </trkpt>
      <trkpt lat="48.43457" lon="-4.39338">
        <ele>127.4</ele>
        <time>2011-09-04T09:15:09Z</time>
      </trkpt>
      <trkpt lat="48.43454" lon="-4.39349">
        <ele>127.4</ele>
        <time>2011-09-04T09:15:11Z</time>
      </trkpt>
      <trkpt lat="48.43452" lon="-4.39359">
        <ele>127.6</ele>
        <time>2011-09-04T09:15:13Z</time>
      </trkpt>
      <trkpt lat="48.4345" lon="-4.3937">
        <ele>127</ele>
        <time>2011-09-04T09:15:15Z</time>
      </trkpt>
      <trkpt lat="48.43448" lon="-4.39381">
        <ele>126.5</ele>
        <time>2011-09-04T09:15:17Z</time>
      </trkpt>
      <trkpt lat="48.43445" lon="-4.39387">
        <ele>126.1</ele>
        <time>2011-09-04T09:15:18Z</time>
      </trkpt>
      <trkpt lat="48.43442" lon="-4.39398">
        <ele>125.7</ele>
        <time>2011-09-04T09:15:20Z</time>
      </trkpt>
      <trkpt lat="48.43439" lon="-4.39408">
        <ele>125.9</ele>
        <time>2011-09-04T09:15:22Z</time>
      </trkpt>
      <trkpt lat="48.43436" lon="-4.39419">
        <ele>126.2</ele>
        <time>2011-09-04T09:15:24Z</time>
      </trkpt>
      <trkpt lat="48.43432" lon="-4.3943">
        <ele>125.8</ele>
        <time>2011-09-04T09:15:26Z</time>
      </trkpt>
      <trkpt lat="48.4343" lon="-4.39441">
        <ele>126.7</ele>
        <time>2011-09-04T09:15:28Z</time>
      </trkpt>
      <trkpt lat="48.43426" lon="-4.39451">
        <ele>127.1</ele>
        <time>2011-09-04T09:15:30Z</time>
      </trkpt>
      <trkpt lat="48.43424" lon="-4.39461">
        <ele>127.6</ele>
        <time>2011-09-04T09:15:32Z</time>
      </trkpt>
      <trkpt lat="48.43421" lon="-4.39471">
        <ele>126.9</ele>
        <time>2011-09-04T09:15:34Z</time>
      </trkpt>
      <trkpt lat="48.43418" lon="-4.39483">
        <ele>126.8</ele>
        <time>2011-09-04T09:15:36Z</time>
      </trkpt>
      <trkpt lat="48.43415" lon="-4.39493">
        <ele>127.4</ele>
        <time>2011-09-04T09:15:38Z</time>
      </trkpt>
      <trkpt lat="48.43412" lon="-4.39504">
        <ele>127.2</ele>
        <time>2011-09-04T09:15:40Z</time>
      </trkpt>
      <trkpt lat="48.4341" lon="-4.3951">
        <ele>127.2</ele>
        <time>2011-09-04T09:15:41Z</time>
      </trkpt>
      <trkpt lat="48.43408" lon="-4.39522">
        <ele>127.8</ele>
        <time>2011-09-04T09:15:43Z</time>
      </trkpt>
      <trkpt lat="48.43406" lon="-4.39532">
        <ele>127.7</ele>
        <time>2011-09-04T09:15:45Z</time>
      </trkpt>
      <trkpt lat="48.43403" lon="-4.39543">
        <ele>129</ele>
        <time>2011-09-04T09:15:47Z</time>
      </trkpt>
      <trkpt lat="48.43401" lon="-4.39554">
        <ele>128.6</ele>
        <time>2011-09-04T09:15:49Z</time>
      </trkpt>
      <trkpt lat="48.43398" lon="-4.39564">
        <ele>128.9</ele>
        <time>2011-09-04T09:15:51Z</time>
      </trkpt>
      <trkpt lat="48.43395" lon="-4.39576">
        <ele>129</ele>
        <time>2011-09-04T09:15:53Z</time>
      </trkpt>
      <trkpt lat="48.43392" lon="-4.39587">
        <ele>129</ele>
        <time>2011-09-04T09:15:55Z</time>
      </trkpt>
      <trkpt lat="48.43388" lon="-4.39597">
        <ele>128.9</ele>
        <time>2011-09-04T09:15:57Z</time>
      </trkpt>
      <trkpt lat="48.43385" lon="-4.39609">
        <ele>129</ele>
        <time>2011-09-04T09:15:59Z</time>
      </trkpt>
      <trkpt lat="48.43381" lon="-4.39619">
        <ele>129.4</ele>
        <time>2011-09-04T09:16:01Z</time>
      </trkpt>
      <trkpt lat="48.43378" lon="-4.39628">
        <ele>129.7</ele>
        <time>2011-09-04T09:16:03Z</time>
      </trkpt>
      <trkpt lat="48.43374" lon="-4.39637">
        <ele>130.2</ele>
        <time>2011-09-04T09:16:05Z</time>
      </trkpt>
      <trkpt lat="48.43372" lon="-4.39647">
        <ele>130.9</ele>
        <time>2011-09-04T09:16:07Z</time>
      </trkpt>
      <trkpt lat="48.4337" lon="-4.39659">
        <ele>131.8</ele>
        <time>2011-09-04T09:16:09Z</time>
      </trkpt>
      <trkpt lat="48.43371" lon="-4.3967">
        <ele>132.2</ele>
        <time>2011-09-04T09:16:11Z</time>
      </trkpt>
      <trkpt lat="48.43366" lon="-4.39679">
        <ele>132.8</ele>
        <time>2011-09-04T09:16:13Z</time>
      </trkpt>
      <trkpt lat="48.4336" lon="-4.39684">
        <ele>132.7</ele>
        <time>2011-09-04T09:16:15Z</time>
      </trkpt>
      <trkpt lat="48.43356" lon="-4.39693">
        <ele>133.1</ele>
        <time>2011-09-04T09:16:17Z</time>
      </trkpt>
      <trkpt lat="48.43352" lon="-4.39702">
        <ele>133</ele>
        <time>2011-09-04T09:16:19Z</time>
      </trkpt>
      <trkpt lat="48.4335" lon="-4.39712">
        <ele>133.4</ele>
        <time>2011-09-04T09:16:21Z</time>
      </trkpt>
      <trkpt lat="48.43346" lon="-4.39723">
        <ele>132.8</ele>
        <time>2011-09-04T09:16:23Z</time>
      </trkpt>
      <trkpt lat="48.43343" lon="-4.39733">
        <ele>133</ele>
        <time>2011-09-04T09:16:25Z</time>
      </trkpt>
      <trkpt lat="48.43339" lon="-4.39744">
        <ele>132.5</ele>
        <time>2011-09-04T09:16:27Z</time>
      </trkpt>
      <trkpt lat="48.43336" lon="-4.39756">
        <ele>132.5</ele>
        <time>2011-09-04T09:16:29Z</time>
      </trkpt>
      <trkpt lat="48.43333" lon="-4.39766">
        <ele>132.4</ele>
        <time>2011-09-04T09:16:31Z</time>
      </trkpt>
      <trkpt lat="48.43329" lon="-4.39777">
        <ele>132.6</ele>
        <time>2011-09-04T09:16:33Z</time>
      </trkpt>
      <trkpt lat="48.43326" lon="-4.39788">
        <ele>132.9</ele>
        <time>2011-09-04T09:16:35Z</time>
      </trkpt>
      <trkpt lat="48.43321" lon="-4.39799">
        <ele>132.6</ele>
        <time>2011-09-04T09:16:37Z</time>
      </trkpt>
      <trkpt lat="48.43319" lon="-4.39806">
        <ele>132.4</ele>
        <time>2011-09-04T09:16:38Z</time>
      </trkpt>
      <trkpt lat="48.43317" lon="-4.39812">
        <ele>132.7</ele>
        <time>2011-09-04T09:16:39Z</time>
      </trkpt>
      <trkpt lat="48.43314" lon="-4.39819">
        <ele>133.8</ele>
        <time>2011-09-04T09:16:40Z</time>
      </trkpt>
      <trkpt lat="48.43311" lon="-4.39825">
        <ele>134.2</ele>
        <time>2011-09-04T09:16:41Z</time>
      </trkpt>
      <trkpt lat="48.43306" lon="-4.39836">
        <ele>134.1</ele>
        <time>2011-09-04T09:16:43Z</time>
      </trkpt>
      <trkpt lat="48.43303" lon="-4.39848">
        <ele>133.6</ele>
        <time>2011-09-04T09:16:45Z</time>
      </trkpt>
      <trkpt lat="48.43299" lon="-4.39861">
        <ele>132.5</ele>
        <time>2011-09-04T09:16:47Z</time>
      </trkpt>
      <trkpt lat="48.43297" lon="-4.39867">
        <ele>132.7</ele>
        <time>2011-09-04T09:16:48Z</time>
      </trkpt>
      <trkpt lat="48.43295" lon="-4.39874">
        <ele>132.9</ele>
        <time>2011-09-04T09:16:49Z</time>
      </trkpt>
      <trkpt lat="48.43292" lon="-4.39882">
        <ele>131.5</ele>
        <time>2011-09-04T09:16:50Z</time>
      </trkpt>
      <trkpt lat="48.4329" lon="-4.39888">
        <ele>131.2</ele>
        <time>2011-09-04T09:16:51Z</time>
      </trkpt>
      <trkpt lat="48.43286" lon="-4.39894">
        <ele>131</ele>
        <time>2011-09-04T09:16:52Z</time>
      </trkpt>
      <trkpt lat="48.43283" lon="-4.39901">
        <ele>131.3</ele>
        <time>2011-09-04T09:16:53Z</time>
      </trkpt>
      <trkpt lat="48.4328" lon="-4.39908">
        <ele>131.8</ele>
        <time>2011-09-04T09:16:54Z</time>
      </trkpt>
      <trkpt lat="48.43277" lon="-4.39915">
        <ele>131.4</ele>
        <time>2011-09-04T09:16:55Z</time>
      </trkpt>
      <trkpt lat="48.43274" lon="-4.39922">
        <ele>131</ele>
        <time>2011-09-04T09:16:56Z</time>
      </trkpt>
      <trkpt lat="48.43271" lon="-4.3993">
        <ele>129.3</ele>
        <time>2011-09-04T09:16:57Z</time>
      </trkpt>
      <trkpt lat="48.43268" lon="-4.39937">
        <ele>129</ele>
        <time>2011-09-04T09:16:58Z</time>
      </trkpt>
      <trkpt lat="48.43264" lon="-4.39945">
        <ele>128.7</ele>
        <time>2011-09-04T09:16:59Z</time>
      </trkpt>
      <trkpt lat="48.43262" lon="-4.39953">
        <ele>128.8</ele>
        <time>2011-09-04T09:17:00Z</time>
      </trkpt>
      <trkpt lat="48.43259" lon="-4.39961">
        <ele>129</ele>
        <time>2011-09-04T09:17:01Z</time>
      </trkpt>
      <trkpt lat="48.43256" lon="-4.39969">
        <ele>129</ele>
        <time>2011-09-04T09:17:02Z</time>
      </trkpt>
      <trkpt lat="48.43254" lon="-4.39976">
        <ele>128.9</ele>
        <time>2011-09-04T09:17:03Z</time>
      </trkpt>
      <trkpt lat="48.43251" lon="-4.39984">
        <ele>128.8</ele>
        <time>2011-09-04T09:17:04Z</time>
      </trkpt>
      <trkpt lat="48.43248" lon="-4.39992">
        <ele>128</ele>
        <time>2011-09-04T09:17:05Z</time>
      </trkpt>
      <trkpt lat="48.43245" lon="-4.4">
        <ele>127.3</ele>
        <time>2011-09-04T09:17:06Z</time>
      </trkpt>
      <trkpt lat="48.43242" lon="-4.40007">
        <ele>126.9</ele>
        <time>2011-09-04T09:17:07Z</time>
      </trkpt>
      <trkpt lat="48.43239" lon="-4.40013">
        <ele>127.5</ele>
        <time>2011-09-04T09:17:08Z</time>
      </trkpt>
      <trkpt lat="48.43236" lon="-4.4002">
        <ele>127.3</ele>
        <time>2011-09-04T09:17:09Z</time>
      </trkpt>
      <trkpt lat="48.43233" lon="-4.40028">
        <ele>127.6</ele>
        <time>2011-09-04T09:17:10Z</time>
      </trkpt>
      <trkpt lat="48.4323" lon="-4.40035">
        <ele>127.7</ele>
        <time>2011-09-04T09:17:11Z</time>
      </trkpt>
      <trkpt lat="48.43227" lon="-4.40042">
        <ele>127.7</ele>
        <time>2011-09-04T09:17:12Z</time>
      </trkpt>
      <trkpt lat="48.43224" lon="-4.40048">
        <ele>127.3</ele>
        <time>2011-09-04T09:17:13Z</time>
      </trkpt>
      <trkpt lat="48.43221" lon="-4.40058">
        <ele>127.1</ele>
        <time>2011-09-04T09:17:14Z</time>
      </trkpt>
      <trkpt lat="48.43218" lon="-4.40065">
        <ele>127.2</ele>
        <time>2011-09-04T09:17:15Z</time>
      </trkpt>
      <trkpt lat="48.43215" lon="-4.40072">
        <ele>127.1</ele>
        <time>2011-09-04T09:17:16Z</time>
      </trkpt>
      <trkpt lat="48.43211" lon="-4.4008">
        <ele>126.5</ele>
        <time>2011-09-04T09:17:17Z</time>
      </trkpt>
      <trkpt lat="48.43208" lon="-4.40088">
        <ele>126.4</ele>
        <time>2011-09-04T09:17:18Z</time>
      </trkpt>
      <trkpt lat="48.43204" lon="-4.40096">
        <ele>125.8</ele>
        <time>2011-09-04T09:17:19Z</time>
      </trkpt>
      <trkpt lat="48.43201" lon="-4.40104">
        <ele>125.5</ele>
        <time>2011-09-04T09:17:20Z</time>
      </trkpt>
      <trkpt lat="48.43198" lon="-4.4011">
        <ele>125.1</ele>
        <time>2011-09-04T09:17:21Z</time>
      </trkpt>
      <trkpt lat="48.43194" lon="-4.40118">
        <ele>125</ele>
        <time>2011-09-04T09:17:22Z</time>
      </trkpt>
      <trkpt lat="48.43191" lon="-4.40126">
        <ele>124.9</ele>
        <time>2011-09-04T09:17:23Z</time>
      </trkpt>
      <trkpt lat="48.43188" lon="-4.40133">
        <ele>124.7</ele>
        <time>2011-09-04T09:17:24Z</time>
      </trkpt>
      <trkpt lat="48.43185" lon="-4.40141">
        <ele>124.3</ele>
        <time>2011-09-04T09:17:25Z</time>
      </trkpt>
      <trkpt lat="48.43182" lon="-4.40148">
        <ele>124.2</ele>
        <time>2011-09-04T09:17:26Z</time>
      </trkpt>
      <trkpt lat="48.43179" lon="-4.40156">
        <ele>123.9</ele>
        <time>2011-09-04T09:17:27Z</time>
      </trkpt>
      <trkpt lat="48.43176" lon="-4.40163">
        <ele>124.1</ele>
        <time>2011-09-04T09:17:28Z</time>
      </trkpt>
      <trkpt lat="48.43174" lon="-4.40171">
        <ele>124.1</ele>
        <time>2011-09-04T09:17:29Z</time>
      </trkpt>
      <trkpt lat="48.4317" lon="-4.40177">
        <ele>123.8</ele>
        <time>2011-09-04T09:17:30Z</time>
      </trkpt>
      <trkpt lat="48.43167" lon="-4.40184">
        <ele>124.3</ele>
        <time>2011-09-04T09:17:31Z</time>
      </trkpt>
      <trkpt lat="48.43164" lon="-4.40192">
        <ele>124.3</ele>
        <time>2011-09-04T09:17:32Z</time>
      </trkpt>
      <trkpt lat="48.4316" lon="-4.40199">
        <ele>124.2</ele>
        <time>2011-09-04T09:17:33Z</time>
      </trkpt>
      <trkpt lat="48.43156" lon="-4.40208">
        <ele>124.1</ele>
        <time>2011-09-04T09:17:34Z</time>
      </trkpt>
      <trkpt lat="48.43153" lon="-4.40216">
        <ele>123.1</ele>
        <time>2011-09-04T09:17:35Z</time>
      </trkpt>
      <trkpt lat="48.43149" lon="-4.40225">
        <ele>122.4</ele>
        <time>2011-09-04T09:17:36Z</time>
      </trkpt>
      <trkpt lat="48.43146" lon="-4.40233">
        <ele>122.4</ele>
        <time>2011-09-04T09:17:37Z</time>
      </trkpt>
      <trkpt lat="48.43142" lon="-4.40243">
        <ele>121.6</ele>
        <time>2011-09-04T09:17:38Z</time>
      </trkpt>
      <trkpt lat="48.43139" lon="-4.40252">
        <ele>121</ele>
        <time>2011-09-04T09:17:39Z</time>
      </trkpt>
      <trkpt lat="48.43137" lon="-4.40263">
        <ele>119.8</ele>
        <time>2011-09-04T09:17:40Z</time>
      </trkpt>
      <trkpt lat="48.43138" lon="-4.40273">
        <ele>121.2</ele>
        <time>2011-09-04T09:17:41Z</time>
      </trkpt>
      <trkpt lat="48.43138" lon="-4.40283">
        <ele>121.1</ele>
        <time>2011-09-04T09:17:42Z</time>
      </trkpt>
      <trkpt lat="48.43137" lon="-4.40293">
        <ele>121.5</ele>
        <time>2011-09-04T09:17:43Z</time>
      </trkpt>
      <trkpt lat="48.43134" lon="-4.403">
        <ele>121.5</ele>
        <time>2011-09-04T09:17:44Z</time>
      </trkpt>
      <trkpt lat="48.4313" lon="-4.40306">
        <ele>120.4</ele>
        <time>2011-09-04T09:17:45Z</time>
      </trkpt>
      <trkpt lat="48.43126" lon="-4.40312">
        <ele>119.6</ele>
        <time>2011-09-04T09:17:46Z</time>
      </trkpt>
      <trkpt lat="48.43121" lon="-4.40316">
        <ele>119.3</ele>
        <time>2011-09-04T09:17:47Z</time>
      </trkpt>
      <trkpt lat="48.43116" lon="-4.40321">
        <ele>119.1</ele>
        <time>2011-09-04T09:17:48Z</time>
      </trkpt>
      <trkpt lat="48.43113" lon="-4.40326">
        <ele>119.1</ele>
        <time>2011-09-04T09:17:49Z</time>
      </trkpt>
      <trkpt lat="48.4311" lon="-4.40332">
        <ele>119.3</ele>
        <time>2011-09-04T09:17:50Z</time>
      </trkpt>
      <trkpt lat="48.43108" lon="-4.4034">
        <ele>120</ele>
        <time>2011-09-04T09:17:51Z</time>
      </trkpt>
      <trkpt lat="48.43106" lon="-4.40347">
        <ele>120</ele>
        <time>2011-09-04T09:17:52Z</time>
      </trkpt>
      <trkpt lat="48.43104" lon="-4.40358">
        <ele>120.2</ele>
        <time>2011-09-04T09:17:54Z</time>
      </trkpt>
      <trkpt lat="48.43102" lon="-4.40369">
        <ele>120.4</ele>
        <time>2011-09-04T09:17:56Z</time>
      </trkpt>
      <trkpt lat="48.43099" lon="-4.4038">
        <ele>121.1</ele>
        <time>2011-09-04T09:17:58Z</time>
      </trkpt>
      <trkpt lat="48.43097" lon="-4.40392">
        <ele>122.2</ele>
        <time>2011-09-04T09:18:00Z</time>
      </trkpt>
      <trkpt lat="48.43096" lon="-4.40404">
        <ele>122.6</ele>
        <time>2011-09-04T09:18:02Z</time>
      </trkpt>
      <trkpt lat="48.43095" lon="-4.40415">
        <ele>122.9</ele>
        <time>2011-09-04T09:18:04Z</time>
      </trkpt>
      <trkpt lat="48.43094" lon="-4.40425">
        <ele>123.6</ele>
        <time>2011-09-04T09:18:06Z</time>
      </trkpt>
      <trkpt lat="48.43093" lon="-4.40437">
        <ele>124.1</ele>
        <time>2011-09-04T09:18:08Z</time>
      </trkpt>
      <trkpt lat="48.43092" lon="-4.40449">
        <ele>125.3</ele>
        <time>2011-09-04T09:18:10Z</time>
      </trkpt>
      <trkpt lat="48.4309" lon="-4.40456">
        <ele>124.9</ele>
        <time>2011-09-04T09:18:11Z</time>
      </trkpt>
      <trkpt lat="48.43088" lon="-4.40467">
        <ele>124.9</ele>
        <time>2011-09-04T09:18:13Z</time>
      </trkpt>
      <trkpt lat="48.43087" lon="-4.40478">
        <ele>125.2</ele>
        <time>2011-09-04T09:18:15Z</time>
      </trkpt>
      <trkpt lat="48.43086" lon="-4.4049">
        <ele>125.5</ele>
        <time>2011-09-04T09:18:17Z</time>
      </trkpt>
      <trkpt lat="48.43085" lon="-4.40502">
        <ele>126</ele>
        <time>2011-09-04T09:18:19Z</time>
      </trkpt>
      <trkpt lat="48.43083" lon="-4.40514">
        <ele>126.5</ele>
        <time>2011-09-04T09:18:21Z</time>
      </trkpt>
      <trkpt lat="48.43082" lon="-4.40527">
        <ele>126.6</ele>
        <time>2011-09-04T09:18:23Z</time>
      </trkpt>
      <trkpt lat="48.43081" lon="-4.40534">
        <ele>126.4</ele>
        <time>2011-09-04T09:18:24Z</time>
      </trkpt>
      <trkpt lat="48.43082" lon="-4.40546">
        <ele>125.6</ele>
        <time>2011-09-04T09:18:26Z</time>
      </trkpt>
      <trkpt lat="48.4308" lon="-4.40558">
        <ele>126.3</ele>
        <time>2011-09-04T09:18:28Z</time>
      </trkpt>
      <trkpt lat="48.43079" lon="-4.40566">
        <ele>126.3</ele>
        <time>2011-09-04T09:18:29Z</time>
      </trkpt>
      <trkpt lat="48.43076" lon="-4.40577">
        <ele>126.5</ele>
        <time>2011-09-04T09:18:31Z</time>
      </trkpt>
      <trkpt lat="48.43074" lon="-4.40585">
        <ele>125.5</ele>
        <time>2011-09-04T09:18:32Z</time>
      </trkpt>
      <trkpt lat="48.43073" lon="-4.40592">
        <ele>125.6</ele>
        <time>2011-09-04T09:18:33Z</time>
      </trkpt>
      <trkpt lat="48.43072" lon="-4.406">
        <ele>125</ele>
        <time>2011-09-04T09:18:34Z</time>
      </trkpt>
      <trkpt lat="48.4307" lon="-4.40612">
        <ele>124.9</ele>
        <time>2011-09-04T09:18:36Z</time>
      </trkpt>
      <trkpt lat="48.43066" lon="-4.40623">
        <ele>124.4</ele>
        <time>2011-09-04T09:18:38Z</time>
      </trkpt>
      <trkpt lat="48.43065" lon="-4.4063">
        <ele>124.8</ele>
        <time>2011-09-04T09:18:39Z</time>
      </trkpt>
      <trkpt lat="48.43062" lon="-4.40642">
        <ele>124.8</ele>
        <time>2011-09-04T09:18:41Z</time>
      </trkpt>
      <trkpt lat="48.43059" lon="-4.40654">
        <ele>124</ele>
        <time>2011-09-04T09:18:43Z</time>
      </trkpt>
      <trkpt lat="48.43056" lon="-4.40666">
        <ele>123.5</ele>
        <time>2011-09-04T09:18:45Z</time>
      </trkpt>
      <trkpt lat="48.43054" lon="-4.40672">
        <ele>123.6</ele>
        <time>2011-09-04T09:18:46Z</time>
      </trkpt>
      <trkpt lat="48.4305" lon="-4.40684">
        <ele>123.1</ele>
        <time>2011-09-04T09:18:48Z</time>
      </trkpt>
      <trkpt lat="48.43048" lon="-4.40691">
        <ele>123.7</ele>
        <time>2011-09-04T09:18:49Z</time>
      </trkpt>
      <trkpt lat="48.43044" lon="-4.40703">
        <ele>123.4</ele>
        <time>2011-09-04T09:18:51Z</time>
      </trkpt>
      <trkpt lat="48.43042" lon="-4.4071">
        <ele>122.8</ele>
        <time>2011-09-04T09:18:52Z</time>
      </trkpt>
      <trkpt lat="48.43039" lon="-4.40718">
        <ele>122.9</ele>
        <time>2011-09-04T09:18:53Z</time>
      </trkpt>
      <trkpt lat="48.43036" lon="-4.40725">
        <ele>122.6</ele>
        <time>2011-09-04T09:18:54Z</time>
      </trkpt>
      <trkpt lat="48.43035" lon="-4.40732">
        <ele>122.8</ele>
        <time>2011-09-04T09:18:55Z</time>
      </trkpt>
      <trkpt lat="48.43033" lon="-4.40739">
        <ele>122.9</ele>
        <time>2011-09-04T09:18:56Z</time>
      </trkpt>
      <trkpt lat="48.43031" lon="-4.40745">
        <ele>122.4</ele>
        <time>2011-09-04T09:18:57Z</time>
      </trkpt>
      <trkpt lat="48.43029" lon="-4.40753">
        <ele>121.8</ele>
        <time>2011-09-04T09:18:58Z</time>
      </trkpt>
      <trkpt lat="48.43026" lon="-4.4076">
        <ele>121.8</ele>
        <time>2011-09-04T09:18:59Z</time>
      </trkpt>
      <trkpt lat="48.43023" lon="-4.40767">
        <ele>121.2</ele>
        <time>2011-09-04T09:19:00Z</time>
      </trkpt>
      <trkpt lat="48.43019" lon="-4.40774">
        <ele>121</ele>
        <time>2011-09-04T09:19:01Z</time>
      </trkpt>
      <trkpt lat="48.43017" lon="-4.40781">
        <ele>120.7</ele>
        <time>2011-09-04T09:19:02Z</time>
      </trkpt>
      <trkpt lat="48.43014" lon="-4.40787">
        <ele>121.4</ele>
        <time>2011-09-04T09:19:03Z</time>
      </trkpt>
      <trkpt lat="48.4301" lon="-4.40793">
        <ele>121</ele>
        <time>2011-09-04T09:19:04Z</time>
      </trkpt>
      <trkpt lat="48.43007" lon="-4.408">
        <ele>120.8</ele>
        <time>2011-09-04T09:19:05Z</time>
      </trkpt>
      <trkpt lat="48.43004" lon="-4.40807">
        <ele>120.5</ele>
        <time>2011-09-04T09:19:06Z</time>
      </trkpt>
      <trkpt lat="48.43001" lon="-4.40813">
        <ele>120.2</ele>
        <time>2011-09-04T09:19:07Z</time>
      </trkpt>
      <trkpt lat="48.42997" lon="-4.4082">
        <ele>120.5</ele>
        <time>2011-09-04T09:19:08Z</time>
      </trkpt>
      <trkpt lat="48.42993" lon="-4.40828">
        <ele>120.4</ele>
        <time>2011-09-04T09:19:09Z</time>
      </trkpt>
      <trkpt lat="48.4299" lon="-4.40833">
        <ele>119.8</ele>
        <time>2011-09-04T09:19:10Z</time>
      </trkpt>
      <trkpt lat="48.42987" lon="-4.40839">
        <ele>119.6</ele>
        <time>2011-09-04T09:19:11Z</time>
      </trkpt>
      <trkpt lat="48.42984" lon="-4.40845">
        <ele>119.3</ele>
        <time>2011-09-04T09:19:12Z</time>
      </trkpt>
      <trkpt lat="48.42979" lon="-4.40852">
        <ele>118.7</ele>
        <time>2011-09-04T09:19:13Z</time>
      </trkpt>
      <trkpt lat="48.42975" lon="-4.40858">
        <ele>118.8</ele>
        <time>2011-09-04T09:19:14Z</time>
      </trkpt>
      <trkpt lat="48.42972" lon="-4.40864">
        <ele>119</ele>
        <time>2011-09-04T09:19:15Z</time>
      </trkpt>
      <trkpt lat="48.42969" lon="-4.4087">
        <ele>118.2</ele>
        <time>2011-09-04T09:19:16Z</time>
      </trkpt>
      <trkpt lat="48.42965" lon="-4.40876">
        <ele>118.6</ele>
        <time>2011-09-04T09:19:17Z</time>
      </trkpt>
      <trkpt lat="48.42961" lon="-4.40883">
        <ele>118.6</ele>
        <time>2011-09-04T09:19:18Z</time>
      </trkpt>
      <trkpt lat="48.42958" lon="-4.40889">
        <ele>118.4</ele>
        <time>2011-09-04T09:19:19Z</time>
      </trkpt>
      <trkpt lat="48.42955" lon="-4.40896">
        <ele>118.9</ele>
        <time>2011-09-04T09:19:20Z</time>
      </trkpt>
      <trkpt lat="48.42952" lon="-4.40902">
        <ele>119.8</ele>
        <time>2011-09-04T09:19:21Z</time>
      </trkpt>
      <trkpt lat="48.42949" lon="-4.40908">
        <ele>120.6</ele>
        <time>2011-09-04T09:19:22Z</time>
      </trkpt>
      <trkpt lat="48.42945" lon="-4.40913">
        <ele>121.1</ele>
        <time>2011-09-04T09:19:23Z</time>
      </trkpt>
      <trkpt lat="48.42941" lon="-4.40919">
        <ele>120.9</ele>
        <time>2011-09-04T09:19:24Z</time>
      </trkpt>
      <trkpt lat="48.42938" lon="-4.40925">
        <ele>121.3</ele>
        <time>2011-09-04T09:19:25Z</time>
      </trkpt>
      <trkpt lat="48.42934" lon="-4.40932">
        <ele>121.1</ele>
        <time>2011-09-04T09:19:26Z</time>
      </trkpt>
      <trkpt lat="48.4293" lon="-4.40938">
        <ele>120.8</ele>
        <time>2011-09-04T09:19:27Z</time>
      </trkpt>
      <trkpt lat="48.42926" lon="-4.40944">
        <ele>120.6</ele>
        <time>2011-09-04T09:19:28Z</time>
      </trkpt>
      <trkpt lat="48.42922" lon="-4.4095">
        <ele>120.1</ele>
        <time>2011-09-04T09:19:29Z</time>
      </trkpt>
      <trkpt lat="48.42918" lon="-4.40958">
        <ele>120</ele>
        <time>2011-09-04T09:19:30Z</time>
      </trkpt>
      <trkpt lat="48.42914" lon="-4.40965">
        <ele>119.7</ele>
        <time>2011-09-04T09:19:31Z</time>
      </trkpt>
      <trkpt lat="48.4291" lon="-4.40972">
        <ele>119.4</ele>
        <time>2011-09-04T09:19:32Z</time>
      </trkpt>
      <trkpt lat="48.42906" lon="-4.40979">
        <ele>119.2</ele>
        <time>2011-09-04T09:19:33Z</time>
      </trkpt>
      <trkpt lat="48.42902" lon="-4.40986">
        <ele>119</ele>
        <time>2011-09-04T09:19:34Z</time>
      </trkpt>
      <trkpt lat="48.42898" lon="-4.40995">
        <ele>118.5</ele>
        <time>2011-09-04T09:19:35Z</time>
      </trkpt>
      <trkpt lat="48.42893" lon="-4.41002">
        <ele>117.8</ele>
        <time>2011-09-04T09:19:36Z</time>
      </trkpt>
      <trkpt lat="48.42889" lon="-4.4101">
        <ele>117</ele>
        <time>2011-09-04T09:19:37Z</time>
      </trkpt>
      <trkpt lat="48.42884" lon="-4.41018">
        <ele>116.4</ele>
        <time>2011-09-04T09:19:38Z</time>
      </trkpt>
      <trkpt lat="48.4288" lon="-4.41028">
        <ele>115.3</ele>
        <time>2011-09-04T09:19:39Z</time>
      </trkpt>
      <trkpt lat="48.42875" lon="-4.41037">
        <ele>114.6</ele>
        <time>2011-09-04T09:19:40Z</time>
      </trkpt>
      <trkpt lat="48.42871" lon="-4.41048">
        <ele>114.3</ele>
        <time>2011-09-04T09:19:41Z</time>
      </trkpt>
      <trkpt lat="48.42867" lon="-4.41059">
        <ele>113.6</ele>
        <time>2011-09-04T09:19:42Z</time>
      </trkpt>
      <trkpt lat="48.42863" lon="-4.41071">
        <ele>113.2</ele>
        <time>2011-09-04T09:19:43Z</time>
      </trkpt>
      <trkpt lat="48.42859" lon="-4.41084">
        <ele>112.6</ele>
        <time>2011-09-04T09:19:44Z</time>
      </trkpt>
      <trkpt lat="48.42857" lon="-4.41096">
        <ele>111.6</ele>
        <time>2011-09-04T09:19:45Z</time>
      </trkpt>
      <trkpt lat="48.42855" lon="-4.41108">
        <ele>110.7</ele>
        <time>2011-09-04T09:19:46Z</time>
      </trkpt>
      <trkpt lat="48.42853" lon="-4.4112">
        <ele>110.8</ele>
        <time>2011-09-04T09:19:47Z</time>
      </trkpt>
      <trkpt lat="48.4285" lon="-4.41132">
        <ele>110.3</ele>
        <time>2011-09-04T09:19:47Z</time>
      </trkpt>
      <trkpt lat="48.42846" lon="-4.41143">
        <ele>109.2</ele>
        <time>2011-09-04T09:19:48Z</time>
      </trkpt>
      <trkpt lat="48.4284" lon="-4.41153">
        <ele>108.8</ele>
        <time>2011-09-04T09:19:49Z</time>
      </trkpt>
      <trkpt lat="48.42831" lon="-4.41157">
        <ele>107.7</ele>
        <time>2011-09-04T09:19:50Z</time>
      </trkpt>
      <trkpt lat="48.42822" lon="-4.4116">
        <ele>106.8</ele>
        <time>2011-09-04T09:19:51Z</time>
      </trkpt>
      <trkpt lat="48.42813" lon="-4.41161">
        <ele>105.9</ele>
        <time>2011-09-04T09:19:53Z</time>
      </trkpt>
      <trkpt lat="48.42805" lon="-4.4116">
        <ele>105.3</ele>
        <time>2011-09-04T09:19:54Z</time>
      </trkpt>
      <trkpt lat="48.42798" lon="-4.41159">
        <ele>105.2</ele>
        <time>2011-09-04T09:19:55Z</time>
      </trkpt>
      <trkpt lat="48.42793" lon="-4.41159">
        <ele>104.9</ele>
        <time>2011-09-04T09:19:55Z</time>
      </trkpt>
      <trkpt lat="48.42788" lon="-4.4116">
        <ele>104.7</ele>
        <time>2011-09-04T09:19:56Z</time>
      </trkpt>
      <trkpt lat="48.42783" lon="-4.41161">
        <ele>104.8</ele>
        <time>2011-09-04T09:19:57Z</time>
      </trkpt>
      <trkpt lat="48.42776" lon="-4.41158">
        <ele>105.5</ele>
        <time>2011-09-04T09:19:59Z</time>
      </trkpt>
      <trkpt lat="48.42772" lon="-4.41154">
        <ele>105.7</ele>
        <time>2011-09-04T09:20:00Z</time>
      </trkpt>
      <trkpt lat="48.42767" lon="-4.41151">
        <ele>105.3</ele>
        <time>2011-09-04T09:20:01Z</time>
      </trkpt>
      <trkpt lat="48.4276" lon="-4.41147">
        <ele>105</ele>
        <time>2011-09-04T09:20:02Z</time>
      </trkpt>
      <trkpt lat="48.42756" lon="-4.41143">
        <ele>105.1</ele>
        <time>2011-09-04T09:20:03Z</time>
      </trkpt>
      <trkpt lat="48.4275" lon="-4.4114">
        <ele>105.2</ele>
        <time>2011-09-04T09:20:04Z</time>
      </trkpt>
      <trkpt lat="48.42743" lon="-4.41138">
        <ele>105.3</ele>
        <time>2011-09-04T09:20:05Z</time>
      </trkpt>
      <trkpt lat="48.42736" lon="-4.41134">
        <ele>104.8</ele>
        <time>2011-09-04T09:20:06Z</time>
      </trkpt>
      <trkpt lat="48.42729" lon="-4.41132">
        <ele>104.6</ele>
        <time>2011-09-04T09:20:07Z</time>
      </trkpt>
      <trkpt lat="48.4272" lon="-4.4113">
        <ele>103.8</ele>
        <time>2011-09-04T09:20:08Z</time>
      </trkpt>
      <trkpt lat="48.42712" lon="-4.41127">
        <ele>103.8</ele>
        <time>2011-09-04T09:20:09Z</time>
      </trkpt>
      <trkpt lat="48.42704" lon="-4.41126">
        <ele>104.1</ele>
        <time>2011-09-04T09:20:10Z</time>
      </trkpt>
      <trkpt lat="48.42697" lon="-4.41125">
        <ele>104.6</ele>
        <time>2011-09-04T09:20:11Z</time>
      </trkpt>
      <trkpt lat="48.4269" lon="-4.41126">
        <ele>104.4</ele>
        <time>2011-09-04T09:20:12Z</time>
      </trkpt>
      <trkpt lat="48.42683" lon="-4.41126">
        <ele>104.9</ele>
        <time>2011-09-04T09:20:13Z</time>
      </trkpt>
      <trkpt lat="48.42677" lon="-4.41127">
        <ele>105.5</ele>
        <time>2011-09-04T09:20:14Z</time>
      </trkpt>
      <trkpt lat="48.42672" lon="-4.4113">
        <ele>105.7</ele>
        <time>2011-09-04T09:20:15Z</time>
      </trkpt>
      <trkpt lat="48.42666" lon="-4.4113">
        <ele>105.6</ele>
        <time>2011-09-04T09:20:16Z</time>
      </trkpt>
      <trkpt lat="48.42658" lon="-4.41132">
        <ele>106.2</ele>
        <time>2011-09-04T09:20:17Z</time>
      </trkpt>
      <trkpt lat="48.42652" lon="-4.41133">
        <ele>106.3</ele>
        <time>2011-09-04T09:20:18Z</time>
      </trkpt>
      <trkpt lat="48.42647" lon="-4.41133">
        <ele>106.3</ele>
        <time>2011-09-04T09:20:19Z</time>
      </trkpt>
      <trkpt lat="48.42642" lon="-4.41129">
        <ele>106.5</ele>
        <time>2011-09-04T09:20:20Z</time>
      </trkpt>
      <trkpt lat="48.42636" lon="-4.41126">
        <ele>106.5</ele>
        <time>2011-09-04T09:20:21Z</time>
      </trkpt>
      <trkpt lat="48.4263" lon="-4.41124">
        <ele>106.6</ele>
        <time>2011-09-04T09:20:22Z</time>
      </trkpt>
      <trkpt lat="48.42625" lon="-4.41121">
        <ele>106.4</ele>
        <time>2011-09-04T09:20:23Z</time>
      </trkpt>
      <trkpt lat="48.42619" lon="-4.41119">
        <ele>106.3</ele>
        <time>2011-09-04T09:20:24Z</time>
      </trkpt>
      <trkpt lat="48.42609" lon="-4.41121">
        <ele>110.4</ele>
        <time>2011-09-04T09:20:25Z</time>
      </trkpt>
      <trkpt lat="48.426" lon="-4.4112">
        <ele>110.9</ele>
        <time>2011-09-04T09:20:26Z</time>
      </trkpt>
      <trkpt lat="48.42594" lon="-4.41118">
        <ele>110.6</ele>
        <time>2011-09-04T09:20:27Z</time>
      </trkpt>
      <trkpt lat="48.42586" lon="-4.41117">
        <ele>110.5</ele>
        <time>2011-09-04T09:20:28Z</time>
      </trkpt>
      <trkpt lat="48.42579" lon="-4.41115">
        <ele>110.6</ele>
        <time>2011-09-04T09:20:29Z</time>
      </trkpt>
      <trkpt lat="48.42569" lon="-4.4111">
        <ele>113.5</ele>
        <time>2011-09-04T09:20:31Z</time>
      </trkpt>
      <trkpt lat="48.42562" lon="-4.41103">
        <ele>113.3</ele>
        <time>2011-09-04T09:20:32Z</time>
      </trkpt>
      <trkpt lat="48.4256" lon="-4.41091">
        <ele>112.5</ele>
        <time>2011-09-04T09:20:33Z</time>
      </trkpt>
      <trkpt lat="48.42558" lon="-4.4108">
        <ele>111.3</ele>
        <time>2011-09-04T09:20:34Z</time>
      </trkpt>
      <trkpt lat="48.42557" lon="-4.41072">
        <ele>110.6</ele>
        <time>2011-09-04T09:20:35Z</time>
      </trkpt>
      <trkpt lat="48.42553" lon="-4.41064">
        <ele>110.1</ele>
        <time>2011-09-04T09:20:36Z</time>
      </trkpt>
      <trkpt lat="48.42552" lon="-4.41056">
        <ele>108.6</ele>
        <time>2011-09-04T09:20:37Z</time>
      </trkpt>
      <trkpt lat="48.42549" lon="-4.41048">
        <ele>108.5</ele>
        <time>2011-09-04T09:20:38Z</time>
      </trkpt>
      <trkpt lat="48.42546" lon="-4.41039">
        <ele>107.3</ele>
        <time>2011-09-04T09:20:39Z</time>
      </trkpt>
      <trkpt lat="48.42545" lon="-4.4103">
        <ele>107.7</ele>
        <time>2011-09-04T09:20:40Z</time>
      </trkpt>
      <trkpt lat="48.42543" lon="-4.41021">
        <ele>108.5</ele>
        <time>2011-09-04T09:20:41Z</time>
      </trkpt>
      <trkpt lat="48.42542" lon="-4.41012">
        <ele>108.5</ele>
        <time>2011-09-04T09:20:42Z</time>
      </trkpt>
      <trkpt lat="48.42542" lon="-4.41002">
        <ele>109.5</ele>
        <time>2011-09-04T09:20:43Z</time>
      </trkpt>
      <trkpt lat="48.42541" lon="-4.40995">
        <ele>109.6</ele>
        <time>2011-09-04T09:20:44Z</time>
      </trkpt>
      <trkpt lat="48.4254" lon="-4.40988">
        <ele>109</ele>
        <time>2011-09-04T09:20:45Z</time>
      </trkpt>
      <trkpt lat="48.4254" lon="-4.40982">
        <ele>108.9</ele>
        <time>2011-09-04T09:20:46Z</time>
      </trkpt>
      <trkpt lat="48.42537" lon="-4.4097">
        <ele>109.2</ele>
        <time>2011-09-04T09:20:48Z</time>
      </trkpt>
      <trkpt lat="48.42534" lon="-4.40961">
        <ele>109</ele>
        <time>2011-09-04T09:20:51Z</time>
      </trkpt>
      <trkpt lat="48.4254" lon="-4.40956">
        <ele>112.1</ele>
        <time>2011-09-04T09:20:53Z</time>
      </trkpt>
      <trkpt lat="48.42538" lon="-4.40949">
        <ele>111.2</ele>
        <time>2011-09-04T09:20:54Z</time>
      </trkpt>
      <trkpt lat="48.42537" lon="-4.40942">
        <ele>110.9</ele>
        <time>2011-09-04T09:20:55Z</time>
      </trkpt>
      <trkpt lat="48.42533" lon="-4.4093">
        <ele>108.9</ele>
        <time>2011-09-04T09:20:58Z</time>
      </trkpt>
      <trkpt lat="48.42532" lon="-4.40923">
        <ele>109.4</ele>
        <time>2011-09-04T09:20:58Z</time>
      </trkpt>
      <trkpt lat="48.42531" lon="-4.40915">
        <ele>109.5</ele>
        <time>2011-09-04T09:20:59Z</time>
      </trkpt>
      <trkpt lat="48.42529" lon="-4.40907">
        <ele>108.8</ele>
        <time>2011-09-04T09:21:00Z</time>
      </trkpt>
      <trkpt lat="48.42529" lon="-4.40898">
        <ele>108.3</ele>
        <time>2011-09-04T09:21:01Z</time>
      </trkpt>
      <trkpt lat="48.42528" lon="-4.4089">
        <ele>107.5</ele>
        <time>2011-09-04T09:21:02Z</time>
      </trkpt>
      <trkpt lat="48.42528" lon="-4.40882">
        <ele>107.2</ele>
        <time>2011-09-04T09:21:03Z</time>
      </trkpt>
      <trkpt lat="48.42529" lon="-4.40874">
        <ele>107.1</ele>
        <time>2011-09-04T09:21:04Z</time>
      </trkpt>
      <trkpt lat="48.42528" lon="-4.40866">
        <ele>107.5</ele>
        <time>2011-09-04T09:21:05Z</time>
      </trkpt>
      <trkpt lat="48.42532" lon="-4.40858">
        <ele>112.3</ele>
        <time>2011-09-04T09:21:07Z</time>
      </trkpt>
      <trkpt lat="48.42533" lon="-4.4085">
        <ele>115.1</ele>
        <time>2011-09-04T09:21:08Z</time>
      </trkpt>
      <trkpt lat="48.42536" lon="-4.4084">
        <ele>117.4</ele>
        <time>2011-09-04T09:21:10Z</time>
      </trkpt>
      <trkpt lat="48.42538" lon="-4.40832">
        <ele>117</ele>
        <time>2011-09-04T09:21:11Z</time>
      </trkpt>
      <trkpt lat="48.42531" lon="-4.40823">
        <ele>119</ele>
        <time>2011-09-04T09:21:12Z</time>
      </trkpt>
      <trkpt lat="48.42521" lon="-4.40813">
        <ele>114.7</ele>
        <time>2011-09-04T09:21:14Z</time>
      </trkpt>
      <trkpt lat="48.42517" lon="-4.40811">
        <ele>114.3</ele>
        <time>2011-09-04T09:21:15Z</time>
      </trkpt>
      <trkpt lat="48.42511" lon="-4.40805">
        <ele>112.2</ele>
        <time>2011-09-04T09:21:21Z</time>
      </trkpt>
      <trkpt lat="48.42508" lon="-4.40795">
        <ele>111.7</ele>
        <time>2011-09-04T09:21:26Z</time>
      </trkpt>
      <trkpt lat="48.42508" lon="-4.40787">
        <ele>110.6</ele>
        <time>2011-09-04T09:21:26Z</time>
      </trkpt>
      <trkpt lat="48.42501" lon="-4.40777">
        <ele>108.3</ele>
        <time>2011-09-04T09:21:27Z</time>
      </trkpt>
      <trkpt lat="48.42504" lon="-4.40762">
        <ele>104.3</ele>
        <time>2011-09-04T09:21:30Z</time>
      </trkpt>
      <trkpt lat="48.42505" lon="-4.40749">
        <ele>103.8</ele>
        <time>2011-09-04T09:21:31Z</time>
      </trkpt>
      <trkpt lat="48.42504" lon="-4.40742">
        <ele>103.8</ele>
        <time>2011-09-04T09:21:32Z</time>
      </trkpt>
      <trkpt lat="48.42503" lon="-4.40733">
        <ele>103.3</ele>
        <time>2011-09-04T09:21:33Z</time>
      </trkpt>
      <trkpt lat="48.42496" lon="-4.40718">
        <ele>103.6</ele>
        <time>2011-09-04T09:21:35Z</time>
      </trkpt>
      <trkpt lat="48.42496" lon="-4.40704">
        <ele>104.7</ele>
        <time>2011-09-04T09:21:36Z</time>
      </trkpt>
      <trkpt lat="48.42496" lon="-4.40696">
        <ele>105.7</ele>
        <time>2011-09-04T09:21:37Z</time>
      </trkpt>
      <trkpt lat="48.42492" lon="-4.40686">
        <ele>106.1</ele>
        <time>2011-09-04T09:21:39Z</time>
      </trkpt>
      <trkpt lat="48.4249" lon="-4.40679">
        <ele>106.7</ele>
        <time>2011-09-04T09:21:41Z</time>
      </trkpt>
      <trkpt lat="48.42488" lon="-4.40672">
        <ele>106.4</ele>
        <time>2011-09-04T09:21:43Z</time>
      </trkpt>
      <trkpt lat="48.42481" lon="-4.40669">
        <ele>102.8</ele>
        <time>2011-09-04T09:23:38Z</time>
      </trkpt>
      <trkpt lat="48.42477" lon="-4.40664">
        <ele>99.8</ele>
        <time>2011-09-04T09:23:41Z</time>
      </trkpt>
      <trkpt lat="48.42471" lon="-4.4066">
        <ele>99.4</ele>
        <time>2011-09-04T09:23:44Z</time>
      </trkpt>
      <trkpt lat="48.42463" lon="-4.40656">
        <ele>100.3</ele>
        <time>2011-09-04T09:23:45Z</time>
      </trkpt>
      <trkpt lat="48.42458" lon="-4.40659">
        <ele>95.1</ele>
        <time>2011-09-04T09:24:33Z</time>
      </trkpt>
      <trkpt lat="48.42458" lon="-4.40659">
        <ele>95.1</ele>
        <time>2011-09-04T09:24:33Z</time>
      </trkpt>
      <trkpt lat="48.42458" lon="-4.40659">
        <ele>95.1</ele>
        <time>2011-09-04T09:24:34Z</time>
      </trkpt>
      <trkpt lat="48.42463" lon="-4.4066">
        <ele>93.9</ele>
        <time>2011-09-04T09:24:45Z</time>
      </trkpt>
      <trkpt lat="48.42457" lon="-4.40664">
        <ele>94.3</ele>
        <time>2011-09-04T09:25:10Z</time>
      </trkpt>
      <trkpt lat="48.42452" lon="-4.40667">
        <ele>94.3</ele>
        <time>2011-09-04T09:25:12Z</time>
      </trkpt>
      <trkpt lat="48.42447" lon="-4.40668">
        <ele>93.2</ele>
        <time>2011-09-04T09:25:13Z</time>
      </trkpt>
      <trkpt lat="48.42439" lon="-4.4067">
        <ele>92.3</ele>
        <time>2011-09-04T09:25:16Z</time>
      </trkpt>
      <trkpt lat="48.42434" lon="-4.4067">
        <ele>94.4</ele>
        <time>2011-09-04T09:25:21Z</time>
      </trkpt>
      <trkpt lat="48.42431" lon="-4.40676">
        <ele>94.8</ele>
        <time>2011-09-04T09:25:26Z</time>
      </trkpt>
      <trkpt lat="48.42434" lon="-4.40683">
        <ele>93.1</ele>
        <time>2011-09-04T09:25:30Z</time>
      </trkpt>
      <trkpt lat="48.42441" lon="-4.40686">
        <ele>91.1</ele>
        <time>2011-09-04T09:25:33Z</time>
      </trkpt>
      <trkpt lat="48.42444" lon="-4.40692">
        <ele>92.1</ele>
        <time>2011-09-04T09:25:35Z</time>
      </trkpt>
      <trkpt lat="48.42445" lon="-4.40702">
        <ele>94.2</ele>
        <time>2011-09-04T09:25:38Z</time>
      </trkpt>
      <trkpt lat="48.42441" lon="-4.40708">
        <ele>104.3</ele>
        <time>2011-09-04T09:25:40Z</time>
      </trkpt>
      <trkpt lat="48.42441" lon="-4.40715">
        <ele>107.5</ele>
        <time>2011-09-04T09:25:43Z</time>
      </trkpt>
      <trkpt lat="48.42439" lon="-4.40722">
        <ele>106.5</ele>
        <time>2011-09-04T09:25:47Z</time>
      </trkpt>
      <trkpt lat="48.42439" lon="-4.40732">
        <ele>106.5</ele>
        <time>2011-09-04T09:25:48Z</time>
      </trkpt>
      <trkpt lat="48.4244" lon="-4.40739">
        <ele>107.3</ele>
        <time>2011-09-04T09:25:50Z</time>
      </trkpt>
      <trkpt lat="48.4244" lon="-4.40751">
        <ele>105.5</ele>
        <time>2011-09-04T09:25:52Z</time>
      </trkpt>
      <trkpt lat="48.4245" lon="-4.4076">
        <ele>104.6</ele>
        <time>2011-09-04T09:25:55Z</time>
      </trkpt>
      <trkpt lat="48.42452" lon="-4.40767">
        <ele>104.5</ele>
        <time>2011-09-04T09:25:59Z</time>
      </trkpt>
      <trkpt lat="48.42451" lon="-4.40775">
        <ele>104.3</ele>
        <time>2011-09-04T09:26:01Z</time>
      </trkpt>
      <trkpt lat="48.42453" lon="-4.40782">
        <ele>104.9</ele>
        <time>2011-09-04T09:26:03Z</time>
      </trkpt>
      <trkpt lat="48.4246" lon="-4.40787">
        <ele>104.5</ele>
        <time>2011-09-04T09:26:05Z</time>
      </trkpt>
      <trkpt lat="48.42462" lon="-4.40798">
        <ele>104.6</ele>
        <time>2011-09-04T09:26:07Z</time>
      </trkpt>
      <trkpt lat="48.42466" lon="-4.40808">
        <ele>106.7</ele>
        <time>2011-09-04T09:26:10Z</time>
      </trkpt>
      <trkpt lat="48.42466" lon="-4.40815">
        <ele>104.6</ele>
        <time>2011-09-04T09:26:13Z</time>
      </trkpt>
      <trkpt lat="48.42467" lon="-4.40822">
        <ele>103.1</ele>
        <time>2011-09-04T09:26:16Z</time>
      </trkpt>
      <trkpt lat="48.4247" lon="-4.4083">
        <ele>105.1</ele>
        <time>2011-09-04T09:26:18Z</time>
      </trkpt>
      <trkpt lat="48.4247" lon="-4.40838">
        <ele>105.5</ele>
        <time>2011-09-04T09:26:20Z</time>
      </trkpt>
      <trkpt lat="48.42475" lon="-4.40845">
        <ele>107.9</ele>
        <time>2011-09-04T09:26:22Z</time>
      </trkpt>
      <trkpt lat="48.42476" lon="-4.40853">
        <ele>107.7</ele>
        <time>2011-09-04T09:26:24Z</time>
      </trkpt>
      <trkpt lat="48.4248" lon="-4.40857">
        <ele>107.4</ele>
        <time>2011-09-04T09:26:26Z</time>
      </trkpt>
      <trkpt lat="48.4248" lon="-4.40865">
        <ele>105.7</ele>
        <time>2011-09-04T09:26:28Z</time>
      </trkpt>
      <trkpt lat="48.42471" lon="-4.40876">
        <ele>106.9</ele>
        <time>2011-09-04T09:26:30Z</time>
      </trkpt>
      <trkpt lat="48.42475" lon="-4.40879">
        <ele>105</ele>
        <time>2011-09-04T09:26:31Z</time>
      </trkpt>
      <trkpt lat="48.42477" lon="-4.40888">
        <ele>105.7</ele>
        <time>2011-09-04T09:26:34Z</time>
      </trkpt>
      <trkpt lat="48.4248" lon="-4.40895">
        <ele>107.1</ele>
        <time>2011-09-04T09:26:37Z</time>
      </trkpt>
      <trkpt lat="48.42476" lon="-4.40905">
        <ele>108.3</ele>
        <time>2011-09-04T09:26:40Z</time>
      </trkpt>
      <trkpt lat="48.42473" lon="-4.40912">
        <ele>107</ele>
        <time>2011-09-04T09:26:42Z</time>
      </trkpt>
      <trkpt lat="48.42482" lon="-4.40921">
        <ele>109.8</ele>
        <time>2011-09-04T09:26:45Z</time>
      </trkpt>
      <trkpt lat="48.42484" lon="-4.40929">
        <ele>114.9</ele>
        <time>2011-09-04T09:26:47Z</time>
      </trkpt>
      <trkpt lat="48.42484" lon="-4.40937">
        <ele>115.4</ele>
        <time>2011-09-04T09:26:50Z</time>
      </trkpt>
      <trkpt lat="48.42485" lon="-4.40944">
        <ele>115.2</ele>
        <time>2011-09-04T09:26:52Z</time>
      </trkpt>
      <trkpt lat="48.42488" lon="-4.4095">
        <ele>115.2</ele>
        <time>2011-09-04T09:26:54Z</time>
      </trkpt>
      <trkpt lat="48.4249" lon="-4.40956">
        <ele>116</ele>
        <time>2011-09-04T09:26:56Z</time>
      </trkpt>
      <trkpt lat="48.42489" lon="-4.40964">
        <ele>115.1</ele>
        <time>2011-09-04T09:26:59Z</time>
      </trkpt>
      <trkpt lat="48.42486" lon="-4.40968">
        <ele>113.4</ele>
        <time>2011-09-04T09:27:00Z</time>
      </trkpt>
      <trkpt lat="48.42481" lon="-4.40976">
        <ele>110.5</ele>
        <time>2011-09-04T09:27:02Z</time>
      </trkpt>
      <trkpt lat="48.42486" lon="-4.40985">
        <ele>108.7</ele>
        <time>2011-09-04T09:27:05Z</time>
      </trkpt>
      <trkpt lat="48.42485" lon="-4.40992">
        <ele>106.6</ele>
        <time>2011-09-04T09:27:09Z</time>
      </trkpt>
      <trkpt lat="48.42484" lon="-4.41">
        <ele>109.1</ele>
        <time>2011-09-04T09:27:13Z</time>
      </trkpt>
      <trkpt lat="48.42491" lon="-4.41">
        <ele>114.6</ele>
        <time>2011-09-04T09:27:14Z</time>
      </trkpt>
      <trkpt lat="48.42489" lon="-4.41008">
        <ele>113.5</ele>
        <time>2011-09-04T09:27:17Z</time>
      </trkpt>
      <trkpt lat="48.42487" lon="-4.41019">
        <ele>103.9</ele>
        <time>2011-09-04T09:27:20Z</time>
      </trkpt>
      <trkpt lat="48.42491" lon="-4.41024">
        <ele>107</ele>
        <time>2011-09-04T09:27:22Z</time>
      </trkpt>
      <trkpt lat="48.42493" lon="-4.41032">
        <ele>106.6</ele>
        <time>2011-09-04T09:27:24Z</time>
      </trkpt>
      <trkpt lat="48.42497" lon="-4.41038">
        <ele>115.2</ele>
        <time>2011-09-04T09:27:29Z</time>
      </trkpt>
      <trkpt lat="48.42493" lon="-4.41048">
        <ele>112.2</ele>
        <time>2011-09-04T09:27:31Z</time>
      </trkpt>
      <trkpt lat="48.42491" lon="-4.41054">
        <ele>110.6</ele>
        <time>2011-09-04T09:27:33Z</time>
      </trkpt>
      <trkpt lat="48.42487" lon="-4.4106">
        <ele>110.2</ele>
        <time>2011-09-04T09:27:35Z</time>
      </trkpt>
      <trkpt lat="48.42489" lon="-4.41068">
        <ele>110.2</ele>
        <time>2011-09-04T09:27:44Z</time>
      </trkpt>
      <trkpt lat="48.4249" lon="-4.41078">
        <ele>107.7</ele>
        <time>2011-09-04T09:27:49Z</time>
      </trkpt>
      <trkpt lat="48.4249" lon="-4.41078">
        <ele>107.7</ele>
        <time>2011-09-04T09:27:49Z</time>
      </trkpt>
      <trkpt lat="48.4249" lon="-4.41078">
        <ele>107.7</ele>
        <time>2011-09-04T09:27:50Z</time>
      </trkpt>
      <trkpt lat="48.42488" lon="-4.41085">
        <ele>110</ele>
        <time>2011-09-04T09:28:04Z</time>
      </trkpt>
      <trkpt lat="48.42486" lon="-4.41091">
        <ele>113.7</ele>
        <time>2011-09-04T09:28:08Z</time>
      </trkpt>
      <trkpt lat="48.42482" lon="-4.41095">
        <ele>112.6</ele>
        <time>2011-09-04T09:28:10Z</time>
      </trkpt>
      <trkpt lat="48.42478" lon="-4.411">
        <ele>113.5</ele>
        <time>2011-09-04T09:28:12Z</time>
      </trkpt>
      <trkpt lat="48.42476" lon="-4.41108">
        <ele>112.1</ele>
        <time>2011-09-04T09:28:17Z</time>
      </trkpt>
      <trkpt lat="48.42471" lon="-4.41112">
        <ele>113</ele>
        <time>2011-09-04T09:28:21Z</time>
      </trkpt>
      <trkpt lat="48.42468" lon="-4.4112">
        <ele>112</ele>
        <time>2011-09-04T09:28:25Z</time>
      </trkpt>
      <trkpt lat="48.42465" lon="-4.41126">
        <ele>111.5</ele>
        <time>2011-09-04T09:28:28Z</time>
      </trkpt>
      <trkpt lat="48.4246" lon="-4.41133">
        <ele>110.2</ele>
        <time>2011-09-04T09:28:30Z</time>
      </trkpt>
      <trkpt lat="48.42457" lon="-4.41139">
        <ele>109.8</ele>
        <time>2011-09-04T09:28:32Z</time>
      </trkpt>
      <trkpt lat="48.42452" lon="-4.41146">
        <ele>108.3</ele>
        <time>2011-09-04T09:28:34Z</time>
      </trkpt>
      <trkpt lat="48.42448" lon="-4.4115">
        <ele>107.8</ele>
        <time>2011-09-04T09:28:35Z</time>
      </trkpt>
      <trkpt lat="48.4244" lon="-4.41158">
        <ele>108</ele>
        <time>2011-09-04T09:28:37Z</time>
      </trkpt>
      <trkpt lat="48.42435" lon="-4.41166">
        <ele>108</ele>
        <time>2011-09-04T09:28:39Z</time>
      </trkpt>
      <trkpt lat="48.42431" lon="-4.41171">
        <ele>109.1</ele>
        <time>2011-09-04T09:28:41Z</time>
      </trkpt>
      <trkpt lat="48.42428" lon="-4.41177">
        <ele>110.7</ele>
        <time>2011-09-04T09:28:44Z</time>
      </trkpt>
      <trkpt lat="48.42424" lon="-4.41179">
        <ele>111.9</ele>
        <time>2011-09-04T09:29:29Z</time>
      </trkpt>
      <trkpt lat="48.4242" lon="-4.41175">
        <ele>111.2</ele>
        <time>2011-09-04T09:29:31Z</time>
      </trkpt>
      <trkpt lat="48.42417" lon="-4.4117">
        <ele>111.3</ele>
        <time>2011-09-04T09:29:33Z</time>
      </trkpt>
      <trkpt lat="48.42412" lon="-4.41166">
        <ele>111.1</ele>
        <time>2011-09-04T09:29:35Z</time>
      </trkpt>
      <trkpt lat="48.42408" lon="-4.41162">
        <ele>112.1</ele>
        <time>2011-09-04T09:29:37Z</time>
      </trkpt>
      <trkpt lat="48.42404" lon="-4.41158">
        <ele>112.7</ele>
        <time>2011-09-04T09:29:40Z</time>
      </trkpt>
      <trkpt lat="48.42399" lon="-4.41152">
        <ele>113.3</ele>
        <time>2011-09-04T09:29:43Z</time>
      </trkpt>
      <trkpt lat="48.42399" lon="-4.41144">
        <ele>114.3</ele>
        <time>2011-09-04T09:29:46Z</time>
      </trkpt>
      <trkpt lat="48.42396" lon="-4.41139">
        <ele>113.2</ele>
        <time>2011-09-04T09:29:48Z</time>
      </trkpt>
      <trkpt lat="48.42392" lon="-4.41134">
        <ele>112.4</ele>
        <time>2011-09-04T09:29:50Z</time>
      </trkpt>
      <trkpt lat="48.42387" lon="-4.41131">
        <ele>112.3</ele>
        <time>2011-09-04T09:29:52Z</time>
      </trkpt>
      <trkpt lat="48.4238" lon="-4.41128">
        <ele>113.8</ele>
        <time>2011-09-04T09:29:55Z</time>
      </trkpt>
      <trkpt lat="48.42375" lon="-4.41125">
        <ele>113</ele>
        <time>2011-09-04T09:29:57Z</time>
      </trkpt>
      <trkpt lat="48.42371" lon="-4.41122">
        <ele>112.6</ele>
        <time>2011-09-04T09:29:59Z</time>
      </trkpt>
      <trkpt lat="48.42364" lon="-4.4112">
        <ele>114.7</ele>
        <time>2011-09-04T09:30:02Z</time>
      </trkpt>
      <trkpt lat="48.42359" lon="-4.41117">
        <ele>114.5</ele>
        <time>2011-09-04T09:30:05Z</time>
      </trkpt>
      <trkpt lat="48.42356" lon="-4.4111">
        <ele>113.1</ele>
        <time>2011-09-04T09:30:08Z</time>
      </trkpt>
      <trkpt lat="48.42351" lon="-4.41106">
        <ele>114.3</ele>
        <time>2011-09-04T09:30:11Z</time>
      </trkpt>
      <trkpt lat="48.42346" lon="-4.41101">
        <ele>117.3</ele>
        <time>2011-09-04T09:30:14Z</time>
      </trkpt>
      <trkpt lat="48.42342" lon="-4.41096">
        <ele>117.8</ele>
        <time>2011-09-04T09:30:17Z</time>
      </trkpt>
      <trkpt lat="48.42337" lon="-4.41092">
        <ele>119.3</ele>
        <time>2011-09-04T09:30:20Z</time>
      </trkpt>
      <trkpt lat="48.42334" lon="-4.41085">
        <ele>122.5</ele>
        <time>2011-09-04T09:30:23Z</time>
      </trkpt>
      <trkpt lat="48.42329" lon="-4.4108">
        <ele>124.3</ele>
        <time>2011-09-04T09:30:26Z</time>
      </trkpt>
      <trkpt lat="48.42324" lon="-4.41075">
        <ele>125.2</ele>
        <time>2011-09-04T09:30:29Z</time>
      </trkpt>
      <trkpt lat="48.42318" lon="-4.41069">
        <ele>125.5</ele>
        <time>2011-09-04T09:30:32Z</time>
      </trkpt>
      <trkpt lat="48.42314" lon="-4.41063">
        <ele>126.4</ele>
        <time>2011-09-04T09:30:35Z</time>
      </trkpt>
      <trkpt lat="48.4231" lon="-4.41059">
        <ele>126.8</ele>
        <time>2011-09-04T09:30:38Z</time>
      </trkpt>
      <trkpt lat="48.42304" lon="-4.4105">
        <ele>128.1</ele>
        <time>2011-09-04T09:30:42Z</time>
      </trkpt>
      <trkpt lat="48.42298" lon="-4.41047">
        <ele>129.2</ele>
        <time>2011-09-04T09:30:45Z</time>
      </trkpt>
      <trkpt lat="48.42293" lon="-4.41044">
        <ele>128.8</ele>
        <time>2011-09-04T09:30:47Z</time>
      </trkpt>
      <trkpt lat="48.42287" lon="-4.41039">
        <ele>131</ele>
        <time>2011-09-04T09:30:50Z</time>
      </trkpt>
      <trkpt lat="48.42282" lon="-4.41033">
        <ele>131.4</ele>
        <time>2011-09-04T09:30:53Z</time>
      </trkpt>
      <trkpt lat="48.42277" lon="-4.4103">
        <ele>129.8</ele>
        <time>2011-09-04T09:30:55Z</time>
      </trkpt>
      <trkpt lat="48.42271" lon="-4.41027">
        <ele>129.8</ele>
        <time>2011-09-04T09:30:58Z</time>
      </trkpt>
      <trkpt lat="48.42264" lon="-4.41023">
        <ele>129.9</ele>
        <time>2011-09-04T09:31:01Z</time>
      </trkpt>
      <trkpt lat="48.4226" lon="-4.4102">
        <ele>129.1</ele>
        <time>2011-09-04T09:31:03Z</time>
      </trkpt>
      <trkpt lat="48.42254" lon="-4.41017">
        <ele>126.6</ele>
        <time>2011-09-04T09:31:06Z</time>
      </trkpt>
      <trkpt lat="48.4225" lon="-4.41014">
        <ele>126.5</ele>
        <time>2011-09-04T09:31:09Z</time>
      </trkpt>
      <trkpt lat="48.42245" lon="-4.41012">
        <ele>126.9</ele>
        <time>2011-09-04T09:31:13Z</time>
      </trkpt>
      <trkpt lat="48.42238" lon="-4.41011">
        <ele>127.8</ele>
        <time>2011-09-04T09:31:15Z</time>
      </trkpt>
      <trkpt lat="48.42233" lon="-4.41011">
        <ele>127.7</ele>
        <time>2011-09-04T09:31:18Z</time>
      </trkpt>
      <trkpt lat="48.42226" lon="-4.41011">
        <ele>128.7</ele>
        <time>2011-09-04T09:31:21Z</time>
      </trkpt>
      <trkpt lat="48.42221" lon="-4.41009">
        <ele>128</ele>
        <time>2011-09-04T09:31:23Z</time>
      </trkpt>
      <trkpt lat="48.42215" lon="-4.41011">
        <ele>127.2</ele>
        <time>2011-09-04T09:31:26Z</time>
      </trkpt>
      <trkpt lat="48.4221" lon="-4.41013">
        <ele>127.3</ele>
        <time>2011-09-04T09:31:29Z</time>
      </trkpt>
      <trkpt lat="48.42205" lon="-4.41014">
        <ele>126.1</ele>
        <time>2011-09-04T09:31:31Z</time>
      </trkpt>
      <trkpt lat="48.422" lon="-4.41014">
        <ele>126.7</ele>
        <time>2011-09-04T09:31:33Z</time>
      </trkpt>
      <trkpt lat="48.42194" lon="-4.41014">
        <ele>127.5</ele>
        <time>2011-09-04T09:31:35Z</time>
      </trkpt>
      <trkpt lat="48.42188" lon="-4.41016">
        <ele>128.2</ele>
        <time>2011-09-04T09:31:38Z</time>
      </trkpt>
      <trkpt lat="48.42184" lon="-4.4102">
        <ele>128.8</ele>
        <time>2011-09-04T09:31:41Z</time>
      </trkpt>
      <trkpt lat="48.42178" lon="-4.41021">
        <ele>129.8</ele>
        <time>2011-09-04T09:31:43Z</time>
      </trkpt>
      <trkpt lat="48.42172" lon="-4.41025">
        <ele>128.8</ele>
        <time>2011-09-04T09:31:46Z</time>
      </trkpt>
      <trkpt lat="48.42166" lon="-4.41027">
        <ele>128.6</ele>
        <time>2011-09-04T09:31:47Z</time>
      </trkpt>
      <trkpt lat="48.4216" lon="-4.41029">
        <ele>128.7</ele>
        <time>2011-09-04T09:31:49Z</time>
      </trkpt>
      <trkpt lat="48.42152" lon="-4.41032">
        <ele>128.1</ele>
        <time>2011-09-04T09:31:51Z</time>
      </trkpt>
      <trkpt lat="48.42148" lon="-4.41035">
        <ele>127.7</ele>
        <time>2011-09-04T09:31:53Z</time>
      </trkpt>
      <trkpt lat="48.42143" lon="-4.41038">
        <ele>128.7</ele>
        <time>2011-09-04T09:31:55Z</time>
      </trkpt>
      <trkpt lat="48.42137" lon="-4.41038">
        <ele>128.6</ele>
        <time>2011-09-04T09:31:57Z</time>
      </trkpt>
      <trkpt lat="48.42133" lon="-4.4104">
        <ele>129.4</ele>
        <time>2011-09-04T09:31:59Z</time>
      </trkpt>
      <trkpt lat="48.42128" lon="-4.41043">
        <ele>130.8</ele>
        <time>2011-09-04T09:32:01Z</time>
      </trkpt>
      <trkpt lat="48.42122" lon="-4.41048">
        <ele>130.7</ele>
        <time>2011-09-04T09:32:03Z</time>
      </trkpt>
      <trkpt lat="48.42117" lon="-4.41052">
        <ele>130.6</ele>
        <time>2011-09-04T09:32:05Z</time>
      </trkpt>
      <trkpt lat="48.42112" lon="-4.41058">
        <ele>130.8</ele>
        <time>2011-09-04T09:32:07Z</time>
      </trkpt>
      <trkpt lat="48.42108" lon="-4.41064">
        <ele>130.3</ele>
        <time>2011-09-04T09:32:10Z</time>
      </trkpt>
      <trkpt lat="48.42102" lon="-4.41068">
        <ele>130.4</ele>
        <time>2011-09-04T09:32:12Z</time>
      </trkpt>
      <trkpt lat="48.421" lon="-4.41075">
        <ele>131.5</ele>
        <time>2011-09-04T09:32:14Z</time>
      </trkpt>
      <trkpt lat="48.42097" lon="-4.41081">
        <ele>132.2</ele>
        <time>2011-09-04T09:32:16Z</time>
      </trkpt>
      <trkpt lat="48.42094" lon="-4.41088">
        <ele>131.7</ele>
        <time>2011-09-04T09:32:18Z</time>
      </trkpt>
      <trkpt lat="48.42094" lon="-4.41097">
        <ele>132.4</ele>
        <time>2011-09-04T09:32:20Z</time>
      </trkpt>
      <trkpt lat="48.42092" lon="-4.41105">
        <ele>134.2</ele>
        <time>2011-09-04T09:32:22Z</time>
      </trkpt>
      <trkpt lat="48.42092" lon="-4.41113">
        <ele>135.1</ele>
        <time>2011-09-04T09:32:24Z</time>
      </trkpt>
      <trkpt lat="48.42092" lon="-4.4112">
        <ele>134.9</ele>
        <time>2011-09-04T09:32:26Z</time>
      </trkpt>
      <trkpt lat="48.42092" lon="-4.41129">
        <ele>135.5</ele>
        <time>2011-09-04T09:32:28Z</time>
      </trkpt>
      <trkpt lat="48.42093" lon="-4.41138">
        <ele>136.2</ele>
        <time>2011-09-04T09:32:30Z</time>
      </trkpt>
      <trkpt lat="48.42094" lon="-4.41146">
        <ele>136.1</ele>
        <time>2011-09-04T09:32:32Z</time>
      </trkpt>
      <trkpt lat="48.42096" lon="-4.41156">
        <ele>135.9</ele>
        <time>2011-09-04T09:32:34Z</time>
      </trkpt>
      <trkpt lat="48.42098" lon="-4.41165">
        <ele>135.7</ele>
        <time>2011-09-04T09:32:36Z</time>
      </trkpt>
      <trkpt lat="48.42099" lon="-4.41174">
        <ele>136.2</ele>
        <time>2011-09-04T09:32:38Z</time>
      </trkpt>
      <trkpt lat="48.42101" lon="-4.41183">
        <ele>136.3</ele>
        <time>2011-09-04T09:32:40Z</time>
      </trkpt>
      <trkpt lat="48.42101" lon="-4.41192">
        <ele>136.1</ele>
        <time>2011-09-04T09:32:42Z</time>
      </trkpt>
      <trkpt lat="48.42103" lon="-4.41202">
        <ele>136.5</ele>
        <time>2011-09-04T09:32:44Z</time>
      </trkpt>
      <trkpt lat="48.42104" lon="-4.41212">
        <ele>136.4</ele>
        <time>2011-09-04T09:32:46Z</time>
      </trkpt>
      <trkpt lat="48.42106" lon="-4.41222">
        <ele>136.4</ele>
        <time>2011-09-04T09:32:48Z</time>
      </trkpt>
      <trkpt lat="48.42107" lon="-4.41232">
        <ele>136.4</ele>
        <time>2011-09-04T09:32:50Z</time>
      </trkpt>
      <trkpt lat="48.42108" lon="-4.4124">
        <ele>136.4</ele>
        <time>2011-09-04T09:32:52Z</time>
      </trkpt>
      <trkpt lat="48.42107" lon="-4.41251">
        <ele>137.7</ele>
        <time>2011-09-04T09:32:54Z</time>
      </trkpt>
      <trkpt lat="48.42109" lon="-4.41261">
        <ele>138</ele>
        <time>2011-09-04T09:32:56Z</time>
      </trkpt>
      <trkpt lat="48.4211" lon="-4.41272">
        <ele>138</ele>
        <time>2011-09-04T09:32:58Z</time>
      </trkpt>
      <trkpt lat="48.42112" lon="-4.41282">
        <ele>137.7</ele>
        <time>2011-09-04T09:33:00Z</time>
      </trkpt>
      <trkpt lat="48.42113" lon="-4.41292">
        <ele>137.4</ele>
        <time>2011-09-04T09:33:02Z</time>
      </trkpt>
      <trkpt lat="48.42114" lon="-4.41302">
        <ele>137.1</ele>
        <time>2011-09-04T09:33:04Z</time>
      </trkpt>
      <trkpt lat="48.42115" lon="-4.41312">
        <ele>138.4</ele>
        <time>2011-09-04T09:33:06Z</time>
      </trkpt>
      <trkpt lat="48.42114" lon="-4.41323">
        <ele>138.5</ele>
        <time>2011-09-04T09:33:08Z</time>
      </trkpt>
      <trkpt lat="48.42112" lon="-4.41334">
        <ele>138.6</ele>
        <time>2011-09-04T09:33:10Z</time>
      </trkpt>
      <trkpt lat="48.42112" lon="-4.41345">
        <ele>137.4</ele>
        <time>2011-09-04T09:33:12Z</time>
      </trkpt>
      <trkpt lat="48.4211" lon="-4.41356">
        <ele>137</ele>
        <time>2011-09-04T09:33:14Z</time>
      </trkpt>
      <trkpt lat="48.42112" lon="-4.41369">
        <ele>136.5</ele>
        <time>2011-09-04T09:33:16Z</time>
      </trkpt>
      <trkpt lat="48.4211" lon="-4.41376">
        <ele>137.4</ele>
        <time>2011-09-04T09:33:17Z</time>
      </trkpt>
      <trkpt lat="48.42111" lon="-4.41388">
        <ele>138.1</ele>
        <time>2011-09-04T09:33:19Z</time>
      </trkpt>
      <trkpt lat="48.4211" lon="-4.41399">
        <ele>138.6</ele>
        <time>2011-09-04T09:33:21Z</time>
      </trkpt>
      <trkpt lat="48.42108" lon="-4.41409">
        <ele>138.2</ele>
        <time>2011-09-04T09:33:23Z</time>
      </trkpt>
      <trkpt lat="48.42107" lon="-4.41417">
        <ele>137.5</ele>
        <time>2011-09-04T09:33:24Z</time>
      </trkpt>
      <trkpt lat="48.42105" lon="-4.4143">
        <ele>139.1</ele>
        <time>2011-09-04T09:33:26Z</time>
      </trkpt>
      <trkpt lat="48.42103" lon="-4.41442">
        <ele>138.9</ele>
        <time>2011-09-04T09:33:28Z</time>
      </trkpt>
      <trkpt lat="48.42101" lon="-4.41454">
        <ele>138.1</ele>
        <time>2011-09-04T09:33:30Z</time>
      </trkpt>
      <trkpt lat="48.42099" lon="-4.41465">
        <ele>137.8</ele>
        <time>2011-09-04T09:33:32Z</time>
      </trkpt>
      <trkpt lat="48.42098" lon="-4.41477">
        <ele>138.2</ele>
        <time>2011-09-04T09:33:34Z</time>
      </trkpt>
      <trkpt lat="48.42097" lon="-4.41487">
        <ele>137.7</ele>
        <time>2011-09-04T09:33:35Z</time>
      </trkpt>
      <trkpt lat="48.42091" lon="-4.41492">
        <ele>139.3</ele>
        <time>2011-09-04T09:33:36Z</time>
      </trkpt>
      <trkpt lat="48.42089" lon="-4.41501">
        <ele>140.3</ele>
        <time>2011-09-04T09:33:37Z</time>
      </trkpt>
      <trkpt lat="48.42086" lon="-4.41507">
        <ele>139.4</ele>
        <time>2011-09-04T09:33:38Z</time>
      </trkpt>
      <trkpt lat="48.42084" lon="-4.41514">
        <ele>140.7</ele>
        <time>2011-09-04T09:33:39Z</time>
      </trkpt>
      <trkpt lat="48.42082" lon="-4.41522">
        <ele>139.8</ele>
        <time>2011-09-04T09:33:40Z</time>
      </trkpt>
      <trkpt lat="48.42079" lon="-4.41528">
        <ele>140.1</ele>
        <time>2011-09-04T09:33:41Z</time>
      </trkpt>
      <trkpt lat="48.42076" lon="-4.41535">
        <ele>140.4</ele>
        <time>2011-09-04T09:33:42Z</time>
      </trkpt>
      <trkpt lat="48.42072" lon="-4.41543">
        <ele>140.2</ele>
        <time>2011-09-04T09:33:43Z</time>
      </trkpt>
      <trkpt lat="48.4207" lon="-4.4155">
        <ele>140.1</ele>
        <time>2011-09-04T09:33:44Z</time>
      </trkpt>
      <trkpt lat="48.42067" lon="-4.41556">
        <ele>140.6</ele>
        <time>2011-09-04T09:33:45Z</time>
      </trkpt>
      <trkpt lat="48.42065" lon="-4.41565">
        <ele>140.1</ele>
        <time>2011-09-04T09:33:46Z</time>
      </trkpt>
      <trkpt lat="48.4206" lon="-4.41573">
        <ele>139</ele>
        <time>2011-09-04T09:33:47Z</time>
      </trkpt>
      <trkpt lat="48.4206" lon="-4.41588">
        <ele>138.2</ele>
        <time>2011-09-04T09:33:49Z</time>
      </trkpt>
      <trkpt lat="48.4206" lon="-4.41598">
        <ele>138.2</ele>
        <time>2011-09-04T09:33:50Z</time>
      </trkpt>
      <trkpt lat="48.42062" lon="-4.41607">
        <ele>138.7</ele>
        <time>2011-09-04T09:33:51Z</time>
      </trkpt>
      <trkpt lat="48.42061" lon="-4.41614">
        <ele>139.5</ele>
        <time>2011-09-04T09:33:52Z</time>
      </trkpt>
      <trkpt lat="48.42062" lon="-4.41621">
        <ele>139.8</ele>
        <time>2011-09-04T09:33:53Z</time>
      </trkpt>
      <trkpt lat="48.42062" lon="-4.41633">
        <ele>146.2</ele>
        <time>2011-09-04T09:33:55Z</time>
      </trkpt>
      <trkpt lat="48.42063" lon="-4.4164">
        <ele>147.6</ele>
        <time>2011-09-04T09:33:56Z</time>
      </trkpt>
      <trkpt lat="48.42063" lon="-4.41646">
        <ele>147.9</ele>
        <time>2011-09-04T09:33:57Z</time>
      </trkpt>
      <trkpt lat="48.42065" lon="-4.41653">
        <ele>149.7</ele>
        <time>2011-09-04T09:33:58Z</time>
      </trkpt>
      <trkpt lat="48.42065" lon="-4.41665">
        <ele>150</ele>
        <time>2011-09-04T09:34:00Z</time>
      </trkpt>
      <trkpt lat="48.42059" lon="-4.41667">
        <ele>148.3</ele>
        <time>2011-09-04T09:34:01Z</time>
      </trkpt>
      <trkpt lat="48.42056" lon="-4.41676">
        <ele>148.5</ele>
        <time>2011-09-04T09:34:03Z</time>
      </trkpt>
      <trkpt lat="48.42051" lon="-4.41689">
        <ele>147.1</ele>
        <time>2011-09-04T09:34:05Z</time>
      </trkpt>
      <trkpt lat="48.42048" lon="-4.41696">
        <ele>146.6</ele>
        <time>2011-09-04T09:34:06Z</time>
      </trkpt>
      <trkpt lat="48.42046" lon="-4.41705">
        <ele>145.7</ele>
        <time>2011-09-04T09:34:07Z</time>
      </trkpt>
      <trkpt lat="48.42042" lon="-4.41716">
        <ele>145.6</ele>
        <time>2011-09-04T09:34:09Z</time>
      </trkpt>
      <trkpt lat="48.42041" lon="-4.41728">
        <ele>145.5</ele>
        <time>2011-09-04T09:34:11Z</time>
      </trkpt>
      <trkpt lat="48.42037" lon="-4.41734">
        <ele>145.5</ele>
        <time>2011-09-04T09:34:12Z</time>
      </trkpt>
      <trkpt lat="48.42033" lon="-4.41744">
        <ele>145.1</ele>
        <time>2011-09-04T09:34:13Z</time>
      </trkpt>
      <trkpt lat="48.42029" lon="-4.41751">
        <ele>144.2</ele>
        <time>2011-09-04T09:34:14Z</time>
      </trkpt>
      <trkpt lat="48.42026" lon="-4.41759">
        <ele>144.4</ele>
        <time>2011-09-04T09:34:15Z</time>
      </trkpt>
      <trkpt lat="48.4202" lon="-4.41767">
        <ele>144.4</ele>
        <time>2011-09-04T09:34:16Z</time>
      </trkpt>
      <trkpt lat="48.42012" lon="-4.41774">
        <ele>144.4</ele>
        <time>2011-09-04T09:34:17Z</time>
      </trkpt>
      <trkpt lat="48.42007" lon="-4.41781">
        <ele>144.3</ele>
        <time>2011-09-04T09:34:18Z</time>
      </trkpt>
      <trkpt lat="48.42002" lon="-4.41787">
        <ele>143.9</ele>
        <time>2011-09-04T09:34:19Z</time>
      </trkpt>
      <trkpt lat="48.41998" lon="-4.41794">
        <ele>143.4</ele>
        <time>2011-09-04T09:34:20Z</time>
      </trkpt>
      <trkpt lat="48.41992" lon="-4.418">
        <ele>143.7</ele>
        <time>2011-09-04T09:34:21Z</time>
      </trkpt>
      <trkpt lat="48.41987" lon="-4.41814">
        <ele>142.6</ele>
        <time>2011-09-04T09:34:23Z</time>
      </trkpt>
      <trkpt lat="48.41985" lon="-4.41821">
        <ele>141.4</ele>
        <time>2011-09-04T09:34:24Z</time>
      </trkpt>
      <trkpt lat="48.41979" lon="-4.41825">
        <ele>140.5</ele>
        <time>2011-09-04T09:34:25Z</time>
      </trkpt>
      <trkpt lat="48.41974" lon="-4.41829">
        <ele>140.3</ele>
        <time>2011-09-04T09:34:26Z</time>
      </trkpt>
      <trkpt lat="48.41969" lon="-4.41841">
        <ele>140.3</ele>
        <time>2011-09-04T09:34:28Z</time>
      </trkpt>
      <trkpt lat="48.41964" lon="-4.41847">
        <ele>141.4</ele>
        <time>2011-09-04T09:34:29Z</time>
      </trkpt>
      <trkpt lat="48.41961" lon="-4.41853">
        <ele>141.1</ele>
        <time>2011-09-04T09:34:30Z</time>
      </trkpt>
      <trkpt lat="48.41954" lon="-4.41864">
        <ele>140.3</ele>
        <time>2011-09-04T09:34:32Z</time>
      </trkpt>
      <trkpt lat="48.41951" lon="-4.4187">
        <ele>140.2</ele>
        <time>2011-09-04T09:34:33Z</time>
      </trkpt>
      <trkpt lat="48.41945" lon="-4.41879">
        <ele>140.8</ele>
        <time>2011-09-04T09:34:35Z</time>
      </trkpt>
      <trkpt lat="48.41941" lon="-4.41885">
        <ele>141.7</ele>
        <time>2011-09-04T09:34:36Z</time>
      </trkpt>
      <trkpt lat="48.41938" lon="-4.41889">
        <ele>141.3</ele>
        <time>2011-09-04T09:34:37Z</time>
      </trkpt>
      <trkpt lat="48.41932" lon="-4.41898">
        <ele>139.9</ele>
        <time>2011-09-04T09:34:39Z</time>
      </trkpt>
      <trkpt lat="48.41925" lon="-4.41905">
        <ele>140.3</ele>
        <time>2011-09-04T09:34:41Z</time>
      </trkpt>
      <trkpt lat="48.41918" lon="-4.41912">
        <ele>139.7</ele>
        <time>2011-09-04T09:34:43Z</time>
      </trkpt>
      <trkpt lat="48.4191" lon="-4.41919">
        <ele>138.8</ele>
        <time>2011-09-04T09:34:45Z</time>
      </trkpt>
      <trkpt lat="48.41903" lon="-4.41926">
        <ele>139.4</ele>
        <time>2011-09-04T09:34:47Z</time>
      </trkpt>
      <trkpt lat="48.41899" lon="-4.4193">
        <ele>140</ele>
        <time>2011-09-04T09:34:48Z</time>
      </trkpt>
      <trkpt lat="48.41895" lon="-4.41934">
        <ele>140.4</ele>
        <time>2011-09-04T09:34:49Z</time>
      </trkpt>
      <trkpt lat="48.41888" lon="-4.41943">
        <ele>141</ele>
        <time>2011-09-04T09:34:51Z</time>
      </trkpt>
      <trkpt lat="48.41884" lon="-4.41946">
        <ele>141</ele>
        <time>2011-09-04T09:34:52Z</time>
      </trkpt>
      <trkpt lat="48.41877" lon="-4.41951">
        <ele>142.3</ele>
        <time>2011-09-04T09:34:54Z</time>
      </trkpt>
      <trkpt lat="48.4187" lon="-4.41958">
        <ele>143.8</ele>
        <time>2011-09-04T09:34:56Z</time>
      </trkpt>
      <trkpt lat="48.41865" lon="-4.41963">
        <ele>143.4</ele>
        <time>2011-09-04T09:34:57Z</time>
      </trkpt>
      <trkpt lat="48.41858" lon="-4.41969">
        <ele>143.3</ele>
        <time>2011-09-04T09:34:59Z</time>
      </trkpt>
      <trkpt lat="48.41854" lon="-4.41973">
        <ele>143.4</ele>
        <time>2011-09-04T09:35:00Z</time>
      </trkpt>
      <trkpt lat="48.41847" lon="-4.4198">
        <ele>144.6</ele>
        <time>2011-09-04T09:35:02Z</time>
      </trkpt>
      <trkpt lat="48.4184" lon="-4.41986">
        <ele>145.5</ele>
        <time>2011-09-04T09:35:04Z</time>
      </trkpt>
      <trkpt lat="48.41834" lon="-4.41992">
        <ele>145.4</ele>
        <time>2011-09-04T09:35:06Z</time>
      </trkpt>
      <trkpt lat="48.41827" lon="-4.41999">
        <ele>145.3</ele>
        <time>2011-09-04T09:35:08Z</time>
      </trkpt>
      <trkpt lat="48.4182" lon="-4.42006">
        <ele>145.2</ele>
        <time>2011-09-04T09:35:10Z</time>
      </trkpt>
      <trkpt lat="48.41814" lon="-4.42013">
        <ele>144.6</ele>
        <time>2011-09-04T09:35:12Z</time>
      </trkpt>
      <trkpt lat="48.41807" lon="-4.42019">
        <ele>144.5</ele>
        <time>2011-09-04T09:35:14Z</time>
      </trkpt>
      <trkpt lat="48.41801" lon="-4.42025">
        <ele>144.5</ele>
        <time>2011-09-04T09:35:16Z</time>
      </trkpt>
      <trkpt lat="48.41796" lon="-4.42031">
        <ele>143.9</ele>
        <time>2011-09-04T09:35:18Z</time>
      </trkpt>
      <trkpt lat="48.41793" lon="-4.42036">
        <ele>142.5</ele>
        <time>2011-09-04T09:35:28Z</time>
      </trkpt>
      <trkpt lat="48.41793" lon="-4.42042">
        <ele>141.9</ele>
        <time>2011-09-04T09:35:54Z</time>
      </trkpt>
      <trkpt lat="48.41794" lon="-4.42049">
        <ele>141.6</ele>
        <time>2011-09-04T09:35:56Z</time>
      </trkpt>
      <trkpt lat="48.41797" lon="-4.42057">
        <ele>140.8</ele>
        <time>2011-09-04T09:35:58Z</time>
      </trkpt>
      <trkpt lat="48.418" lon="-4.42066">
        <ele>139.4</ele>
        <time>2011-09-04T09:36:00Z</time>
      </trkpt>
      <trkpt lat="48.41802" lon="-4.42072">
        <ele>139</ele>
        <time>2011-09-04T09:36:01Z</time>
      </trkpt>
      <trkpt lat="48.41804" lon="-4.42079">
        <ele>138.6</ele>
        <time>2011-09-04T09:36:02Z</time>
      </trkpt>
      <trkpt lat="48.41806" lon="-4.42086">
        <ele>137.9</ele>
        <time>2011-09-04T09:36:03Z</time>
      </trkpt>
      <trkpt lat="48.41808" lon="-4.42093">
        <ele>137.2</ele>
        <time>2011-09-04T09:36:04Z</time>
      </trkpt>
      <trkpt lat="48.4181" lon="-4.42101">
        <ele>136.1</ele>
        <time>2011-09-04T09:36:05Z</time>
      </trkpt>
      <trkpt lat="48.41813" lon="-4.42109">
        <ele>135.4</ele>
        <time>2011-09-04T09:36:06Z</time>
      </trkpt>
      <trkpt lat="48.41816" lon="-4.42116">
        <ele>134.9</ele>
        <time>2011-09-04T09:36:07Z</time>
      </trkpt>
      <trkpt lat="48.41819" lon="-4.42124">
        <ele>134.7</ele>
        <time>2011-09-04T09:36:08Z</time>
      </trkpt>
      <trkpt lat="48.41822" lon="-4.42133">
        <ele>134</ele>
        <time>2011-09-04T09:36:09Z</time>
      </trkpt>
      <trkpt lat="48.41826" lon="-4.42141">
        <ele>133.8</ele>
        <time>2011-09-04T09:36:10Z</time>
      </trkpt>
      <trkpt lat="48.41829" lon="-4.42149">
        <ele>132.9</ele>
        <time>2011-09-04T09:36:11Z</time>
      </trkpt>
      <trkpt lat="48.41833" lon="-4.42157">
        <ele>132.6</ele>
        <time>2011-09-04T09:36:12Z</time>
      </trkpt>
      <trkpt lat="48.41838" lon="-4.42165">
        <ele>132.6</ele>
        <time>2011-09-04T09:36:13Z</time>
      </trkpt>
      <trkpt lat="48.41842" lon="-4.42172">
        <ele>132.5</ele>
        <time>2011-09-04T09:36:14Z</time>
      </trkpt>
      <trkpt lat="48.41846" lon="-4.4218">
        <ele>132.3</ele>
        <time>2011-09-04T09:36:15Z</time>
      </trkpt>
      <trkpt lat="48.41852" lon="-4.42187">
        <ele>131.9</ele>
        <time>2011-09-04T09:36:16Z</time>
      </trkpt>
      <trkpt lat="48.41857" lon="-4.42195">
        <ele>131.9</ele>
        <time>2011-09-04T09:36:17Z</time>
      </trkpt>
      <trkpt lat="48.41862" lon="-4.42201">
        <ele>131.7</ele>
        <time>2011-09-04T09:36:18Z</time>
      </trkpt>
      <trkpt lat="48.41868" lon="-4.42207">
        <ele>131.7</ele>
        <time>2011-09-04T09:36:19Z</time>
      </trkpt>
      <trkpt lat="48.41873" lon="-4.42214">
        <ele>131.8</ele>
        <time>2011-09-04T09:36:20Z</time>
      </trkpt>
      <trkpt lat="48.41879" lon="-4.4222">
        <ele>131.4</ele>
        <time>2011-09-04T09:36:21Z</time>
      </trkpt>
      <trkpt lat="48.41885" lon="-4.42226">
        <ele>131.2</ele>
        <time>2011-09-04T09:36:22Z</time>
      </trkpt>
      <trkpt lat="48.41891" lon="-4.42233">
        <ele>130.8</ele>
        <time>2011-09-04T09:36:23Z</time>
      </trkpt>
      <trkpt lat="48.41897" lon="-4.42239">
        <ele>130.2</ele>
        <time>2011-09-04T09:36:24Z</time>
      </trkpt>
      <trkpt lat="48.41903" lon="-4.42245">
        <ele>130.1</ele>
        <time>2011-09-04T09:36:25Z</time>
      </trkpt>
      <trkpt lat="48.4191" lon="-4.42251">
        <ele>130.1</ele>
        <time>2011-09-04T09:36:26Z</time>
      </trkpt>
      <trkpt lat="48.41916" lon="-4.42258">
        <ele>129.8</ele>
        <time>2011-09-04T09:36:27Z</time>
      </trkpt>
      <trkpt lat="48.41922" lon="-4.42264">
        <ele>129.6</ele>
        <time>2011-09-04T09:36:28Z</time>
      </trkpt>
      <trkpt lat="48.41929" lon="-4.4227">
        <ele>129.2</ele>
        <time>2011-09-04T09:36:29Z</time>
      </trkpt>
      <trkpt lat="48.41936" lon="-4.42276">
        <ele>128.9</ele>
        <time>2011-09-04T09:36:30Z</time>
      </trkpt>
      <trkpt lat="48.41942" lon="-4.42282">
        <ele>128.8</ele>
        <time>2011-09-04T09:36:31Z</time>
      </trkpt>
      <trkpt lat="48.41949" lon="-4.42288">
        <ele>128.6</ele>
        <time>2011-09-04T09:36:32Z</time>
      </trkpt>
      <trkpt lat="48.41956" lon="-4.42295">
        <ele>128.5</ele>
        <time>2011-09-04T09:36:33Z</time>
      </trkpt>
      <trkpt lat="48.41962" lon="-4.42302">
        <ele>128.8</ele>
        <time>2011-09-04T09:36:34Z</time>
      </trkpt>
      <trkpt lat="48.41969" lon="-4.42308">
        <ele>128.6</ele>
        <time>2011-09-04T09:36:35Z</time>
      </trkpt>
      <trkpt lat="48.41976" lon="-4.42314">
        <ele>128.3</ele>
        <time>2011-09-04T09:36:36Z</time>
      </trkpt>
      <trkpt lat="48.41983" lon="-4.42321">
        <ele>127.6</ele>
        <time>2011-09-04T09:36:37Z</time>
      </trkpt>
      <trkpt lat="48.4199" lon="-4.42327">
        <ele>127.3</ele>
        <time>2011-09-04T09:36:38Z</time>
      </trkpt>
      <trkpt lat="48.41996" lon="-4.42334">
        <ele>127.6</ele>
        <time>2011-09-04T09:36:39Z</time>
      </trkpt>
      <trkpt lat="48.42003" lon="-4.42341">
        <ele>127</ele>
        <time>2011-09-04T09:36:40Z</time>
      </trkpt>
      <trkpt lat="48.42009" lon="-4.42347">
        <ele>126.5</ele>
        <time>2011-09-04T09:36:40Z</time>
      </trkpt>
      <trkpt lat="48.42016" lon="-4.42353">
        <ele>126.2</ele>
        <time>2011-09-04T09:36:42Z</time>
      </trkpt>
      <trkpt lat="48.42022" lon="-4.42359">
        <ele>126.3</ele>
        <time>2011-09-04T09:36:43Z</time>
      </trkpt>
      <trkpt lat="48.42029" lon="-4.42365">
        <ele>126.3</ele>
        <time>2011-09-04T09:36:44Z</time>
      </trkpt>
      <trkpt lat="48.42035" lon="-4.42371">
        <ele>126.8</ele>
        <time>2011-09-04T09:36:45Z</time>
      </trkpt>
      <trkpt lat="48.42041" lon="-4.42376">
        <ele>126.8</ele>
        <time>2011-09-04T09:36:46Z</time>
      </trkpt>
      <trkpt lat="48.42047" lon="-4.42382">
        <ele>126.8</ele>
        <time>2011-09-04T09:36:47Z</time>
      </trkpt>
      <trkpt lat="48.42052" lon="-4.42388">
        <ele>126.6</ele>
        <time>2011-09-04T09:36:48Z</time>
      </trkpt>
      <trkpt lat="48.42058" lon="-4.42393">
        <ele>126.8</ele>
        <time>2011-09-04T09:36:48Z</time>
      </trkpt>
      <trkpt lat="48.42064" lon="-4.42399">
        <ele>126.3</ele>
        <time>2011-09-04T09:36:49Z</time>
      </trkpt>
      <trkpt lat="48.42069" lon="-4.42404">
        <ele>126.5</ele>
        <time>2011-09-04T09:36:50Z</time>
      </trkpt>
      <trkpt lat="48.42073" lon="-4.42409">
        <ele>127.1</ele>
        <time>2011-09-04T09:36:51Z</time>
      </trkpt>
      <trkpt lat="48.42077" lon="-4.42414">
        <ele>128.4</ele>
        <time>2011-09-04T09:36:52Z</time>
      </trkpt>
      <trkpt lat="48.42082" lon="-4.42419">
        <ele>129.1</ele>
        <time>2011-09-04T09:36:53Z</time>
      </trkpt>
      <trkpt lat="48.42087" lon="-4.42423">
        <ele>129.5</ele>
        <time>2011-09-04T09:36:55Z</time>
      </trkpt>
      <trkpt lat="48.42092" lon="-4.42427">
        <ele>128.2</ele>
        <time>2011-09-04T09:36:55Z</time>
      </trkpt>
      <trkpt lat="48.42096" lon="-4.4243">
        <ele>128.4</ele>
        <time>2011-09-04T09:36:57Z</time>
      </trkpt>
      <trkpt lat="48.421" lon="-4.42435">
        <ele>128.3</ele>
        <time>2011-09-04T09:36:58Z</time>
      </trkpt>
      <trkpt lat="48.42104" lon="-4.42439">
        <ele>128.2</ele>
        <time>2011-09-04T09:36:58Z</time>
      </trkpt>
      <trkpt lat="48.42108" lon="-4.42445">
        <ele>128.5</ele>
        <time>2011-09-04T09:36:59Z</time>
      </trkpt>
      <trkpt lat="48.4211" lon="-4.42452">
        <ele>128.9</ele>
        <time>2011-09-04T09:37:00Z</time>
      </trkpt>
      <trkpt lat="48.42112" lon="-4.42458">
        <ele>128.6</ele>
        <time>2011-09-04T09:37:01Z</time>
      </trkpt>
      <trkpt lat="48.42112" lon="-4.42466">
        <ele>128.2</ele>
        <time>2011-09-04T09:37:02Z</time>
      </trkpt>
      <trkpt lat="48.42112" lon="-4.42473">
        <ele>128</ele>
        <time>2011-09-04T09:37:03Z</time>
      </trkpt>
      <trkpt lat="48.42111" lon="-4.42481">
        <ele>127.6</ele>
        <time>2011-09-04T09:37:04Z</time>
      </trkpt>
      <trkpt lat="48.4211" lon="-4.42488">
        <ele>127.1</ele>
        <time>2011-09-04T09:37:05Z</time>
      </trkpt>
      <trkpt lat="48.4211" lon="-4.42497">
        <ele>127.1</ele>
        <time>2011-09-04T09:37:06Z</time>
      </trkpt>
      <trkpt lat="48.42111" lon="-4.42505">
        <ele>127.1</ele>
        <time>2011-09-04T09:37:07Z</time>
      </trkpt>
      <trkpt lat="48.42112" lon="-4.42512">
        <ele>127.3</ele>
        <time>2011-09-04T09:37:08Z</time>
      </trkpt>
      <trkpt lat="48.42114" lon="-4.42518">
        <ele>127.1</ele>
        <time>2011-09-04T09:37:09Z</time>
      </trkpt>
      <trkpt lat="48.42119" lon="-4.42523">
        <ele>127</ele>
        <time>2011-09-04T09:37:10Z</time>
      </trkpt>
      <trkpt lat="48.42122" lon="-4.42529">
        <ele>127</ele>
        <time>2011-09-04T09:37:11Z</time>
      </trkpt>
      <trkpt lat="48.42126" lon="-4.42534">
        <ele>126.9</ele>
        <time>2011-09-04T09:37:12Z</time>
      </trkpt>
      <trkpt lat="48.4213" lon="-4.4254">
        <ele>126.8</ele>
        <time>2011-09-04T09:37:13Z</time>
      </trkpt>
      <trkpt lat="48.42133" lon="-4.42545">
        <ele>126.5</ele>
        <time>2011-09-04T09:37:14Z</time>
      </trkpt>
      <trkpt lat="48.42137" lon="-4.4255">
        <ele>126.5</ele>
        <time>2011-09-04T09:37:15Z</time>
      </trkpt>
      <trkpt lat="48.42141" lon="-4.42556">
        <ele>126.6</ele>
        <time>2011-09-04T09:37:16Z</time>
      </trkpt>
      <trkpt lat="48.42145" lon="-4.4256">
        <ele>126.7</ele>
        <time>2011-09-04T09:37:17Z</time>
      </trkpt>
      <trkpt lat="48.42149" lon="-4.42566">
        <ele>126.9</ele>
        <time>2011-09-04T09:37:18Z</time>
      </trkpt>
      <trkpt lat="48.42153" lon="-4.42571">
        <ele>127</ele>
        <time>2011-09-04T09:37:19Z</time>
      </trkpt>
      <trkpt lat="48.42156" lon="-4.42575">
        <ele>126.7</ele>
        <time>2011-09-04T09:37:20Z</time>
      </trkpt>
      <trkpt lat="48.4216" lon="-4.42579">
        <ele>126.7</ele>
        <time>2011-09-04T09:37:21Z</time>
      </trkpt>
      <trkpt lat="48.42164" lon="-4.42584">
        <ele>127.4</ele>
        <time>2011-09-04T09:37:22Z</time>
      </trkpt>
      <trkpt lat="48.42168" lon="-4.42589">
        <ele>127.7</ele>
        <time>2011-09-04T09:37:23Z</time>
      </trkpt>
      <trkpt lat="48.42172" lon="-4.42593">
        <ele>127.9</ele>
        <time>2011-09-04T09:37:24Z</time>
      </trkpt>
      <trkpt lat="48.42175" lon="-4.42598">
        <ele>128.1</ele>
        <time>2011-09-04T09:37:25Z</time>
      </trkpt>
      <trkpt lat="48.42182" lon="-4.42606">
        <ele>127.3</ele>
        <time>2011-09-04T09:37:27Z</time>
      </trkpt>
      <trkpt lat="48.42188" lon="-4.42615">
        <ele>127.4</ele>
        <time>2011-09-04T09:37:30Z</time>
      </trkpt>
      <trkpt lat="48.42194" lon="-4.42621">
        <ele>128.2</ele>
        <time>2011-09-04T09:37:31Z</time>
      </trkpt>
      <trkpt lat="48.422" lon="-4.42627">
        <ele>128.6</ele>
        <time>2011-09-04T09:37:33Z</time>
      </trkpt>
      <trkpt lat="48.42207" lon="-4.42633">
        <ele>128.8</ele>
        <time>2011-09-04T09:37:36Z</time>
      </trkpt>
      <trkpt lat="48.42213" lon="-4.4264">
        <ele>129.3</ele>
        <time>2011-09-04T09:37:38Z</time>
      </trkpt>
      <trkpt lat="48.42218" lon="-4.42646">
        <ele>130</ele>
        <time>2011-09-04T09:37:40Z</time>
      </trkpt>
      <trkpt lat="48.42225" lon="-4.42653">
        <ele>130.2</ele>
        <time>2011-09-04T09:37:42Z</time>
      </trkpt>
      <trkpt lat="48.42232" lon="-4.42662">
        <ele>130.5</ele>
        <time>2011-09-04T09:37:43Z</time>
      </trkpt>
      <trkpt lat="48.42239" lon="-4.42669">
        <ele>131</ele>
        <time>2011-09-04T09:37:46Z</time>
      </trkpt>
      <trkpt lat="48.42246" lon="-4.42675">
        <ele>131.2</ele>
        <time>2011-09-04T09:37:47Z</time>
      </trkpt>
      <trkpt lat="48.4225" lon="-4.42679">
        <ele>130.9</ele>
        <time>2011-09-04T09:37:48Z</time>
      </trkpt>
      <trkpt lat="48.42254" lon="-4.42682">
        <ele>130.8</ele>
        <time>2011-09-04T09:37:49Z</time>
      </trkpt>
      <trkpt lat="48.42258" lon="-4.42686">
        <ele>130.9</ele>
        <time>2011-09-04T09:37:50Z</time>
      </trkpt>
      <trkpt lat="48.42265" lon="-4.42693">
        <ele>130.9</ele>
        <time>2011-09-04T09:37:52Z</time>
      </trkpt>
      <trkpt lat="48.42273" lon="-4.42699">
        <ele>131.3</ele>
        <time>2011-09-04T09:37:54Z</time>
      </trkpt>
      <trkpt lat="48.42279" lon="-4.42706">
        <ele>131.3</ele>
        <time>2011-09-04T09:37:56Z</time>
      </trkpt>
      <trkpt lat="48.42284" lon="-4.42711">
        <ele>131.3</ele>
        <time>2011-09-04T09:37:57Z</time>
      </trkpt>
      <trkpt lat="48.42288" lon="-4.42714">
        <ele>131.4</ele>
        <time>2011-09-04T09:37:58Z</time>
      </trkpt>
      <trkpt lat="48.42295" lon="-4.42719">
        <ele>131.5</ele>
        <time>2011-09-04T09:38:00Z</time>
      </trkpt>
      <trkpt lat="48.42302" lon="-4.42727">
        <ele>131.2</ele>
        <time>2011-09-04T09:38:02Z</time>
      </trkpt>
      <trkpt lat="48.42306" lon="-4.42731">
        <ele>131.8</ele>
        <time>2011-09-04T09:38:03Z</time>
      </trkpt>
      <trkpt lat="48.42313" lon="-4.42738">
        <ele>131.5</ele>
        <time>2011-09-04T09:38:05Z</time>
      </trkpt>
      <trkpt lat="48.4232" lon="-4.42746">
        <ele>132.1</ele>
        <time>2011-09-04T09:38:07Z</time>
      </trkpt>
      <trkpt lat="48.42327" lon="-4.42754">
        <ele>133</ele>
        <time>2011-09-04T09:38:09Z</time>
      </trkpt>
      <trkpt lat="48.42335" lon="-4.4276">
        <ele>133.3</ele>
        <time>2011-09-04T09:38:11Z</time>
      </trkpt>
      <trkpt lat="48.42339" lon="-4.42764">
        <ele>133.5</ele>
        <time>2011-09-04T09:38:12Z</time>
      </trkpt>
      <trkpt lat="48.42343" lon="-4.42767">
        <ele>133.9</ele>
        <time>2011-09-04T09:38:13Z</time>
      </trkpt>
      <trkpt lat="48.42351" lon="-4.42774">
        <ele>133.8</ele>
        <time>2011-09-04T09:38:15Z</time>
      </trkpt>
      <trkpt lat="48.42355" lon="-4.42777">
        <ele>133.8</ele>
        <time>2011-09-04T09:38:16Z</time>
      </trkpt>
      <trkpt lat="48.42363" lon="-4.42784">
        <ele>134</ele>
        <time>2011-09-04T09:38:18Z</time>
      </trkpt>
      <trkpt lat="48.4237" lon="-4.4279">
        <ele>134</ele>
        <time>2011-09-04T09:38:20Z</time>
      </trkpt>
      <trkpt lat="48.42374" lon="-4.42794">
        <ele>134.1</ele>
        <time>2011-09-04T09:38:21Z</time>
      </trkpt>
      <trkpt lat="48.42378" lon="-4.42796">
        <ele>133.7</ele>
        <time>2011-09-04T09:38:22Z</time>
      </trkpt>
      <trkpt lat="48.42385" lon="-4.42802">
        <ele>134.3</ele>
        <time>2011-09-04T09:38:25Z</time>
      </trkpt>
      <trkpt lat="48.42393" lon="-4.42808">
        <ele>135</ele>
        <time>2011-09-04T09:38:26Z</time>
      </trkpt>
      <trkpt lat="48.42399" lon="-4.42814">
        <ele>135.2</ele>
        <time>2011-09-04T09:38:28Z</time>
      </trkpt>
      <trkpt lat="48.42405" lon="-4.42819">
        <ele>134.9</ele>
        <time>2011-09-04T09:38:30Z</time>
      </trkpt>
      <trkpt lat="48.42411" lon="-4.42823">
        <ele>135</ele>
        <time>2011-09-04T09:38:33Z</time>
      </trkpt>
      <trkpt lat="48.42418" lon="-4.42828">
        <ele>134.4</ele>
        <time>2011-09-04T09:38:35Z</time>
      </trkpt>
      <trkpt lat="48.42424" lon="-4.42833">
        <ele>133.8</ele>
        <time>2011-09-04T09:38:36Z</time>
      </trkpt>
      <trkpt lat="48.4243" lon="-4.42838">
        <ele>134.2</ele>
        <time>2011-09-04T09:38:38Z</time>
      </trkpt>
      <trkpt lat="48.42436" lon="-4.42843">
        <ele>134.7</ele>
        <time>2011-09-04T09:38:40Z</time>
      </trkpt>
      <trkpt lat="48.42443" lon="-4.42847">
        <ele>134.9</ele>
        <time>2011-09-04T09:38:42Z</time>
      </trkpt>
      <trkpt lat="48.4245" lon="-4.42852">
        <ele>135.3</ele>
        <time>2011-09-04T09:38:44Z</time>
      </trkpt>
      <trkpt lat="48.42457" lon="-4.42857">
        <ele>135.4</ele>
        <time>2011-09-04T09:38:46Z</time>
      </trkpt>
      <trkpt lat="48.42464" lon="-4.42862">
        <ele>135.8</ele>
        <time>2011-09-04T09:38:48Z</time>
      </trkpt>
      <trkpt lat="48.42471" lon="-4.42866">
        <ele>135.7</ele>
        <time>2011-09-04T09:38:50Z</time>
      </trkpt>
      <trkpt lat="48.42478" lon="-4.42871">
        <ele>135.8</ele>
        <time>2011-09-04T09:38:52Z</time>
      </trkpt>
      <trkpt lat="48.42485" lon="-4.42877">
        <ele>137.4</ele>
        <time>2011-09-04T09:38:54Z</time>
      </trkpt>
      <trkpt lat="48.42492" lon="-4.42882">
        <ele>138.3</ele>
        <time>2011-09-04T09:38:56Z</time>
      </trkpt>
      <trkpt lat="48.425" lon="-4.42885">
        <ele>138</ele>
        <time>2011-09-04T09:38:58Z</time>
      </trkpt>
      <trkpt lat="48.42507" lon="-4.42889">
        <ele>137.8</ele>
        <time>2011-09-04T09:39:00Z</time>
      </trkpt>
      <trkpt lat="48.42514" lon="-4.42893">
        <ele>137.7</ele>
        <time>2011-09-04T09:39:02Z</time>
      </trkpt>
      <trkpt lat="48.42521" lon="-4.42897">
        <ele>138.3</ele>
        <time>2011-09-04T09:39:04Z</time>
      </trkpt>
      <trkpt lat="48.42527" lon="-4.42903">
        <ele>137.9</ele>
        <time>2011-09-04T09:39:06Z</time>
      </trkpt>
      <trkpt lat="48.42533" lon="-4.42911">
        <ele>137.8</ele>
        <time>2011-09-04T09:39:08Z</time>
      </trkpt>
      <trkpt lat="48.42536" lon="-4.4292">
        <ele>138.1</ele>
        <time>2011-09-04T09:39:10Z</time>
      </trkpt>
      <trkpt lat="48.42538" lon="-4.4293">
        <ele>137.5</ele>
        <time>2011-09-04T09:39:12Z</time>
      </trkpt>
      <trkpt lat="48.4254" lon="-4.42942">
        <ele>137</ele>
        <time>2011-09-04T09:39:14Z</time>
      </trkpt>
      <trkpt lat="48.4254" lon="-4.42954">
        <ele>137.1</ele>
        <time>2011-09-04T09:39:16Z</time>
      </trkpt>
      <trkpt lat="48.42539" lon="-4.42966">
        <ele>137.3</ele>
        <time>2011-09-04T09:39:18Z</time>
      </trkpt>
      <trkpt lat="48.4254" lon="-4.42979">
        <ele>136.7</ele>
        <time>2011-09-04T09:39:20Z</time>
      </trkpt>
      <trkpt lat="48.42539" lon="-4.42992">
        <ele>136.7</ele>
        <time>2011-09-04T09:39:22Z</time>
      </trkpt>
      <trkpt lat="48.42538" lon="-4.43005">
        <ele>136.7</ele>
        <time>2011-09-04T09:39:24Z</time>
      </trkpt>
      <trkpt lat="48.42537" lon="-4.43017">
        <ele>136.5</ele>
        <time>2011-09-04T09:39:26Z</time>
      </trkpt>
      <trkpt lat="48.42536" lon="-4.4303">
        <ele>136.8</ele>
        <time>2011-09-04T09:39:28Z</time>
      </trkpt>
      <trkpt lat="48.42535" lon="-4.43043">
        <ele>137.2</ele>
        <time>2011-09-04T09:39:30Z</time>
      </trkpt>
      <trkpt lat="48.42535" lon="-4.43056">
        <ele>137</ele>
        <time>2011-09-04T09:39:32Z</time>
      </trkpt>
      <trkpt lat="48.42535" lon="-4.43069">
        <ele>136.7</ele>
        <time>2011-09-04T09:39:34Z</time>
      </trkpt>
      <trkpt lat="48.42535" lon="-4.43081">
        <ele>136.8</ele>
        <time>2011-09-04T09:39:36Z</time>
      </trkpt>
      <trkpt lat="48.42534" lon="-4.43094">
        <ele>137.3</ele>
        <time>2011-09-04T09:39:38Z</time>
      </trkpt>
      <trkpt lat="48.42534" lon="-4.43106">
        <ele>137.9</ele>
        <time>2011-09-04T09:39:40Z</time>
      </trkpt>
      <trkpt lat="48.42534" lon="-4.43119">
        <ele>138.5</ele>
        <time>2011-09-04T09:39:42Z</time>
      </trkpt>
      <trkpt lat="48.42532" lon="-4.43132">
        <ele>139</ele>
        <time>2011-09-04T09:39:44Z</time>
      </trkpt>
      <trkpt lat="48.4253" lon="-4.43145">
        <ele>139.3</ele>
        <time>2011-09-04T09:39:46Z</time>
      </trkpt>
      <trkpt lat="48.42529" lon="-4.43152">
        <ele>139.3</ele>
        <time>2011-09-04T09:39:47Z</time>
      </trkpt>
      <trkpt lat="48.42528" lon="-4.43159">
        <ele>139.4</ele>
        <time>2011-09-04T09:39:48Z</time>
      </trkpt>
      <trkpt lat="48.42527" lon="-4.43166">
        <ele>139.7</ele>
        <time>2011-09-04T09:39:49Z</time>
      </trkpt>
      <trkpt lat="48.42526" lon="-4.43173">
        <ele>139.9</ele>
        <time>2011-09-04T09:39:50Z</time>
      </trkpt>
      <trkpt lat="48.42526" lon="-4.4318">
        <ele>139.7</ele>
        <time>2011-09-04T09:39:51Z</time>
      </trkpt>
      <trkpt lat="48.42525" lon="-4.43187">
        <ele>140</ele>
        <time>2011-09-04T09:39:52Z</time>
      </trkpt>
      <trkpt lat="48.42524" lon="-4.43195">
        <ele>139.8</ele>
        <time>2011-09-04T09:39:53Z</time>
      </trkpt>
      <trkpt lat="48.42523" lon="-4.43202">
        <ele>140</ele>
        <time>2011-09-04T09:39:54Z</time>
      </trkpt>
      <trkpt lat="48.42522" lon="-4.43209">
        <ele>140.3</ele>
        <time>2011-09-04T09:39:55Z</time>
      </trkpt>
      <trkpt lat="48.42521" lon="-4.43216">
        <ele>140.3</ele>
        <time>2011-09-04T09:39:56Z</time>
      </trkpt>
      <trkpt lat="48.4252" lon="-4.43224">
        <ele>140.5</ele>
        <time>2011-09-04T09:39:57Z</time>
      </trkpt>
      <trkpt lat="48.4252" lon="-4.43231">
        <ele>140.4</ele>
        <time>2011-09-04T09:39:58Z</time>
      </trkpt>
      <trkpt lat="48.42519" lon="-4.43239">
        <ele>140.4</ele>
        <time>2011-09-04T09:39:59Z</time>
      </trkpt>
      <trkpt lat="48.42518" lon="-4.43246">
        <ele>140</ele>
        <time>2011-09-04T09:40:00Z</time>
      </trkpt>
      <trkpt lat="48.42516" lon="-4.43254">
        <ele>139.8</ele>
        <time>2011-09-04T09:40:01Z</time>
      </trkpt>
      <trkpt lat="48.42516" lon="-4.43262">
        <ele>139.8</ele>
        <time>2011-09-04T09:40:02Z</time>
      </trkpt>
      <trkpt lat="48.42515" lon="-4.43269">
        <ele>140.1</ele>
        <time>2011-09-04T09:40:03Z</time>
      </trkpt>
      <trkpt lat="48.42515" lon="-4.43277">
        <ele>140.3</ele>
        <time>2011-09-04T09:40:04Z</time>
      </trkpt>
      <trkpt lat="48.42512" lon="-4.43285">
        <ele>141</ele>
        <time>2011-09-04T09:40:05Z</time>
      </trkpt>
      <trkpt lat="48.4251" lon="-4.43291">
        <ele>141.4</ele>
        <time>2011-09-04T09:40:06Z</time>
      </trkpt>
      <trkpt lat="48.42509" lon="-4.43299">
        <ele>141.4</ele>
        <time>2011-09-04T09:40:07Z</time>
      </trkpt>
      <trkpt lat="48.42508" lon="-4.43307">
        <ele>141.9</ele>
        <time>2011-09-04T09:40:08Z</time>
      </trkpt>
      <trkpt lat="48.42506" lon="-4.43315">
        <ele>141.5</ele>
        <time>2011-09-04T09:40:09Z</time>
      </trkpt>
      <trkpt lat="48.42505" lon="-4.43323">
        <ele>142.2</ele>
        <time>2011-09-04T09:40:10Z</time>
      </trkpt>
      <trkpt lat="48.42504" lon="-4.43337">
        <ele>141.4</ele>
        <time>2011-09-04T09:40:12Z</time>
      </trkpt>
      <trkpt lat="48.42503" lon="-4.43344">
        <ele>141.2</ele>
        <time>2011-09-04T09:40:13Z</time>
      </trkpt>
      <trkpt lat="48.42502" lon="-4.43352">
        <ele>141.7</ele>
        <time>2011-09-04T09:40:14Z</time>
      </trkpt>
      <trkpt lat="48.42499" lon="-4.4336">
        <ele>141.8</ele>
        <time>2011-09-04T09:40:15Z</time>
      </trkpt>
      <trkpt lat="48.42499" lon="-4.43368">
        <ele>141.2</ele>
        <time>2011-09-04T09:40:16Z</time>
      </trkpt>
      <trkpt lat="48.42498" lon="-4.43374">
        <ele>140.1</ele>
        <time>2011-09-04T09:40:17Z</time>
      </trkpt>
      <trkpt lat="48.42498" lon="-4.43382">
        <ele>139.3</ele>
        <time>2011-09-04T09:40:18Z</time>
      </trkpt>
      <trkpt lat="48.42497" lon="-4.43389">
        <ele>139.1</ele>
        <time>2011-09-04T09:40:19Z</time>
      </trkpt>
      <trkpt lat="48.42496" lon="-4.43398">
        <ele>138.9</ele>
        <time>2011-09-04T09:40:20Z</time>
      </trkpt>
      <trkpt lat="48.42494" lon="-4.43404">
        <ele>137.7</ele>
        <time>2011-09-04T09:40:21Z</time>
      </trkpt>
      <trkpt lat="48.42494" lon="-4.43413">
        <ele>137.8</ele>
        <time>2011-09-04T09:40:22Z</time>
      </trkpt>
      <trkpt lat="48.42494" lon="-4.43421">
        <ele>138.1</ele>
        <time>2011-09-04T09:40:23Z</time>
      </trkpt>
      <trkpt lat="48.42494" lon="-4.43428">
        <ele>138.6</ele>
        <time>2011-09-04T09:40:24Z</time>
      </trkpt>
      <trkpt lat="48.42494" lon="-4.43436">
        <ele>137.7</ele>
        <time>2011-09-04T09:40:25Z</time>
      </trkpt>
      <trkpt lat="48.42493" lon="-4.43443">
        <ele>138.2</ele>
        <time>2011-09-04T09:40:26Z</time>
      </trkpt>
      <trkpt lat="48.42492" lon="-4.43451">
        <ele>138.3</ele>
        <time>2011-09-04T09:40:27Z</time>
      </trkpt>
      <trkpt lat="48.42492" lon="-4.43459">
        <ele>138</ele>
        <time>2011-09-04T09:40:28Z</time>
      </trkpt>
      <trkpt lat="48.42492" lon="-4.43467">
        <ele>137.1</ele>
        <time>2011-09-04T09:40:29Z</time>
      </trkpt>
      <trkpt lat="48.42492" lon="-4.43474">
        <ele>136.9</ele>
        <time>2011-09-04T09:40:30Z</time>
      </trkpt>
      <trkpt lat="48.42491" lon="-4.43482">
        <ele>136.5</ele>
        <time>2011-09-04T09:40:31Z</time>
      </trkpt>
      <trkpt lat="48.42491" lon="-4.4349">
        <ele>136.1</ele>
        <time>2011-09-04T09:40:32Z</time>
      </trkpt>
      <trkpt lat="48.42491" lon="-4.43498">
        <ele>136.4</ele>
        <time>2011-09-04T09:40:33Z</time>
      </trkpt>
      <trkpt lat="48.4249" lon="-4.43506">
        <ele>136.5</ele>
        <time>2011-09-04T09:40:34Z</time>
      </trkpt>
      <trkpt lat="48.42489" lon="-4.43514">
        <ele>136.3</ele>
        <time>2011-09-04T09:40:35Z</time>
      </trkpt>
      <trkpt lat="48.42489" lon="-4.43521">
        <ele>136.2</ele>
        <time>2011-09-04T09:40:36Z</time>
      </trkpt>
      <trkpt lat="48.4249" lon="-4.4353">
        <ele>136.4</ele>
        <time>2011-09-04T09:40:37Z</time>
      </trkpt>
      <trkpt lat="48.42489" lon="-4.43538">
        <ele>136</ele>
        <time>2011-09-04T09:40:38Z</time>
      </trkpt>
      <trkpt lat="48.42489" lon="-4.43545">
        <ele>135.7</ele>
        <time>2011-09-04T09:40:39Z</time>
      </trkpt>
      <trkpt lat="48.42488" lon="-4.43553">
        <ele>135.4</ele>
        <time>2011-09-04T09:40:40Z</time>
      </trkpt>
      <trkpt lat="48.42488" lon="-4.43561">
        <ele>135.4</ele>
        <time>2011-09-04T09:40:41Z</time>
      </trkpt>
      <trkpt lat="48.42488" lon="-4.4357">
        <ele>135.4</ele>
        <time>2011-09-04T09:40:42Z</time>
      </trkpt>
      <trkpt lat="48.42486" lon="-4.43578">
        <ele>135.5</ele>
        <time>2011-09-04T09:40:43Z</time>
      </trkpt>
      <trkpt lat="48.42485" lon="-4.43586">
        <ele>135.1</ele>
        <time>2011-09-04T09:40:44Z</time>
      </trkpt>
      <trkpt lat="48.42483" lon="-4.43594">
        <ele>135</ele>
        <time>2011-09-04T09:40:45Z</time>
      </trkpt>
      <trkpt lat="48.42482" lon="-4.43602">
        <ele>134.7</ele>
        <time>2011-09-04T09:40:46Z</time>
      </trkpt>
      <trkpt lat="48.4248" lon="-4.43612">
        <ele>134</ele>
        <time>2011-09-04T09:40:47Z</time>
      </trkpt>
      <trkpt lat="48.42478" lon="-4.4362">
        <ele>133.9</ele>
        <time>2011-09-04T09:40:48Z</time>
      </trkpt>
      <trkpt lat="48.42476" lon="-4.43628">
        <ele>134</ele>
        <time>2011-09-04T09:40:49Z</time>
      </trkpt>
      <trkpt lat="48.42474" lon="-4.43637">
        <ele>133.7</ele>
        <time>2011-09-04T09:40:50Z</time>
      </trkpt>
      <trkpt lat="48.42473" lon="-4.43646">
        <ele>133.4</ele>
        <time>2011-09-04T09:40:51Z</time>
      </trkpt>
      <trkpt lat="48.42472" lon="-4.43655">
        <ele>133</ele>
        <time>2011-09-04T09:40:52Z</time>
      </trkpt>
      <trkpt lat="48.4247" lon="-4.43664">
        <ele>132.6</ele>
        <time>2011-09-04T09:40:53Z</time>
      </trkpt>
      <trkpt lat="48.42468" lon="-4.43674">
        <ele>132.2</ele>
        <time>2011-09-04T09:40:54Z</time>
      </trkpt>
      <trkpt lat="48.42467" lon="-4.43683">
        <ele>131.7</ele>
        <time>2011-09-04T09:40:55Z</time>
      </trkpt>
      <trkpt lat="48.42464" lon="-4.43692">
        <ele>131.4</ele>
        <time>2011-09-04T09:40:56Z</time>
      </trkpt>
      <trkpt lat="48.42462" lon="-4.43701">
        <ele>131.8</ele>
        <time>2011-09-04T09:40:57Z</time>
      </trkpt>
      <trkpt lat="48.4246" lon="-4.4371">
        <ele>131.9</ele>
        <time>2011-09-04T09:40:58Z</time>
      </trkpt>
      <trkpt lat="48.42458" lon="-4.4372">
        <ele>131.2</ele>
        <time>2011-09-04T09:40:59Z</time>
      </trkpt>
      <trkpt lat="48.42456" lon="-4.43729">
        <ele>130.5</ele>
        <time>2011-09-04T09:41:00Z</time>
      </trkpt>
      <trkpt lat="48.42454" lon="-4.43739">
        <ele>130.5</ele>
        <time>2011-09-04T09:41:01Z</time>
      </trkpt>
      <trkpt lat="48.42452" lon="-4.43748">
        <ele>130.5</ele>
        <time>2011-09-04T09:41:02Z</time>
      </trkpt>
      <trkpt lat="48.4245" lon="-4.43758">
        <ele>130.5</ele>
        <time>2011-09-04T09:41:03Z</time>
      </trkpt>
      <trkpt lat="48.42449" lon="-4.43769">
        <ele>130.3</ele>
        <time>2011-09-04T09:41:04Z</time>
      </trkpt>
      <trkpt lat="48.42448" lon="-4.43777">
        <ele>130</ele>
        <time>2011-09-04T09:41:05Z</time>
      </trkpt>
      <trkpt lat="48.42446" lon="-4.43785">
        <ele>130.1</ele>
        <time>2011-09-04T09:41:06Z</time>
      </trkpt>
      <trkpt lat="48.42445" lon="-4.43793">
        <ele>130.4</ele>
        <time>2011-09-04T09:41:07Z</time>
      </trkpt>
      <trkpt lat="48.42443" lon="-4.43802">
        <ele>130.3</ele>
        <time>2011-09-04T09:41:08Z</time>
      </trkpt>
      <trkpt lat="48.4244" lon="-4.4381">
        <ele>131</ele>
        <time>2011-09-04T09:41:09Z</time>
      </trkpt>
      <trkpt lat="48.42438" lon="-4.43819">
        <ele>131.8</ele>
        <time>2011-09-04T09:41:10Z</time>
      </trkpt>
      <trkpt lat="48.42436" lon="-4.43827">
        <ele>131.9</ele>
        <time>2011-09-04T09:41:11Z</time>
      </trkpt>
      <trkpt lat="48.42436" lon="-4.43835">
        <ele>132</ele>
        <time>2011-09-04T09:41:12Z</time>
      </trkpt>
      <trkpt lat="48.42434" lon="-4.43842">
        <ele>131.8</ele>
        <time>2011-09-04T09:41:13Z</time>
      </trkpt>
      <trkpt lat="48.42433" lon="-4.4385">
        <ele>132.5</ele>
        <time>2011-09-04T09:41:14Z</time>
      </trkpt>
      <trkpt lat="48.42432" lon="-4.43858">
        <ele>133</ele>
        <time>2011-09-04T09:41:15Z</time>
      </trkpt>
      <trkpt lat="48.42429" lon="-4.43865">
        <ele>132.9</ele>
        <time>2011-09-04T09:41:16Z</time>
      </trkpt>
      <trkpt lat="48.42427" lon="-4.43872">
        <ele>133.4</ele>
        <time>2011-09-04T09:41:17Z</time>
      </trkpt>
      <trkpt lat="48.42426" lon="-4.4388">
        <ele>133.5</ele>
        <time>2011-09-04T09:41:18Z</time>
      </trkpt>
      <trkpt lat="48.42424" lon="-4.43887">
        <ele>133.6</ele>
        <time>2011-09-04T09:41:19Z</time>
      </trkpt>
      <trkpt lat="48.42422" lon="-4.43896">
        <ele>134.1</ele>
        <time>2011-09-04T09:41:20Z</time>
      </trkpt>
      <trkpt lat="48.4242" lon="-4.43903">
        <ele>134.5</ele>
        <time>2011-09-04T09:41:21Z</time>
      </trkpt>
      <trkpt lat="48.42418" lon="-4.43911">
        <ele>134.6</ele>
        <time>2011-09-04T09:41:22Z</time>
      </trkpt>
      <trkpt lat="48.42417" lon="-4.43919">
        <ele>135</ele>
        <time>2011-09-04T09:41:23Z</time>
      </trkpt>
      <trkpt lat="48.42415" lon="-4.43928">
        <ele>133.7</ele>
        <time>2011-09-04T09:41:24Z</time>
      </trkpt>
      <trkpt lat="48.42414" lon="-4.43936">
        <ele>134</ele>
        <time>2011-09-04T09:41:25Z</time>
      </trkpt>
      <trkpt lat="48.42412" lon="-4.43943">
        <ele>133.8</ele>
        <time>2011-09-04T09:41:26Z</time>
      </trkpt>
      <trkpt lat="48.4241" lon="-4.43951">
        <ele>133.5</ele>
        <time>2011-09-04T09:41:27Z</time>
      </trkpt>
      <trkpt lat="48.42407" lon="-4.43959">
        <ele>133.3</ele>
        <time>2011-09-04T09:41:28Z</time>
      </trkpt>
      <trkpt lat="48.42405" lon="-4.43966">
        <ele>133.4</ele>
        <time>2011-09-04T09:41:29Z</time>
      </trkpt>
      <trkpt lat="48.42403" lon="-4.43973">
        <ele>133.8</ele>
        <time>2011-09-04T09:41:30Z</time>
      </trkpt>
      <trkpt lat="48.42401" lon="-4.43981">
        <ele>134.3</ele>
        <time>2011-09-04T09:41:31Z</time>
      </trkpt>
      <trkpt lat="48.424" lon="-4.43988">
        <ele>134</ele>
        <time>2011-09-04T09:41:32Z</time>
      </trkpt>
      <trkpt lat="48.42398" lon="-4.43994">
        <ele>133</ele>
        <time>2011-09-04T09:41:33Z</time>
      </trkpt>
      <trkpt lat="48.42395" lon="-4.44001">
        <ele>132.5</ele>
        <time>2011-09-04T09:41:34Z</time>
      </trkpt>
      <trkpt lat="48.42394" lon="-4.44009">
        <ele>132.1</ele>
        <time>2011-09-04T09:41:35Z</time>
      </trkpt>
      <trkpt lat="48.42392" lon="-4.44018">
        <ele>131.8</ele>
        <time>2011-09-04T09:41:36Z</time>
      </trkpt>
      <trkpt lat="48.42393" lon="-4.44031">
        <ele>131.3</ele>
        <time>2011-09-04T09:41:38Z</time>
      </trkpt>
      <trkpt lat="48.42398" lon="-4.44044">
        <ele>131.2</ele>
        <time>2011-09-04T09:41:40Z</time>
      </trkpt>
      <trkpt lat="48.42399" lon="-4.44051">
        <ele>131</ele>
        <time>2011-09-04T09:41:41Z</time>
      </trkpt>
      <trkpt lat="48.42398" lon="-4.44058">
        <ele>130.3</ele>
        <time>2011-09-04T09:41:42Z</time>
      </trkpt>
      <trkpt lat="48.42396" lon="-4.44064">
        <ele>129.6</ele>
        <time>2011-09-04T09:41:43Z</time>
      </trkpt>
      <trkpt lat="48.42393" lon="-4.44068">
        <ele>129.5</ele>
        <time>2011-09-04T09:41:44Z</time>
      </trkpt>
      <trkpt lat="48.42388" lon="-4.44072">
        <ele>129.5</ele>
        <time>2011-09-04T09:41:45Z</time>
      </trkpt>
      <trkpt lat="48.42384" lon="-4.44075">
        <ele>129.4</ele>
        <time>2011-09-04T09:41:46Z</time>
      </trkpt>
      <trkpt lat="48.42379" lon="-4.44079">
        <ele>129.3</ele>
        <time>2011-09-04T09:41:47Z</time>
      </trkpt>
      <trkpt lat="48.42375" lon="-4.44084">
        <ele>129.6</ele>
        <time>2011-09-04T09:41:48Z</time>
      </trkpt>
      <trkpt lat="48.42372" lon="-4.44091">
        <ele>129.7</ele>
        <time>2011-09-04T09:41:49Z</time>
      </trkpt>
      <trkpt lat="48.42369" lon="-4.44098">
        <ele>129.5</ele>
        <time>2011-09-04T09:41:50Z</time>
      </trkpt>
      <trkpt lat="48.42366" lon="-4.44104">
        <ele>130</ele>
        <time>2011-09-04T09:41:51Z</time>
      </trkpt>
      <trkpt lat="48.42363" lon="-4.44111">
        <ele>130.6</ele>
        <time>2011-09-04T09:41:52Z</time>
      </trkpt>
      <trkpt lat="48.4236" lon="-4.44118">
        <ele>130.5</ele>
        <time>2011-09-04T09:41:53Z</time>
      </trkpt>
      <trkpt lat="48.42358" lon="-4.44124">
        <ele>130.9</ele>
        <time>2011-09-04T09:41:54Z</time>
      </trkpt>
      <trkpt lat="48.42355" lon="-4.4413">
        <ele>130.4</ele>
        <time>2011-09-04T09:41:55Z</time>
      </trkpt>
      <trkpt lat="48.42352" lon="-4.44136">
        <ele>130.4</ele>
        <time>2011-09-04T09:41:56Z</time>
      </trkpt>
      <trkpt lat="48.42349" lon="-4.44142">
        <ele>130.7</ele>
        <time>2011-09-04T09:41:57Z</time>
      </trkpt>
      <trkpt lat="48.42346" lon="-4.44148">
        <ele>130.4</ele>
        <time>2011-09-04T09:41:58Z</time>
      </trkpt>
      <trkpt lat="48.42344" lon="-4.44154">
        <ele>130</ele>
        <time>2011-09-04T09:41:59Z</time>
      </trkpt>
      <trkpt lat="48.42341" lon="-4.44161">
        <ele>130.3</ele>
        <time>2011-09-04T09:42:00Z</time>
      </trkpt>
      <trkpt lat="48.42338" lon="-4.44167">
        <ele>130.5</ele>
        <time>2011-09-04T09:42:01Z</time>
      </trkpt>
      <trkpt lat="48.42335" lon="-4.44173">
        <ele>130.8</ele>
        <time>2011-09-04T09:42:02Z</time>
      </trkpt>
      <trkpt lat="48.42332" lon="-4.44179">
        <ele>131.1</ele>
        <time>2011-09-04T09:42:03Z</time>
      </trkpt>
      <trkpt lat="48.4233" lon="-4.44184">
        <ele>130.9</ele>
        <time>2011-09-04T09:42:04Z</time>
      </trkpt>
      <trkpt lat="48.42327" lon="-4.44191">
        <ele>130.6</ele>
        <time>2011-09-04T09:42:05Z</time>
      </trkpt>
      <trkpt lat="48.42324" lon="-4.44197">
        <ele>131.1</ele>
        <time>2011-09-04T09:42:06Z</time>
      </trkpt>
      <trkpt lat="48.42322" lon="-4.44203">
        <ele>131</ele>
        <time>2011-09-04T09:42:07Z</time>
      </trkpt>
      <trkpt lat="48.42318" lon="-4.44209">
        <ele>131.2</ele>
        <time>2011-09-04T09:42:08Z</time>
      </trkpt>
      <trkpt lat="48.42316" lon="-4.44216">
        <ele>131.4</ele>
        <time>2011-09-04T09:42:09Z</time>
      </trkpt>
      <trkpt lat="48.42313" lon="-4.44222">
        <ele>131.4</ele>
        <time>2011-09-04T09:42:10Z</time>
      </trkpt>
      <trkpt lat="48.4231" lon="-4.44227">
        <ele>131.3</ele>
        <time>2011-09-04T09:42:11Z</time>
      </trkpt>
      <trkpt lat="48.42306" lon="-4.44233">
        <ele>131.8</ele>
        <time>2011-09-04T09:42:12Z</time>
      </trkpt>
      <trkpt lat="48.42303" lon="-4.44239">
        <ele>131.9</ele>
        <time>2011-09-04T09:42:13Z</time>
      </trkpt>
      <trkpt lat="48.423" lon="-4.44245">
        <ele>131.6</ele>
        <time>2011-09-04T09:42:14Z</time>
      </trkpt>
      <trkpt lat="48.42297" lon="-4.44252">
        <ele>132.1</ele>
        <time>2011-09-04T09:42:15Z</time>
      </trkpt>
      <trkpt lat="48.42294" lon="-4.44259">
        <ele>132.3</ele>
        <time>2011-09-04T09:42:16Z</time>
      </trkpt>
      <trkpt lat="48.42292" lon="-4.44265">
        <ele>133.1</ele>
        <time>2011-09-04T09:42:17Z</time>
      </trkpt>
      <trkpt lat="48.4229" lon="-4.44271">
        <ele>133.5</ele>
        <time>2011-09-04T09:42:18Z</time>
      </trkpt>
      <trkpt lat="48.42287" lon="-4.44277">
        <ele>133.3</ele>
        <time>2011-09-04T09:42:19Z</time>
      </trkpt>
      <trkpt lat="48.42282" lon="-4.44287">
        <ele>133</ele>
        <time>2011-09-04T09:42:21Z</time>
      </trkpt>
      <trkpt lat="48.42275" lon="-4.44297">
        <ele>133.4</ele>
        <time>2011-09-04T09:42:23Z</time>
      </trkpt>
      <trkpt lat="48.42272" lon="-4.44304">
        <ele>136.9</ele>
        <time>2011-09-04T09:42:25Z</time>
      </trkpt>
      <trkpt lat="48.42269" lon="-4.44314">
        <ele>138.9</ele>
        <time>2011-09-04T09:42:27Z</time>
      </trkpt>
      <trkpt lat="48.42265" lon="-4.44325">
        <ele>141.2</ele>
        <time>2011-09-04T09:42:29Z</time>
      </trkpt>
      <trkpt lat="48.42259" lon="-4.44331">
        <ele>140</ele>
        <time>2011-09-04T09:42:30Z</time>
      </trkpt>
      <trkpt lat="48.42255" lon="-4.44337">
        <ele>139.1</ele>
        <time>2011-09-04T09:42:31Z</time>
      </trkpt>
      <trkpt lat="48.42252" lon="-4.44354">
        <ele>138.5</ele>
        <time>2011-09-04T09:42:33Z</time>
      </trkpt>
      <trkpt lat="48.42251" lon="-4.44365">
        <ele>135.4</ele>
        <time>2011-09-04T09:42:34Z</time>
      </trkpt>
      <trkpt lat="48.4225" lon="-4.44373">
        <ele>135.6</ele>
        <time>2011-09-04T09:42:35Z</time>
      </trkpt>
      <trkpt lat="48.42248" lon="-4.44381">
        <ele>135.8</ele>
        <time>2011-09-04T09:42:36Z</time>
      </trkpt>
      <trkpt lat="48.42246" lon="-4.44387">
        <ele>136.2</ele>
        <time>2011-09-04T09:42:37Z</time>
      </trkpt>
      <trkpt lat="48.42244" lon="-4.44394">
        <ele>136.1</ele>
        <time>2011-09-04T09:42:38Z</time>
      </trkpt>
      <trkpt lat="48.42242" lon="-4.444">
        <ele>136.4</ele>
        <time>2011-09-04T09:42:39Z</time>
      </trkpt>
      <trkpt lat="48.42241" lon="-4.44408">
        <ele>135.8</ele>
        <time>2011-09-04T09:42:40Z</time>
      </trkpt>
      <trkpt lat="48.42239" lon="-4.44415">
        <ele>136</ele>
        <time>2011-09-04T09:42:41Z</time>
      </trkpt>
      <trkpt lat="48.42239" lon="-4.44422">
        <ele>136</ele>
        <time>2011-09-04T09:42:42Z</time>
      </trkpt>
      <trkpt lat="48.42237" lon="-4.44434">
        <ele>135.4</ele>
        <time>2011-09-04T09:42:44Z</time>
      </trkpt>
      <trkpt lat="48.42235" lon="-4.44446">
        <ele>135</ele>
        <time>2011-09-04T09:42:46Z</time>
      </trkpt>
      <trkpt lat="48.42233" lon="-4.44455">
        <ele>135.9</ele>
        <time>2011-09-04T09:42:48Z</time>
      </trkpt>
      <trkpt lat="48.42228" lon="-4.44452">
        <ele>136</ele>
        <time>2011-09-04T09:42:49Z</time>
      </trkpt>
      <trkpt lat="48.42223" lon="-4.44449">
        <ele>134.7</ele>
        <time>2011-09-04T09:42:50Z</time>
      </trkpt>
      <trkpt lat="48.42215" lon="-4.44441">
        <ele>134.1</ele>
        <time>2011-09-04T09:42:52Z</time>
      </trkpt>
      <trkpt lat="48.42211" lon="-4.44437">
        <ele>134.2</ele>
        <time>2011-09-04T09:42:53Z</time>
      </trkpt>
      <trkpt lat="48.42206" lon="-4.44433">
        <ele>134.1</ele>
        <time>2011-09-04T09:42:54Z</time>
      </trkpt>
      <trkpt lat="48.42202" lon="-4.4443">
        <ele>134</ele>
        <time>2011-09-04T09:42:55Z</time>
      </trkpt>
      <trkpt lat="48.42188" lon="-4.4443">
        <ele>133.7</ele>
        <time>2011-09-04T09:42:56Z</time>
      </trkpt>
      <trkpt lat="48.42181" lon="-4.44427">
        <ele>134</ele>
        <time>2011-09-04T09:42:57Z</time>
      </trkpt>
      <trkpt lat="48.42176" lon="-4.44425">
        <ele>135.1</ele>
        <time>2011-09-04T09:42:58Z</time>
      </trkpt>
      <trkpt lat="48.42169" lon="-4.44423">
        <ele>135.3</ele>
        <time>2011-09-04T09:42:59Z</time>
      </trkpt>
      <trkpt lat="48.42163" lon="-4.4442">
        <ele>135.7</ele>
        <time>2011-09-04T09:43:00Z</time>
      </trkpt>
      <trkpt lat="48.42162" lon="-4.44411">
        <ele>134.1</ele>
        <time>2011-09-04T09:43:01Z</time>
      </trkpt>
      <trkpt lat="48.42158" lon="-4.44404">
        <ele>132.8</ele>
        <time>2011-09-04T09:43:02Z</time>
      </trkpt>
      <trkpt lat="48.42152" lon="-4.44397">
        <ele>132.9</ele>
        <time>2011-09-04T09:43:03Z</time>
      </trkpt>
      <trkpt lat="48.42148" lon="-4.44389">
        <ele>133.5</ele>
        <time>2011-09-04T09:43:04Z</time>
      </trkpt>
      <trkpt lat="48.42146" lon="-4.44382">
        <ele>133</ele>
        <time>2011-09-04T09:43:05Z</time>
      </trkpt>
      <trkpt lat="48.42142" lon="-4.44374">
        <ele>132.6</ele>
        <time>2011-09-04T09:43:06Z</time>
      </trkpt>
      <trkpt lat="48.42139" lon="-4.44367">
        <ele>132.5</ele>
        <time>2011-09-04T09:43:07Z</time>
      </trkpt>
      <trkpt lat="48.42134" lon="-4.4436">
        <ele>132.5</ele>
        <time>2011-09-04T09:43:08Z</time>
      </trkpt>
      <trkpt lat="48.42126" lon="-4.44355">
        <ele>133.6</ele>
        <time>2011-09-04T09:43:10Z</time>
      </trkpt>
      <trkpt lat="48.42119" lon="-4.44349">
        <ele>133.4</ele>
        <time>2011-09-04T09:43:11Z</time>
      </trkpt>
      <trkpt lat="48.42114" lon="-4.44343">
        <ele>133.6</ele>
        <time>2011-09-04T09:43:12Z</time>
      </trkpt>
      <trkpt lat="48.42109" lon="-4.44338">
        <ele>133.9</ele>
        <time>2011-09-04T09:43:13Z</time>
      </trkpt>
      <trkpt lat="48.42102" lon="-4.44336">
        <ele>133.9</ele>
        <time>2011-09-04T09:43:14Z</time>
      </trkpt>
      <trkpt lat="48.42095" lon="-4.44333">
        <ele>133.1</ele>
        <time>2011-09-04T09:43:15Z</time>
      </trkpt>
      <trkpt lat="48.42088" lon="-4.4433">
        <ele>133.1</ele>
        <time>2011-09-04T09:43:16Z</time>
      </trkpt>
      <trkpt lat="48.42082" lon="-4.44327">
        <ele>133.1</ele>
        <time>2011-09-04T09:43:17Z</time>
      </trkpt>
      <trkpt lat="48.42074" lon="-4.44323">
        <ele>132.1</ele>
        <time>2011-09-04T09:43:19Z</time>
      </trkpt>
      <trkpt lat="48.42068" lon="-4.44321">
        <ele>131.7</ele>
        <time>2011-09-04T09:43:20Z</time>
      </trkpt>
      <trkpt lat="48.42061" lon="-4.4432">
        <ele>130.7</ele>
        <time>2011-09-04T09:43:21Z</time>
      </trkpt>
      <trkpt lat="48.4205" lon="-4.44322">
        <ele>128</ele>
        <time>2011-09-04T09:43:23Z</time>
      </trkpt>
      <trkpt lat="48.4204" lon="-4.44323">
        <ele>127.8</ele>
        <time>2011-09-04T09:43:25Z</time>
      </trkpt>
      <trkpt lat="48.42034" lon="-4.44325">
        <ele>127.5</ele>
        <time>2011-09-04T09:43:26Z</time>
      </trkpt>
      <trkpt lat="48.42027" lon="-4.44325">
        <ele>128.1</ele>
        <time>2011-09-04T09:43:27Z</time>
      </trkpt>
      <trkpt lat="48.42021" lon="-4.44324">
        <ele>128.9</ele>
        <time>2011-09-04T09:43:28Z</time>
      </trkpt>
      <trkpt lat="48.42014" lon="-4.44323">
        <ele>129.4</ele>
        <time>2011-09-04T09:43:29Z</time>
      </trkpt>
      <trkpt lat="48.42009" lon="-4.44324">
        <ele>130</ele>
        <time>2011-09-04T09:43:30Z</time>
      </trkpt>
      <trkpt lat="48.42003" lon="-4.44325">
        <ele>130.2</ele>
        <time>2011-09-04T09:43:31Z</time>
      </trkpt>
      <trkpt lat="48.41994" lon="-4.44327">
        <ele>130.1</ele>
        <time>2011-09-04T09:43:33Z</time>
      </trkpt>
      <trkpt lat="48.41988" lon="-4.44329">
        <ele>129.8</ele>
        <time>2011-09-04T09:43:34Z</time>
      </trkpt>
      <trkpt lat="48.41984" lon="-4.44328">
        <ele>129.7</ele>
        <time>2011-09-04T09:43:35Z</time>
      </trkpt>
      <trkpt lat="48.41978" lon="-4.4433">
        <ele>129.5</ele>
        <time>2011-09-04T09:43:36Z</time>
      </trkpt>
      <trkpt lat="48.41973" lon="-4.4433">
        <ele>129.5</ele>
        <time>2011-09-04T09:43:37Z</time>
      </trkpt>
      <trkpt lat="48.41967" lon="-4.4433">
        <ele>129.4</ele>
        <time>2011-09-04T09:43:38Z</time>
      </trkpt>
      <trkpt lat="48.41961" lon="-4.4433">
        <ele>129.2</ele>
        <time>2011-09-04T09:43:39Z</time>
      </trkpt>
      <trkpt lat="48.41955" lon="-4.44332">
        <ele>129.4</ele>
        <time>2011-09-04T09:43:40Z</time>
      </trkpt>
      <trkpt lat="48.4195" lon="-4.44334">
        <ele>129.1</ele>
        <time>2011-09-04T09:43:41Z</time>
      </trkpt>
      <trkpt lat="48.41945" lon="-4.44338">
        <ele>129.1</ele>
        <time>2011-09-04T09:43:42Z</time>
      </trkpt>
      <trkpt lat="48.41942" lon="-4.44342">
        <ele>127.5</ele>
        <time>2011-09-04T09:43:43Z</time>
      </trkpt>
      <trkpt lat="48.41939" lon="-4.44347">
        <ele>127.3</ele>
        <time>2011-09-04T09:43:44Z</time>
      </trkpt>
      <trkpt lat="48.41934" lon="-4.44352">
        <ele>127.4</ele>
        <time>2011-09-04T09:43:45Z</time>
      </trkpt>
      <trkpt lat="48.41927" lon="-4.4436">
        <ele>127.4</ele>
        <time>2011-09-04T09:43:47Z</time>
      </trkpt>
      <trkpt lat="48.41922" lon="-4.4436">
        <ele>127.6</ele>
        <time>2011-09-04T09:43:48Z</time>
      </trkpt>
      <trkpt lat="48.41917" lon="-4.4436">
        <ele>126.6</ele>
        <time>2011-09-04T09:43:49Z</time>
      </trkpt>
      <trkpt lat="48.41912" lon="-4.44357">
        <ele>126.6</ele>
        <time>2011-09-04T09:43:50Z</time>
      </trkpt>
      <trkpt lat="48.41905" lon="-4.44348">
        <ele>127.7</ele>
        <time>2011-09-04T09:43:52Z</time>
      </trkpt>
      <trkpt lat="48.41901" lon="-4.44343">
        <ele>126.8</ele>
        <time>2011-09-04T09:43:53Z</time>
      </trkpt>
      <trkpt lat="48.41896" lon="-4.44339">
        <ele>126.7</ele>
        <time>2011-09-04T09:43:54Z</time>
      </trkpt>
      <trkpt lat="48.41892" lon="-4.44336">
        <ele>126.3</ele>
        <time>2011-09-04T09:43:55Z</time>
      </trkpt>
      <trkpt lat="48.41886" lon="-4.44335">
        <ele>126.1</ele>
        <time>2011-09-04T09:43:56Z</time>
      </trkpt>
      <trkpt lat="48.41881" lon="-4.44334">
        <ele>126.1</ele>
        <time>2011-09-04T09:43:57Z</time>
      </trkpt>
      <trkpt lat="48.41875" lon="-4.44334">
        <ele>126.4</ele>
        <time>2011-09-04T09:43:58Z</time>
      </trkpt>
      <trkpt lat="48.4187" lon="-4.44333">
        <ele>127.1</ele>
        <time>2011-09-04T09:43:59Z</time>
      </trkpt>
      <trkpt lat="48.41865" lon="-4.44333">
        <ele>127.3</ele>
        <time>2011-09-04T09:44:00Z</time>
      </trkpt>
      <trkpt lat="48.41859" lon="-4.44332">
        <ele>127.7</ele>
        <time>2011-09-04T09:44:01Z</time>
      </trkpt>
      <trkpt lat="48.41854" lon="-4.44332">
        <ele>127.6</ele>
        <time>2011-09-04T09:44:02Z</time>
      </trkpt>
      <trkpt lat="48.41848" lon="-4.4433">
        <ele>126.5</ele>
        <time>2011-09-04T09:44:03Z</time>
      </trkpt>
      <trkpt lat="48.41842" lon="-4.4433">
        <ele>126.5</ele>
        <time>2011-09-04T09:44:04Z</time>
      </trkpt>
      <trkpt lat="48.41837" lon="-4.44329">
        <ele>126.7</ele>
        <time>2011-09-04T09:44:05Z</time>
      </trkpt>
      <trkpt lat="48.41831" lon="-4.44328">
        <ele>126.6</ele>
        <time>2011-09-04T09:44:06Z</time>
      </trkpt>
      <trkpt lat="48.41826" lon="-4.44327">
        <ele>126.9</ele>
        <time>2011-09-04T09:44:07Z</time>
      </trkpt>
      <trkpt lat="48.4182" lon="-4.44325">
        <ele>126.2</ele>
        <time>2011-09-04T09:44:08Z</time>
      </trkpt>
      <trkpt lat="48.41814" lon="-4.44325">
        <ele>126.2</ele>
        <time>2011-09-04T09:44:09Z</time>
      </trkpt>
      <trkpt lat="48.4181" lon="-4.44324">
        <ele>125.4</ele>
        <time>2011-09-04T09:44:10Z</time>
      </trkpt>
      <trkpt lat="48.41804" lon="-4.44323">
        <ele>125.5</ele>
        <time>2011-09-04T09:44:11Z</time>
      </trkpt>
      <trkpt lat="48.41798" lon="-4.44322">
        <ele>125.6</ele>
        <time>2011-09-04T09:44:12Z</time>
      </trkpt>
      <trkpt lat="48.41793" lon="-4.44321">
        <ele>125.4</ele>
        <time>2011-09-04T09:44:13Z</time>
      </trkpt>
      <trkpt lat="48.41786" lon="-4.44321">
        <ele>125.5</ele>
        <time>2011-09-04T09:44:14Z</time>
      </trkpt>
      <trkpt lat="48.4178" lon="-4.44321">
        <ele>126.3</ele>
        <time>2011-09-04T09:44:15Z</time>
      </trkpt>
      <trkpt lat="48.41775" lon="-4.44322">
        <ele>125.4</ele>
        <time>2011-09-04T09:44:16Z</time>
      </trkpt>
      <trkpt lat="48.41769" lon="-4.4432">
        <ele>124.6</ele>
        <time>2011-09-04T09:44:17Z</time>
      </trkpt>
      <trkpt lat="48.4176" lon="-4.44322">
        <ele>124.3</ele>
        <time>2011-09-04T09:44:19Z</time>
      </trkpt>
      <trkpt lat="48.41754" lon="-4.44322">
        <ele>124.2</ele>
        <time>2011-09-04T09:44:20Z</time>
      </trkpt>
      <trkpt lat="48.41748" lon="-4.44324">
        <ele>124</ele>
        <time>2011-09-04T09:44:21Z</time>
      </trkpt>
      <trkpt lat="48.41742" lon="-4.44324">
        <ele>123.1</ele>
        <time>2011-09-04T09:44:22Z</time>
      </trkpt>
      <trkpt lat="48.41734" lon="-4.44324">
        <ele>121.5</ele>
        <time>2011-09-04T09:44:23Z</time>
      </trkpt>
      <trkpt lat="48.4173" lon="-4.44325">
        <ele>122.3</ele>
        <time>2011-09-04T09:44:24Z</time>
      </trkpt>
      <trkpt lat="48.41724" lon="-4.44327">
        <ele>121.9</ele>
        <time>2011-09-04T09:44:25Z</time>
      </trkpt>
      <trkpt lat="48.41718" lon="-4.44329">
        <ele>121.9</ele>
        <time>2011-09-04T09:44:26Z</time>
      </trkpt>
      <trkpt lat="48.41712" lon="-4.44329">
        <ele>121.8</ele>
        <time>2011-09-04T09:44:27Z</time>
      </trkpt>
      <trkpt lat="48.41707" lon="-4.44329">
        <ele>121.9</ele>
        <time>2011-09-04T09:44:28Z</time>
      </trkpt>
      <trkpt lat="48.41702" lon="-4.4433">
        <ele>121.7</ele>
        <time>2011-09-04T09:44:29Z</time>
      </trkpt>
      <trkpt lat="48.41697" lon="-4.44331">
        <ele>122</ele>
        <time>2011-09-04T09:44:30Z</time>
      </trkpt>
      <trkpt lat="48.41691" lon="-4.44333">
        <ele>122.1</ele>
        <time>2011-09-04T09:44:31Z</time>
      </trkpt>
      <trkpt lat="48.41685" lon="-4.44334">
        <ele>122.6</ele>
        <time>2011-09-04T09:44:32Z</time>
      </trkpt>
      <trkpt lat="48.41679" lon="-4.44334">
        <ele>122.6</ele>
        <time>2011-09-04T09:44:33Z</time>
      </trkpt>
      <trkpt lat="48.41673" lon="-4.44335">
        <ele>122.4</ele>
        <time>2011-09-04T09:44:34Z</time>
      </trkpt>
      <trkpt lat="48.41668" lon="-4.44334">
        <ele>122.7</ele>
        <time>2011-09-04T09:44:35Z</time>
      </trkpt>
      <trkpt lat="48.41663" lon="-4.44332">
        <ele>122.4</ele>
        <time>2011-09-04T09:44:36Z</time>
      </trkpt>
      <trkpt lat="48.41658" lon="-4.4433">
        <ele>122.6</ele>
        <time>2011-09-04T09:44:37Z</time>
      </trkpt>
      <trkpt lat="48.41653" lon="-4.44328">
        <ele>122.4</ele>
        <time>2011-09-04T09:44:38Z</time>
      </trkpt>
      <trkpt lat="48.41649" lon="-4.44326">
        <ele>122.8</ele>
        <time>2011-09-04T09:44:39Z</time>
      </trkpt>
      <trkpt lat="48.41644" lon="-4.44327">
        <ele>123.5</ele>
        <time>2011-09-04T09:44:40Z</time>
      </trkpt>
      <trkpt lat="48.41639" lon="-4.4433">
        <ele>123.2</ele>
        <time>2011-09-04T09:44:41Z</time>
      </trkpt>
      <trkpt lat="48.41635" lon="-4.44334">
        <ele>122.6</ele>
        <time>2011-09-04T09:44:42Z</time>
      </trkpt>
      <trkpt lat="48.41631" lon="-4.44338">
        <ele>122.1</ele>
        <time>2011-09-04T09:44:43Z</time>
      </trkpt>
      <trkpt lat="48.41627" lon="-4.44344">
        <ele>121.7</ele>
        <time>2011-09-04T09:44:44Z</time>
      </trkpt>
      <trkpt lat="48.41621" lon="-4.44348">
        <ele>121.1</ele>
        <time>2011-09-04T09:44:45Z</time>
      </trkpt>
      <trkpt lat="48.41615" lon="-4.44354">
        <ele>121</ele>
        <time>2011-09-04T09:44:46Z</time>
      </trkpt>
      <trkpt lat="48.4161" lon="-4.4436">
        <ele>121.1</ele>
        <time>2011-09-04T09:44:47Z</time>
      </trkpt>
      <trkpt lat="48.41605" lon="-4.44367">
        <ele>121.3</ele>
        <time>2011-09-04T09:44:48Z</time>
      </trkpt>
      <trkpt lat="48.416" lon="-4.44373">
        <ele>121.2</ele>
        <time>2011-09-04T09:44:49Z</time>
      </trkpt>
      <trkpt lat="48.41591" lon="-4.44379">
        <ele>121.1</ele>
        <time>2011-09-04T09:44:51Z</time>
      </trkpt>
      <trkpt lat="48.41587" lon="-4.44383">
        <ele>121.4</ele>
        <time>2011-09-04T09:44:52Z</time>
      </trkpt>
      <trkpt lat="48.41582" lon="-4.44386">
        <ele>121.8</ele>
        <time>2011-09-04T09:44:53Z</time>
      </trkpt>
      <trkpt lat="48.41577" lon="-4.4439">
        <ele>121.7</ele>
        <time>2011-09-04T09:44:54Z</time>
      </trkpt>
      <trkpt lat="48.41571" lon="-4.44395">
        <ele>122.6</ele>
        <time>2011-09-04T09:44:55Z</time>
      </trkpt>
      <trkpt lat="48.41568" lon="-4.444">
        <ele>122.9</ele>
        <time>2011-09-04T09:44:56Z</time>
      </trkpt>
      <trkpt lat="48.4156" lon="-4.44405">
        <ele>121.6</ele>
        <time>2011-09-04T09:44:58Z</time>
      </trkpt>
      <trkpt lat="48.41555" lon="-4.44407">
        <ele>121</ele>
        <time>2011-09-04T09:44:59Z</time>
      </trkpt>
      <trkpt lat="48.41547" lon="-4.44408">
        <ele>121.7</ele>
        <time>2011-09-04T09:45:01Z</time>
      </trkpt>
      <trkpt lat="48.41539" lon="-4.44413">
        <ele>121.1</ele>
        <time>2011-09-04T09:45:03Z</time>
      </trkpt>
      <trkpt lat="48.41534" lon="-4.44415">
        <ele>120.7</ele>
        <time>2011-09-04T09:45:04Z</time>
      </trkpt>
      <trkpt lat="48.41531" lon="-4.44421">
        <ele>120.8</ele>
        <time>2011-09-04T09:45:05Z</time>
      </trkpt>
      <trkpt lat="48.41526" lon="-4.44425">
        <ele>121.1</ele>
        <time>2011-09-04T09:45:06Z</time>
      </trkpt>
      <trkpt lat="48.41523" lon="-4.4443">
        <ele>120.6</ele>
        <time>2011-09-04T09:45:07Z</time>
      </trkpt>
      <trkpt lat="48.4152" lon="-4.44436">
        <ele>121</ele>
        <time>2011-09-04T09:45:08Z</time>
      </trkpt>
      <trkpt lat="48.41516" lon="-4.44441">
        <ele>121.8</ele>
        <time>2011-09-04T09:45:09Z</time>
      </trkpt>
      <trkpt lat="48.41513" lon="-4.44446">
        <ele>122</ele>
        <time>2011-09-04T09:45:10Z</time>
      </trkpt>
      <trkpt lat="48.41509" lon="-4.44452">
        <ele>122.1</ele>
        <time>2011-09-04T09:45:11Z</time>
      </trkpt>
      <trkpt lat="48.41504" lon="-4.44462">
        <ele>122.1</ele>
        <time>2011-09-04T09:45:13Z</time>
      </trkpt>
      <trkpt lat="48.415" lon="-4.44469">
        <ele>122</ele>
        <time>2011-09-04T09:45:14Z</time>
      </trkpt>
      <trkpt lat="48.415" lon="-4.44476">
        <ele>121.7</ele>
        <time>2011-09-04T09:45:15Z</time>
      </trkpt>
      <trkpt lat="48.41498" lon="-4.44489">
        <ele>120.8</ele>
        <time>2011-09-04T09:45:17Z</time>
      </trkpt>
      <trkpt lat="48.41496" lon="-4.445">
        <ele>120.6</ele>
        <time>2011-09-04T09:45:19Z</time>
      </trkpt>
      <trkpt lat="48.41495" lon="-4.44508">
        <ele>120.5</ele>
        <time>2011-09-04T09:45:21Z</time>
      </trkpt>
      <trkpt lat="48.41493" lon="-4.44519">
        <ele>120.1</ele>
        <time>2011-09-04T09:45:23Z</time>
      </trkpt>
      <trkpt lat="48.4149" lon="-4.44531">
        <ele>119.8</ele>
        <time>2011-09-04T09:45:25Z</time>
      </trkpt>
      <trkpt lat="48.4149" lon="-4.4454">
        <ele>119.1</ele>
        <time>2011-09-04T09:45:26Z</time>
      </trkpt>
      <trkpt lat="48.41486" lon="-4.44549">
        <ele>116.7</ele>
        <time>2011-09-04T09:45:28Z</time>
      </trkpt>
      <trkpt lat="48.41482" lon="-4.4456">
        <ele>116.5</ele>
        <time>2011-09-04T09:45:30Z</time>
      </trkpt>
      <trkpt lat="48.4148" lon="-4.44568">
        <ele>115.6</ele>
        <time>2011-09-04T09:45:31Z</time>
      </trkpt>
      <trkpt lat="48.41479" lon="-4.44575">
        <ele>114.8</ele>
        <time>2011-09-04T09:45:32Z</time>
      </trkpt>
      <trkpt lat="48.41476" lon="-4.44586">
        <ele>113.9</ele>
        <time>2011-09-04T09:45:34Z</time>
      </trkpt>
      <trkpt lat="48.41473" lon="-4.44595">
        <ele>114.3</ele>
        <time>2011-09-04T09:45:36Z</time>
      </trkpt>
      <trkpt lat="48.4147" lon="-4.44603">
        <ele>115</ele>
        <time>2011-09-04T09:45:38Z</time>
      </trkpt>
      <trkpt lat="48.41468" lon="-4.4461">
        <ele>115.1</ele>
        <time>2011-09-04T09:45:40Z</time>
      </trkpt>
      <trkpt lat="48.4147" lon="-4.44617">
        <ele>116.8</ele>
        <time>2011-09-04T09:45:43Z</time>
      </trkpt>
      <trkpt lat="48.41476" lon="-4.44612">
        <ele>117.4</ele>
        <time>2011-09-04T09:45:46Z</time>
      </trkpt>
      <trkpt lat="48.41479" lon="-4.44605">
        <ele>117.5</ele>
        <time>2011-09-04T09:45:48Z</time>
      </trkpt>
      <trkpt lat="48.41482" lon="-4.44595">
        <ele>117</ele>
        <time>2011-09-04T09:45:50Z</time>
      </trkpt>
      <trkpt lat="48.41488" lon="-4.44585">
        <ele>116.5</ele>
        <time>2011-09-04T09:45:52Z</time>
      </trkpt>
      <trkpt lat="48.4149" lon="-4.4458">
        <ele>116</ele>
        <time>2011-09-04T09:45:53Z</time>
      </trkpt>
      <trkpt lat="48.41493" lon="-4.44573">
        <ele>116</ele>
        <time>2011-09-04T09:45:54Z</time>
      </trkpt>
      <trkpt lat="48.41496" lon="-4.44566">
        <ele>115.8</ele>
        <time>2011-09-04T09:45:55Z</time>
      </trkpt>
      <trkpt lat="48.41499" lon="-4.44561">
        <ele>115.3</ele>
        <time>2011-09-04T09:45:56Z</time>
      </trkpt>
      <trkpt lat="48.41503" lon="-4.44557">
        <ele>115.4</ele>
        <time>2011-09-04T09:45:57Z</time>
      </trkpt>
      <trkpt lat="48.41508" lon="-4.44556">
        <ele>114.6</ele>
        <time>2011-09-04T09:46:00Z</time>
      </trkpt>
      <trkpt lat="48.4151" lon="-4.44549">
        <ele>114.7</ele>
        <time>2011-09-04T09:46:06Z</time>
      </trkpt>
      <trkpt lat="48.41513" lon="-4.44554">
        <ele>119.4</ele>
        <time>2011-09-04T09:46:21Z</time>
      </trkpt>
      <trkpt lat="48.41517" lon="-4.44558">
        <ele>119</ele>
        <time>2011-09-04T09:46:25Z</time>
      </trkpt>
      <trkpt lat="48.41521" lon="-4.44562">
        <ele>118.9</ele>
        <time>2011-09-04T09:46:28Z</time>
      </trkpt>
      <trkpt lat="48.41526" lon="-4.44567">
        <ele>120.3</ele>
        <time>2011-09-04T09:46:31Z</time>
      </trkpt>
      <trkpt lat="48.41531" lon="-4.44572">
        <ele>121.4</ele>
        <time>2011-09-04T09:46:34Z</time>
      </trkpt>
      <trkpt lat="48.41535" lon="-4.44576">
        <ele>121.1</ele>
        <time>2011-09-04T09:46:37Z</time>
      </trkpt>
      <trkpt lat="48.4153" lon="-4.44574">
        <ele>122.5</ele>
        <time>2011-09-04T09:46:49Z</time>
      </trkpt>
      <trkpt lat="48.41527" lon="-4.44567">
        <ele>121.5</ele>
        <time>2011-09-04T09:46:56Z</time>
      </trkpt>
      <trkpt lat="48.41522" lon="-4.44563">
        <ele>123</ele>
        <time>2011-09-04T09:47:00Z</time>
      </trkpt>
      <trkpt lat="48.41519" lon="-4.44558">
        <ele>126.8</ele>
        <time>2011-09-04T09:47:03Z</time>
      </trkpt>
      <trkpt lat="48.41514" lon="-4.44556">
        <ele>124.7</ele>
        <time>2011-09-04T09:47:05Z</time>
      </trkpt>
      <trkpt lat="48.41509" lon="-4.44553">
        <ele>124.3</ele>
        <time>2011-09-04T09:47:08Z</time>
      </trkpt>
      <trkpt lat="48.41504" lon="-4.4455">
        <ele>124.1</ele>
        <time>2011-09-04T09:47:11Z</time>
      </trkpt>
      <trkpt lat="48.41499" lon="-4.44548">
        <ele>123.7</ele>
        <time>2011-09-04T09:47:15Z</time>
      </trkpt>
      <trkpt lat="48.41503" lon="-4.44544">
        <ele>123</ele>
        <time>2011-09-04T09:47:24Z</time>
      </trkpt>
      <trkpt lat="48.41506" lon="-4.4455">
        <ele>121.8</ele>
        <time>2011-09-04T09:47:37Z</time>
      </trkpt>
      <trkpt lat="48.41507" lon="-4.44557">
        <ele>121.4</ele>
        <time>2011-09-04T09:47:39Z</time>
      </trkpt>
      <trkpt lat="48.41496" lon="-4.44539">
        <ele>120.4</ele>
        <time>2011-09-04T09:47:43Z</time>
      </trkpt>
      <trkpt lat="48.41495" lon="-4.44533">
        <ele>119.9</ele>
        <time>2011-09-04T09:48:16Z</time>
      </trkpt>
      <trkpt lat="48.41495" lon="-4.44533">
        <ele>119.9</ele>
        <time>2011-09-04T09:48:16Z</time>
      </trkpt>
    </trkseg>
  </trk>
</gpx>